<?xml version="1.0" encoding="UTF-8" standalone="no" ?>
<gpx xmlns="http://www.topografix.com/GPX/1/1" xmlns:xsi="http://www.w3.org/2001/XMLSchema-instance" xsi:schemaLocation="http://www.topografix.com/GPX/1/1 http://www.topografix.com/GPX/1/1/gpx.xsd" version="1.1" creator="VisuGPX - https://www.visugpx.com">
  <metadata>
    <name>L'Escale enduro V.T.T.</name>
    <desc><![CDATA[Beau coup d'oeil sur la crête mais intéret enduro bien moyen...]]></desc>
  </metadata>
  <trk>
    <name><![CDATA[L'Escale enduro V.T.T._1]]></name>
    <trkseg>
      <trkpt lat="44.09283" lon="6.02167">
        <ele>436.6</ele>
        <time>2021-08-24T07:31:18Z</time>
      </trkpt>
      <trkpt lat="44.09283" lon="6.02168">
        <ele>436.6</ele>
        <time>2021-08-24T07:31:19Z</time>
      </trkpt>
      <trkpt lat="44.09285" lon="6.02167">
        <ele>437</ele>
        <time>2021-08-24T07:31:21Z</time>
      </trkpt>
      <trkpt lat="44.0929" lon="6.02168">
        <ele>437</ele>
        <time>2021-08-24T07:31:25Z</time>
      </trkpt>
      <trkpt lat="44.09298" lon="6.02172">
        <ele>436.8</ele>
        <time>2021-08-24T07:31:28Z</time>
      </trkpt>
      <trkpt lat="44.09304" lon="6.02181">
        <ele>436.6</ele>
        <time>2021-08-24T07:31:31Z</time>
      </trkpt>
      <trkpt lat="44.09317" lon="6.02208">
        <ele>437.4</ele>
        <time>2021-08-24T07:31:41Z</time>
      </trkpt>
      <trkpt lat="44.09319" lon="6.02214">
        <ele>437.4</ele>
        <time>2021-08-24T07:31:51Z</time>
      </trkpt>
      <trkpt lat="44.09321" lon="6.02218">
        <ele>437.2</ele>
        <time>2021-08-24T07:31:53Z</time>
      </trkpt>
      <trkpt lat="44.09335" lon="6.0223">
        <ele>437.6</ele>
        <time>2021-08-24T07:31:59Z</time>
      </trkpt>
      <trkpt lat="44.09341" lon="6.02232">
        <ele>438</ele>
        <time>2021-08-24T07:32:01Z</time>
      </trkpt>
      <trkpt lat="44.09348" lon="6.02235">
        <ele>438.6</ele>
        <time>2021-08-24T07:32:03Z</time>
      </trkpt>
      <trkpt lat="44.09356" lon="6.02241">
        <ele>439.8</ele>
        <time>2021-08-24T07:32:06Z</time>
      </trkpt>
      <trkpt lat="44.09373" lon="6.02253">
        <ele>440</ele>
        <time>2021-08-24T07:32:11Z</time>
      </trkpt>
      <trkpt lat="44.09407" lon="6.02283">
        <ele>439.2</ele>
        <time>2021-08-24T07:32:21Z</time>
      </trkpt>
      <trkpt lat="44.09422" lon="6.02295">
        <ele>439.2</ele>
        <time>2021-08-24T07:32:25Z</time>
      </trkpt>
      <trkpt lat="44.09438" lon="6.02303">
        <ele>439.4</ele>
        <time>2021-08-24T07:32:28Z</time>
      </trkpt>
      <trkpt lat="44.09446" lon="6.02308">
        <ele>439.4</ele>
        <time>2021-08-24T07:32:30Z</time>
      </trkpt>
      <trkpt lat="44.0945" lon="6.0231">
        <ele>439.2</ele>
        <time>2021-08-24T07:32:31Z</time>
      </trkpt>
      <trkpt lat="44.09459" lon="6.02313">
        <ele>439</ele>
        <time>2021-08-24T07:32:33Z</time>
      </trkpt>
      <trkpt lat="44.09464" lon="6.02313">
        <ele>438.8</ele>
        <time>2021-08-24T07:32:34Z</time>
      </trkpt>
      <trkpt lat="44.09482" lon="6.02313">
        <ele>438.8</ele>
        <time>2021-08-24T07:32:38Z</time>
      </trkpt>
      <trkpt lat="44.0949" lon="6.02313">
        <ele>438.8</ele>
        <time>2021-08-24T07:32:40Z</time>
      </trkpt>
      <trkpt lat="44.09494" lon="6.02313">
        <ele>439</ele>
        <time>2021-08-24T07:32:41Z</time>
      </trkpt>
      <trkpt lat="44.09514" lon="6.02316">
        <ele>439.4</ele>
        <time>2021-08-24T07:32:46Z</time>
      </trkpt>
      <trkpt lat="44.09534" lon="6.02322">
        <ele>439.4</ele>
        <time>2021-08-24T07:32:51Z</time>
      </trkpt>
      <trkpt lat="44.09573" lon="6.0234">
        <ele>439.4</ele>
        <time>2021-08-24T07:33:01Z</time>
      </trkpt>
      <trkpt lat="44.09585" lon="6.02345">
        <ele>439.4</ele>
        <time>2021-08-24T07:33:04Z</time>
      </trkpt>
      <trkpt lat="44.09596" lon="6.0235">
        <ele>439.2</ele>
        <time>2021-08-24T07:33:07Z</time>
      </trkpt>
      <trkpt lat="44.09607" lon="6.02356">
        <ele>439</ele>
        <time>2021-08-24T07:33:10Z</time>
      </trkpt>
      <trkpt lat="44.09611" lon="6.02359">
        <ele>439</ele>
        <time>2021-08-24T07:33:11Z</time>
      </trkpt>
      <trkpt lat="44.09621" lon="6.02365">
        <ele>438.8</ele>
        <time>2021-08-24T07:33:13Z</time>
      </trkpt>
      <trkpt lat="44.09631" lon="6.02372">
        <ele>438.6</ele>
        <time>2021-08-24T07:33:15Z</time>
      </trkpt>
      <trkpt lat="44.09642" lon="6.02379">
        <ele>438.2</ele>
        <time>2021-08-24T07:33:17Z</time>
      </trkpt>
      <trkpt lat="44.09648" lon="6.02383">
        <ele>438</ele>
        <time>2021-08-24T07:33:18Z</time>
      </trkpt>
      <trkpt lat="44.09665" lon="6.02394">
        <ele>437.8</ele>
        <time>2021-08-24T07:33:21Z</time>
      </trkpt>
      <trkpt lat="44.09691" lon="6.02405">
        <ele>437.6</ele>
        <time>2021-08-24T07:33:26Z</time>
      </trkpt>
      <trkpt lat="44.097" lon="6.02405">
        <ele>437.6</ele>
        <time>2021-08-24T07:33:28Z</time>
      </trkpt>
      <trkpt lat="44.09712" lon="6.024">
        <ele>437.8</ele>
        <time>2021-08-24T07:33:31Z</time>
      </trkpt>
      <trkpt lat="44.09743" lon="6.02399">
        <ele>438.2</ele>
        <time>2021-08-24T07:33:39Z</time>
      </trkpt>
      <trkpt lat="44.09753" lon="6.02402">
        <ele>438.2</ele>
        <time>2021-08-24T07:33:41Z</time>
      </trkpt>
      <trkpt lat="44.09775" lon="6.02408">
        <ele>437.8</ele>
        <time>2021-08-24T07:33:45Z</time>
      </trkpt>
      <trkpt lat="44.09801" lon="6.02411">
        <ele>437.6</ele>
        <time>2021-08-24T07:33:50Z</time>
      </trkpt>
      <trkpt lat="44.09806" lon="6.02411">
        <ele>437.4</ele>
        <time>2021-08-24T07:33:51Z</time>
      </trkpt>
      <trkpt lat="44.09863" lon="6.02404">
        <ele>436.8</ele>
        <time>2021-08-24T07:34:01Z</time>
      </trkpt>
      <trkpt lat="44.09889" lon="6.02407">
        <ele>436.6</ele>
        <time>2021-08-24T07:34:05Z</time>
      </trkpt>
      <trkpt lat="44.09907" lon="6.0241">
        <ele>436.6</ele>
        <time>2021-08-24T07:34:08Z</time>
      </trkpt>
      <trkpt lat="44.09928" lon="6.02408">
        <ele>436.4</ele>
        <time>2021-08-24T07:34:11Z</time>
      </trkpt>
      <trkpt lat="44.09953" lon="6.02401">
        <ele>438</ele>
        <time>2021-08-24T07:34:16Z</time>
      </trkpt>
      <trkpt lat="44.09969" lon="6.02394">
        <ele>439</ele>
        <time>2021-08-24T07:34:21Z</time>
      </trkpt>
      <trkpt lat="44.09972" lon="6.02392">
        <ele>439.2</ele>
        <time>2021-08-24T07:34:22Z</time>
      </trkpt>
      <trkpt lat="44.09997" lon="6.02375">
        <ele>440</ele>
        <time>2021-08-24T07:34:31Z</time>
      </trkpt>
      <trkpt lat="44.10006" lon="6.02366">
        <ele>440.2</ele>
        <time>2021-08-24T07:34:34Z</time>
      </trkpt>
      <trkpt lat="44.10015" lon="6.02355">
        <ele>440.6</ele>
        <time>2021-08-24T07:34:38Z</time>
      </trkpt>
      <trkpt lat="44.1002" lon="6.02347">
        <ele>441.2</ele>
        <time>2021-08-24T07:34:41Z</time>
      </trkpt>
      <trkpt lat="44.10033" lon="6.02335">
        <ele>442</ele>
        <time>2021-08-24T07:34:49Z</time>
      </trkpt>
      <trkpt lat="44.10038" lon="6.02335">
        <ele>442.2</ele>
        <time>2021-08-24T07:34:51Z</time>
      </trkpt>
      <trkpt lat="44.10065" lon="6.02338">
        <ele>442.4</ele>
        <time>2021-08-24T07:35:01Z</time>
      </trkpt>
      <trkpt lat="44.10087" lon="6.02351">
        <ele>442.2</ele>
        <time>2021-08-24T07:35:09Z</time>
      </trkpt>
      <trkpt lat="44.10092" lon="6.02356">
        <ele>442.2</ele>
        <time>2021-08-24T07:35:11Z</time>
      </trkpt>
      <trkpt lat="44.10119" lon="6.02378">
        <ele>441.6</ele>
        <time>2021-08-24T07:35:21Z</time>
      </trkpt>
      <trkpt lat="44.10145" lon="6.02396">
        <ele>441.2</ele>
        <time>2021-08-24T07:35:29Z</time>
      </trkpt>
      <trkpt lat="44.10152" lon="6.02404">
        <ele>441</ele>
        <time>2021-08-24T07:35:31Z</time>
      </trkpt>
      <trkpt lat="44.1018" lon="6.02421">
        <ele>442</ele>
        <time>2021-08-24T07:35:41Z</time>
      </trkpt>
      <trkpt lat="44.102" lon="6.02432">
        <ele>442.2</ele>
        <time>2021-08-24T07:35:46Z</time>
      </trkpt>
      <trkpt lat="44.10215" lon="6.02445">
        <ele>441.6</ele>
        <time>2021-08-24T07:35:50Z</time>
      </trkpt>
      <trkpt lat="44.10217" lon="6.02445">
        <ele>441</ele>
        <time>2021-08-24T07:35:51Z</time>
      </trkpt>
      <trkpt lat="44.10219" lon="6.02443">
        <ele>440.2</ele>
        <time>2021-08-24T07:35:53Z</time>
      </trkpt>
      <trkpt lat="44.10219" lon="6.0244">
        <ele>440</ele>
        <time>2021-08-24T07:35:55Z</time>
      </trkpt>
      <trkpt lat="44.10209" lon="6.02426">
        <ele>439.6</ele>
        <time>2021-08-24T07:36:01Z</time>
      </trkpt>
      <trkpt lat="44.10192" lon="6.02414">
        <ele>439</ele>
        <time>2021-08-24T07:36:08Z</time>
      </trkpt>
      <trkpt lat="44.10184" lon="6.02406">
        <ele>438.6</ele>
        <time>2021-08-24T07:36:11Z</time>
      </trkpt>
      <trkpt lat="44.1017" lon="6.02391">
        <ele>438.2</ele>
        <time>2021-08-24T07:36:16Z</time>
      </trkpt>
      <trkpt lat="44.10164" lon="6.02382">
        <ele>437.8</ele>
        <time>2021-08-24T07:36:18Z</time>
      </trkpt>
      <trkpt lat="44.10151" lon="6.02363">
        <ele>437.2</ele>
        <time>2021-08-24T07:36:21Z</time>
      </trkpt>
      <trkpt lat="44.1014" lon="6.02353">
        <ele>436.8</ele>
        <time>2021-08-24T07:36:23Z</time>
      </trkpt>
      <trkpt lat="44.10128" lon="6.02341">
        <ele>436.4</ele>
        <time>2021-08-24T07:36:25Z</time>
      </trkpt>
      <trkpt lat="44.10123" lon="6.02328">
        <ele>436</ele>
        <time>2021-08-24T07:36:27Z</time>
      </trkpt>
      <trkpt lat="44.10113" lon="6.02305">
        <ele>435.8</ele>
        <time>2021-08-24T07:36:31Z</time>
      </trkpt>
      <trkpt lat="44.10111" lon="6.02297">
        <ele>436</ele>
        <time>2021-08-24T07:36:33Z</time>
      </trkpt>
      <trkpt lat="44.10121" lon="6.02282">
        <ele>436</ele>
        <time>2021-08-24T07:36:37Z</time>
      </trkpt>
      <trkpt lat="44.1013" lon="6.02283">
        <ele>436</ele>
        <time>2021-08-24T07:36:39Z</time>
      </trkpt>
      <trkpt lat="44.1014" lon="6.02287">
        <ele>435.8</ele>
        <time>2021-08-24T07:36:41Z</time>
      </trkpt>
      <trkpt lat="44.10149" lon="6.02292">
        <ele>435.8</ele>
        <time>2021-08-24T07:36:43Z</time>
      </trkpt>
      <trkpt lat="44.10164" lon="6.02299">
        <ele>435.6</ele>
        <time>2021-08-24T07:36:46Z</time>
      </trkpt>
      <trkpt lat="44.10179" lon="6.02306">
        <ele>435.8</ele>
        <time>2021-08-24T07:36:49Z</time>
      </trkpt>
      <trkpt lat="44.10187" lon="6.02305">
        <ele>435.8</ele>
        <time>2021-08-24T07:36:51Z</time>
      </trkpt>
      <trkpt lat="44.10196" lon="6.02297">
        <ele>435.6</ele>
        <time>2021-08-24T07:36:53Z</time>
      </trkpt>
      <trkpt lat="44.10206" lon="6.02279">
        <ele>435.4</ele>
        <time>2021-08-24T07:36:56Z</time>
      </trkpt>
      <trkpt lat="44.10211" lon="6.02268">
        <ele>435.2</ele>
        <time>2021-08-24T07:36:58Z</time>
      </trkpt>
      <trkpt lat="44.10217" lon="6.02254">
        <ele>435.4</ele>
        <time>2021-08-24T07:37:01Z</time>
      </trkpt>
      <trkpt lat="44.10223" lon="6.02223">
        <ele>435.6</ele>
        <time>2021-08-24T07:37:07Z</time>
      </trkpt>
      <trkpt lat="44.10225" lon="6.02217">
        <ele>435.4</ele>
        <time>2021-08-24T07:37:08Z</time>
      </trkpt>
      <trkpt lat="44.1023" lon="6.02207">
        <ele>435.4</ele>
        <time>2021-08-24T07:37:10Z</time>
      </trkpt>
      <trkpt lat="44.10232" lon="6.02201">
        <ele>435.4</ele>
        <time>2021-08-24T07:37:11Z</time>
      </trkpt>
      <trkpt lat="44.10237" lon="6.02189">
        <ele>435.4</ele>
        <time>2021-08-24T07:37:13Z</time>
      </trkpt>
      <trkpt lat="44.10241" lon="6.02177">
        <ele>435.4</ele>
        <time>2021-08-24T07:37:15Z</time>
      </trkpt>
      <trkpt lat="44.10248" lon="6.02156">
        <ele>435.2</ele>
        <time>2021-08-24T07:37:19Z</time>
      </trkpt>
      <trkpt lat="44.10249" lon="6.02145">
        <ele>435.2</ele>
        <time>2021-08-24T07:37:21Z</time>
      </trkpt>
      <trkpt lat="44.10249" lon="6.02112">
        <ele>435.4</ele>
        <time>2021-08-24T07:37:27Z</time>
      </trkpt>
      <trkpt lat="44.10247" lon="6.02088">
        <ele>435.2</ele>
        <time>2021-08-24T07:37:31Z</time>
      </trkpt>
      <trkpt lat="44.10257" lon="6.02044">
        <ele>435.4</ele>
        <time>2021-08-24T07:37:41Z</time>
      </trkpt>
      <trkpt lat="44.10279" lon="6.01998">
        <ele>435.4</ele>
        <time>2021-08-24T07:37:51Z</time>
      </trkpt>
      <trkpt lat="44.10297" lon="6.01954">
        <ele>435.4</ele>
        <time>2021-08-24T07:38:01Z</time>
      </trkpt>
      <trkpt lat="44.10296" lon="6.01932">
        <ele>435.4</ele>
        <time>2021-08-24T07:38:07Z</time>
      </trkpt>
      <trkpt lat="44.10289" lon="6.01918">
        <ele>435.6</ele>
        <time>2021-08-24T07:38:11Z</time>
      </trkpt>
      <trkpt lat="44.10288" lon="6.01869">
        <ele>435.6</ele>
        <time>2021-08-24T07:38:21Z</time>
      </trkpt>
      <trkpt lat="44.10283" lon="6.01841">
        <ele>435.8</ele>
        <time>2021-08-24T07:38:26Z</time>
      </trkpt>
      <trkpt lat="44.10281" lon="6.0181">
        <ele>435.8</ele>
        <time>2021-08-24T07:38:31Z</time>
      </trkpt>
      <trkpt lat="44.10278" lon="6.01767">
        <ele>436.2</ele>
        <time>2021-08-24T07:38:41Z</time>
      </trkpt>
      <trkpt lat="44.10282" lon="6.01748">
        <ele>436.2</ele>
        <time>2021-08-24T07:38:45Z</time>
      </trkpt>
      <trkpt lat="44.10296" lon="6.01741">
        <ele>436</ele>
        <time>2021-08-24T07:38:51Z</time>
      </trkpt>
      <trkpt lat="44.10297" lon="6.01739">
        <ele>436</ele>
        <time>2021-08-24T07:38:55Z</time>
      </trkpt>
      <trkpt lat="44.10292" lon="6.01737">
        <ele>436</ele>
        <time>2021-08-24T07:38:58Z</time>
      </trkpt>
      <trkpt lat="44.10286" lon="6.01734">
        <ele>436</ele>
        <time>2021-08-24T07:39:01Z</time>
      </trkpt>
      <trkpt lat="44.10281" lon="6.0173">
        <ele>436</ele>
        <time>2021-08-24T07:39:03Z</time>
      </trkpt>
      <trkpt lat="44.10279" lon="6.01728">
        <ele>436</ele>
        <time>2021-08-24T07:39:04Z</time>
      </trkpt>
      <trkpt lat="44.10273" lon="6.01711">
        <ele>436.2</ele>
        <time>2021-08-24T07:39:10Z</time>
      </trkpt>
      <trkpt lat="44.10273" lon="6.01708">
        <ele>436</ele>
        <time>2021-08-24T07:39:11Z</time>
      </trkpt>
      <trkpt lat="44.10275" lon="6.01693">
        <ele>436</ele>
        <time>2021-08-24T07:39:15Z</time>
      </trkpt>
      <trkpt lat="44.10278" lon="6.01671">
        <ele>436</ele>
        <time>2021-08-24T07:39:21Z</time>
      </trkpt>
      <trkpt lat="44.10289" lon="6.01637">
        <ele>435.8</ele>
        <time>2021-08-24T07:39:31Z</time>
      </trkpt>
      <trkpt lat="44.10304" lon="6.01601">
        <ele>435.8</ele>
        <time>2021-08-24T07:39:41Z</time>
      </trkpt>
      <trkpt lat="44.10311" lon="6.01586">
        <ele>435.8</ele>
        <time>2021-08-24T07:39:45Z</time>
      </trkpt>
      <trkpt lat="44.10321" lon="6.01561">
        <ele>435.8</ele>
        <time>2021-08-24T07:39:51Z</time>
      </trkpt>
      <trkpt lat="44.10341" lon="6.01517">
        <ele>435.6</ele>
        <time>2021-08-24T07:40:01Z</time>
      </trkpt>
      <trkpt lat="44.10362" lon="6.01486">
        <ele>435.8</ele>
        <time>2021-08-24T07:40:10Z</time>
      </trkpt>
      <trkpt lat="44.10364" lon="6.01482">
        <ele>435.8</ele>
        <time>2021-08-24T07:40:11Z</time>
      </trkpt>
      <trkpt lat="44.10388" lon="6.01447">
        <ele>435.2</ele>
        <time>2021-08-24T07:40:21Z</time>
      </trkpt>
      <trkpt lat="44.10415" lon="6.01411">
        <ele>435</ele>
        <time>2021-08-24T07:40:31Z</time>
      </trkpt>
      <trkpt lat="44.10442" lon="6.01382">
        <ele>435</ele>
        <time>2021-08-24T07:40:41Z</time>
      </trkpt>
      <trkpt lat="44.10468" lon="6.01354">
        <ele>435.2</ele>
        <time>2021-08-24T07:40:51Z</time>
      </trkpt>
      <trkpt lat="44.10495" lon="6.01325">
        <ele>434.6</ele>
        <time>2021-08-24T07:41:01Z</time>
      </trkpt>
      <trkpt lat="44.1051" lon="6.01311">
        <ele>434.6</ele>
        <time>2021-08-24T07:41:07Z</time>
      </trkpt>
      <trkpt lat="44.10517" lon="6.01302">
        <ele>434.8</ele>
        <time>2021-08-24T07:41:11Z</time>
      </trkpt>
      <trkpt lat="44.10523" lon="6.01295">
        <ele>435.2</ele>
        <time>2021-08-24T07:41:15Z</time>
      </trkpt>
      <trkpt lat="44.10535" lon="6.01299">
        <ele>435.6</ele>
        <time>2021-08-24T07:41:21Z</time>
      </trkpt>
      <trkpt lat="44.1056" lon="6.01293">
        <ele>434.8</ele>
        <time>2021-08-24T07:41:31Z</time>
      </trkpt>
      <trkpt lat="44.10592" lon="6.01288">
        <ele>434.8</ele>
        <time>2021-08-24T07:41:40Z</time>
      </trkpt>
      <trkpt lat="44.10593" lon="6.01288">
        <ele>434.8</ele>
        <time>2021-08-24T07:41:41Z</time>
      </trkpt>
      <trkpt lat="44.10598" lon="6.01291">
        <ele>434.8</ele>
        <time>2021-08-24T07:41:51Z</time>
      </trkpt>
      <trkpt lat="44.106" lon="6.01296">
        <ele>434.8</ele>
        <time>2021-08-24T07:41:54Z</time>
      </trkpt>
      <trkpt lat="44.10595" lon="6.01298">
        <ele>434.8</ele>
        <time>2021-08-24T07:41:58Z</time>
      </trkpt>
      <trkpt lat="44.10594" lon="6.01305">
        <ele>435</ele>
        <time>2021-08-24T07:42:01Z</time>
      </trkpt>
      <trkpt lat="44.10594" lon="6.01311">
        <ele>435.8</ele>
        <time>2021-08-24T07:42:04Z</time>
      </trkpt>
      <trkpt lat="44.10601" lon="6.01321">
        <ele>437</ele>
        <time>2021-08-24T07:42:08Z</time>
      </trkpt>
      <trkpt lat="44.10606" lon="6.0133">
        <ele>437.2</ele>
        <time>2021-08-24T07:42:11Z</time>
      </trkpt>
      <trkpt lat="44.10611" lon="6.01338">
        <ele>437.6</ele>
        <time>2021-08-24T07:42:14Z</time>
      </trkpt>
      <trkpt lat="44.10617" lon="6.01348">
        <ele>438</ele>
        <time>2021-08-24T07:42:18Z</time>
      </trkpt>
      <trkpt lat="44.10625" lon="6.01356">
        <ele>438.2</ele>
        <time>2021-08-24T07:42:21Z</time>
      </trkpt>
      <trkpt lat="44.10647" lon="6.01385">
        <ele>438.8</ele>
        <time>2021-08-24T07:42:31Z</time>
      </trkpt>
      <trkpt lat="44.10656" lon="6.01396">
        <ele>439</ele>
        <time>2021-08-24T07:42:35Z</time>
      </trkpt>
      <trkpt lat="44.10669" lon="6.01412">
        <ele>439.4</ele>
        <time>2021-08-24T07:42:41Z</time>
      </trkpt>
      <trkpt lat="44.10683" lon="6.01431">
        <ele>440.2</ele>
        <time>2021-08-24T07:42:48Z</time>
      </trkpt>
      <trkpt lat="44.10689" lon="6.0144">
        <ele>440.6</ele>
        <time>2021-08-24T07:42:51Z</time>
      </trkpt>
      <trkpt lat="44.10698" lon="6.0145">
        <ele>441.2</ele>
        <time>2021-08-24T07:42:55Z</time>
      </trkpt>
      <trkpt lat="44.10711" lon="6.01468">
        <ele>441.8</ele>
        <time>2021-08-24T07:43:01Z</time>
      </trkpt>
      <trkpt lat="44.10729" lon="6.01495">
        <ele>442.4</ele>
        <time>2021-08-24T07:43:10Z</time>
      </trkpt>
      <trkpt lat="44.10731" lon="6.01497">
        <ele>442.6</ele>
        <time>2021-08-24T07:43:11Z</time>
      </trkpt>
      <trkpt lat="44.10754" lon="6.01518">
        <ele>443.2</ele>
        <time>2021-08-24T07:43:21Z</time>
      </trkpt>
      <trkpt lat="44.10758" lon="6.01522">
        <ele>443.4</ele>
        <time>2021-08-24T07:43:23Z</time>
      </trkpt>
      <trkpt lat="44.10774" lon="6.01529">
        <ele>444.6</ele>
        <time>2021-08-24T07:43:30Z</time>
      </trkpt>
      <trkpt lat="44.10776" lon="6.0153">
        <ele>444.6</ele>
        <time>2021-08-24T07:43:31Z</time>
      </trkpt>
      <trkpt lat="44.10788" lon="6.01535">
        <ele>445</ele>
        <time>2021-08-24T07:43:35Z</time>
      </trkpt>
      <trkpt lat="44.10805" lon="6.01541">
        <ele>444.8</ele>
        <time>2021-08-24T07:43:41Z</time>
      </trkpt>
      <trkpt lat="44.10831" lon="6.01529">
        <ele>444.2</ele>
        <time>2021-08-24T07:43:51Z</time>
      </trkpt>
      <trkpt lat="44.10852" lon="6.01495">
        <ele>443.2</ele>
        <time>2021-08-24T07:43:57Z</time>
      </trkpt>
      <trkpt lat="44.10861" lon="6.01482">
        <ele>442.4</ele>
        <time>2021-08-24T07:44:01Z</time>
      </trkpt>
      <trkpt lat="44.10867" lon="6.01475">
        <ele>442</ele>
        <time>2021-08-24T07:44:03Z</time>
      </trkpt>
      <trkpt lat="44.10878" lon="6.01469">
        <ele>441</ele>
        <time>2021-08-24T07:44:05Z</time>
      </trkpt>
      <trkpt lat="44.10883" lon="6.01468">
        <ele>440.6</ele>
        <time>2021-08-24T07:44:06Z</time>
      </trkpt>
      <trkpt lat="44.10889" lon="6.01468">
        <ele>440.4</ele>
        <time>2021-08-24T07:44:07Z</time>
      </trkpt>
      <trkpt lat="44.10903" lon="6.01466">
        <ele>440.2</ele>
        <time>2021-08-24T07:44:11Z</time>
      </trkpt>
      <trkpt lat="44.10915" lon="6.01466">
        <ele>440</ele>
        <time>2021-08-24T07:44:20Z</time>
      </trkpt>
      <trkpt lat="44.10915" lon="6.01466">
        <ele>440</ele>
        <time>2021-08-24T07:44:21Z</time>
      </trkpt>
      <trkpt lat="44.10917" lon="6.01458">
        <ele>440</ele>
        <time>2021-08-24T07:44:31Z</time>
      </trkpt>
      <trkpt lat="44.10921" lon="6.01454">
        <ele>440</ele>
        <time>2021-08-24T07:44:40Z</time>
      </trkpt>
      <trkpt lat="44.10921" lon="6.01453">
        <ele>440</ele>
        <time>2021-08-24T07:44:41Z</time>
      </trkpt>
      <trkpt lat="44.10922" lon="6.01453">
        <ele>440</ele>
        <time>2021-08-24T07:44:42Z</time>
      </trkpt>
      <trkpt lat="44.10922" lon="6.01452">
        <ele>440.2</ele>
        <time>2021-08-24T07:44:47Z</time>
      </trkpt>
      <trkpt lat="44.10924" lon="6.01449">
        <ele>440.4</ele>
        <time>2021-08-24T07:44:51Z</time>
      </trkpt>
      <trkpt lat="44.10925" lon="6.01446">
        <ele>440.8</ele>
        <time>2021-08-24T07:44:54Z</time>
      </trkpt>
      <trkpt lat="44.10925" lon="6.01442">
        <ele>441.2</ele>
        <time>2021-08-24T07:44:57Z</time>
      </trkpt>
      <trkpt lat="44.10926" lon="6.01441">
        <ele>441.4</ele>
        <time>2021-08-24T07:45:00Z</time>
      </trkpt>
      <trkpt lat="44.10926" lon="6.01441">
        <ele>441.6</ele>
        <time>2021-08-24T07:45:01Z</time>
      </trkpt>
      <trkpt lat="44.10928" lon="6.01438">
        <ele>441.8</ele>
        <time>2021-08-24T07:45:05Z</time>
      </trkpt>
      <trkpt lat="44.10929" lon="6.01436">
        <ele>442.8</ele>
        <time>2021-08-24T07:45:09Z</time>
      </trkpt>
      <trkpt lat="44.10929" lon="6.01437">
        <ele>442.8</ele>
        <time>2021-08-24T07:45:11Z</time>
      </trkpt>
      <trkpt lat="44.10929" lon="6.01436">
        <ele>442.6</ele>
        <time>2021-08-24T07:45:21Z</time>
      </trkpt>
      <trkpt lat="44.1093" lon="6.01435">
        <ele>442.6</ele>
        <time>2021-08-24T07:45:31Z</time>
      </trkpt>
      <trkpt lat="44.10933" lon="6.01434">
        <ele>443.4</ele>
        <time>2021-08-24T07:45:41Z</time>
      </trkpt>
      <trkpt lat="44.10936" lon="6.01429">
        <ele>443.8</ele>
        <time>2021-08-24T07:45:50Z</time>
      </trkpt>
      <trkpt lat="44.10937" lon="6.01429">
        <ele>443.8</ele>
        <time>2021-08-24T07:45:51Z</time>
      </trkpt>
      <trkpt lat="44.10942" lon="6.01433">
        <ele>444.6</ele>
        <time>2021-08-24T07:46:01Z</time>
      </trkpt>
      <trkpt lat="44.10943" lon="6.01436">
        <ele>444.6</ele>
        <time>2021-08-24T07:46:03Z</time>
      </trkpt>
      <trkpt lat="44.1095" lon="6.01443">
        <ele>444.8</ele>
        <time>2021-08-24T07:46:07Z</time>
      </trkpt>
      <trkpt lat="44.10955" lon="6.0145">
        <ele>445.2</ele>
        <time>2021-08-24T07:46:11Z</time>
      </trkpt>
      <trkpt lat="44.10972" lon="6.01469">
        <ele>445.8</ele>
        <time>2021-08-24T07:46:21Z</time>
      </trkpt>
      <trkpt lat="44.10973" lon="6.01471">
        <ele>445.8</ele>
        <time>2021-08-24T07:46:22Z</time>
      </trkpt>
      <trkpt lat="44.10987" lon="6.01485">
        <ele>446.8</ele>
        <time>2021-08-24T07:46:31Z</time>
      </trkpt>
      <trkpt lat="44.10989" lon="6.01487">
        <ele>447</ele>
        <time>2021-08-24T07:46:32Z</time>
      </trkpt>
      <trkpt lat="44.10998" lon="6.01494">
        <ele>448.2</ele>
        <time>2021-08-24T07:46:38Z</time>
      </trkpt>
      <trkpt lat="44.11004" lon="6.01498">
        <ele>448.6</ele>
        <time>2021-08-24T07:46:41Z</time>
      </trkpt>
      <trkpt lat="44.1101" lon="6.01502">
        <ele>449.2</ele>
        <time>2021-08-24T07:46:44Z</time>
      </trkpt>
      <trkpt lat="44.11013" lon="6.0151">
        <ele>449.6</ele>
        <time>2021-08-24T07:46:47Z</time>
      </trkpt>
      <trkpt lat="44.11014" lon="6.0151">
        <ele>450</ele>
        <time>2021-08-24T07:46:48Z</time>
      </trkpt>
      <trkpt lat="44.11015" lon="6.0151">
        <ele>450.2</ele>
        <time>2021-08-24T07:46:49Z</time>
      </trkpt>
      <trkpt lat="44.11017" lon="6.01514">
        <ele>450.8</ele>
        <time>2021-08-24T07:46:51Z</time>
      </trkpt>
      <trkpt lat="44.11015" lon="6.01512">
        <ele>451.4</ele>
        <time>2021-08-24T07:46:53Z</time>
      </trkpt>
      <trkpt lat="44.11011" lon="6.01513">
        <ele>452.2</ele>
        <time>2021-08-24T07:46:59Z</time>
      </trkpt>
      <trkpt lat="44.1101" lon="6.01513">
        <ele>452.4</ele>
        <time>2021-08-24T07:47:00Z</time>
      </trkpt>
      <trkpt lat="44.11009" lon="6.01513">
        <ele>452.4</ele>
        <time>2021-08-24T07:47:01Z</time>
      </trkpt>
      <trkpt lat="44.11005" lon="6.01514">
        <ele>452.4</ele>
        <time>2021-08-24T07:47:10Z</time>
      </trkpt>
      <trkpt lat="44.11006" lon="6.01514">
        <ele>452.4</ele>
        <time>2021-08-24T07:47:11Z</time>
      </trkpt>
      <trkpt lat="44.11007" lon="6.01514">
        <ele>452.4</ele>
        <time>2021-08-24T07:47:14Z</time>
      </trkpt>
      <trkpt lat="44.11007" lon="6.01513">
        <ele>452.2</ele>
        <time>2021-08-24T07:47:15Z</time>
      </trkpt>
      <trkpt lat="44.11007" lon="6.01513">
        <ele>452.2</ele>
        <time>2021-08-24T07:47:16Z</time>
      </trkpt>
      <trkpt lat="44.11007" lon="6.01514">
        <ele>452.2</ele>
        <time>2021-08-24T07:47:18Z</time>
      </trkpt>
      <trkpt lat="44.11008" lon="6.01514">
        <ele>452.2</ele>
        <time>2021-08-24T07:47:19Z</time>
      </trkpt>
      <trkpt lat="44.11013" lon="6.01514">
        <ele>452.2</ele>
        <time>2021-08-24T07:47:21Z</time>
      </trkpt>
      <trkpt lat="44.1102" lon="6.01519">
        <ele>452.2</ele>
        <time>2021-08-24T07:47:24Z</time>
      </trkpt>
      <trkpt lat="44.11029" lon="6.0153">
        <ele>452.2</ele>
        <time>2021-08-24T07:47:31Z</time>
      </trkpt>
      <trkpt lat="44.11037" lon="6.01547">
        <ele>453.4</ele>
        <time>2021-08-24T07:47:41Z</time>
      </trkpt>
      <trkpt lat="44.11037" lon="6.01549">
        <ele>453.6</ele>
        <time>2021-08-24T07:47:42Z</time>
      </trkpt>
      <trkpt lat="44.11038" lon="6.01554">
        <ele>453.8</ele>
        <time>2021-08-24T07:47:44Z</time>
      </trkpt>
      <trkpt lat="44.11039" lon="6.0156">
        <ele>454</ele>
        <time>2021-08-24T07:47:46Z</time>
      </trkpt>
      <trkpt lat="44.1104" lon="6.01562">
        <ele>454.2</ele>
        <time>2021-08-24T07:47:47Z</time>
      </trkpt>
      <trkpt lat="44.11046" lon="6.01568">
        <ele>454.6</ele>
        <time>2021-08-24T07:47:50Z</time>
      </trkpt>
      <trkpt lat="44.11047" lon="6.0157">
        <ele>454.8</ele>
        <time>2021-08-24T07:47:51Z</time>
      </trkpt>
      <trkpt lat="44.11049" lon="6.01573">
        <ele>455</ele>
        <time>2021-08-24T07:47:53Z</time>
      </trkpt>
      <trkpt lat="44.11049" lon="6.01579">
        <ele>455.2</ele>
        <time>2021-08-24T07:47:55Z</time>
      </trkpt>
      <trkpt lat="44.11048" lon="6.01581">
        <ele>455.4</ele>
        <time>2021-08-24T07:47:56Z</time>
      </trkpt>
      <trkpt lat="44.11048" lon="6.01583">
        <ele>455.6</ele>
        <time>2021-08-24T07:47:57Z</time>
      </trkpt>
      <trkpt lat="44.11048" lon="6.01585">
        <ele>455.8</ele>
        <time>2021-08-24T07:47:58Z</time>
      </trkpt>
      <trkpt lat="44.11048" lon="6.01586">
        <ele>456</ele>
        <time>2021-08-24T07:47:59Z</time>
      </trkpt>
      <trkpt lat="44.11048" lon="6.01591">
        <ele>456.2</ele>
        <time>2021-08-24T07:48:01Z</time>
      </trkpt>
      <trkpt lat="44.11049" lon="6.01597">
        <ele>456.2</ele>
        <time>2021-08-24T07:48:03Z</time>
      </trkpt>
      <trkpt lat="44.11048" lon="6.01604">
        <ele>456.6</ele>
        <time>2021-08-24T07:48:06Z</time>
      </trkpt>
      <trkpt lat="44.11048" lon="6.01606">
        <ele>456.6</ele>
        <time>2021-08-24T07:48:07Z</time>
      </trkpt>
      <trkpt lat="44.11048" lon="6.01608">
        <ele>456.8</ele>
        <time>2021-08-24T07:48:08Z</time>
      </trkpt>
      <trkpt lat="44.11047" lon="6.01612">
        <ele>457</ele>
        <time>2021-08-24T07:48:10Z</time>
      </trkpt>
      <trkpt lat="44.11047" lon="6.01614">
        <ele>457</ele>
        <time>2021-08-24T07:48:11Z</time>
      </trkpt>
      <trkpt lat="44.11047" lon="6.01619">
        <ele>457</ele>
        <time>2021-08-24T07:48:13Z</time>
      </trkpt>
      <trkpt lat="44.11051" lon="6.01641">
        <ele>457.6</ele>
        <time>2021-08-24T07:48:21Z</time>
      </trkpt>
      <trkpt lat="44.11054" lon="6.01653">
        <ele>457.8</ele>
        <time>2021-08-24T07:48:25Z</time>
      </trkpt>
      <trkpt lat="44.11061" lon="6.01668">
        <ele>458.2</ele>
        <time>2021-08-24T07:48:31Z</time>
      </trkpt>
      <trkpt lat="44.11069" lon="6.01691">
        <ele>458.8</ele>
        <time>2021-08-24T07:48:41Z</time>
      </trkpt>
      <trkpt lat="44.11073" lon="6.01708">
        <ele>458.8</ele>
        <time>2021-08-24T07:48:49Z</time>
      </trkpt>
      <trkpt lat="44.11074" lon="6.0171">
        <ele>458.8</ele>
        <time>2021-08-24T07:48:50Z</time>
      </trkpt>
      <trkpt lat="44.11075" lon="6.01712">
        <ele>458.8</ele>
        <time>2021-08-24T07:48:51Z</time>
      </trkpt>
      <trkpt lat="44.11076" lon="6.01713">
        <ele>459</ele>
        <time>2021-08-24T07:48:52Z</time>
      </trkpt>
      <trkpt lat="44.1108" lon="6.01723">
        <ele>459.6</ele>
        <time>2021-08-24T07:48:56Z</time>
      </trkpt>
      <trkpt lat="44.11084" lon="6.01734">
        <ele>459.8</ele>
        <time>2021-08-24T07:49:00Z</time>
      </trkpt>
      <trkpt lat="44.11085" lon="6.01738">
        <ele>460</ele>
        <time>2021-08-24T07:49:01Z</time>
      </trkpt>
      <trkpt lat="44.11099" lon="6.01771">
        <ele>460.4</ele>
        <time>2021-08-24T07:49:11Z</time>
      </trkpt>
      <trkpt lat="44.11107" lon="6.01782">
        <ele>461</ele>
        <time>2021-08-24T07:49:15Z</time>
      </trkpt>
      <trkpt lat="44.11121" lon="6.01803">
        <ele>460.8</ele>
        <time>2021-08-24T07:49:21Z</time>
      </trkpt>
      <trkpt lat="44.11138" lon="6.01842">
        <ele>461.2</ele>
        <time>2021-08-24T07:49:29Z</time>
      </trkpt>
      <trkpt lat="44.11143" lon="6.01853">
        <ele>461.2</ele>
        <time>2021-08-24T07:49:31Z</time>
      </trkpt>
      <trkpt lat="44.11151" lon="6.0187">
        <ele>461.4</ele>
        <time>2021-08-24T07:49:34Z</time>
      </trkpt>
      <trkpt lat="44.11172" lon="6.01904">
        <ele>461.6</ele>
        <time>2021-08-24T07:49:41Z</time>
      </trkpt>
      <trkpt lat="44.1118" lon="6.01919">
        <ele>461.6</ele>
        <time>2021-08-24T07:49:44Z</time>
      </trkpt>
      <trkpt lat="44.112" lon="6.01953">
        <ele>461.8</ele>
        <time>2021-08-24T07:49:51Z</time>
      </trkpt>
      <trkpt lat="44.11204" lon="6.01999">
        <ele>462</ele>
        <time>2021-08-24T07:49:59Z</time>
      </trkpt>
      <trkpt lat="44.11207" lon="6.02007">
        <ele>462.2</ele>
        <time>2021-08-24T07:50:01Z</time>
      </trkpt>
      <trkpt lat="44.11216" lon="6.02018">
        <ele>463</ele>
        <time>2021-08-24T07:50:05Z</time>
      </trkpt>
      <trkpt lat="44.11227" lon="6.02028">
        <ele>464</ele>
        <time>2021-08-24T07:50:10Z</time>
      </trkpt>
      <trkpt lat="44.11229" lon="6.0203">
        <ele>464.2</ele>
        <time>2021-08-24T07:50:11Z</time>
      </trkpt>
      <trkpt lat="44.1124" lon="6.0204">
        <ele>465</ele>
        <time>2021-08-24T07:50:16Z</time>
      </trkpt>
      <trkpt lat="44.1125" lon="6.02053">
        <ele>465.8</ele>
        <time>2021-08-24T07:50:21Z</time>
      </trkpt>
      <trkpt lat="44.11252" lon="6.02056">
        <ele>466.2</ele>
        <time>2021-08-24T07:50:22Z</time>
      </trkpt>
      <trkpt lat="44.11259" lon="6.02071">
        <ele>467.2</ele>
        <time>2021-08-24T07:50:28Z</time>
      </trkpt>
      <trkpt lat="44.11254" lon="6.02073">
        <ele>467.8</ele>
        <time>2021-08-24T07:50:30Z</time>
      </trkpt>
      <trkpt lat="44.11251" lon="6.02071">
        <ele>468</ele>
        <time>2021-08-24T07:50:31Z</time>
      </trkpt>
      <trkpt lat="44.11249" lon="6.0207">
        <ele>468.2</ele>
        <time>2021-08-24T07:50:32Z</time>
      </trkpt>
      <trkpt lat="44.1124" lon="6.02064">
        <ele>469.4</ele>
        <time>2021-08-24T07:50:36Z</time>
      </trkpt>
      <trkpt lat="44.11231" lon="6.02063">
        <ele>470.6</ele>
        <time>2021-08-24T07:50:40Z</time>
      </trkpt>
      <trkpt lat="44.11229" lon="6.02062">
        <ele>470.8</ele>
        <time>2021-08-24T07:50:41Z</time>
      </trkpt>
      <trkpt lat="44.11221" lon="6.0206">
        <ele>471.6</ele>
        <time>2021-08-24T07:50:44Z</time>
      </trkpt>
      <trkpt lat="44.11206" lon="6.02057">
        <ele>473</ele>
        <time>2021-08-24T07:50:49Z</time>
      </trkpt>
      <trkpt lat="44.112" lon="6.02058">
        <ele>473.4</ele>
        <time>2021-08-24T07:50:51Z</time>
      </trkpt>
      <trkpt lat="44.11195" lon="6.02058">
        <ele>474</ele>
        <time>2021-08-24T07:50:53Z</time>
      </trkpt>
      <trkpt lat="44.11185" lon="6.0206">
        <ele>475.2</ele>
        <time>2021-08-24T07:50:57Z</time>
      </trkpt>
      <trkpt lat="44.11179" lon="6.02059">
        <ele>476.6</ele>
        <time>2021-08-24T07:51:00Z</time>
      </trkpt>
      <trkpt lat="44.11177" lon="6.02059">
        <ele>477</ele>
        <time>2021-08-24T07:51:01Z</time>
      </trkpt>
      <trkpt lat="44.11174" lon="6.02059">
        <ele>477.8</ele>
        <time>2021-08-24T07:51:03Z</time>
      </trkpt>
      <trkpt lat="44.11169" lon="6.02058">
        <ele>478.8</ele>
        <time>2021-08-24T07:51:06Z</time>
      </trkpt>
      <trkpt lat="44.11163" lon="6.02056">
        <ele>480</ele>
        <time>2021-08-24T07:51:09Z</time>
      </trkpt>
      <trkpt lat="44.11159" lon="6.02054">
        <ele>480.8</ele>
        <time>2021-08-24T07:51:11Z</time>
      </trkpt>
      <trkpt lat="44.11157" lon="6.02053">
        <ele>481.2</ele>
        <time>2021-08-24T07:51:12Z</time>
      </trkpt>
      <trkpt lat="44.11152" lon="6.0205">
        <ele>482.2</ele>
        <time>2021-08-24T07:51:15Z</time>
      </trkpt>
      <trkpt lat="44.11148" lon="6.02047">
        <ele>483.2</ele>
        <time>2021-08-24T07:51:18Z</time>
      </trkpt>
      <trkpt lat="44.11141" lon="6.02045">
        <ele>483.8</ele>
        <time>2021-08-24T07:51:21Z</time>
      </trkpt>
      <trkpt lat="44.11138" lon="6.02044">
        <ele>484.4</ele>
        <time>2021-08-24T07:51:23Z</time>
      </trkpt>
      <trkpt lat="44.11131" lon="6.02043">
        <ele>485.6</ele>
        <time>2021-08-24T07:51:27Z</time>
      </trkpt>
      <trkpt lat="44.11123" lon="6.02043">
        <ele>486.4</ele>
        <time>2021-08-24T07:51:31Z</time>
      </trkpt>
      <trkpt lat="44.11121" lon="6.02042">
        <ele>486.6</ele>
        <time>2021-08-24T07:51:32Z</time>
      </trkpt>
      <trkpt lat="44.11113" lon="6.02041">
        <ele>487.8</ele>
        <time>2021-08-24T07:51:36Z</time>
      </trkpt>
      <trkpt lat="44.11106" lon="6.0204">
        <ele>488.8</ele>
        <time>2021-08-24T07:51:40Z</time>
      </trkpt>
      <trkpt lat="44.11104" lon="6.0204">
        <ele>489.2</ele>
        <time>2021-08-24T07:51:41Z</time>
      </trkpt>
      <trkpt lat="44.11101" lon="6.0204">
        <ele>490</ele>
        <time>2021-08-24T07:51:43Z</time>
      </trkpt>
      <trkpt lat="44.11093" lon="6.02036">
        <ele>491.2</ele>
        <time>2021-08-24T07:51:48Z</time>
      </trkpt>
      <trkpt lat="44.11087" lon="6.02038">
        <ele>491.8</ele>
        <time>2021-08-24T07:51:51Z</time>
      </trkpt>
      <trkpt lat="44.11082" lon="6.02047">
        <ele>492.6</ele>
        <time>2021-08-24T07:51:54Z</time>
      </trkpt>
      <trkpt lat="44.11083" lon="6.02053">
        <ele>493.6</ele>
        <time>2021-08-24T07:51:57Z</time>
      </trkpt>
      <trkpt lat="44.11087" lon="6.02057">
        <ele>494.2</ele>
        <time>2021-08-24T07:52:01Z</time>
      </trkpt>
      <trkpt lat="44.11092" lon="6.02057">
        <ele>494.6</ele>
        <time>2021-08-24T07:52:04Z</time>
      </trkpt>
      <trkpt lat="44.111" lon="6.02061">
        <ele>495</ele>
        <time>2021-08-24T07:52:07Z</time>
      </trkpt>
      <trkpt lat="44.111" lon="6.02068">
        <ele>495.8</ele>
        <time>2021-08-24T07:52:10Z</time>
      </trkpt>
      <trkpt lat="44.11099" lon="6.0207">
        <ele>496.2</ele>
        <time>2021-08-24T07:52:11Z</time>
      </trkpt>
      <trkpt lat="44.11096" lon="6.02073">
        <ele>496.6</ele>
        <time>2021-08-24T07:52:13Z</time>
      </trkpt>
      <trkpt lat="44.11092" lon="6.02074">
        <ele>497</ele>
        <time>2021-08-24T07:52:15Z</time>
      </trkpt>
      <trkpt lat="44.11086" lon="6.02071">
        <ele>498.2</ele>
        <time>2021-08-24T07:52:18Z</time>
      </trkpt>
      <trkpt lat="44.11081" lon="6.0207">
        <ele>499</ele>
        <time>2021-08-24T07:52:21Z</time>
      </trkpt>
      <trkpt lat="44.1108" lon="6.02071">
        <ele>499.4</ele>
        <time>2021-08-24T07:52:22Z</time>
      </trkpt>
      <trkpt lat="44.11074" lon="6.02072">
        <ele>500.2</ele>
        <time>2021-08-24T07:52:25Z</time>
      </trkpt>
      <trkpt lat="44.11073" lon="6.02072">
        <ele>500.4</ele>
        <time>2021-08-24T07:52:26Z</time>
      </trkpt>
      <trkpt lat="44.11071" lon="6.02071">
        <ele>500.6</ele>
        <time>2021-08-24T07:52:27Z</time>
      </trkpt>
      <trkpt lat="44.11065" lon="6.02069">
        <ele>501.6</ele>
        <time>2021-08-24T07:52:30Z</time>
      </trkpt>
      <trkpt lat="44.11063" lon="6.02068">
        <ele>501.8</ele>
        <time>2021-08-24T07:52:31Z</time>
      </trkpt>
      <trkpt lat="44.11056" lon="6.02066">
        <ele>502.6</ele>
        <time>2021-08-24T07:52:34Z</time>
      </trkpt>
      <trkpt lat="44.11051" lon="6.02066">
        <ele>503.2</ele>
        <time>2021-08-24T07:52:36Z</time>
      </trkpt>
      <trkpt lat="44.11047" lon="6.02064">
        <ele>503.8</ele>
        <time>2021-08-24T07:52:38Z</time>
      </trkpt>
      <trkpt lat="44.11041" lon="6.02062">
        <ele>504.8</ele>
        <time>2021-08-24T07:52:41Z</time>
      </trkpt>
      <trkpt lat="44.11039" lon="6.02061">
        <ele>505.2</ele>
        <time>2021-08-24T07:52:42Z</time>
      </trkpt>
      <trkpt lat="44.11035" lon="6.02056">
        <ele>506</ele>
        <time>2021-08-24T07:52:45Z</time>
      </trkpt>
      <trkpt lat="44.1103" lon="6.02052">
        <ele>507.4</ele>
        <time>2021-08-24T07:52:49Z</time>
      </trkpt>
      <trkpt lat="44.11027" lon="6.0205">
        <ele>508.2</ele>
        <time>2021-08-24T07:52:51Z</time>
      </trkpt>
      <trkpt lat="44.11025" lon="6.0205">
        <ele>508.4</ele>
        <time>2021-08-24T07:52:52Z</time>
      </trkpt>
      <trkpt lat="44.11021" lon="6.02045">
        <ele>509.8</ele>
        <time>2021-08-24T07:52:56Z</time>
      </trkpt>
      <trkpt lat="44.1102" lon="6.02043">
        <ele>510</ele>
        <time>2021-08-24T07:52:57Z</time>
      </trkpt>
      <trkpt lat="44.11016" lon="6.02037">
        <ele>510.8</ele>
        <time>2021-08-24T07:53:00Z</time>
      </trkpt>
      <trkpt lat="44.11015" lon="6.02036">
        <ele>511</ele>
        <time>2021-08-24T07:53:01Z</time>
      </trkpt>
      <trkpt lat="44.11012" lon="6.02032">
        <ele>511.8</ele>
        <time>2021-08-24T07:53:03Z</time>
      </trkpt>
      <trkpt lat="44.11006" lon="6.02026">
        <ele>513</ele>
        <time>2021-08-24T07:53:07Z</time>
      </trkpt>
      <trkpt lat="44.11001" lon="6.02023">
        <ele>514</ele>
        <time>2021-08-24T07:53:11Z</time>
      </trkpt>
      <trkpt lat="44.11" lon="6.02022">
        <ele>514.2</ele>
        <time>2021-08-24T07:53:12Z</time>
      </trkpt>
      <trkpt lat="44.10995" lon="6.02018">
        <ele>515.2</ele>
        <time>2021-08-24T07:53:16Z</time>
      </trkpt>
      <trkpt lat="44.10987" lon="6.02009">
        <ele>516.2</ele>
        <time>2021-08-24T07:53:21Z</time>
      </trkpt>
      <trkpt lat="44.10985" lon="6.02008">
        <ele>516.4</ele>
        <time>2021-08-24T07:53:22Z</time>
      </trkpt>
      <trkpt lat="44.10979" lon="6.02004">
        <ele>517.4</ele>
        <time>2021-08-24T07:53:26Z</time>
      </trkpt>
      <trkpt lat="44.10972" lon="6.02002">
        <ele>518.6</ele>
        <time>2021-08-24T07:53:30Z</time>
      </trkpt>
      <trkpt lat="44.1097" lon="6.02002">
        <ele>519</ele>
        <time>2021-08-24T07:53:31Z</time>
      </trkpt>
      <trkpt lat="44.10966" lon="6.02001">
        <ele>519.6</ele>
        <time>2021-08-24T07:53:33Z</time>
      </trkpt>
      <trkpt lat="44.1096" lon="6.01998">
        <ele>520.6</ele>
        <time>2021-08-24T07:53:36Z</time>
      </trkpt>
      <trkpt lat="44.10951" lon="6.01998">
        <ele>521.8</ele>
        <time>2021-08-24T07:53:41Z</time>
      </trkpt>
      <trkpt lat="44.10944" lon="6.01998">
        <ele>523</ele>
        <time>2021-08-24T07:53:45Z</time>
      </trkpt>
      <trkpt lat="44.10936" lon="6.01998">
        <ele>524</ele>
        <time>2021-08-24T07:53:49Z</time>
      </trkpt>
      <trkpt lat="44.10933" lon="6.01999">
        <ele>524.6</ele>
        <time>2021-08-24T07:53:51Z</time>
      </trkpt>
      <trkpt lat="44.10931" lon="6.01999">
        <ele>525</ele>
        <time>2021-08-24T07:53:52Z</time>
      </trkpt>
      <trkpt lat="44.10925" lon="6.01997">
        <ele>526</ele>
        <time>2021-08-24T07:53:55Z</time>
      </trkpt>
      <trkpt lat="44.10919" lon="6.01996">
        <ele>527</ele>
        <time>2021-08-24T07:53:59Z</time>
      </trkpt>
      <trkpt lat="44.10915" lon="6.01995">
        <ele>527.6</ele>
        <time>2021-08-24T07:54:01Z</time>
      </trkpt>
      <trkpt lat="44.1091" lon="6.01993">
        <ele>528.2</ele>
        <time>2021-08-24T07:54:04Z</time>
      </trkpt>
      <trkpt lat="44.10902" lon="6.01989">
        <ele>529.4</ele>
        <time>2021-08-24T07:54:09Z</time>
      </trkpt>
      <trkpt lat="44.10899" lon="6.01987">
        <ele>529.6</ele>
        <time>2021-08-24T07:54:11Z</time>
      </trkpt>
      <trkpt lat="44.10893" lon="6.01983">
        <ele>530.4</ele>
        <time>2021-08-24T07:54:15Z</time>
      </trkpt>
      <trkpt lat="44.10884" lon="6.01978">
        <ele>531.6</ele>
        <time>2021-08-24T07:54:20Z</time>
      </trkpt>
      <trkpt lat="44.10883" lon="6.01977">
        <ele>531.8</ele>
        <time>2021-08-24T07:54:21Z</time>
      </trkpt>
      <trkpt lat="44.10878" lon="6.01973">
        <ele>532.6</ele>
        <time>2021-08-24T07:54:25Z</time>
      </trkpt>
      <trkpt lat="44.1087" lon="6.01964">
        <ele>533.8</ele>
        <time>2021-08-24T07:54:31Z</time>
      </trkpt>
      <trkpt lat="44.10866" lon="6.01956">
        <ele>534.6</ele>
        <time>2021-08-24T07:54:35Z</time>
      </trkpt>
      <trkpt lat="44.10866" lon="6.01954">
        <ele>535</ele>
        <time>2021-08-24T07:54:36Z</time>
      </trkpt>
      <trkpt lat="44.10866" lon="6.01943">
        <ele>536.2</ele>
        <time>2021-08-24T07:54:41Z</time>
      </trkpt>
      <trkpt lat="44.10863" lon="6.01938">
        <ele>537.4</ele>
        <time>2021-08-24T07:54:44Z</time>
      </trkpt>
      <trkpt lat="44.10859" lon="6.01931">
        <ele>538.2</ele>
        <time>2021-08-24T07:54:48Z</time>
      </trkpt>
      <trkpt lat="44.10857" lon="6.0193">
        <ele>538.4</ele>
        <time>2021-08-24T07:54:49Z</time>
      </trkpt>
      <trkpt lat="44.10854" lon="6.01928">
        <ele>539</ele>
        <time>2021-08-24T07:54:51Z</time>
      </trkpt>
      <trkpt lat="44.10852" lon="6.01927">
        <ele>539.2</ele>
        <time>2021-08-24T07:54:53Z</time>
      </trkpt>
      <trkpt lat="44.10849" lon="6.01927">
        <ele>539.6</ele>
        <time>2021-08-24T07:54:55Z</time>
      </trkpt>
      <trkpt lat="44.10848" lon="6.01929">
        <ele>540</ele>
        <time>2021-08-24T07:54:57Z</time>
      </trkpt>
      <trkpt lat="44.10846" lon="6.01936">
        <ele>540.6</ele>
        <time>2021-08-24T07:55:00Z</time>
      </trkpt>
      <trkpt lat="44.10845" lon="6.01938">
        <ele>540.8</ele>
        <time>2021-08-24T07:55:01Z</time>
      </trkpt>
      <trkpt lat="44.10844" lon="6.01946">
        <ele>541.8</ele>
        <time>2021-08-24T07:55:04Z</time>
      </trkpt>
      <trkpt lat="44.10839" lon="6.01961">
        <ele>542.6</ele>
        <time>2021-08-24T07:55:11Z</time>
      </trkpt>
      <trkpt lat="44.10837" lon="6.01965">
        <ele>543</ele>
        <time>2021-08-24T07:55:13Z</time>
      </trkpt>
      <trkpt lat="44.10835" lon="6.01971">
        <ele>543.4</ele>
        <time>2021-08-24T07:55:16Z</time>
      </trkpt>
      <trkpt lat="44.10834" lon="6.01978">
        <ele>544</ele>
        <time>2021-08-24T07:55:19Z</time>
      </trkpt>
      <trkpt lat="44.10833" lon="6.01982">
        <ele>544.4</ele>
        <time>2021-08-24T07:55:21Z</time>
      </trkpt>
      <trkpt lat="44.10832" lon="6.01988">
        <ele>545.4</ele>
        <time>2021-08-24T07:55:24Z</time>
      </trkpt>
      <trkpt lat="44.10828" lon="6.01997">
        <ele>546.2</ele>
        <time>2021-08-24T07:55:30Z</time>
      </trkpt>
      <trkpt lat="44.10827" lon="6.01999">
        <ele>546.4</ele>
        <time>2021-08-24T07:55:31Z</time>
      </trkpt>
      <trkpt lat="44.10821" lon="6.0201">
        <ele>547.4</ele>
        <time>2021-08-24T07:55:38Z</time>
      </trkpt>
      <trkpt lat="44.10817" lon="6.02015">
        <ele>548</ele>
        <time>2021-08-24T07:55:41Z</time>
      </trkpt>
      <trkpt lat="44.10813" lon="6.02021">
        <ele>548.4</ele>
        <time>2021-08-24T07:55:44Z</time>
      </trkpt>
      <trkpt lat="44.10806" lon="6.02029">
        <ele>549.6</ele>
        <time>2021-08-24T07:55:49Z</time>
      </trkpt>
      <trkpt lat="44.10804" lon="6.02033">
        <ele>550</ele>
        <time>2021-08-24T07:55:51Z</time>
      </trkpt>
      <trkpt lat="44.10801" lon="6.02038">
        <ele>550.6</ele>
        <time>2021-08-24T07:55:54Z</time>
      </trkpt>
      <trkpt lat="44.10796" lon="6.02044">
        <ele>551.6</ele>
        <time>2021-08-24T07:55:59Z</time>
      </trkpt>
      <trkpt lat="44.10793" lon="6.02046">
        <ele>552</ele>
        <time>2021-08-24T07:56:01Z</time>
      </trkpt>
      <trkpt lat="44.10788" lon="6.02049">
        <ele>553</ele>
        <time>2021-08-24T07:56:04Z</time>
      </trkpt>
      <trkpt lat="44.10779" lon="6.02053">
        <ele>554</ele>
        <time>2021-08-24T07:56:09Z</time>
      </trkpt>
      <trkpt lat="44.10776" lon="6.02053">
        <ele>554.6</ele>
        <time>2021-08-24T07:56:11Z</time>
      </trkpt>
      <trkpt lat="44.10773" lon="6.02054">
        <ele>555.2</ele>
        <time>2021-08-24T07:56:13Z</time>
      </trkpt>
      <trkpt lat="44.1077" lon="6.02057">
        <ele>556</ele>
        <time>2021-08-24T07:56:16Z</time>
      </trkpt>
      <trkpt lat="44.10769" lon="6.02058">
        <ele>556.2</ele>
        <time>2021-08-24T07:56:17Z</time>
      </trkpt>
      <trkpt lat="44.10765" lon="6.02067">
        <ele>556.8</ele>
        <time>2021-08-24T07:56:21Z</time>
      </trkpt>
      <trkpt lat="44.1076" lon="6.02084">
        <ele>557.4</ele>
        <time>2021-08-24T07:56:27Z</time>
      </trkpt>
      <trkpt lat="44.1076" lon="6.02095">
        <ele>557.8</ele>
        <time>2021-08-24T07:56:31Z</time>
      </trkpt>
      <trkpt lat="44.10761" lon="6.02113">
        <ele>558.4</ele>
        <time>2021-08-24T07:56:37Z</time>
      </trkpt>
      <trkpt lat="44.10761" lon="6.02124">
        <ele>559</ele>
        <time>2021-08-24T07:56:41Z</time>
      </trkpt>
      <trkpt lat="44.10761" lon="6.02143">
        <ele>559.4</ele>
        <time>2021-08-24T07:56:47Z</time>
      </trkpt>
      <trkpt lat="44.10763" lon="6.02155">
        <ele>560</ele>
        <time>2021-08-24T07:56:51Z</time>
      </trkpt>
      <trkpt lat="44.10765" lon="6.02175">
        <ele>560.6</ele>
        <time>2021-08-24T07:56:57Z</time>
      </trkpt>
      <trkpt lat="44.10767" lon="6.02188">
        <ele>560.8</ele>
        <time>2021-08-24T07:57:01Z</time>
      </trkpt>
      <trkpt lat="44.10782" lon="6.02218">
        <ele>561</ele>
        <time>2021-08-24T07:57:11Z</time>
      </trkpt>
      <trkpt lat="44.10792" lon="6.02248">
        <ele>561.6</ele>
        <time>2021-08-24T07:57:19Z</time>
      </trkpt>
      <trkpt lat="44.10792" lon="6.02256">
        <ele>561.8</ele>
        <time>2021-08-24T07:57:21Z</time>
      </trkpt>
      <trkpt lat="44.10787" lon="6.02296">
        <ele>562.4</ele>
        <time>2021-08-24T07:57:31Z</time>
      </trkpt>
      <trkpt lat="44.10784" lon="6.02322">
        <ele>562.6</ele>
        <time>2021-08-24T07:57:39Z</time>
      </trkpt>
      <trkpt lat="44.10783" lon="6.02327">
        <ele>563</ele>
        <time>2021-08-24T07:57:41Z</time>
      </trkpt>
      <trkpt lat="44.10782" lon="6.02333">
        <ele>563.8</ele>
        <time>2021-08-24T07:57:43Z</time>
      </trkpt>
      <trkpt lat="44.10781" lon="6.02339">
        <ele>564.4</ele>
        <time>2021-08-24T07:57:45Z</time>
      </trkpt>
      <trkpt lat="44.1078" lon="6.02342">
        <ele>564.8</ele>
        <time>2021-08-24T07:57:46Z</time>
      </trkpt>
      <trkpt lat="44.10779" lon="6.02354">
        <ele>565.8</ele>
        <time>2021-08-24T07:57:50Z</time>
      </trkpt>
      <trkpt lat="44.10778" lon="6.02357">
        <ele>566.2</ele>
        <time>2021-08-24T07:57:51Z</time>
      </trkpt>
      <trkpt lat="44.10778" lon="6.02359">
        <ele>566.6</ele>
        <time>2021-08-24T07:57:52Z</time>
      </trkpt>
      <trkpt lat="44.10778" lon="6.02363">
        <ele>566.8</ele>
        <time>2021-08-24T07:57:53Z</time>
      </trkpt>
      <trkpt lat="44.10778" lon="6.02372">
        <ele>567.2</ele>
        <time>2021-08-24T07:57:56Z</time>
      </trkpt>
      <trkpt lat="44.10779" lon="6.02384">
        <ele>568</ele>
        <time>2021-08-24T07:58:00Z</time>
      </trkpt>
      <trkpt lat="44.1078" lon="6.02387">
        <ele>568.2</ele>
        <time>2021-08-24T07:58:01Z</time>
      </trkpt>
      <trkpt lat="44.10786" lon="6.02403">
        <ele>569</ele>
        <time>2021-08-24T07:58:07Z</time>
      </trkpt>
      <trkpt lat="44.10787" lon="6.02409">
        <ele>569.2</ele>
        <time>2021-08-24T07:58:09Z</time>
      </trkpt>
      <trkpt lat="44.10789" lon="6.02414">
        <ele>569.6</ele>
        <time>2021-08-24T07:58:11Z</time>
      </trkpt>
      <trkpt lat="44.10793" lon="6.02423">
        <ele>570.2</ele>
        <time>2021-08-24T07:58:14Z</time>
      </trkpt>
      <trkpt lat="44.10797" lon="6.02434">
        <ele>571.4</ele>
        <time>2021-08-24T07:58:18Z</time>
      </trkpt>
      <trkpt lat="44.10801" lon="6.02442">
        <ele>572</ele>
        <time>2021-08-24T07:58:21Z</time>
      </trkpt>
      <trkpt lat="44.10802" lon="6.02448">
        <ele>572.4</ele>
        <time>2021-08-24T07:58:23Z</time>
      </trkpt>
      <trkpt lat="44.10806" lon="6.02465">
        <ele>573.4</ele>
        <time>2021-08-24T07:58:30Z</time>
      </trkpt>
      <trkpt lat="44.10806" lon="6.02468">
        <ele>573.6</ele>
        <time>2021-08-24T07:58:31Z</time>
      </trkpt>
      <trkpt lat="44.10807" lon="6.02484">
        <ele>574.8</ele>
        <time>2021-08-24T07:58:37Z</time>
      </trkpt>
      <trkpt lat="44.10808" lon="6.02496">
        <ele>575.6</ele>
        <time>2021-08-24T07:58:41Z</time>
      </trkpt>
      <trkpt lat="44.10809" lon="6.02502">
        <ele>576</ele>
        <time>2021-08-24T07:58:43Z</time>
      </trkpt>
      <trkpt lat="44.10813" lon="6.02521">
        <ele>577.2</ele>
        <time>2021-08-24T07:58:49Z</time>
      </trkpt>
      <trkpt lat="44.10814" lon="6.02527">
        <ele>577.4</ele>
        <time>2021-08-24T07:58:51Z</time>
      </trkpt>
      <trkpt lat="44.10819" lon="6.02541">
        <ele>578.2</ele>
        <time>2021-08-24T07:58:56Z</time>
      </trkpt>
      <trkpt lat="44.10823" lon="6.02555">
        <ele>579.2</ele>
        <time>2021-08-24T07:59:01Z</time>
      </trkpt>
      <trkpt lat="44.10824" lon="6.02558">
        <ele>579.4</ele>
        <time>2021-08-24T07:59:02Z</time>
      </trkpt>
      <trkpt lat="44.10834" lon="6.02586">
        <ele>579.8</ele>
        <time>2021-08-24T07:59:11Z</time>
      </trkpt>
      <trkpt lat="44.10837" lon="6.02595">
        <ele>580</ele>
        <time>2021-08-24T07:59:14Z</time>
      </trkpt>
      <trkpt lat="44.10845" lon="6.02623">
        <ele>580.2</ele>
        <time>2021-08-24T07:59:21Z</time>
      </trkpt>
      <trkpt lat="44.10846" lon="6.02628">
        <ele>580.4</ele>
        <time>2021-08-24T07:59:22Z</time>
      </trkpt>
      <trkpt lat="44.10849" lon="6.02644">
        <ele>580.4</ele>
        <time>2021-08-24T07:59:25Z</time>
      </trkpt>
      <trkpt lat="44.1085" lon="6.0265">
        <ele>580.4</ele>
        <time>2021-08-24T07:59:26Z</time>
      </trkpt>
      <trkpt lat="44.10853" lon="6.02662">
        <ele>580.2</ele>
        <time>2021-08-24T07:59:28Z</time>
      </trkpt>
      <trkpt lat="44.10857" lon="6.02683">
        <ele>579.4</ele>
        <time>2021-08-24T07:59:31Z</time>
      </trkpt>
      <trkpt lat="44.10857" lon="6.02691">
        <ele>579.2</ele>
        <time>2021-08-24T07:59:32Z</time>
      </trkpt>
      <trkpt lat="44.10857" lon="6.02698">
        <ele>578.8</ele>
        <time>2021-08-24T07:59:33Z</time>
      </trkpt>
      <trkpt lat="44.10856" lon="6.0272">
        <ele>578</ele>
        <time>2021-08-24T07:59:36Z</time>
      </trkpt>
      <trkpt lat="44.10856" lon="6.02737">
        <ele>577.6</ele>
        <time>2021-08-24T07:59:38Z</time>
      </trkpt>
      <trkpt lat="44.10859" lon="6.02764">
        <ele>577</ele>
        <time>2021-08-24T07:59:41Z</time>
      </trkpt>
      <trkpt lat="44.1086" lon="6.02774">
        <ele>576.8</ele>
        <time>2021-08-24T07:59:42Z</time>
      </trkpt>
      <trkpt lat="44.10866" lon="6.02804">
        <ele>576.2</ele>
        <time>2021-08-24T07:59:45Z</time>
      </trkpt>
      <trkpt lat="44.10871" lon="6.02823">
        <ele>575.4</ele>
        <time>2021-08-24T07:59:47Z</time>
      </trkpt>
      <trkpt lat="44.10881" lon="6.02859">
        <ele>574.8</ele>
        <time>2021-08-24T07:59:51Z</time>
      </trkpt>
      <trkpt lat="44.10894" lon="6.02938">
        <ele>575.8</ele>
        <time>2021-08-24T08:00:01Z</time>
      </trkpt>
      <trkpt lat="44.10898" lon="6.02972">
        <ele>576.8</ele>
        <time>2021-08-24T08:00:07Z</time>
      </trkpt>
      <trkpt lat="44.10898" lon="6.02987">
        <ele>577.8</ele>
        <time>2021-08-24T08:00:10Z</time>
      </trkpt>
      <trkpt lat="44.10898" lon="6.02992">
        <ele>578</ele>
        <time>2021-08-24T08:00:11Z</time>
      </trkpt>
      <trkpt lat="44.10897" lon="6.03014">
        <ele>578.8</ele>
        <time>2021-08-24T08:00:16Z</time>
      </trkpt>
      <trkpt lat="44.10898" lon="6.03025">
        <ele>580</ele>
        <time>2021-08-24T08:00:19Z</time>
      </trkpt>
      <trkpt lat="44.10899" lon="6.03032">
        <ele>580.6</ele>
        <time>2021-08-24T08:00:21Z</time>
      </trkpt>
      <trkpt lat="44.10897" lon="6.03043">
        <ele>581</ele>
        <time>2021-08-24T08:00:24Z</time>
      </trkpt>
      <trkpt lat="44.10896" lon="6.03062">
        <ele>582.2</ele>
        <time>2021-08-24T08:00:30Z</time>
      </trkpt>
      <trkpt lat="44.10897" lon="6.03065">
        <ele>582.4</ele>
        <time>2021-08-24T08:00:31Z</time>
      </trkpt>
      <trkpt lat="44.10898" lon="6.03074">
        <ele>583.2</ele>
        <time>2021-08-24T08:00:34Z</time>
      </trkpt>
      <trkpt lat="44.10901" lon="6.03089">
        <ele>584.4</ele>
        <time>2021-08-24T08:00:39Z</time>
      </trkpt>
      <trkpt lat="44.10902" lon="6.03094">
        <ele>585.2</ele>
        <time>2021-08-24T08:00:41Z</time>
      </trkpt>
      <trkpt lat="44.10902" lon="6.03097">
        <ele>585.6</ele>
        <time>2021-08-24T08:00:42Z</time>
      </trkpt>
      <trkpt lat="44.10901" lon="6.03111">
        <ele>586.8</ele>
        <time>2021-08-24T08:00:47Z</time>
      </trkpt>
      <trkpt lat="44.10896" lon="6.0312">
        <ele>588</ele>
        <time>2021-08-24T08:00:51Z</time>
      </trkpt>
      <trkpt lat="44.10892" lon="6.03124">
        <ele>588.8</ele>
        <time>2021-08-24T08:00:53Z</time>
      </trkpt>
      <trkpt lat="44.10888" lon="6.03125">
        <ele>589.2</ele>
        <time>2021-08-24T08:00:55Z</time>
      </trkpt>
      <trkpt lat="44.10881" lon="6.03124">
        <ele>589.8</ele>
        <time>2021-08-24T08:00:58Z</time>
      </trkpt>
      <trkpt lat="44.10877" lon="6.03118">
        <ele>590.2</ele>
        <time>2021-08-24T08:01:01Z</time>
      </trkpt>
      <trkpt lat="44.10874" lon="6.03108">
        <ele>591.2</ele>
        <time>2021-08-24T08:01:05Z</time>
      </trkpt>
      <trkpt lat="44.10868" lon="6.03099">
        <ele>592.2</ele>
        <time>2021-08-24T08:01:09Z</time>
      </trkpt>
      <trkpt lat="44.10867" lon="6.03094">
        <ele>593</ele>
        <time>2021-08-24T08:01:11Z</time>
      </trkpt>
      <trkpt lat="44.10867" lon="6.03092">
        <ele>593.4</ele>
        <time>2021-08-24T08:01:12Z</time>
      </trkpt>
      <trkpt lat="44.10864" lon="6.03079">
        <ele>594.6</ele>
        <time>2021-08-24T08:01:18Z</time>
      </trkpt>
      <trkpt lat="44.1086" lon="6.03072">
        <ele>595.2</ele>
        <time>2021-08-24T08:01:21Z</time>
      </trkpt>
      <trkpt lat="44.10855" lon="6.03063">
        <ele>595.6</ele>
        <time>2021-08-24T08:01:24Z</time>
      </trkpt>
      <trkpt lat="44.10852" lon="6.03059">
        <ele>596</ele>
        <time>2021-08-24T08:01:26Z</time>
      </trkpt>
      <trkpt lat="44.10847" lon="6.03055">
        <ele>596.8</ele>
        <time>2021-08-24T08:01:29Z</time>
      </trkpt>
      <trkpt lat="44.10843" lon="6.03052">
        <ele>597.2</ele>
        <time>2021-08-24T08:01:31Z</time>
      </trkpt>
      <trkpt lat="44.10836" lon="6.03044">
        <ele>598</ele>
        <time>2021-08-24T08:01:34Z</time>
      </trkpt>
      <trkpt lat="44.10823" lon="6.03033">
        <ele>599</ele>
        <time>2021-08-24T08:01:39Z</time>
      </trkpt>
      <trkpt lat="44.1082" lon="6.03031">
        <ele>599.6</ele>
        <time>2021-08-24T08:01:41Z</time>
      </trkpt>
      <trkpt lat="44.10816" lon="6.03028">
        <ele>600.2</ele>
        <time>2021-08-24T08:01:43Z</time>
      </trkpt>
      <trkpt lat="44.10806" lon="6.0302">
        <ele>601.2</ele>
        <time>2021-08-24T08:01:49Z</time>
      </trkpt>
      <trkpt lat="44.10804" lon="6.03014">
        <ele>601.6</ele>
        <time>2021-08-24T08:01:51Z</time>
      </trkpt>
      <trkpt lat="44.10801" lon="6.03006">
        <ele>602.6</ele>
        <time>2021-08-24T08:01:54Z</time>
      </trkpt>
      <trkpt lat="44.10798" lon="6.03001">
        <ele>603</ele>
        <time>2021-08-24T08:01:56Z</time>
      </trkpt>
      <trkpt lat="44.10794" lon="6.02994">
        <ele>603.6</ele>
        <time>2021-08-24T08:01:59Z</time>
      </trkpt>
      <trkpt lat="44.10791" lon="6.02995">
        <ele>604.2</ele>
        <time>2021-08-24T08:02:01Z</time>
      </trkpt>
      <trkpt lat="44.10789" lon="6.03">
        <ele>604.8</ele>
        <time>2021-08-24T08:02:04Z</time>
      </trkpt>
      <trkpt lat="44.10793" lon="6.03013">
        <ele>606</ele>
        <time>2021-08-24T08:02:10Z</time>
      </trkpt>
      <trkpt lat="44.10794" lon="6.03014">
        <ele>606</ele>
        <time>2021-08-24T08:02:11Z</time>
      </trkpt>
      <trkpt lat="44.10802" lon="6.03033">
        <ele>607</ele>
        <time>2021-08-24T08:02:19Z</time>
      </trkpt>
      <trkpt lat="44.10803" lon="6.03036">
        <ele>607.4</ele>
        <time>2021-08-24T08:02:21Z</time>
      </trkpt>
      <trkpt lat="44.10806" lon="6.03038">
        <ele>608.2</ele>
        <time>2021-08-24T08:02:23Z</time>
      </trkpt>
      <trkpt lat="44.10808" lon="6.03041">
        <ele>608.8</ele>
        <time>2021-08-24T08:02:25Z</time>
      </trkpt>
      <trkpt lat="44.1081" lon="6.03045">
        <ele>609.4</ele>
        <time>2021-08-24T08:02:28Z</time>
      </trkpt>
      <trkpt lat="44.10812" lon="6.03052">
        <ele>610.2</ele>
        <time>2021-08-24T08:02:31Z</time>
      </trkpt>
      <trkpt lat="44.10813" lon="6.0306">
        <ele>610.6</ele>
        <time>2021-08-24T08:02:33Z</time>
      </trkpt>
      <trkpt lat="44.10815" lon="6.03069">
        <ele>611.6</ele>
        <time>2021-08-24T08:02:36Z</time>
      </trkpt>
      <trkpt lat="44.10814" lon="6.0308">
        <ele>612.6</ele>
        <time>2021-08-24T08:02:40Z</time>
      </trkpt>
      <trkpt lat="44.10814" lon="6.03083">
        <ele>613</ele>
        <time>2021-08-24T08:02:41Z</time>
      </trkpt>
      <trkpt lat="44.10813" lon="6.03093">
        <ele>613.8</ele>
        <time>2021-08-24T08:02:44Z</time>
      </trkpt>
      <trkpt lat="44.10812" lon="6.03105">
        <ele>615</ele>
        <time>2021-08-24T08:02:48Z</time>
      </trkpt>
      <trkpt lat="44.10807" lon="6.03115">
        <ele>615.4</ele>
        <time>2021-08-24T08:02:51Z</time>
      </trkpt>
      <trkpt lat="44.10805" lon="6.03124">
        <ele>616.2</ele>
        <time>2021-08-24T08:02:54Z</time>
      </trkpt>
      <trkpt lat="44.10801" lon="6.03136">
        <ele>617.2</ele>
        <time>2021-08-24T08:02:58Z</time>
      </trkpt>
      <trkpt lat="44.108" lon="6.03146">
        <ele>618</ele>
        <time>2021-08-24T08:03:01Z</time>
      </trkpt>
      <trkpt lat="44.10799" lon="6.0315">
        <ele>618.4</ele>
        <time>2021-08-24T08:03:02Z</time>
      </trkpt>
      <trkpt lat="44.10799" lon="6.03161">
        <ele>619.4</ele>
        <time>2021-08-24T08:03:06Z</time>
      </trkpt>
      <trkpt lat="44.10797" lon="6.03174">
        <ele>620.4</ele>
        <time>2021-08-24T08:03:11Z</time>
      </trkpt>
      <trkpt lat="44.10797" lon="6.03176">
        <ele>620.8</ele>
        <time>2021-08-24T08:03:12Z</time>
      </trkpt>
      <trkpt lat="44.10796" lon="6.03193">
        <ele>622</ele>
        <time>2021-08-24T08:03:18Z</time>
      </trkpt>
      <trkpt lat="44.10794" lon="6.03201">
        <ele>622.8</ele>
        <time>2021-08-24T08:03:21Z</time>
      </trkpt>
      <trkpt lat="44.10793" lon="6.03206">
        <ele>623</ele>
        <time>2021-08-24T08:03:23Z</time>
      </trkpt>
      <trkpt lat="44.10794" lon="6.03221">
        <ele>624</ele>
        <time>2021-08-24T08:03:28Z</time>
      </trkpt>
      <trkpt lat="44.10795" lon="6.03224">
        <ele>624.2</ele>
        <time>2021-08-24T08:03:29Z</time>
      </trkpt>
      <trkpt lat="44.10795" lon="6.03229">
        <ele>624.4</ele>
        <time>2021-08-24T08:03:31Z</time>
      </trkpt>
      <trkpt lat="44.10797" lon="6.03246">
        <ele>625.4</ele>
        <time>2021-08-24T08:03:38Z</time>
      </trkpt>
      <trkpt lat="44.10798" lon="6.03253">
        <ele>626</ele>
        <time>2021-08-24T08:03:41Z</time>
      </trkpt>
      <trkpt lat="44.108" lon="6.03258">
        <ele>626.4</ele>
        <time>2021-08-24T08:03:43Z</time>
      </trkpt>
      <trkpt lat="44.10804" lon="6.03269">
        <ele>627.6</ele>
        <time>2021-08-24T08:03:48Z</time>
      </trkpt>
      <trkpt lat="44.10806" lon="6.03274">
        <ele>628.2</ele>
        <time>2021-08-24T08:03:50Z</time>
      </trkpt>
      <trkpt lat="44.10807" lon="6.03276">
        <ele>628.4</ele>
        <time>2021-08-24T08:03:51Z</time>
      </trkpt>
      <trkpt lat="44.10807" lon="6.03278">
        <ele>628.6</ele>
        <time>2021-08-24T08:03:52Z</time>
      </trkpt>
      <trkpt lat="44.10813" lon="6.03287">
        <ele>629.8</ele>
        <time>2021-08-24T08:03:58Z</time>
      </trkpt>
      <trkpt lat="44.10818" lon="6.0329">
        <ele>630.4</ele>
        <time>2021-08-24T08:04:01Z</time>
      </trkpt>
      <trkpt lat="44.10821" lon="6.03293">
        <ele>631</ele>
        <time>2021-08-24T08:04:03Z</time>
      </trkpt>
      <trkpt lat="44.10825" lon="6.03298">
        <ele>632</ele>
        <time>2021-08-24T08:04:07Z</time>
      </trkpt>
      <trkpt lat="44.10829" lon="6.03305">
        <ele>633</ele>
        <time>2021-08-24T08:04:11Z</time>
      </trkpt>
      <trkpt lat="44.1083" lon="6.03306">
        <ele>633.2</ele>
        <time>2021-08-24T08:04:12Z</time>
      </trkpt>
      <trkpt lat="44.10834" lon="6.03314">
        <ele>634</ele>
        <time>2021-08-24T08:04:17Z</time>
      </trkpt>
      <trkpt lat="44.10835" lon="6.03317">
        <ele>634.4</ele>
        <time>2021-08-24T08:04:19Z</time>
      </trkpt>
      <trkpt lat="44.10838" lon="6.0332">
        <ele>634.6</ele>
        <time>2021-08-24T08:04:21Z</time>
      </trkpt>
      <trkpt lat="44.10839" lon="6.03325">
        <ele>635</ele>
        <time>2021-08-24T08:04:23Z</time>
      </trkpt>
      <trkpt lat="44.10841" lon="6.03326">
        <ele>635</ele>
        <time>2021-08-24T08:04:24Z</time>
      </trkpt>
      <trkpt lat="44.10843" lon="6.03331">
        <ele>635.4</ele>
        <time>2021-08-24T08:04:26Z</time>
      </trkpt>
      <trkpt lat="44.10849" lon="6.03341">
        <ele>636.4</ele>
        <time>2021-08-24T08:04:31Z</time>
      </trkpt>
      <trkpt lat="44.1085" lon="6.03343">
        <ele>636.4</ele>
        <time>2021-08-24T08:04:32Z</time>
      </trkpt>
      <trkpt lat="44.10858" lon="6.03353">
        <ele>637.6</ele>
        <time>2021-08-24T08:04:37Z</time>
      </trkpt>
      <trkpt lat="44.10863" lon="6.03361">
        <ele>638.2</ele>
        <time>2021-08-24T08:04:41Z</time>
      </trkpt>
      <trkpt lat="44.10867" lon="6.03368">
        <ele>638.8</ele>
        <time>2021-08-24T08:04:44Z</time>
      </trkpt>
      <trkpt lat="44.10875" lon="6.03382">
        <ele>639.8</ele>
        <time>2021-08-24T08:04:51Z</time>
      </trkpt>
      <trkpt lat="44.10878" lon="6.03386">
        <ele>640.2</ele>
        <time>2021-08-24T08:04:53Z</time>
      </trkpt>
      <trkpt lat="44.10882" lon="6.03392">
        <ele>640.8</ele>
        <time>2021-08-24T08:04:56Z</time>
      </trkpt>
      <trkpt lat="44.1089" lon="6.03397">
        <ele>641.6</ele>
        <time>2021-08-24T08:05:01Z</time>
      </trkpt>
      <trkpt lat="44.10896" lon="6.03398">
        <ele>642</ele>
        <time>2021-08-24T08:05:04Z</time>
      </trkpt>
      <trkpt lat="44.10905" lon="6.03401">
        <ele>642.6</ele>
        <time>2021-08-24T08:05:11Z</time>
      </trkpt>
      <trkpt lat="44.10913" lon="6.034">
        <ele>643</ele>
        <time>2021-08-24T08:05:14Z</time>
      </trkpt>
      <trkpt lat="44.10925" lon="6.03406">
        <ele>644</ele>
        <time>2021-08-24T08:05:20Z</time>
      </trkpt>
      <trkpt lat="44.10927" lon="6.03406">
        <ele>644.2</ele>
        <time>2021-08-24T08:05:21Z</time>
      </trkpt>
      <trkpt lat="44.10939" lon="6.03409">
        <ele>645.4</ele>
        <time>2021-08-24T08:05:26Z</time>
      </trkpt>
      <trkpt lat="44.10952" lon="6.03412">
        <ele>646.2</ele>
        <time>2021-08-24T08:05:31Z</time>
      </trkpt>
      <trkpt lat="44.10954" lon="6.03412">
        <ele>646.4</ele>
        <time>2021-08-24T08:05:32Z</time>
      </trkpt>
      <trkpt lat="44.10964" lon="6.03412">
        <ele>647.6</ele>
        <time>2021-08-24T08:05:37Z</time>
      </trkpt>
      <trkpt lat="44.10976" lon="6.03415">
        <ele>648.6</ele>
        <time>2021-08-24T08:05:41Z</time>
      </trkpt>
      <trkpt lat="44.10983" lon="6.03417">
        <ele>649.8</ele>
        <time>2021-08-24T08:05:44Z</time>
      </trkpt>
      <trkpt lat="44.10989" lon="6.03423">
        <ele>650.8</ele>
        <time>2021-08-24T08:05:48Z</time>
      </trkpt>
      <trkpt lat="44.10993" lon="6.03428">
        <ele>652</ele>
        <time>2021-08-24T08:05:51Z</time>
      </trkpt>
      <trkpt lat="44.11" lon="6.03441">
        <ele>653.2</ele>
        <time>2021-08-24T08:05:57Z</time>
      </trkpt>
      <trkpt lat="44.11002" lon="6.03451">
        <ele>654.2</ele>
        <time>2021-08-24T08:06:01Z</time>
      </trkpt>
      <trkpt lat="44.11002" lon="6.03463">
        <ele>655.2</ele>
        <time>2021-08-24T08:06:06Z</time>
      </trkpt>
      <trkpt lat="44.11002" lon="6.03465">
        <ele>655.4</ele>
        <time>2021-08-24T08:06:07Z</time>
      </trkpt>
      <trkpt lat="44.11003" lon="6.03475">
        <ele>656.4</ele>
        <time>2021-08-24T08:06:11Z</time>
      </trkpt>
      <trkpt lat="44.11006" lon="6.03485">
        <ele>657.4</ele>
        <time>2021-08-24T08:06:15Z</time>
      </trkpt>
      <trkpt lat="44.11008" lon="6.03496">
        <ele>658.4</ele>
        <time>2021-08-24T08:06:19Z</time>
      </trkpt>
      <trkpt lat="44.11009" lon="6.03502">
        <ele>659</ele>
        <time>2021-08-24T08:06:21Z</time>
      </trkpt>
      <trkpt lat="44.11009" lon="6.03505">
        <ele>659.4</ele>
        <time>2021-08-24T08:06:22Z</time>
      </trkpt>
      <trkpt lat="44.11009" lon="6.03508">
        <ele>659.6</ele>
        <time>2021-08-24T08:06:23Z</time>
      </trkpt>
      <trkpt lat="44.11009" lon="6.03511">
        <ele>660</ele>
        <time>2021-08-24T08:06:24Z</time>
      </trkpt>
      <trkpt lat="44.11011" lon="6.03519">
        <ele>660.6</ele>
        <time>2021-08-24T08:06:27Z</time>
      </trkpt>
      <trkpt lat="44.11011" lon="6.03521">
        <ele>660.8</ele>
        <time>2021-08-24T08:06:28Z</time>
      </trkpt>
      <trkpt lat="44.11012" lon="6.03524">
        <ele>661.2</ele>
        <time>2021-08-24T08:06:29Z</time>
      </trkpt>
      <trkpt lat="44.11015" lon="6.03527">
        <ele>661.6</ele>
        <time>2021-08-24T08:06:31Z</time>
      </trkpt>
      <trkpt lat="44.11019" lon="6.03531">
        <ele>662</ele>
        <time>2021-08-24T08:06:33Z</time>
      </trkpt>
      <trkpt lat="44.11021" lon="6.03538">
        <ele>663</ele>
        <time>2021-08-24T08:06:36Z</time>
      </trkpt>
      <trkpt lat="44.11024" lon="6.03552">
        <ele>664</ele>
        <time>2021-08-24T08:06:41Z</time>
      </trkpt>
      <trkpt lat="44.11025" lon="6.03554">
        <ele>664.4</ele>
        <time>2021-08-24T08:06:42Z</time>
      </trkpt>
      <trkpt lat="44.11026" lon="6.03558">
        <ele>665</ele>
        <time>2021-08-24T08:06:44Z</time>
      </trkpt>
      <trkpt lat="44.11028" lon="6.03567">
        <ele>666.2</ele>
        <time>2021-08-24T08:06:48Z</time>
      </trkpt>
      <trkpt lat="44.1103" lon="6.03571">
        <ele>666.8</ele>
        <time>2021-08-24T08:06:50Z</time>
      </trkpt>
      <trkpt lat="44.1103" lon="6.03574">
        <ele>667</ele>
        <time>2021-08-24T08:06:51Z</time>
      </trkpt>
      <trkpt lat="44.11031" lon="6.03578">
        <ele>667.4</ele>
        <time>2021-08-24T08:06:53Z</time>
      </trkpt>
      <trkpt lat="44.11032" lon="6.03583">
        <ele>668</ele>
        <time>2021-08-24T08:06:55Z</time>
      </trkpt>
      <trkpt lat="44.11033" lon="6.03585">
        <ele>668.4</ele>
        <time>2021-08-24T08:06:56Z</time>
      </trkpt>
      <trkpt lat="44.11034" lon="6.03592">
        <ele>669.2</ele>
        <time>2021-08-24T08:06:59Z</time>
      </trkpt>
      <trkpt lat="44.11035" lon="6.03594">
        <ele>669.4</ele>
        <time>2021-08-24T08:07:00Z</time>
      </trkpt>
      <trkpt lat="44.11036" lon="6.03596">
        <ele>669.8</ele>
        <time>2021-08-24T08:07:01Z</time>
      </trkpt>
      <trkpt lat="44.11038" lon="6.036">
        <ele>670.4</ele>
        <time>2021-08-24T08:07:03Z</time>
      </trkpt>
      <trkpt lat="44.11042" lon="6.03609">
        <ele>671.6</ele>
        <time>2021-08-24T08:07:08Z</time>
      </trkpt>
      <trkpt lat="44.11045" lon="6.03613">
        <ele>672</ele>
        <time>2021-08-24T08:07:11Z</time>
      </trkpt>
      <trkpt lat="44.11047" lon="6.03616">
        <ele>672.4</ele>
        <time>2021-08-24T08:07:13Z</time>
      </trkpt>
      <trkpt lat="44.11048" lon="6.0362">
        <ele>672.6</ele>
        <time>2021-08-24T08:07:14Z</time>
      </trkpt>
      <trkpt lat="44.11042" lon="6.0363">
        <ele>673.6</ele>
        <time>2021-08-24T08:07:20Z</time>
      </trkpt>
      <trkpt lat="44.1104" lon="6.0363">
        <ele>673.8</ele>
        <time>2021-08-24T08:07:21Z</time>
      </trkpt>
      <trkpt lat="44.11034" lon="6.03628">
        <ele>674.8</ele>
        <time>2021-08-24T08:07:25Z</time>
      </trkpt>
      <trkpt lat="44.11031" lon="6.03629">
        <ele>675.2</ele>
        <time>2021-08-24T08:07:27Z</time>
      </trkpt>
      <trkpt lat="44.11029" lon="6.03632">
        <ele>675.4</ele>
        <time>2021-08-24T08:07:29Z</time>
      </trkpt>
      <trkpt lat="44.11028" lon="6.03638">
        <ele>675.6</ele>
        <time>2021-08-24T08:07:31Z</time>
      </trkpt>
      <trkpt lat="44.11028" lon="6.03643">
        <ele>676</ele>
        <time>2021-08-24T08:07:33Z</time>
      </trkpt>
      <trkpt lat="44.11029" lon="6.03646">
        <ele>676.2</ele>
        <time>2021-08-24T08:07:34Z</time>
      </trkpt>
      <trkpt lat="44.11035" lon="6.03658">
        <ele>676.6</ele>
        <time>2021-08-24T08:07:39Z</time>
      </trkpt>
      <trkpt lat="44.11036" lon="6.03665">
        <ele>676.6</ele>
        <time>2021-08-24T08:07:41Z</time>
      </trkpt>
      <trkpt lat="44.11039" lon="6.0369">
        <ele>677</ele>
        <time>2021-08-24T08:07:49Z</time>
      </trkpt>
      <trkpt lat="44.1104" lon="6.03693">
        <ele>677.2</ele>
        <time>2021-08-24T08:07:50Z</time>
      </trkpt>
      <trkpt lat="44.11041" lon="6.03697">
        <ele>677.2</ele>
        <time>2021-08-24T08:07:51Z</time>
      </trkpt>
      <trkpt lat="44.11045" lon="6.03709">
        <ele>678.2</ele>
        <time>2021-08-24T08:07:55Z</time>
      </trkpt>
      <trkpt lat="44.11048" lon="6.03719">
        <ele>678.8</ele>
        <time>2021-08-24T08:07:58Z</time>
      </trkpt>
      <trkpt lat="44.11049" lon="6.03721">
        <ele>678.8</ele>
        <time>2021-08-24T08:07:59Z</time>
      </trkpt>
      <trkpt lat="44.1105" lon="6.03727">
        <ele>679</ele>
        <time>2021-08-24T08:08:01Z</time>
      </trkpt>
      <trkpt lat="44.11054" lon="6.03745">
        <ele>678.8</ele>
        <time>2021-08-24T08:08:07Z</time>
      </trkpt>
      <trkpt lat="44.11055" lon="6.03748">
        <ele>678.6</ele>
        <time>2021-08-24T08:08:08Z</time>
      </trkpt>
      <trkpt lat="44.11057" lon="6.03759">
        <ele>678.6</ele>
        <time>2021-08-24T08:08:11Z</time>
      </trkpt>
      <trkpt lat="44.11063" lon="6.03796">
        <ele>677.2</ele>
        <time>2021-08-24T08:08:19Z</time>
      </trkpt>
      <trkpt lat="44.11065" lon="6.03807">
        <ele>676.8</ele>
        <time>2021-08-24T08:08:21Z</time>
      </trkpt>
      <trkpt lat="44.11073" lon="6.03833">
        <ele>676</ele>
        <time>2021-08-24T08:08:26Z</time>
      </trkpt>
      <trkpt lat="44.11076" lon="6.03838">
        <ele>676</ele>
        <time>2021-08-24T08:08:27Z</time>
      </trkpt>
      <trkpt lat="44.11086" lon="6.03853">
        <ele>675.6</ele>
        <time>2021-08-24T08:08:30Z</time>
      </trkpt>
      <trkpt lat="44.1109" lon="6.03859">
        <ele>675.4</ele>
        <time>2021-08-24T08:08:31Z</time>
      </trkpt>
      <trkpt lat="44.11095" lon="6.03876">
        <ele>675</ele>
        <time>2021-08-24T08:08:33Z</time>
      </trkpt>
      <trkpt lat="44.11094" lon="6.03895">
        <ele>674</ele>
        <time>2021-08-24T08:08:35Z</time>
      </trkpt>
      <trkpt lat="44.11092" lon="6.03905">
        <ele>673.6</ele>
        <time>2021-08-24T08:08:36Z</time>
      </trkpt>
      <trkpt lat="44.11089" lon="6.03923">
        <ele>672.6</ele>
        <time>2021-08-24T08:08:38Z</time>
      </trkpt>
      <trkpt lat="44.11088" lon="6.03931">
        <ele>672</ele>
        <time>2021-08-24T08:08:39Z</time>
      </trkpt>
      <trkpt lat="44.11088" lon="6.0394">
        <ele>671.6</ele>
        <time>2021-08-24T08:08:40Z</time>
      </trkpt>
      <trkpt lat="44.11088" lon="6.03948">
        <ele>670.8</ele>
        <time>2021-08-24T08:08:41Z</time>
      </trkpt>
      <trkpt lat="44.11092" lon="6.03965">
        <ele>669</ele>
        <time>2021-08-24T08:08:43Z</time>
      </trkpt>
      <trkpt lat="44.11101" lon="6.03981">
        <ele>667.4</ele>
        <time>2021-08-24T08:08:45Z</time>
      </trkpt>
      <trkpt lat="44.11109" lon="6.03997">
        <ele>666</ele>
        <time>2021-08-24T08:08:47Z</time>
      </trkpt>
      <trkpt lat="44.11113" lon="6.04015">
        <ele>664.6</ele>
        <time>2021-08-24T08:08:49Z</time>
      </trkpt>
      <trkpt lat="44.11116" lon="6.04035">
        <ele>663.2</ele>
        <time>2021-08-24T08:08:51Z</time>
      </trkpt>
      <trkpt lat="44.11125" lon="6.04064">
        <ele>661.8</ele>
        <time>2021-08-24T08:08:54Z</time>
      </trkpt>
      <trkpt lat="44.11132" lon="6.04085">
        <ele>660.6</ele>
        <time>2021-08-24T08:08:56Z</time>
      </trkpt>
      <trkpt lat="44.11145" lon="6.04113">
        <ele>658.8</ele>
        <time>2021-08-24T08:08:59Z</time>
      </trkpt>
      <trkpt lat="44.11149" lon="6.04123">
        <ele>658</ele>
        <time>2021-08-24T08:09:00Z</time>
      </trkpt>
      <trkpt lat="44.11153" lon="6.04133">
        <ele>657</ele>
        <time>2021-08-24T08:09:01Z</time>
      </trkpt>
      <trkpt lat="44.1116" lon="6.04152">
        <ele>655.8</ele>
        <time>2021-08-24T08:09:03Z</time>
      </trkpt>
      <trkpt lat="44.11173" lon="6.04178">
        <ele>655</ele>
        <time>2021-08-24T08:09:06Z</time>
      </trkpt>
      <trkpt lat="44.11178" lon="6.04198">
        <ele>654.4</ele>
        <time>2021-08-24T08:09:08Z</time>
      </trkpt>
      <trkpt lat="44.11182" lon="6.04221">
        <ele>653</ele>
        <time>2021-08-24T08:09:10Z</time>
      </trkpt>
      <trkpt lat="44.11183" lon="6.04232">
        <ele>652.4</ele>
        <time>2021-08-24T08:09:11Z</time>
      </trkpt>
      <trkpt lat="44.11185" lon="6.04243">
        <ele>651.8</ele>
        <time>2021-08-24T08:09:12Z</time>
      </trkpt>
      <trkpt lat="44.11186" lon="6.04261">
        <ele>650</ele>
        <time>2021-08-24T08:09:14Z</time>
      </trkpt>
      <trkpt lat="44.11186" lon="6.04266">
        <ele>648.8</ele>
        <time>2021-08-24T08:09:15Z</time>
      </trkpt>
      <trkpt lat="44.11187" lon="6.04272">
        <ele>647.8</ele>
        <time>2021-08-24T08:09:16Z</time>
      </trkpt>
      <trkpt lat="44.11183" lon="6.04279">
        <ele>646.2</ele>
        <time>2021-08-24T08:09:18Z</time>
      </trkpt>
      <trkpt lat="44.1118" lon="6.04282">
        <ele>645.4</ele>
        <time>2021-08-24T08:09:20Z</time>
      </trkpt>
      <trkpt lat="44.11178" lon="6.04282">
        <ele>645</ele>
        <time>2021-08-24T08:09:21Z</time>
      </trkpt>
      <trkpt lat="44.11172" lon="6.04276">
        <ele>644.4</ele>
        <time>2021-08-24T08:09:31Z</time>
      </trkpt>
      <trkpt lat="44.11172" lon="6.04274">
        <ele>644.4</ele>
        <time>2021-08-24T08:09:35Z</time>
      </trkpt>
      <trkpt lat="44.11171" lon="6.04272">
        <ele>644.2</ele>
        <time>2021-08-24T08:09:41Z</time>
      </trkpt>
      <trkpt lat="44.1117" lon="6.0427">
        <ele>644.2</ele>
        <time>2021-08-24T08:09:42Z</time>
      </trkpt>
      <trkpt lat="44.11169" lon="6.04268">
        <ele>644.2</ele>
        <time>2021-08-24T08:09:43Z</time>
      </trkpt>
      <trkpt lat="44.11168" lon="6.04265">
        <ele>644.2</ele>
        <time>2021-08-24T08:09:44Z</time>
      </trkpt>
      <trkpt lat="44.11166" lon="6.04259">
        <ele>644</ele>
        <time>2021-08-24T08:09:46Z</time>
      </trkpt>
      <trkpt lat="44.11158" lon="6.04243">
        <ele>642.8</ele>
        <time>2021-08-24T08:09:50Z</time>
      </trkpt>
      <trkpt lat="44.11154" lon="6.04238">
        <ele>642.4</ele>
        <time>2021-08-24T08:09:51Z</time>
      </trkpt>
      <trkpt lat="44.11142" lon="6.04217">
        <ele>641.4</ele>
        <time>2021-08-24T08:09:54Z</time>
      </trkpt>
      <trkpt lat="44.11133" lon="6.04191">
        <ele>640</ele>
        <time>2021-08-24T08:09:57Z</time>
      </trkpt>
      <trkpt lat="44.11127" lon="6.0418">
        <ele>638.2</ele>
        <time>2021-08-24T08:09:59Z</time>
      </trkpt>
      <trkpt lat="44.11121" lon="6.04181">
        <ele>637</ele>
        <time>2021-08-24T08:10:01Z</time>
      </trkpt>
      <trkpt lat="44.11118" lon="6.04184">
        <ele>636.6</ele>
        <time>2021-08-24T08:10:02Z</time>
      </trkpt>
      <trkpt lat="44.11115" lon="6.04198">
        <ele>635.4</ele>
        <time>2021-08-24T08:10:04Z</time>
      </trkpt>
      <trkpt lat="44.11112" lon="6.04215">
        <ele>634.2</ele>
        <time>2021-08-24T08:10:06Z</time>
      </trkpt>
      <trkpt lat="44.11111" lon="6.04225">
        <ele>633.8</ele>
        <time>2021-08-24T08:10:07Z</time>
      </trkpt>
      <trkpt lat="44.11108" lon="6.04235">
        <ele>633.2</ele>
        <time>2021-08-24T08:10:08Z</time>
      </trkpt>
      <trkpt lat="44.11101" lon="6.04255">
        <ele>631.8</ele>
        <time>2021-08-24T08:10:10Z</time>
      </trkpt>
      <trkpt lat="44.11097" lon="6.04265">
        <ele>631</ele>
        <time>2021-08-24T08:10:11Z</time>
      </trkpt>
      <trkpt lat="44.11093" lon="6.04276">
        <ele>630.2</ele>
        <time>2021-08-24T08:10:12Z</time>
      </trkpt>
      <trkpt lat="44.11085" lon="6.04297">
        <ele>629.2</ele>
        <time>2021-08-24T08:10:14Z</time>
      </trkpt>
      <trkpt lat="44.11076" lon="6.04318">
        <ele>627.6</ele>
        <time>2021-08-24T08:10:16Z</time>
      </trkpt>
      <trkpt lat="44.11071" lon="6.04327">
        <ele>626.8</ele>
        <time>2021-08-24T08:10:17Z</time>
      </trkpt>
      <trkpt lat="44.11066" lon="6.04337">
        <ele>626.4</ele>
        <time>2021-08-24T08:10:18Z</time>
      </trkpt>
      <trkpt lat="44.11061" lon="6.04346">
        <ele>625.8</ele>
        <time>2021-08-24T08:10:19Z</time>
      </trkpt>
      <trkpt lat="44.11056" lon="6.04355">
        <ele>625.2</ele>
        <time>2021-08-24T08:10:20Z</time>
      </trkpt>
      <trkpt lat="44.1105" lon="6.04363">
        <ele>624.6</ele>
        <time>2021-08-24T08:10:21Z</time>
      </trkpt>
      <trkpt lat="44.11043" lon="6.04371">
        <ele>624.2</ele>
        <time>2021-08-24T08:10:22Z</time>
      </trkpt>
      <trkpt lat="44.11032" lon="6.04388">
        <ele>623.6</ele>
        <time>2021-08-24T08:10:24Z</time>
      </trkpt>
      <trkpt lat="44.1102" lon="6.04412">
        <ele>623.2</ele>
        <time>2021-08-24T08:10:27Z</time>
      </trkpt>
      <trkpt lat="44.1102" lon="6.04419">
        <ele>622.8</ele>
        <time>2021-08-24T08:10:28Z</time>
      </trkpt>
      <trkpt lat="44.11021" lon="6.04427">
        <ele>622.4</ele>
        <time>2021-08-24T08:10:29Z</time>
      </trkpt>
      <trkpt lat="44.11028" lon="6.04433">
        <ele>621.8</ele>
        <time>2021-08-24T08:10:31Z</time>
      </trkpt>
      <trkpt lat="44.11031" lon="6.04434">
        <ele>621.8</ele>
        <time>2021-08-24T08:10:32Z</time>
      </trkpt>
      <trkpt lat="44.11036" lon="6.04434">
        <ele>621.6</ele>
        <time>2021-08-24T08:10:33Z</time>
      </trkpt>
      <trkpt lat="44.11071" lon="6.04417">
        <ele>620.6</ele>
        <time>2021-08-24T08:10:39Z</time>
      </trkpt>
      <trkpt lat="44.11082" lon="6.0441">
        <ele>620</ele>
        <time>2021-08-24T08:10:41Z</time>
      </trkpt>
      <trkpt lat="44.11088" lon="6.04407">
        <ele>619.6</ele>
        <time>2021-08-24T08:10:42Z</time>
      </trkpt>
      <trkpt lat="44.111" lon="6.04401">
        <ele>619.2</ele>
        <time>2021-08-24T08:10:44Z</time>
      </trkpt>
      <trkpt lat="44.11113" lon="6.04399">
        <ele>619</ele>
        <time>2021-08-24T08:10:46Z</time>
      </trkpt>
      <trkpt lat="44.11121" lon="6.04419">
        <ele>620.2</ele>
        <time>2021-08-24T08:10:51Z</time>
      </trkpt>
      <trkpt lat="44.11118" lon="6.04427">
        <ele>620.8</ele>
        <time>2021-08-24T08:10:53Z</time>
      </trkpt>
      <trkpt lat="44.1111" lon="6.04451">
        <ele>621.8</ele>
        <time>2021-08-24T08:10:59Z</time>
      </trkpt>
      <trkpt lat="44.11104" lon="6.04458">
        <ele>622.6</ele>
        <time>2021-08-24T08:11:01Z</time>
      </trkpt>
      <trkpt lat="44.11097" lon="6.04466">
        <ele>623</ele>
        <time>2021-08-24T08:11:04Z</time>
      </trkpt>
      <trkpt lat="44.11091" lon="6.04477">
        <ele>624.2</ele>
        <time>2021-08-24T08:11:07Z</time>
      </trkpt>
      <trkpt lat="44.11085" lon="6.04493">
        <ele>625.2</ele>
        <time>2021-08-24T08:11:11Z</time>
      </trkpt>
      <trkpt lat="44.11085" lon="6.04497">
        <ele>625.4</ele>
        <time>2021-08-24T08:11:12Z</time>
      </trkpt>
      <trkpt lat="44.1109" lon="6.04518">
        <ele>626.4</ele>
        <time>2021-08-24T08:11:17Z</time>
      </trkpt>
      <trkpt lat="44.11092" lon="6.04534">
        <ele>627.6</ele>
        <time>2021-08-24T08:11:21Z</time>
      </trkpt>
      <trkpt lat="44.11093" lon="6.04551">
        <ele>628.8</ele>
        <time>2021-08-24T08:11:25Z</time>
      </trkpt>
      <trkpt lat="44.11094" lon="6.04561">
        <ele>629.8</ele>
        <time>2021-08-24T08:11:28Z</time>
      </trkpt>
      <trkpt lat="44.11096" lon="6.0457">
        <ele>630.8</ele>
        <time>2021-08-24T08:11:31Z</time>
      </trkpt>
      <trkpt lat="44.11097" lon="6.04574">
        <ele>631.2</ele>
        <time>2021-08-24T08:11:32Z</time>
      </trkpt>
      <trkpt lat="44.11101" lon="6.04589">
        <ele>632.2</ele>
        <time>2021-08-24T08:11:36Z</time>
      </trkpt>
      <trkpt lat="44.11103" lon="6.046">
        <ele>633.4</ele>
        <time>2021-08-24T08:11:39Z</time>
      </trkpt>
      <trkpt lat="44.11104" lon="6.04608">
        <ele>634</ele>
        <time>2021-08-24T08:11:41Z</time>
      </trkpt>
      <trkpt lat="44.11106" lon="6.04619">
        <ele>634.4</ele>
        <time>2021-08-24T08:11:44Z</time>
      </trkpt>
      <trkpt lat="44.11108" lon="6.04645">
        <ele>635.6</ele>
        <time>2021-08-24T08:11:51Z</time>
      </trkpt>
      <trkpt lat="44.11096" lon="6.04683">
        <ele>636.4</ele>
        <time>2021-08-24T08:12:01Z</time>
      </trkpt>
      <trkpt lat="44.11096" lon="6.04687">
        <ele>636.6</ele>
        <time>2021-08-24T08:12:02Z</time>
      </trkpt>
      <trkpt lat="44.11097" lon="6.04737">
        <ele>637.2</ele>
        <time>2021-08-24T08:12:11Z</time>
      </trkpt>
      <trkpt lat="44.11097" lon="6.04743">
        <ele>637.6</ele>
        <time>2021-08-24T08:12:12Z</time>
      </trkpt>
      <trkpt lat="44.11096" lon="6.04763">
        <ele>638.6</ele>
        <time>2021-08-24T08:12:16Z</time>
      </trkpt>
      <trkpt lat="44.11098" lon="6.04787">
        <ele>639.4</ele>
        <time>2021-08-24T08:12:21Z</time>
      </trkpt>
      <trkpt lat="44.111" lon="6.04795">
        <ele>639.8</ele>
        <time>2021-08-24T08:12:23Z</time>
      </trkpt>
      <trkpt lat="44.11105" lon="6.04808">
        <ele>641</ele>
        <time>2021-08-24T08:12:27Z</time>
      </trkpt>
      <trkpt lat="44.1111" lon="6.04815">
        <ele>642</ele>
        <time>2021-08-24T08:12:31Z</time>
      </trkpt>
      <trkpt lat="44.11116" lon="6.04832">
        <ele>642.8</ele>
        <time>2021-08-24T08:12:38Z</time>
      </trkpt>
      <trkpt lat="44.11117" lon="6.04835">
        <ele>643.2</ele>
        <time>2021-08-24T08:12:39Z</time>
      </trkpt>
      <trkpt lat="44.11118" lon="6.04841">
        <ele>643.6</ele>
        <time>2021-08-24T08:12:41Z</time>
      </trkpt>
      <trkpt lat="44.11119" lon="6.04842">
        <ele>644</ele>
        <time>2021-08-24T08:12:42Z</time>
      </trkpt>
      <trkpt lat="44.11124" lon="6.04845">
        <ele>644.2</ele>
        <time>2021-08-24T08:12:44Z</time>
      </trkpt>
      <trkpt lat="44.11127" lon="6.04839">
        <ele>644.8</ele>
        <time>2021-08-24T08:12:47Z</time>
      </trkpt>
      <trkpt lat="44.11127" lon="6.04829">
        <ele>645.2</ele>
        <time>2021-08-24T08:12:51Z</time>
      </trkpt>
      <trkpt lat="44.11126" lon="6.04827">
        <ele>645.4</ele>
        <time>2021-08-24T08:12:52Z</time>
      </trkpt>
      <trkpt lat="44.11126" lon="6.04825">
        <ele>645.6</ele>
        <time>2021-08-24T08:12:53Z</time>
      </trkpt>
      <trkpt lat="44.11123" lon="6.04817">
        <ele>646.4</ele>
        <time>2021-08-24T08:12:57Z</time>
      </trkpt>
      <trkpt lat="44.11117" lon="6.04809">
        <ele>647.2</ele>
        <time>2021-08-24T08:13:01Z</time>
      </trkpt>
      <trkpt lat="44.11117" lon="6.04807">
        <ele>647.4</ele>
        <time>2021-08-24T08:13:02Z</time>
      </trkpt>
      <trkpt lat="44.11116" lon="6.04793">
        <ele>648.4</ele>
        <time>2021-08-24T08:13:07Z</time>
      </trkpt>
      <trkpt lat="44.11116" lon="6.0479">
        <ele>648.6</ele>
        <time>2021-08-24T08:13:08Z</time>
      </trkpt>
      <trkpt lat="44.11117" lon="6.04781">
        <ele>649</ele>
        <time>2021-08-24T08:13:11Z</time>
      </trkpt>
      <trkpt lat="44.11119" lon="6.04772">
        <ele>649.8</ele>
        <time>2021-08-24T08:13:15Z</time>
      </trkpt>
      <trkpt lat="44.11125" lon="6.04756">
        <ele>650.8</ele>
        <time>2021-08-24T08:13:21Z</time>
      </trkpt>
      <trkpt lat="44.11127" lon="6.04742">
        <ele>652</ele>
        <time>2021-08-24T08:13:27Z</time>
      </trkpt>
      <trkpt lat="44.11129" lon="6.04735">
        <ele>653.2</ele>
        <time>2021-08-24T08:13:31Z</time>
      </trkpt>
      <trkpt lat="44.11129" lon="6.04731">
        <ele>653.8</ele>
        <time>2021-08-24T08:13:33Z</time>
      </trkpt>
      <trkpt lat="44.1113" lon="6.04728">
        <ele>654.4</ele>
        <time>2021-08-24T08:13:35Z</time>
      </trkpt>
      <trkpt lat="44.11132" lon="6.04718">
        <ele>655.2</ele>
        <time>2021-08-24T08:13:39Z</time>
      </trkpt>
      <trkpt lat="44.11133" lon="6.04716">
        <ele>655.4</ele>
        <time>2021-08-24T08:13:40Z</time>
      </trkpt>
      <trkpt lat="44.11134" lon="6.04714">
        <ele>655.6</ele>
        <time>2021-08-24T08:13:41Z</time>
      </trkpt>
      <trkpt lat="44.11136" lon="6.04708">
        <ele>656.6</ele>
        <time>2021-08-24T08:13:44Z</time>
      </trkpt>
      <trkpt lat="44.11141" lon="6.04696">
        <ele>657.6</ele>
        <time>2021-08-24T08:13:50Z</time>
      </trkpt>
      <trkpt lat="44.11142" lon="6.04694">
        <ele>657.8</ele>
        <time>2021-08-24T08:13:51Z</time>
      </trkpt>
      <trkpt lat="44.11145" lon="6.04689">
        <ele>658.6</ele>
        <time>2021-08-24T08:13:54Z</time>
      </trkpt>
      <trkpt lat="44.11146" lon="6.04687">
        <ele>658.8</ele>
        <time>2021-08-24T08:13:55Z</time>
      </trkpt>
      <trkpt lat="44.11152" lon="6.04675">
        <ele>660</ele>
        <time>2021-08-24T08:14:00Z</time>
      </trkpt>
      <trkpt lat="44.11154" lon="6.04674">
        <ele>660.2</ele>
        <time>2021-08-24T08:14:01Z</time>
      </trkpt>
      <trkpt lat="44.11167" lon="6.04665">
        <ele>661.2</ele>
        <time>2021-08-24T08:14:07Z</time>
      </trkpt>
      <trkpt lat="44.11174" lon="6.04662">
        <ele>662.2</ele>
        <time>2021-08-24T08:14:11Z</time>
      </trkpt>
      <trkpt lat="44.11175" lon="6.04661">
        <ele>662.4</ele>
        <time>2021-08-24T08:14:12Z</time>
      </trkpt>
      <trkpt lat="44.11183" lon="6.04656">
        <ele>663.6</ele>
        <time>2021-08-24T08:14:17Z</time>
      </trkpt>
      <trkpt lat="44.11189" lon="6.0465">
        <ele>664.4</ele>
        <time>2021-08-24T08:14:21Z</time>
      </trkpt>
      <trkpt lat="44.11191" lon="6.04647">
        <ele>664.8</ele>
        <time>2021-08-24T08:14:23Z</time>
      </trkpt>
      <trkpt lat="44.112" lon="6.04637">
        <ele>665.8</ele>
        <time>2021-08-24T08:14:30Z</time>
      </trkpt>
      <trkpt lat="44.11201" lon="6.04635">
        <ele>666</ele>
        <time>2021-08-24T08:14:31Z</time>
      </trkpt>
      <trkpt lat="44.11203" lon="6.04628">
        <ele>666.6</ele>
        <time>2021-08-24T08:14:34Z</time>
      </trkpt>
      <trkpt lat="44.11205" lon="6.04627">
        <ele>667</ele>
        <time>2021-08-24T08:14:35Z</time>
      </trkpt>
      <trkpt lat="44.1121" lon="6.04619">
        <ele>668</ele>
        <time>2021-08-24T08:14:40Z</time>
      </trkpt>
      <trkpt lat="44.11212" lon="6.04619">
        <ele>668.2</ele>
        <time>2021-08-24T08:14:41Z</time>
      </trkpt>
      <trkpt lat="44.11221" lon="6.04617">
        <ele>669.2</ele>
        <time>2021-08-24T08:14:45Z</time>
      </trkpt>
      <trkpt lat="44.11229" lon="6.04617">
        <ele>670.2</ele>
        <time>2021-08-24T08:14:48Z</time>
      </trkpt>
      <trkpt lat="44.11236" lon="6.04617">
        <ele>671</ele>
        <time>2021-08-24T08:14:51Z</time>
      </trkpt>
      <trkpt lat="44.11239" lon="6.04624">
        <ele>671.4</ele>
        <time>2021-08-24T08:14:54Z</time>
      </trkpt>
      <trkpt lat="44.11242" lon="6.04634">
        <ele>672.6</ele>
        <time>2021-08-24T08:14:58Z</time>
      </trkpt>
      <trkpt lat="44.11245" lon="6.04638">
        <ele>673.2</ele>
        <time>2021-08-24T08:15:01Z</time>
      </trkpt>
      <trkpt lat="44.11247" lon="6.04643">
        <ele>673.8</ele>
        <time>2021-08-24T08:15:04Z</time>
      </trkpt>
      <trkpt lat="44.11248" lon="6.04654">
        <ele>674.8</ele>
        <time>2021-08-24T08:15:10Z</time>
      </trkpt>
      <trkpt lat="44.11249" lon="6.04656">
        <ele>675</ele>
        <time>2021-08-24T08:15:11Z</time>
      </trkpt>
      <trkpt lat="44.11253" lon="6.04662">
        <ele>675.8</ele>
        <time>2021-08-24T08:15:14Z</time>
      </trkpt>
      <trkpt lat="44.11263" lon="6.04679">
        <ele>676.6</ele>
        <time>2021-08-24T08:15:21Z</time>
      </trkpt>
      <trkpt lat="44.11264" lon="6.04682">
        <ele>676.8</ele>
        <time>2021-08-24T08:15:22Z</time>
      </trkpt>
      <trkpt lat="44.11265" lon="6.04687">
        <ele>677.4</ele>
        <time>2021-08-24T08:15:24Z</time>
      </trkpt>
      <trkpt lat="44.11267" lon="6.04694">
        <ele>678</ele>
        <time>2021-08-24T08:15:27Z</time>
      </trkpt>
      <trkpt lat="44.11269" lon="6.04704">
        <ele>678.8</ele>
        <time>2021-08-24T08:15:31Z</time>
      </trkpt>
      <trkpt lat="44.11268" lon="6.04711">
        <ele>679</ele>
        <time>2021-08-24T08:15:33Z</time>
      </trkpt>
      <trkpt lat="44.11268" lon="6.04717">
        <ele>679.4</ele>
        <time>2021-08-24T08:15:36Z</time>
      </trkpt>
      <trkpt lat="44.11267" lon="6.04732">
        <ele>680.2</ele>
        <time>2021-08-24T08:15:41Z</time>
      </trkpt>
      <trkpt lat="44.11266" lon="6.04747">
        <ele>681.2</ele>
        <time>2021-08-24T08:15:46Z</time>
      </trkpt>
      <trkpt lat="44.11263" lon="6.04764">
        <ele>682.6</ele>
        <time>2021-08-24T08:15:51Z</time>
      </trkpt>
      <trkpt lat="44.11262" lon="6.04773">
        <ele>683.2</ele>
        <time>2021-08-24T08:15:54Z</time>
      </trkpt>
      <trkpt lat="44.11262" lon="6.04776">
        <ele>683.6</ele>
        <time>2021-08-24T08:15:55Z</time>
      </trkpt>
      <trkpt lat="44.11262" lon="6.04784">
        <ele>684.4</ele>
        <time>2021-08-24T08:15:58Z</time>
      </trkpt>
      <trkpt lat="44.11263" lon="6.04791">
        <ele>684.6</ele>
        <time>2021-08-24T08:16:00Z</time>
      </trkpt>
      <trkpt lat="44.11263" lon="6.04794">
        <ele>684.8</ele>
        <time>2021-08-24T08:16:01Z</time>
      </trkpt>
      <trkpt lat="44.11262" lon="6.04804">
        <ele>685.8</ele>
        <time>2021-08-24T08:16:05Z</time>
      </trkpt>
      <trkpt lat="44.11262" lon="6.04818">
        <ele>686.8</ele>
        <time>2021-08-24T08:16:10Z</time>
      </trkpt>
      <trkpt lat="44.11262" lon="6.04822">
        <ele>687</ele>
        <time>2021-08-24T08:16:11Z</time>
      </trkpt>
      <trkpt lat="44.11261" lon="6.04828">
        <ele>688</ele>
        <time>2021-08-24T08:16:15Z</time>
      </trkpt>
      <trkpt lat="44.11257" lon="6.04836">
        <ele>689</ele>
        <time>2021-08-24T08:16:19Z</time>
      </trkpt>
      <trkpt lat="44.11255" lon="6.04841">
        <ele>689.4</ele>
        <time>2021-08-24T08:16:21Z</time>
      </trkpt>
      <trkpt lat="44.11252" lon="6.0485">
        <ele>690.2</ele>
        <time>2021-08-24T08:16:24Z</time>
      </trkpt>
      <trkpt lat="44.11251" lon="6.04855">
        <ele>691</ele>
        <time>2021-08-24T08:16:28Z</time>
      </trkpt>
      <trkpt lat="44.11251" lon="6.04857">
        <ele>691.2</ele>
        <time>2021-08-24T08:16:29Z</time>
      </trkpt>
      <trkpt lat="44.11251" lon="6.04861">
        <ele>691.8</ele>
        <time>2021-08-24T08:16:31Z</time>
      </trkpt>
      <trkpt lat="44.11251" lon="6.04866">
        <ele>692.4</ele>
        <time>2021-08-24T08:16:33Z</time>
      </trkpt>
      <trkpt lat="44.11253" lon="6.04881">
        <ele>693.6</ele>
        <time>2021-08-24T08:16:38Z</time>
      </trkpt>
      <trkpt lat="44.11254" lon="6.04891">
        <ele>694.4</ele>
        <time>2021-08-24T08:16:41Z</time>
      </trkpt>
      <trkpt lat="44.11254" lon="6.04894">
        <ele>694.8</ele>
        <time>2021-08-24T08:16:42Z</time>
      </trkpt>
      <trkpt lat="44.11257" lon="6.04911">
        <ele>695.8</ele>
        <time>2021-08-24T08:16:47Z</time>
      </trkpt>
      <trkpt lat="44.11259" lon="6.04924">
        <ele>696.6</ele>
        <time>2021-08-24T08:16:51Z</time>
      </trkpt>
      <trkpt lat="44.1126" lon="6.04926">
        <ele>696.8</ele>
        <time>2021-08-24T08:16:52Z</time>
      </trkpt>
      <trkpt lat="44.11263" lon="6.04937">
        <ele>698</ele>
        <time>2021-08-24T08:16:56Z</time>
      </trkpt>
      <trkpt lat="44.11264" lon="6.04952">
        <ele>699</ele>
        <time>2021-08-24T08:17:01Z</time>
      </trkpt>
      <trkpt lat="44.11264" lon="6.04954">
        <ele>699.2</ele>
        <time>2021-08-24T08:17:02Z</time>
      </trkpt>
      <trkpt lat="44.11264" lon="6.04957">
        <ele>699.4</ele>
        <time>2021-08-24T08:17:03Z</time>
      </trkpt>
      <trkpt lat="44.11263" lon="6.04966">
        <ele>700.4</ele>
        <time>2021-08-24T08:17:07Z</time>
      </trkpt>
      <trkpt lat="44.11263" lon="6.04973">
        <ele>701.4</ele>
        <time>2021-08-24T08:17:11Z</time>
      </trkpt>
      <trkpt lat="44.11263" lon="6.04975">
        <ele>701.6</ele>
        <time>2021-08-24T08:17:12Z</time>
      </trkpt>
      <trkpt lat="44.11263" lon="6.04984">
        <ele>702.2</ele>
        <time>2021-08-24T08:17:16Z</time>
      </trkpt>
      <trkpt lat="44.11264" lon="6.04989">
        <ele>702.6</ele>
        <time>2021-08-24T08:17:18Z</time>
      </trkpt>
      <trkpt lat="44.11265" lon="6.04997">
        <ele>703.4</ele>
        <time>2021-08-24T08:17:21Z</time>
      </trkpt>
      <trkpt lat="44.11265" lon="6.04999">
        <ele>703.6</ele>
        <time>2021-08-24T08:17:22Z</time>
      </trkpt>
      <trkpt lat="44.11266" lon="6.05002">
        <ele>703.8</ele>
        <time>2021-08-24T08:17:23Z</time>
      </trkpt>
      <trkpt lat="44.11269" lon="6.05013">
        <ele>705</ele>
        <time>2021-08-24T08:17:28Z</time>
      </trkpt>
      <trkpt lat="44.1127" lon="6.05019">
        <ele>705.6</ele>
        <time>2021-08-24T08:17:31Z</time>
      </trkpt>
      <trkpt lat="44.11272" lon="6.05023">
        <ele>706.2</ele>
        <time>2021-08-24T08:17:33Z</time>
      </trkpt>
      <trkpt lat="44.11272" lon="6.05024">
        <ele>706.4</ele>
        <time>2021-08-24T08:17:34Z</time>
      </trkpt>
      <trkpt lat="44.11277" lon="6.0503">
        <ele>707.2</ele>
        <time>2021-08-24T08:17:39Z</time>
      </trkpt>
      <trkpt lat="44.1128" lon="6.0503">
        <ele>707.4</ele>
        <time>2021-08-24T08:17:41Z</time>
      </trkpt>
      <trkpt lat="44.11284" lon="6.05032">
        <ele>708.2</ele>
        <time>2021-08-24T08:17:45Z</time>
      </trkpt>
      <trkpt lat="44.11289" lon="6.05037">
        <ele>709.2</ele>
        <time>2021-08-24T08:17:50Z</time>
      </trkpt>
      <trkpt lat="44.11291" lon="6.05037">
        <ele>709.4</ele>
        <time>2021-08-24T08:17:51Z</time>
      </trkpt>
      <trkpt lat="44.11301" lon="6.05042">
        <ele>710.4</ele>
        <time>2021-08-24T08:17:57Z</time>
      </trkpt>
      <trkpt lat="44.11306" lon="6.05051">
        <ele>711</ele>
        <time>2021-08-24T08:18:01Z</time>
      </trkpt>
      <trkpt lat="44.11308" lon="6.05052">
        <ele>711</ele>
        <time>2021-08-24T08:18:02Z</time>
      </trkpt>
      <trkpt lat="44.11311" lon="6.05057">
        <ele>711.4</ele>
        <time>2021-08-24T08:18:05Z</time>
      </trkpt>
      <trkpt lat="44.11313" lon="6.05066">
        <ele>712.6</ele>
        <time>2021-08-24T08:18:10Z</time>
      </trkpt>
      <trkpt lat="44.11312" lon="6.05067">
        <ele>712.8</ele>
        <time>2021-08-24T08:18:11Z</time>
      </trkpt>
      <trkpt lat="44.1131" lon="6.05077">
        <ele>713.8</ele>
        <time>2021-08-24T08:18:16Z</time>
      </trkpt>
      <trkpt lat="44.11309" lon="6.05082">
        <ele>714.4</ele>
        <time>2021-08-24T08:18:18Z</time>
      </trkpt>
      <trkpt lat="44.11309" lon="6.05084">
        <ele>714.6</ele>
        <time>2021-08-24T08:18:19Z</time>
      </trkpt>
      <trkpt lat="44.1131" lon="6.05091">
        <ele>715</ele>
        <time>2021-08-24T08:18:21Z</time>
      </trkpt>
      <trkpt lat="44.11315" lon="6.05102">
        <ele>715.8</ele>
        <time>2021-08-24T08:18:25Z</time>
      </trkpt>
      <trkpt lat="44.11318" lon="6.05104">
        <ele>716.2</ele>
        <time>2021-08-24T08:18:29Z</time>
      </trkpt>
      <trkpt lat="44.1132" lon="6.05103">
        <ele>716.2</ele>
        <time>2021-08-24T08:18:30Z</time>
      </trkpt>
      <trkpt lat="44.11321" lon="6.05102">
        <ele>716.4</ele>
        <time>2021-08-24T08:18:31Z</time>
      </trkpt>
      <trkpt lat="44.11323" lon="6.05101">
        <ele>716.6</ele>
        <time>2021-08-24T08:18:32Z</time>
      </trkpt>
      <trkpt lat="44.11329" lon="6.05098">
        <ele>717</ele>
        <time>2021-08-24T08:18:36Z</time>
      </trkpt>
      <trkpt lat="44.11332" lon="6.05095">
        <ele>717.2</ele>
        <time>2021-08-24T08:18:38Z</time>
      </trkpt>
      <trkpt lat="44.11334" lon="6.05092">
        <ele>717.6</ele>
        <time>2021-08-24T08:18:40Z</time>
      </trkpt>
      <trkpt lat="44.11335" lon="6.0509">
        <ele>717.8</ele>
        <time>2021-08-24T08:18:41Z</time>
      </trkpt>
      <trkpt lat="44.11337" lon="6.05086">
        <ele>718.2</ele>
        <time>2021-08-24T08:18:43Z</time>
      </trkpt>
      <trkpt lat="44.11343" lon="6.05078">
        <ele>719.4</ele>
        <time>2021-08-24T08:18:49Z</time>
      </trkpt>
      <trkpt lat="44.11348" lon="6.05075">
        <ele>719.8</ele>
        <time>2021-08-24T08:18:51Z</time>
      </trkpt>
      <trkpt lat="44.11351" lon="6.05069">
        <ele>720.4</ele>
        <time>2021-08-24T08:18:54Z</time>
      </trkpt>
      <trkpt lat="44.11358" lon="6.05055">
        <ele>721.4</ele>
        <time>2021-08-24T08:19:00Z</time>
      </trkpt>
      <trkpt lat="44.11359" lon="6.05053">
        <ele>721.6</ele>
        <time>2021-08-24T08:19:01Z</time>
      </trkpt>
      <trkpt lat="44.1136" lon="6.05042">
        <ele>722.2</ele>
        <time>2021-08-24T08:19:05Z</time>
      </trkpt>
      <trkpt lat="44.11361" lon="6.05039">
        <ele>722.6</ele>
        <time>2021-08-24T08:19:07Z</time>
      </trkpt>
      <trkpt lat="44.11359" lon="6.05025">
        <ele>723.6</ele>
        <time>2021-08-24T08:19:11Z</time>
      </trkpt>
      <trkpt lat="44.11359" lon="6.05023">
        <ele>723.8</ele>
        <time>2021-08-24T08:19:12Z</time>
      </trkpt>
      <trkpt lat="44.11361" lon="6.05013">
        <ele>724.4</ele>
        <time>2021-08-24T08:19:16Z</time>
      </trkpt>
      <trkpt lat="44.11362" lon="6.0501">
        <ele>724.6</ele>
        <time>2021-08-24T08:19:17Z</time>
      </trkpt>
      <trkpt lat="44.11363" lon="6.05008">
        <ele>724.8</ele>
        <time>2021-08-24T08:19:18Z</time>
      </trkpt>
      <trkpt lat="44.11366" lon="6.05001">
        <ele>725.4</ele>
        <time>2021-08-24T08:19:21Z</time>
      </trkpt>
      <trkpt lat="44.11366" lon="6.04995">
        <ele>726</ele>
        <time>2021-08-24T08:19:24Z</time>
      </trkpt>
      <trkpt lat="44.1137" lon="6.04985">
        <ele>727</ele>
        <time>2021-08-24T08:19:30Z</time>
      </trkpt>
      <trkpt lat="44.11371" lon="6.04983">
        <ele>727.2</ele>
        <time>2021-08-24T08:19:31Z</time>
      </trkpt>
      <trkpt lat="44.11376" lon="6.04976">
        <ele>728.2</ele>
        <time>2021-08-24T08:19:35Z</time>
      </trkpt>
      <trkpt lat="44.1138" lon="6.04971">
        <ele>728.6</ele>
        <time>2021-08-24T08:19:38Z</time>
      </trkpt>
      <trkpt lat="44.11382" lon="6.04966">
        <ele>729.2</ele>
        <time>2021-08-24T08:19:41Z</time>
      </trkpt>
      <trkpt lat="44.11386" lon="6.04961">
        <ele>729.6</ele>
        <time>2021-08-24T08:19:44Z</time>
      </trkpt>
      <trkpt lat="44.11388" lon="6.04958">
        <ele>730.2</ele>
        <time>2021-08-24T08:19:46Z</time>
      </trkpt>
      <trkpt lat="44.11392" lon="6.04953">
        <ele>730.8</ele>
        <time>2021-08-24T08:19:49Z</time>
      </trkpt>
      <trkpt lat="44.11396" lon="6.04951">
        <ele>731.2</ele>
        <time>2021-08-24T08:19:51Z</time>
      </trkpt>
      <trkpt lat="44.11401" lon="6.04948">
        <ele>731.6</ele>
        <time>2021-08-24T08:19:54Z</time>
      </trkpt>
      <trkpt lat="44.11405" lon="6.04944">
        <ele>732.2</ele>
        <time>2021-08-24T08:19:57Z</time>
      </trkpt>
      <trkpt lat="44.11408" lon="6.04943">
        <ele>732.2</ele>
        <time>2021-08-24T08:19:58Z</time>
      </trkpt>
      <trkpt lat="44.11413" lon="6.04935">
        <ele>732.6</ele>
        <time>2021-08-24T08:20:01Z</time>
      </trkpt>
      <trkpt lat="44.11419" lon="6.04923">
        <ele>733.2</ele>
        <time>2021-08-24T08:20:07Z</time>
      </trkpt>
      <trkpt lat="44.11421" lon="6.04917">
        <ele>733.6</ele>
        <time>2021-08-24T08:20:09Z</time>
      </trkpt>
      <trkpt lat="44.11423" lon="6.04911">
        <ele>733.8</ele>
        <time>2021-08-24T08:20:11Z</time>
      </trkpt>
      <trkpt lat="44.11425" lon="6.04905">
        <ele>734.4</ele>
        <time>2021-08-24T08:20:13Z</time>
      </trkpt>
      <trkpt lat="44.11431" lon="6.04894">
        <ele>735.6</ele>
        <time>2021-08-24T08:20:19Z</time>
      </trkpt>
      <trkpt lat="44.11434" lon="6.04891">
        <ele>735.8</ele>
        <time>2021-08-24T08:20:21Z</time>
      </trkpt>
      <trkpt lat="44.11443" lon="6.0489">
        <ele>736.8</ele>
        <time>2021-08-24T08:20:25Z</time>
      </trkpt>
      <trkpt lat="44.11449" lon="6.04891">
        <ele>737.8</ele>
        <time>2021-08-24T08:20:29Z</time>
      </trkpt>
      <trkpt lat="44.11452" lon="6.04893">
        <ele>738.4</ele>
        <time>2021-08-24T08:20:31Z</time>
      </trkpt>
      <trkpt lat="44.11454" lon="6.04895">
        <ele>739</ele>
        <time>2021-08-24T08:20:33Z</time>
      </trkpt>
      <trkpt lat="44.11456" lon="6.04896">
        <ele>739.2</ele>
        <time>2021-08-24T08:20:34Z</time>
      </trkpt>
      <trkpt lat="44.1146" lon="6.04906">
        <ele>740</ele>
        <time>2021-08-24T08:20:38Z</time>
      </trkpt>
      <trkpt lat="44.11463" lon="6.04912">
        <ele>740.4</ele>
        <time>2021-08-24T08:20:41Z</time>
      </trkpt>
      <trkpt lat="44.11464" lon="6.04917">
        <ele>741.2</ele>
        <time>2021-08-24T08:20:43Z</time>
      </trkpt>
      <trkpt lat="44.11463" lon="6.04932">
        <ele>742.4</ele>
        <time>2021-08-24T08:20:50Z</time>
      </trkpt>
      <trkpt lat="44.11464" lon="6.04934">
        <ele>742.6</ele>
        <time>2021-08-24T08:20:51Z</time>
      </trkpt>
      <trkpt lat="44.11462" lon="6.04942">
        <ele>743.4</ele>
        <time>2021-08-24T08:20:55Z</time>
      </trkpt>
      <trkpt lat="44.11456" lon="6.04954">
        <ele>744.4</ele>
        <time>2021-08-24T08:21:01Z</time>
      </trkpt>
      <trkpt lat="44.11455" lon="6.04956">
        <ele>744.4</ele>
        <time>2021-08-24T08:21:02Z</time>
      </trkpt>
      <trkpt lat="44.11446" lon="6.04962">
        <ele>745.6</ele>
        <time>2021-08-24T08:21:09Z</time>
      </trkpt>
      <trkpt lat="44.11444" lon="6.04964">
        <ele>746</ele>
        <time>2021-08-24T08:21:11Z</time>
      </trkpt>
      <trkpt lat="44.11441" lon="6.0497">
        <ele>746.4</ele>
        <time>2021-08-24T08:21:14Z</time>
      </trkpt>
      <trkpt lat="44.11438" lon="6.04974">
        <ele>746.6</ele>
        <time>2021-08-24T08:21:17Z</time>
      </trkpt>
      <trkpt lat="44.11435" lon="6.04982">
        <ele>747.4</ele>
        <time>2021-08-24T08:21:21Z</time>
      </trkpt>
      <trkpt lat="44.11434" lon="6.04986">
        <ele>747.8</ele>
        <time>2021-08-24T08:21:23Z</time>
      </trkpt>
      <trkpt lat="44.11435" lon="6.05008">
        <ele>748.8</ele>
        <time>2021-08-24T08:21:31Z</time>
      </trkpt>
      <trkpt lat="44.11434" lon="6.05011">
        <ele>748.8</ele>
        <time>2021-08-24T08:21:32Z</time>
      </trkpt>
      <trkpt lat="44.11431" lon="6.05033">
        <ele>750.2</ele>
        <time>2021-08-24T08:21:41Z</time>
      </trkpt>
      <trkpt lat="44.11429" lon="6.05038">
        <ele>751</ele>
        <time>2021-08-24T08:21:44Z</time>
      </trkpt>
      <trkpt lat="44.11429" lon="6.05039">
        <ele>751.2</ele>
        <time>2021-08-24T08:21:45Z</time>
      </trkpt>
      <trkpt lat="44.11426" lon="6.05048">
        <ele>752.2</ele>
        <time>2021-08-24T08:21:51Z</time>
      </trkpt>
      <trkpt lat="44.11425" lon="6.0506">
        <ele>753.4</ele>
        <time>2021-08-24T08:21:57Z</time>
      </trkpt>
      <trkpt lat="44.11426" lon="6.0507">
        <ele>754</ele>
        <time>2021-08-24T08:22:01Z</time>
      </trkpt>
      <trkpt lat="44.11424" lon="6.05076">
        <ele>754.6</ele>
        <time>2021-08-24T08:22:04Z</time>
      </trkpt>
      <trkpt lat="44.11423" lon="6.05089">
        <ele>755.6</ele>
        <time>2021-08-24T08:22:10Z</time>
      </trkpt>
      <trkpt lat="44.11423" lon="6.0509">
        <ele>755.6</ele>
        <time>2021-08-24T08:22:11Z</time>
      </trkpt>
      <trkpt lat="44.1142" lon="6.05101">
        <ele>756.6</ele>
        <time>2021-08-24T08:22:16Z</time>
      </trkpt>
      <trkpt lat="44.11422" lon="6.0511">
        <ele>757.8</ele>
        <time>2021-08-24T08:22:21Z</time>
      </trkpt>
      <trkpt lat="44.11422" lon="6.05122">
        <ele>758.8</ele>
        <time>2021-08-24T08:22:29Z</time>
      </trkpt>
      <trkpt lat="44.1142" lon="6.05126">
        <ele>759</ele>
        <time>2021-08-24T08:22:31Z</time>
      </trkpt>
      <trkpt lat="44.11419" lon="6.05132">
        <ele>759.4</ele>
        <time>2021-08-24T08:22:34Z</time>
      </trkpt>
      <trkpt lat="44.11419" lon="6.05142">
        <ele>760</ele>
        <time>2021-08-24T08:22:38Z</time>
      </trkpt>
      <trkpt lat="44.11418" lon="6.05149">
        <ele>760.4</ele>
        <time>2021-08-24T08:22:41Z</time>
      </trkpt>
      <trkpt lat="44.11419" lon="6.0515">
        <ele>760.6</ele>
        <time>2021-08-24T08:22:42Z</time>
      </trkpt>
      <trkpt lat="44.11424" lon="6.05161">
        <ele>761.2</ele>
        <time>2021-08-24T08:22:47Z</time>
      </trkpt>
      <trkpt lat="44.11424" lon="6.05168">
        <ele>761.8</ele>
        <time>2021-08-24T08:22:51Z</time>
      </trkpt>
      <trkpt lat="44.11424" lon="6.05172">
        <ele>762.2</ele>
        <time>2021-08-24T08:22:53Z</time>
      </trkpt>
      <trkpt lat="44.11425" lon="6.05181">
        <ele>763.4</ele>
        <time>2021-08-24T08:22:57Z</time>
      </trkpt>
      <trkpt lat="44.11426" lon="6.05189">
        <ele>764.2</ele>
        <time>2021-08-24T08:23:01Z</time>
      </trkpt>
      <trkpt lat="44.11426" lon="6.05192">
        <ele>764.4</ele>
        <time>2021-08-24T08:23:02Z</time>
      </trkpt>
      <trkpt lat="44.11427" lon="6.05195">
        <ele>765</ele>
        <time>2021-08-24T08:23:04Z</time>
      </trkpt>
      <trkpt lat="44.11428" lon="6.05197">
        <ele>765.2</ele>
        <time>2021-08-24T08:23:05Z</time>
      </trkpt>
      <trkpt lat="44.11429" lon="6.05203">
        <ele>765.6</ele>
        <time>2021-08-24T08:23:08Z</time>
      </trkpt>
      <trkpt lat="44.11431" lon="6.05209">
        <ele>766.2</ele>
        <time>2021-08-24T08:23:11Z</time>
      </trkpt>
      <trkpt lat="44.11433" lon="6.05213">
        <ele>766.6</ele>
        <time>2021-08-24T08:23:13Z</time>
      </trkpt>
      <trkpt lat="44.11438" lon="6.05225">
        <ele>767.8</ele>
        <time>2021-08-24T08:23:20Z</time>
      </trkpt>
      <trkpt lat="44.11438" lon="6.05227">
        <ele>767.8</ele>
        <time>2021-08-24T08:23:21Z</time>
      </trkpt>
      <trkpt lat="44.11442" lon="6.05231">
        <ele>768.2</ele>
        <time>2021-08-24T08:23:25Z</time>
      </trkpt>
      <trkpt lat="44.11447" lon="6.05232">
        <ele>768.8</ele>
        <time>2021-08-24T08:23:29Z</time>
      </trkpt>
      <trkpt lat="44.11449" lon="6.05232">
        <ele>769.2</ele>
        <time>2021-08-24T08:23:31Z</time>
      </trkpt>
      <trkpt lat="44.11451" lon="6.05232">
        <ele>769.4</ele>
        <time>2021-08-24T08:23:32Z</time>
      </trkpt>
      <trkpt lat="44.11455" lon="6.05236">
        <ele>769.8</ele>
        <time>2021-08-24T08:23:36Z</time>
      </trkpt>
      <trkpt lat="44.11466" lon="6.05245">
        <ele>770.8</ele>
        <time>2021-08-24T08:23:41Z</time>
      </trkpt>
      <trkpt lat="44.11467" lon="6.05246">
        <ele>770.8</ele>
        <time>2021-08-24T08:23:42Z</time>
      </trkpt>
      <trkpt lat="44.11475" lon="6.05251">
        <ele>772</ele>
        <time>2021-08-24T08:23:47Z</time>
      </trkpt>
      <trkpt lat="44.11479" lon="6.05255">
        <ele>772.6</ele>
        <time>2021-08-24T08:23:51Z</time>
      </trkpt>
      <trkpt lat="44.11481" lon="6.05258">
        <ele>773</ele>
        <time>2021-08-24T08:23:53Z</time>
      </trkpt>
      <trkpt lat="44.11487" lon="6.05265">
        <ele>773.8</ele>
        <time>2021-08-24T08:23:57Z</time>
      </trkpt>
      <trkpt lat="44.1149" lon="6.05266">
        <ele>774</ele>
        <time>2021-08-24T08:23:58Z</time>
      </trkpt>
      <trkpt lat="44.11493" lon="6.05269">
        <ele>774.2</ele>
        <time>2021-08-24T08:24:00Z</time>
      </trkpt>
      <trkpt lat="44.11494" lon="6.05271">
        <ele>774.4</ele>
        <time>2021-08-24T08:24:01Z</time>
      </trkpt>
      <trkpt lat="44.11496" lon="6.05273">
        <ele>775</ele>
        <time>2021-08-24T08:24:03Z</time>
      </trkpt>
      <trkpt lat="44.11498" lon="6.05275">
        <ele>775.2</ele>
        <time>2021-08-24T08:24:04Z</time>
      </trkpt>
      <trkpt lat="44.11506" lon="6.05283">
        <ele>776.4</ele>
        <time>2021-08-24T08:24:10Z</time>
      </trkpt>
      <trkpt lat="44.11508" lon="6.05284">
        <ele>776.6</ele>
        <time>2021-08-24T08:24:11Z</time>
      </trkpt>
      <trkpt lat="44.11509" lon="6.05286">
        <ele>776.8</ele>
        <time>2021-08-24T08:24:12Z</time>
      </trkpt>
      <trkpt lat="44.11512" lon="6.05289">
        <ele>777.4</ele>
        <time>2021-08-24T08:24:14Z</time>
      </trkpt>
      <trkpt lat="44.11514" lon="6.05292">
        <ele>778</ele>
        <time>2021-08-24T08:24:17Z</time>
      </trkpt>
      <trkpt lat="44.11518" lon="6.05298">
        <ele>778.6</ele>
        <time>2021-08-24T08:24:20Z</time>
      </trkpt>
      <trkpt lat="44.11518" lon="6.05301">
        <ele>778.8</ele>
        <time>2021-08-24T08:24:21Z</time>
      </trkpt>
      <trkpt lat="44.11518" lon="6.05302">
        <ele>779</ele>
        <time>2021-08-24T08:24:22Z</time>
      </trkpt>
      <trkpt lat="44.11525" lon="6.05319">
        <ele>779.8</ele>
        <time>2021-08-24T08:24:28Z</time>
      </trkpt>
      <trkpt lat="44.11527" lon="6.05329">
        <ele>780.2</ele>
        <time>2021-08-24T08:24:31Z</time>
      </trkpt>
      <trkpt lat="44.11527" lon="6.05335">
        <ele>780.8</ele>
        <time>2021-08-24T08:24:33Z</time>
      </trkpt>
      <trkpt lat="44.1153" lon="6.05348">
        <ele>781.8</ele>
        <time>2021-08-24T08:24:38Z</time>
      </trkpt>
      <trkpt lat="44.1153" lon="6.05357">
        <ele>782.4</ele>
        <time>2021-08-24T08:24:41Z</time>
      </trkpt>
      <trkpt lat="44.11532" lon="6.05366">
        <ele>783</ele>
        <time>2021-08-24T08:24:45Z</time>
      </trkpt>
      <trkpt lat="44.11533" lon="6.05377">
        <ele>784.2</ele>
        <time>2021-08-24T08:24:50Z</time>
      </trkpt>
      <trkpt lat="44.11533" lon="6.05379">
        <ele>784.4</ele>
        <time>2021-08-24T08:24:51Z</time>
      </trkpt>
      <trkpt lat="44.11536" lon="6.0539">
        <ele>785.2</ele>
        <time>2021-08-24T08:24:56Z</time>
      </trkpt>
      <trkpt lat="44.11538" lon="6.05401">
        <ele>786.2</ele>
        <time>2021-08-24T08:25:01Z</time>
      </trkpt>
      <trkpt lat="44.1154" lon="6.05409">
        <ele>787.2</ele>
        <time>2021-08-24T08:25:05Z</time>
      </trkpt>
      <trkpt lat="44.11541" lon="6.0541">
        <ele>787.6</ele>
        <time>2021-08-24T08:25:06Z</time>
      </trkpt>
      <trkpt lat="44.11543" lon="6.05421">
        <ele>788.2</ele>
        <time>2021-08-24T08:25:11Z</time>
      </trkpt>
      <trkpt lat="44.11543" lon="6.05423">
        <ele>788.4</ele>
        <time>2021-08-24T08:25:12Z</time>
      </trkpt>
      <trkpt lat="44.11545" lon="6.05433">
        <ele>789.6</ele>
        <time>2021-08-24T08:25:16Z</time>
      </trkpt>
      <trkpt lat="44.11546" lon="6.05443">
        <ele>790.8</ele>
        <time>2021-08-24T08:25:20Z</time>
      </trkpt>
      <trkpt lat="44.11546" lon="6.05446">
        <ele>791</ele>
        <time>2021-08-24T08:25:21Z</time>
      </trkpt>
      <trkpt lat="44.11546" lon="6.05459">
        <ele>791.8</ele>
        <time>2021-08-24T08:25:26Z</time>
      </trkpt>
      <trkpt lat="44.11545" lon="6.05471">
        <ele>792.6</ele>
        <time>2021-08-24T08:25:31Z</time>
      </trkpt>
      <trkpt lat="44.11544" lon="6.05479">
        <ele>793</ele>
        <time>2021-08-24T08:25:34Z</time>
      </trkpt>
      <trkpt lat="44.11543" lon="6.05494">
        <ele>794</ele>
        <time>2021-08-24T08:25:41Z</time>
      </trkpt>
      <trkpt lat="44.11543" lon="6.05499">
        <ele>794.2</ele>
        <time>2021-08-24T08:25:43Z</time>
      </trkpt>
      <trkpt lat="44.11543" lon="6.05506">
        <ele>794.8</ele>
        <time>2021-08-24T08:25:46Z</time>
      </trkpt>
      <trkpt lat="44.11543" lon="6.05513">
        <ele>795.4</ele>
        <time>2021-08-24T08:25:49Z</time>
      </trkpt>
      <trkpt lat="44.11543" lon="6.05518">
        <ele>795.6</ele>
        <time>2021-08-24T08:25:51Z</time>
      </trkpt>
      <trkpt lat="44.11545" lon="6.05541">
        <ele>796.6</ele>
        <time>2021-08-24T08:26:00Z</time>
      </trkpt>
      <trkpt lat="44.11545" lon="6.05543">
        <ele>796.6</ele>
        <time>2021-08-24T08:26:01Z</time>
      </trkpt>
      <trkpt lat="44.11543" lon="6.05549">
        <ele>797</ele>
        <time>2021-08-24T08:26:04Z</time>
      </trkpt>
      <trkpt lat="44.11542" lon="6.05558">
        <ele>797.6</ele>
        <time>2021-08-24T08:26:08Z</time>
      </trkpt>
      <trkpt lat="44.1154" lon="6.05562">
        <ele>797.8</ele>
        <time>2021-08-24T08:26:11Z</time>
      </trkpt>
      <trkpt lat="44.11537" lon="6.05575">
        <ele>798.6</ele>
        <time>2021-08-24T08:26:17Z</time>
      </trkpt>
      <trkpt lat="44.11534" lon="6.0559">
        <ele>799.4</ele>
        <time>2021-08-24T08:26:22Z</time>
      </trkpt>
      <trkpt lat="44.11531" lon="6.05597">
        <ele>799.8</ele>
        <time>2021-08-24T08:26:25Z</time>
      </trkpt>
      <trkpt lat="44.11528" lon="6.056">
        <ele>800</ele>
        <time>2021-08-24T08:26:27Z</time>
      </trkpt>
      <trkpt lat="44.11523" lon="6.05604">
        <ele>800.8</ele>
        <time>2021-08-24T08:26:31Z</time>
      </trkpt>
      <trkpt lat="44.1152" lon="6.05606">
        <ele>801</ele>
        <time>2021-08-24T08:26:32Z</time>
      </trkpt>
      <trkpt lat="44.11519" lon="6.05606">
        <ele>801.2</ele>
        <time>2021-08-24T08:26:33Z</time>
      </trkpt>
      <trkpt lat="44.1151" lon="6.05608">
        <ele>802</ele>
        <time>2021-08-24T08:26:38Z</time>
      </trkpt>
      <trkpt lat="44.11501" lon="6.05612">
        <ele>802.4</ele>
        <time>2021-08-24T08:26:42Z</time>
      </trkpt>
      <trkpt lat="44.11494" lon="6.05615">
        <ele>803</ele>
        <time>2021-08-24T08:26:45Z</time>
      </trkpt>
      <trkpt lat="44.11479" lon="6.05617">
        <ele>804.2</ele>
        <time>2021-08-24T08:26:52Z</time>
      </trkpt>
      <trkpt lat="44.11469" lon="6.05621">
        <ele>805.2</ele>
        <time>2021-08-24T08:26:59Z</time>
      </trkpt>
      <trkpt lat="44.11466" lon="6.05625">
        <ele>806</ele>
        <time>2021-08-24T08:27:02Z</time>
      </trkpt>
      <trkpt lat="44.11464" lon="6.05627">
        <ele>806.4</ele>
        <time>2021-08-24T08:27:04Z</time>
      </trkpt>
      <trkpt lat="44.11462" lon="6.05641">
        <ele>807.4</ele>
        <time>2021-08-24T08:27:11Z</time>
      </trkpt>
      <trkpt lat="44.11462" lon="6.05643">
        <ele>807.6</ele>
        <time>2021-08-24T08:27:12Z</time>
      </trkpt>
      <trkpt lat="44.11456" lon="6.05652">
        <ele>808.6</ele>
        <time>2021-08-24T08:27:16Z</time>
      </trkpt>
      <trkpt lat="44.11448" lon="6.05661">
        <ele>809.2</ele>
        <time>2021-08-24T08:27:22Z</time>
      </trkpt>
      <trkpt lat="44.11442" lon="6.05668">
        <ele>809.8</ele>
        <time>2021-08-24T08:27:26Z</time>
      </trkpt>
      <trkpt lat="44.11439" lon="6.05678">
        <ele>811</ele>
        <time>2021-08-24T08:27:30Z</time>
      </trkpt>
      <trkpt lat="44.11438" lon="6.05684">
        <ele>811.2</ele>
        <time>2021-08-24T08:27:32Z</time>
      </trkpt>
      <trkpt lat="44.11434" lon="6.05705">
        <ele>812.2</ele>
        <time>2021-08-24T08:27:40Z</time>
      </trkpt>
      <trkpt lat="44.11433" lon="6.0571">
        <ele>812.4</ele>
        <time>2021-08-24T08:27:42Z</time>
      </trkpt>
      <trkpt lat="44.11432" lon="6.05732">
        <ele>813.2</ele>
        <time>2021-08-24T08:27:48Z</time>
      </trkpt>
      <trkpt lat="44.11431" lon="6.05747">
        <ele>813.6</ele>
        <time>2021-08-24T08:27:52Z</time>
      </trkpt>
      <trkpt lat="44.1143" lon="6.05755">
        <ele>813.6</ele>
        <time>2021-08-24T08:27:54Z</time>
      </trkpt>
      <trkpt lat="44.11422" lon="6.05775">
        <ele>813.8</ele>
        <time>2021-08-24T08:28:01Z</time>
      </trkpt>
      <trkpt lat="44.1142" lon="6.05777">
        <ele>814</ele>
        <time>2021-08-24T08:28:02Z</time>
      </trkpt>
      <trkpt lat="44.11417" lon="6.05781">
        <ele>814.2</ele>
        <time>2021-08-24T08:28:04Z</time>
      </trkpt>
      <trkpt lat="44.11408" lon="6.05787">
        <ele>815.4</ele>
        <time>2021-08-24T08:28:09Z</time>
      </trkpt>
      <trkpt lat="44.11404" lon="6.05792">
        <ele>816</ele>
        <time>2021-08-24T08:28:12Z</time>
      </trkpt>
      <trkpt lat="44.11401" lon="6.058">
        <ele>816.4</ele>
        <time>2021-08-24T08:28:15Z</time>
      </trkpt>
      <trkpt lat="44.11403" lon="6.05813">
        <ele>817.4</ele>
        <time>2021-08-24T08:28:19Z</time>
      </trkpt>
      <trkpt lat="44.11406" lon="6.05815">
        <ele>817.8</ele>
        <time>2021-08-24T08:28:21Z</time>
      </trkpt>
      <trkpt lat="44.11407" lon="6.05815">
        <ele>818</ele>
        <time>2021-08-24T08:28:22Z</time>
      </trkpt>
      <trkpt lat="44.11417" lon="6.0581">
        <ele>818.6</ele>
        <time>2021-08-24T08:28:27Z</time>
      </trkpt>
      <trkpt lat="44.11422" lon="6.05807">
        <ele>819.4</ele>
        <time>2021-08-24T08:28:30Z</time>
      </trkpt>
      <trkpt lat="44.11424" lon="6.05806">
        <ele>819.6</ele>
        <time>2021-08-24T08:28:31Z</time>
      </trkpt>
      <trkpt lat="44.11426" lon="6.05805">
        <ele>819.8</ele>
        <time>2021-08-24T08:28:32Z</time>
      </trkpt>
      <trkpt lat="44.11436" lon="6.05797">
        <ele>820.6</ele>
        <time>2021-08-24T08:28:37Z</time>
      </trkpt>
      <trkpt lat="44.11443" lon="6.05786">
        <ele>821.8</ele>
        <time>2021-08-24T08:28:41Z</time>
      </trkpt>
      <trkpt lat="44.11444" lon="6.05784">
        <ele>822</ele>
        <time>2021-08-24T08:28:42Z</time>
      </trkpt>
      <trkpt lat="44.1145" lon="6.05762">
        <ele>823.2</ele>
        <time>2021-08-24T08:28:49Z</time>
      </trkpt>
      <trkpt lat="44.11452" lon="6.05753">
        <ele>823.8</ele>
        <time>2021-08-24T08:28:52Z</time>
      </trkpt>
      <trkpt lat="44.11457" lon="6.05745">
        <ele>824.2</ele>
        <time>2021-08-24T08:28:55Z</time>
      </trkpt>
      <trkpt lat="44.11461" lon="6.05736">
        <ele>825.2</ele>
        <time>2021-08-24T08:28:59Z</time>
      </trkpt>
      <trkpt lat="44.11464" lon="6.05729">
        <ele>825.8</ele>
        <time>2021-08-24T08:29:02Z</time>
      </trkpt>
      <trkpt lat="44.11465" lon="6.05726">
        <ele>826.4</ele>
        <time>2021-08-24T08:29:03Z</time>
      </trkpt>
      <trkpt lat="44.11471" lon="6.05719">
        <ele>827.6</ele>
        <time>2021-08-24T08:29:06Z</time>
      </trkpt>
      <trkpt lat="44.11478" lon="6.05705">
        <ele>828.8</ele>
        <time>2021-08-24T08:29:11Z</time>
      </trkpt>
      <trkpt lat="44.11479" lon="6.05703">
        <ele>829</ele>
        <time>2021-08-24T08:29:12Z</time>
      </trkpt>
      <trkpt lat="44.11484" lon="6.05696">
        <ele>829.8</ele>
        <time>2021-08-24T08:29:15Z</time>
      </trkpt>
      <trkpt lat="44.11492" lon="6.05691">
        <ele>831</ele>
        <time>2021-08-24T08:29:19Z</time>
      </trkpt>
      <trkpt lat="44.11495" lon="6.0569">
        <ele>831.2</ele>
        <time>2021-08-24T08:29:21Z</time>
      </trkpt>
      <trkpt lat="44.11497" lon="6.0569">
        <ele>831.4</ele>
        <time>2021-08-24T08:29:22Z</time>
      </trkpt>
      <trkpt lat="44.11498" lon="6.0569">
        <ele>831.4</ele>
        <time>2021-08-24T08:29:23Z</time>
      </trkpt>
      <trkpt lat="44.115" lon="6.0569">
        <ele>831.6</ele>
        <time>2021-08-24T08:29:24Z</time>
      </trkpt>
      <trkpt lat="44.11508" lon="6.05689">
        <ele>832.2</ele>
        <time>2021-08-24T08:29:28Z</time>
      </trkpt>
      <trkpt lat="44.11515" lon="6.0569">
        <ele>832.8</ele>
        <time>2021-08-24T08:29:32Z</time>
      </trkpt>
      <trkpt lat="44.11519" lon="6.05691">
        <ele>833.2</ele>
        <time>2021-08-24T08:29:34Z</time>
      </trkpt>
      <trkpt lat="44.11528" lon="6.05694">
        <ele>834.4</ele>
        <time>2021-08-24T08:29:39Z</time>
      </trkpt>
      <trkpt lat="44.11534" lon="6.05697">
        <ele>835.2</ele>
        <time>2021-08-24T08:29:42Z</time>
      </trkpt>
      <trkpt lat="44.11537" lon="6.05699">
        <ele>835.4</ele>
        <time>2021-08-24T08:29:44Z</time>
      </trkpt>
      <trkpt lat="44.1154" lon="6.05701">
        <ele>835.8</ele>
        <time>2021-08-24T08:29:46Z</time>
      </trkpt>
      <trkpt lat="44.11545" lon="6.05702">
        <ele>836.6</ele>
        <time>2021-08-24T08:29:49Z</time>
      </trkpt>
      <trkpt lat="44.11552" lon="6.05705">
        <ele>837.4</ele>
        <time>2021-08-24T08:29:52Z</time>
      </trkpt>
      <trkpt lat="44.11554" lon="6.05705">
        <ele>837.6</ele>
        <time>2021-08-24T08:29:53Z</time>
      </trkpt>
      <trkpt lat="44.11563" lon="6.05709">
        <ele>838.8</ele>
        <time>2021-08-24T08:29:57Z</time>
      </trkpt>
      <trkpt lat="44.11571" lon="6.05713">
        <ele>839.8</ele>
        <time>2021-08-24T08:30:01Z</time>
      </trkpt>
      <trkpt lat="44.11573" lon="6.05713">
        <ele>840</ele>
        <time>2021-08-24T08:30:02Z</time>
      </trkpt>
      <trkpt lat="44.11583" lon="6.05717">
        <ele>841</ele>
        <time>2021-08-24T08:30:07Z</time>
      </trkpt>
      <trkpt lat="44.1159" lon="6.0572">
        <ele>842.2</ele>
        <time>2021-08-24T08:30:11Z</time>
      </trkpt>
      <trkpt lat="44.11592" lon="6.05721">
        <ele>842.2</ele>
        <time>2021-08-24T08:30:12Z</time>
      </trkpt>
      <trkpt lat="44.11598" lon="6.05723">
        <ele>843.2</ele>
        <time>2021-08-24T08:30:16Z</time>
      </trkpt>
      <trkpt lat="44.11608" lon="6.05725">
        <ele>844.6</ele>
        <time>2021-08-24T08:30:21Z</time>
      </trkpt>
      <trkpt lat="44.11611" lon="6.05726">
        <ele>844.8</ele>
        <time>2021-08-24T08:30:22Z</time>
      </trkpt>
      <trkpt lat="44.11619" lon="6.05724">
        <ele>845.6</ele>
        <time>2021-08-24T08:30:25Z</time>
      </trkpt>
      <trkpt lat="44.11628" lon="6.05719">
        <ele>846.4</ele>
        <time>2021-08-24T08:30:29Z</time>
      </trkpt>
      <trkpt lat="44.1163" lon="6.05717">
        <ele>846.8</ele>
        <time>2021-08-24T08:30:30Z</time>
      </trkpt>
      <trkpt lat="44.11632" lon="6.05711">
        <ele>847.2</ele>
        <time>2021-08-24T08:30:32Z</time>
      </trkpt>
      <trkpt lat="44.11634" lon="6.05704">
        <ele>847.8</ele>
        <time>2021-08-24T08:30:35Z</time>
      </trkpt>
      <trkpt lat="44.11635" lon="6.05687">
        <ele>848.8</ele>
        <time>2021-08-24T08:30:41Z</time>
      </trkpt>
      <trkpt lat="44.11635" lon="6.05684">
        <ele>849</ele>
        <time>2021-08-24T08:30:42Z</time>
      </trkpt>
      <trkpt lat="44.11638" lon="6.05675">
        <ele>849.4</ele>
        <time>2021-08-24T08:30:45Z</time>
      </trkpt>
      <trkpt lat="44.11644" lon="6.05674">
        <ele>850</ele>
        <time>2021-08-24T08:30:48Z</time>
      </trkpt>
      <trkpt lat="44.1165" lon="6.05681">
        <ele>850.8</ele>
        <time>2021-08-24T08:30:52Z</time>
      </trkpt>
      <trkpt lat="44.11652" lon="6.05683">
        <ele>851</ele>
        <time>2021-08-24T08:30:53Z</time>
      </trkpt>
      <trkpt lat="44.11653" lon="6.05698">
        <ele>851.8</ele>
        <time>2021-08-24T08:30:59Z</time>
      </trkpt>
      <trkpt lat="44.11653" lon="6.05701">
        <ele>852.2</ele>
        <time>2021-08-24T08:31:00Z</time>
      </trkpt>
      <trkpt lat="44.11653" lon="6.05706">
        <ele>852.6</ele>
        <time>2021-08-24T08:31:02Z</time>
      </trkpt>
      <trkpt lat="44.11654" lon="6.05715">
        <ele>853.2</ele>
        <time>2021-08-24T08:31:06Z</time>
      </trkpt>
      <trkpt lat="44.11658" lon="6.05729">
        <ele>853.6</ele>
        <time>2021-08-24T08:31:12Z</time>
      </trkpt>
      <trkpt lat="44.11661" lon="6.05736">
        <ele>854.4</ele>
        <time>2021-08-24T08:31:15Z</time>
      </trkpt>
      <trkpt lat="44.11663" lon="6.05743">
        <ele>855.2</ele>
        <time>2021-08-24T08:31:18Z</time>
      </trkpt>
      <trkpt lat="44.11663" lon="6.05746">
        <ele>855.2</ele>
        <time>2021-08-24T08:31:19Z</time>
      </trkpt>
      <trkpt lat="44.11662" lon="6.05749">
        <ele>855.4</ele>
        <time>2021-08-24T08:31:20Z</time>
      </trkpt>
      <trkpt lat="44.11661" lon="6.05753">
        <ele>855.8</ele>
        <time>2021-08-24T08:31:22Z</time>
      </trkpt>
      <trkpt lat="44.11653" lon="6.05768">
        <ele>856.6</ele>
        <time>2021-08-24T08:31:29Z</time>
      </trkpt>
      <trkpt lat="44.11648" lon="6.05774">
        <ele>857</ele>
        <time>2021-08-24T08:31:32Z</time>
      </trkpt>
      <trkpt lat="44.11645" lon="6.05778">
        <ele>857.2</ele>
        <time>2021-08-24T08:31:35Z</time>
      </trkpt>
      <trkpt lat="44.11641" lon="6.05782">
        <ele>857.6</ele>
        <time>2021-08-24T08:31:38Z</time>
      </trkpt>
      <trkpt lat="44.11636" lon="6.0579">
        <ele>858.2</ele>
        <time>2021-08-24T08:31:42Z</time>
      </trkpt>
      <trkpt lat="44.11626" lon="6.05806">
        <ele>858.8</ele>
        <time>2021-08-24T08:31:50Z</time>
      </trkpt>
      <trkpt lat="44.11623" lon="6.05809">
        <ele>859.2</ele>
        <time>2021-08-24T08:31:52Z</time>
      </trkpt>
      <trkpt lat="44.11609" lon="6.05836">
        <ele>859.8</ele>
        <time>2021-08-24T08:32:02Z</time>
      </trkpt>
      <trkpt lat="44.11608" lon="6.05838">
        <ele>860</ele>
        <time>2021-08-24T08:32:03Z</time>
      </trkpt>
      <trkpt lat="44.11601" lon="6.05853">
        <ele>861.2</ele>
        <time>2021-08-24T08:32:10Z</time>
      </trkpt>
      <trkpt lat="44.11598" lon="6.05858">
        <ele>861.6</ele>
        <time>2021-08-24T08:32:12Z</time>
      </trkpt>
      <trkpt lat="44.11593" lon="6.05866">
        <ele>862.2</ele>
        <time>2021-08-24T08:32:16Z</time>
      </trkpt>
      <trkpt lat="44.11584" lon="6.05877">
        <ele>863.2</ele>
        <time>2021-08-24T08:32:22Z</time>
      </trkpt>
      <trkpt lat="44.11582" lon="6.05879">
        <ele>863.2</ele>
        <time>2021-08-24T08:32:23Z</time>
      </trkpt>
      <trkpt lat="44.11564" lon="6.05897">
        <ele>864.2</ele>
        <time>2021-08-24T08:32:32Z</time>
      </trkpt>
      <trkpt lat="44.11562" lon="6.05898">
        <ele>864.4</ele>
        <time>2021-08-24T08:32:33Z</time>
      </trkpt>
      <trkpt lat="44.11548" lon="6.05906">
        <ele>865</ele>
        <time>2021-08-24T08:32:40Z</time>
      </trkpt>
      <trkpt lat="44.11544" lon="6.05907">
        <ele>865</ele>
        <time>2021-08-24T08:32:42Z</time>
      </trkpt>
      <trkpt lat="44.11535" lon="6.05913">
        <ele>865.6</ele>
        <time>2021-08-24T08:32:47Z</time>
      </trkpt>
      <trkpt lat="44.11531" lon="6.05917">
        <ele>866.2</ele>
        <time>2021-08-24T08:32:50Z</time>
      </trkpt>
      <trkpt lat="44.11527" lon="6.05918">
        <ele>866.6</ele>
        <time>2021-08-24T08:32:52Z</time>
      </trkpt>
      <trkpt lat="44.1152" lon="6.05922">
        <ele>867.6</ele>
        <time>2021-08-24T08:32:56Z</time>
      </trkpt>
      <trkpt lat="44.11513" lon="6.05922">
        <ele>868.6</ele>
        <time>2021-08-24T08:33:00Z</time>
      </trkpt>
      <trkpt lat="44.1151" lon="6.05921">
        <ele>869</ele>
        <time>2021-08-24T08:33:02Z</time>
      </trkpt>
      <trkpt lat="44.11503" lon="6.05921">
        <ele>869.8</ele>
        <time>2021-08-24T08:33:06Z</time>
      </trkpt>
      <trkpt lat="44.11493" lon="6.05922">
        <ele>870.8</ele>
        <time>2021-08-24T08:33:11Z</time>
      </trkpt>
      <trkpt lat="44.11491" lon="6.05923">
        <ele>871</ele>
        <time>2021-08-24T08:33:12Z</time>
      </trkpt>
      <trkpt lat="44.11481" lon="6.05929">
        <ele>871.8</ele>
        <time>2021-08-24T08:33:17Z</time>
      </trkpt>
      <trkpt lat="44.11479" lon="6.0593">
        <ele>871.8</ele>
        <time>2021-08-24T08:33:18Z</time>
      </trkpt>
      <trkpt lat="44.11475" lon="6.05939">
        <ele>872.2</ele>
        <time>2021-08-24T08:33:22Z</time>
      </trkpt>
      <trkpt lat="44.11474" lon="6.05951">
        <ele>872.4</ele>
        <time>2021-08-24T08:33:26Z</time>
      </trkpt>
      <trkpt lat="44.11473" lon="6.05955">
        <ele>872.4</ele>
        <time>2021-08-24T08:33:27Z</time>
      </trkpt>
      <trkpt lat="44.11473" lon="6.05958">
        <ele>872.4</ele>
        <time>2021-08-24T08:33:28Z</time>
      </trkpt>
      <trkpt lat="44.11469" lon="6.0597">
        <ele>872.8</ele>
        <time>2021-08-24T08:33:32Z</time>
      </trkpt>
      <trkpt lat="44.11451" lon="6.05981">
        <ele>873.2</ele>
        <time>2021-08-24T08:33:42Z</time>
      </trkpt>
      <trkpt lat="44.11436" lon="6.05984">
        <ele>873.8</ele>
        <time>2021-08-24T08:33:49Z</time>
      </trkpt>
      <trkpt lat="44.11432" lon="6.05985">
        <ele>874</ele>
        <time>2021-08-24T08:33:51Z</time>
      </trkpt>
      <trkpt lat="44.1143" lon="6.05985">
        <ele>874</ele>
        <time>2021-08-24T08:33:52Z</time>
      </trkpt>
      <trkpt lat="44.11416" lon="6.0599">
        <ele>875</ele>
        <time>2021-08-24T08:33:59Z</time>
      </trkpt>
      <trkpt lat="44.1141" lon="6.05992">
        <ele>875.6</ele>
        <time>2021-08-24T08:34:02Z</time>
      </trkpt>
      <trkpt lat="44.11404" lon="6.05994">
        <ele>876.2</ele>
        <time>2021-08-24T08:34:05Z</time>
      </trkpt>
      <trkpt lat="44.11397" lon="6.06001">
        <ele>877.4</ele>
        <time>2021-08-24T08:34:10Z</time>
      </trkpt>
      <trkpt lat="44.11396" lon="6.06002">
        <ele>877.6</ele>
        <time>2021-08-24T08:34:11Z</time>
      </trkpt>
      <trkpt lat="44.11392" lon="6.06011">
        <ele>878.6</ele>
        <time>2021-08-24T08:34:15Z</time>
      </trkpt>
      <trkpt lat="44.11387" lon="6.06023">
        <ele>879.8</ele>
        <time>2021-08-24T08:34:19Z</time>
      </trkpt>
      <trkpt lat="44.11382" lon="6.06029">
        <ele>880.2</ele>
        <time>2021-08-24T08:34:22Z</time>
      </trkpt>
      <trkpt lat="44.11378" lon="6.06032">
        <ele>880.8</ele>
        <time>2021-08-24T08:34:24Z</time>
      </trkpt>
      <trkpt lat="44.11372" lon="6.06039">
        <ele>882</ele>
        <time>2021-08-24T08:34:28Z</time>
      </trkpt>
      <trkpt lat="44.11367" lon="6.06047">
        <ele>882.8</ele>
        <time>2021-08-24T08:34:32Z</time>
      </trkpt>
      <trkpt lat="44.11366" lon="6.06049">
        <ele>883</ele>
        <time>2021-08-24T08:34:33Z</time>
      </trkpt>
      <trkpt lat="44.11357" lon="6.06063">
        <ele>884</ele>
        <time>2021-08-24T08:34:39Z</time>
      </trkpt>
      <trkpt lat="44.11352" lon="6.06067">
        <ele>884.8</ele>
        <time>2021-08-24T08:34:42Z</time>
      </trkpt>
      <trkpt lat="44.11348" lon="6.06069">
        <ele>885.2</ele>
        <time>2021-08-24T08:34:44Z</time>
      </trkpt>
      <trkpt lat="44.11335" lon="6.06076">
        <ele>886.4</ele>
        <time>2021-08-24T08:34:50Z</time>
      </trkpt>
      <trkpt lat="44.11331" lon="6.06077">
        <ele>887.2</ele>
        <time>2021-08-24T08:34:52Z</time>
      </trkpt>
      <trkpt lat="44.11327" lon="6.06078">
        <ele>887.6</ele>
        <time>2021-08-24T08:34:54Z</time>
      </trkpt>
      <trkpt lat="44.11315" lon="6.06083">
        <ele>888.6</ele>
        <time>2021-08-24T08:35:00Z</time>
      </trkpt>
      <trkpt lat="44.1131" lon="6.06086">
        <ele>888.8</ele>
        <time>2021-08-24T08:35:02Z</time>
      </trkpt>
      <trkpt lat="44.11303" lon="6.06092">
        <ele>889.8</ele>
        <time>2021-08-24T08:35:06Z</time>
      </trkpt>
      <trkpt lat="44.11296" lon="6.06097">
        <ele>890.8</ele>
        <time>2021-08-24T08:35:10Z</time>
      </trkpt>
      <trkpt lat="44.11293" lon="6.061">
        <ele>891.4</ele>
        <time>2021-08-24T08:35:12Z</time>
      </trkpt>
      <trkpt lat="44.11288" lon="6.06101">
        <ele>892</ele>
        <time>2021-08-24T08:35:14Z</time>
      </trkpt>
      <trkpt lat="44.11279" lon="6.06103">
        <ele>893</ele>
        <time>2021-08-24T08:35:18Z</time>
      </trkpt>
      <trkpt lat="44.11277" lon="6.06104">
        <ele>893.4</ele>
        <time>2021-08-24T08:35:19Z</time>
      </trkpt>
      <trkpt lat="44.11271" lon="6.06106">
        <ele>893.8</ele>
        <time>2021-08-24T08:35:22Z</time>
      </trkpt>
      <trkpt lat="44.11266" lon="6.06111">
        <ele>894.2</ele>
        <time>2021-08-24T08:35:25Z</time>
      </trkpt>
      <trkpt lat="44.11261" lon="6.0612">
        <ele>895.2</ele>
        <time>2021-08-24T08:35:29Z</time>
      </trkpt>
      <trkpt lat="44.11261" lon="6.06123">
        <ele>895.4</ele>
        <time>2021-08-24T08:35:30Z</time>
      </trkpt>
      <trkpt lat="44.11258" lon="6.06127">
        <ele>895.8</ele>
        <time>2021-08-24T08:35:32Z</time>
      </trkpt>
      <trkpt lat="44.11254" lon="6.06133">
        <ele>896.8</ele>
        <time>2021-08-24T08:35:35Z</time>
      </trkpt>
      <trkpt lat="44.11249" lon="6.0614">
        <ele>897.8</ele>
        <time>2021-08-24T08:35:38Z</time>
      </trkpt>
      <trkpt lat="44.11246" lon="6.06143">
        <ele>898.2</ele>
        <time>2021-08-24T08:35:40Z</time>
      </trkpt>
      <trkpt lat="44.11241" lon="6.06147">
        <ele>898.6</ele>
        <time>2021-08-24T08:35:42Z</time>
      </trkpt>
      <trkpt lat="44.11238" lon="6.06149">
        <ele>898.8</ele>
        <time>2021-08-24T08:35:43Z</time>
      </trkpt>
      <trkpt lat="44.11226" lon="6.06153">
        <ele>900</ele>
        <time>2021-08-24T08:35:48Z</time>
      </trkpt>
      <trkpt lat="44.11215" lon="6.06149">
        <ele>901</ele>
        <time>2021-08-24T08:35:52Z</time>
      </trkpt>
      <trkpt lat="44.11212" lon="6.06147">
        <ele>901</ele>
        <time>2021-08-24T08:35:53Z</time>
      </trkpt>
      <trkpt lat="44.11199" lon="6.06134">
        <ele>902</ele>
        <time>2021-08-24T08:35:59Z</time>
      </trkpt>
      <trkpt lat="44.1119" lon="6.06131">
        <ele>902.8</ele>
        <time>2021-08-24T08:36:02Z</time>
      </trkpt>
      <trkpt lat="44.11185" lon="6.0613">
        <ele>903</ele>
        <time>2021-08-24T08:36:04Z</time>
      </trkpt>
      <trkpt lat="44.11172" lon="6.06125">
        <ele>904.2</ele>
        <time>2021-08-24T08:36:10Z</time>
      </trkpt>
      <trkpt lat="44.11168" lon="6.06123">
        <ele>904.8</ele>
        <time>2021-08-24T08:36:12Z</time>
      </trkpt>
      <trkpt lat="44.11163" lon="6.0612">
        <ele>905.4</ele>
        <time>2021-08-24T08:36:14Z</time>
      </trkpt>
      <trkpt lat="44.11153" lon="6.06114">
        <ele>906.6</ele>
        <time>2021-08-24T08:36:19Z</time>
      </trkpt>
      <trkpt lat="44.11149" lon="6.06112">
        <ele>907.2</ele>
        <time>2021-08-24T08:36:21Z</time>
      </trkpt>
      <trkpt lat="44.11147" lon="6.06111">
        <ele>907.4</ele>
        <time>2021-08-24T08:36:22Z</time>
      </trkpt>
      <trkpt lat="44.11144" lon="6.06107">
        <ele>907.8</ele>
        <time>2021-08-24T08:36:24Z</time>
      </trkpt>
      <trkpt lat="44.11139" lon="6.061">
        <ele>908.8</ele>
        <time>2021-08-24T08:36:27Z</time>
      </trkpt>
      <trkpt lat="44.11132" lon="6.06089">
        <ele>909.6</ele>
        <time>2021-08-24T08:36:32Z</time>
      </trkpt>
      <trkpt lat="44.11128" lon="6.06085">
        <ele>910</ele>
        <time>2021-08-24T08:36:34Z</time>
      </trkpt>
      <trkpt lat="44.11122" lon="6.06079">
        <ele>911</ele>
        <time>2021-08-24T08:36:37Z</time>
      </trkpt>
      <trkpt lat="44.11114" lon="6.06069">
        <ele>911.8</ele>
        <time>2021-08-24T08:36:42Z</time>
      </trkpt>
      <trkpt lat="44.11112" lon="6.06066">
        <ele>912</ele>
        <time>2021-08-24T08:36:43Z</time>
      </trkpt>
      <trkpt lat="44.1111" lon="6.06064">
        <ele>912.2</ele>
        <time>2021-08-24T08:36:44Z</time>
      </trkpt>
      <trkpt lat="44.11102" lon="6.06059">
        <ele>912.8</ele>
        <time>2021-08-24T08:36:48Z</time>
      </trkpt>
      <trkpt lat="44.11098" lon="6.06058">
        <ele>913.2</ele>
        <time>2021-08-24T08:36:50Z</time>
      </trkpt>
      <trkpt lat="44.11096" lon="6.06058">
        <ele>913.6</ele>
        <time>2021-08-24T08:36:51Z</time>
      </trkpt>
      <trkpt lat="44.11093" lon="6.06058">
        <ele>913.8</ele>
        <time>2021-08-24T08:36:52Z</time>
      </trkpt>
      <trkpt lat="44.11085" lon="6.06052">
        <ele>914.4</ele>
        <time>2021-08-24T08:36:56Z</time>
      </trkpt>
      <trkpt lat="44.11084" lon="6.0605">
        <ele>914.6</ele>
        <time>2021-08-24T08:36:57Z</time>
      </trkpt>
      <trkpt lat="44.11082" lon="6.06045">
        <ele>915.4</ele>
        <time>2021-08-24T08:36:59Z</time>
      </trkpt>
      <trkpt lat="44.11081" lon="6.06038">
        <ele>916.2</ele>
        <time>2021-08-24T08:37:02Z</time>
      </trkpt>
      <trkpt lat="44.1108" lon="6.06033">
        <ele>916.6</ele>
        <time>2021-08-24T08:37:04Z</time>
      </trkpt>
      <trkpt lat="44.11079" lon="6.06019">
        <ele>917.8</ele>
        <time>2021-08-24T08:37:10Z</time>
      </trkpt>
      <trkpt lat="44.1108" lon="6.06014">
        <ele>918.2</ele>
        <time>2021-08-24T08:37:12Z</time>
      </trkpt>
      <trkpt lat="44.11076" lon="6.06006">
        <ele>918.8</ele>
        <time>2021-08-24T08:37:15Z</time>
      </trkpt>
      <trkpt lat="44.11071" lon="6.06003">
        <ele>919.4</ele>
        <time>2021-08-24T08:37:17Z</time>
      </trkpt>
      <trkpt lat="44.11069" lon="6.06002">
        <ele>919.6</ele>
        <time>2021-08-24T08:37:18Z</time>
      </trkpt>
      <trkpt lat="44.11063" lon="6.06003">
        <ele>920</ele>
        <time>2021-08-24T08:37:20Z</time>
      </trkpt>
      <trkpt lat="44.1106" lon="6.06004">
        <ele>920.4</ele>
        <time>2021-08-24T08:37:22Z</time>
      </trkpt>
      <trkpt lat="44.11052" lon="6.06008">
        <ele>921.2</ele>
        <time>2021-08-24T08:37:26Z</time>
      </trkpt>
      <trkpt lat="44.11047" lon="6.06011">
        <ele>922.2</ele>
        <time>2021-08-24T08:37:29Z</time>
      </trkpt>
      <trkpt lat="44.11041" lon="6.06014">
        <ele>923</ele>
        <time>2021-08-24T08:37:32Z</time>
      </trkpt>
      <trkpt lat="44.11037" lon="6.06015">
        <ele>923.4</ele>
        <time>2021-08-24T08:37:34Z</time>
      </trkpt>
      <trkpt lat="44.11026" lon="6.0602">
        <ele>924.4</ele>
        <time>2021-08-24T08:37:39Z</time>
      </trkpt>
      <trkpt lat="44.1102" lon="6.06023">
        <ele>925.2</ele>
        <time>2021-08-24T08:37:42Z</time>
      </trkpt>
      <trkpt lat="44.11013" lon="6.06027">
        <ele>925.6</ele>
        <time>2021-08-24T08:37:46Z</time>
      </trkpt>
      <trkpt lat="44.11003" lon="6.06037">
        <ele>926.6</ele>
        <time>2021-08-24T08:37:52Z</time>
      </trkpt>
      <trkpt lat="44.10999" lon="6.06047">
        <ele>927.8</ele>
        <time>2021-08-24T08:37:57Z</time>
      </trkpt>
      <trkpt lat="44.10997" lon="6.06062">
        <ele>928.8</ele>
        <time>2021-08-24T08:38:02Z</time>
      </trkpt>
      <trkpt lat="44.10999" lon="6.0608">
        <ele>930</ele>
        <time>2021-08-24T08:38:08Z</time>
      </trkpt>
      <trkpt lat="44.11003" lon="6.06091">
        <ele>930.8</ele>
        <time>2021-08-24T08:38:12Z</time>
      </trkpt>
      <trkpt lat="44.11005" lon="6.06096">
        <ele>931.2</ele>
        <time>2021-08-24T08:38:14Z</time>
      </trkpt>
      <trkpt lat="44.11013" lon="6.06108">
        <ele>932.4</ele>
        <time>2021-08-24T08:38:19Z</time>
      </trkpt>
      <trkpt lat="44.11018" lon="6.06114">
        <ele>933.2</ele>
        <time>2021-08-24T08:38:22Z</time>
      </trkpt>
      <trkpt lat="44.11019" lon="6.06116">
        <ele>933.4</ele>
        <time>2021-08-24T08:38:23Z</time>
      </trkpt>
      <trkpt lat="44.11024" lon="6.06128">
        <ele>934.6</ele>
        <time>2021-08-24T08:38:28Z</time>
      </trkpt>
      <trkpt lat="44.11027" lon="6.06139">
        <ele>935.2</ele>
        <time>2021-08-24T08:38:32Z</time>
      </trkpt>
      <trkpt lat="44.11027" lon="6.06145">
        <ele>935.6</ele>
        <time>2021-08-24T08:38:34Z</time>
      </trkpt>
      <trkpt lat="44.11028" lon="6.06151">
        <ele>935.8</ele>
        <time>2021-08-24T08:38:36Z</time>
      </trkpt>
      <trkpt lat="44.1103" lon="6.06166">
        <ele>936.8</ele>
        <time>2021-08-24T08:38:41Z</time>
      </trkpt>
      <trkpt lat="44.1103" lon="6.06169">
        <ele>937.2</ele>
        <time>2021-08-24T08:38:42Z</time>
      </trkpt>
      <trkpt lat="44.11032" lon="6.06178">
        <ele>938</ele>
        <time>2021-08-24T08:38:45Z</time>
      </trkpt>
      <trkpt lat="44.11033" lon="6.06196">
        <ele>939</ele>
        <time>2021-08-24T08:38:51Z</time>
      </trkpt>
      <trkpt lat="44.11033" lon="6.06199">
        <ele>939.2</ele>
        <time>2021-08-24T08:38:52Z</time>
      </trkpt>
      <trkpt lat="44.11034" lon="6.06211">
        <ele>940.2</ele>
        <time>2021-08-24T08:38:56Z</time>
      </trkpt>
      <trkpt lat="44.11034" lon="6.06222">
        <ele>941.2</ele>
        <time>2021-08-24T08:39:00Z</time>
      </trkpt>
      <trkpt lat="44.11034" lon="6.06228">
        <ele>941.8</ele>
        <time>2021-08-24T08:39:02Z</time>
      </trkpt>
      <trkpt lat="44.11034" lon="6.06236">
        <ele>942.4</ele>
        <time>2021-08-24T08:39:05Z</time>
      </trkpt>
      <trkpt lat="44.11034" lon="6.06245">
        <ele>943</ele>
        <time>2021-08-24T08:39:08Z</time>
      </trkpt>
      <trkpt lat="44.11034" lon="6.0625">
        <ele>943.6</ele>
        <time>2021-08-24T08:39:10Z</time>
      </trkpt>
      <trkpt lat="44.11035" lon="6.06255">
        <ele>944.2</ele>
        <time>2021-08-24T08:39:12Z</time>
      </trkpt>
      <trkpt lat="44.11036" lon="6.06264">
        <ele>944.8</ele>
        <time>2021-08-24T08:39:15Z</time>
      </trkpt>
      <trkpt lat="44.11038" lon="6.06277">
        <ele>945.8</ele>
        <time>2021-08-24T08:39:19Z</time>
      </trkpt>
      <trkpt lat="44.1104" lon="6.06286">
        <ele>946.4</ele>
        <time>2021-08-24T08:39:22Z</time>
      </trkpt>
      <trkpt lat="44.11042" lon="6.06295">
        <ele>946.8</ele>
        <time>2021-08-24T08:39:25Z</time>
      </trkpt>
      <trkpt lat="44.11045" lon="6.06309">
        <ele>948</ele>
        <time>2021-08-24T08:39:30Z</time>
      </trkpt>
      <trkpt lat="44.11045" lon="6.06315">
        <ele>948.4</ele>
        <time>2021-08-24T08:39:32Z</time>
      </trkpt>
      <trkpt lat="44.11045" lon="6.06321">
        <ele>949</ele>
        <time>2021-08-24T08:39:34Z</time>
      </trkpt>
      <trkpt lat="44.11041" lon="6.06333">
        <ele>950</ele>
        <time>2021-08-24T08:39:39Z</time>
      </trkpt>
      <trkpt lat="44.11041" lon="6.0634">
        <ele>950.6</ele>
        <time>2021-08-24T08:39:42Z</time>
      </trkpt>
      <trkpt lat="44.11041" lon="6.06348">
        <ele>951.2</ele>
        <time>2021-08-24T08:39:45Z</time>
      </trkpt>
      <trkpt lat="44.1104" lon="6.0636">
        <ele>952.4</ele>
        <time>2021-08-24T08:39:49Z</time>
      </trkpt>
      <trkpt lat="44.1104" lon="6.0637">
        <ele>953.2</ele>
        <time>2021-08-24T08:39:52Z</time>
      </trkpt>
      <trkpt lat="44.1104" lon="6.06379">
        <ele>953.6</ele>
        <time>2021-08-24T08:39:55Z</time>
      </trkpt>
      <trkpt lat="44.11038" lon="6.06391">
        <ele>954.8</ele>
        <time>2021-08-24T08:39:59Z</time>
      </trkpt>
      <trkpt lat="44.11034" lon="6.06399">
        <ele>955.2</ele>
        <time>2021-08-24T08:40:02Z</time>
      </trkpt>
      <trkpt lat="44.1103" lon="6.06408">
        <ele>956</ele>
        <time>2021-08-24T08:40:06Z</time>
      </trkpt>
      <trkpt lat="44.11027" lon="6.06415">
        <ele>957</ele>
        <time>2021-08-24T08:40:09Z</time>
      </trkpt>
      <trkpt lat="44.11022" lon="6.06421">
        <ele>958</ele>
        <time>2021-08-24T08:40:12Z</time>
      </trkpt>
      <trkpt lat="44.1102" lon="6.06423">
        <ele>958.2</ele>
        <time>2021-08-24T08:40:13Z</time>
      </trkpt>
      <trkpt lat="44.11009" lon="6.06432">
        <ele>959.2</ele>
        <time>2021-08-24T08:40:20Z</time>
      </trkpt>
      <trkpt lat="44.11006" lon="6.06434">
        <ele>959.4</ele>
        <time>2021-08-24T08:40:22Z</time>
      </trkpt>
      <trkpt lat="44.11" lon="6.06439">
        <ele>960.4</ele>
        <time>2021-08-24T08:40:26Z</time>
      </trkpt>
      <trkpt lat="44.10992" lon="6.06446">
        <ele>961.4</ele>
        <time>2021-08-24T08:40:31Z</time>
      </trkpt>
      <trkpt lat="44.1099" lon="6.06447">
        <ele>961.6</ele>
        <time>2021-08-24T08:40:32Z</time>
      </trkpt>
      <trkpt lat="44.10981" lon="6.06451">
        <ele>962.6</ele>
        <time>2021-08-24T08:40:36Z</time>
      </trkpt>
      <trkpt lat="44.1097" lon="6.06455">
        <ele>963.8</ele>
        <time>2021-08-24T08:40:42Z</time>
      </trkpt>
      <trkpt lat="44.10962" lon="6.0646">
        <ele>965</ele>
        <time>2021-08-24T08:40:47Z</time>
      </trkpt>
      <trkpt lat="44.10958" lon="6.06467">
        <ele>965.8</ele>
        <time>2021-08-24T08:40:51Z</time>
      </trkpt>
      <trkpt lat="44.10958" lon="6.06469">
        <ele>966.2</ele>
        <time>2021-08-24T08:40:52Z</time>
      </trkpt>
      <trkpt lat="44.10959" lon="6.06481">
        <ele>967.2</ele>
        <time>2021-08-24T08:40:57Z</time>
      </trkpt>
      <trkpt lat="44.1096" lon="6.06486">
        <ele>967.8</ele>
        <time>2021-08-24T08:40:59Z</time>
      </trkpt>
      <trkpt lat="44.10961" lon="6.0649">
        <ele>968.4</ele>
        <time>2021-08-24T08:41:01Z</time>
      </trkpt>
      <trkpt lat="44.10961" lon="6.06493">
        <ele>968.6</ele>
        <time>2021-08-24T08:41:02Z</time>
      </trkpt>
      <trkpt lat="44.10962" lon="6.06503">
        <ele>969.6</ele>
        <time>2021-08-24T08:41:06Z</time>
      </trkpt>
      <trkpt lat="44.1096" lon="6.06514">
        <ele>970.8</ele>
        <time>2021-08-24T08:41:11Z</time>
      </trkpt>
      <trkpt lat="44.10959" lon="6.06516">
        <ele>971</ele>
        <time>2021-08-24T08:41:12Z</time>
      </trkpt>
      <trkpt lat="44.10949" lon="6.06527">
        <ele>972</ele>
        <time>2021-08-24T08:41:17Z</time>
      </trkpt>
      <trkpt lat="44.10938" lon="6.06526">
        <ele>972.8</ele>
        <time>2021-08-24T08:41:22Z</time>
      </trkpt>
      <trkpt lat="44.10935" lon="6.06525">
        <ele>973</ele>
        <time>2021-08-24T08:41:24Z</time>
      </trkpt>
      <trkpt lat="44.10931" lon="6.06525">
        <ele>973.4</ele>
        <time>2021-08-24T08:41:26Z</time>
      </trkpt>
      <trkpt lat="44.10923" lon="6.06523">
        <ele>974.2</ele>
        <time>2021-08-24T08:41:30Z</time>
      </trkpt>
      <trkpt lat="44.1092" lon="6.06523">
        <ele>974.8</ele>
        <time>2021-08-24T08:41:32Z</time>
      </trkpt>
      <trkpt lat="44.10917" lon="6.06522">
        <ele>975.2</ele>
        <time>2021-08-24T08:41:34Z</time>
      </trkpt>
      <trkpt lat="44.10913" lon="6.06521">
        <ele>975.6</ele>
        <time>2021-08-24T08:41:36Z</time>
      </trkpt>
      <trkpt lat="44.10908" lon="6.0652">
        <ele>976.2</ele>
        <time>2021-08-24T08:41:39Z</time>
      </trkpt>
      <trkpt lat="44.10902" lon="6.0652">
        <ele>976.8</ele>
        <time>2021-08-24T08:41:42Z</time>
      </trkpt>
      <trkpt lat="44.10892" lon="6.06522">
        <ele>977.2</ele>
        <time>2021-08-24T08:41:47Z</time>
      </trkpt>
      <trkpt lat="44.10885" lon="6.06525">
        <ele>978</ele>
        <time>2021-08-24T08:41:51Z</time>
      </trkpt>
      <trkpt lat="44.10884" lon="6.06526">
        <ele>978.2</ele>
        <time>2021-08-24T08:41:52Z</time>
      </trkpt>
      <trkpt lat="44.10882" lon="6.06527">
        <ele>978.6</ele>
        <time>2021-08-24T08:41:53Z</time>
      </trkpt>
      <trkpt lat="44.10873" lon="6.06533">
        <ele>979.2</ele>
        <time>2021-08-24T08:41:59Z</time>
      </trkpt>
      <trkpt lat="44.10869" lon="6.06538">
        <ele>979.6</ele>
        <time>2021-08-24T08:42:02Z</time>
      </trkpt>
      <trkpt lat="44.10868" lon="6.0654">
        <ele>979.8</ele>
        <time>2021-08-24T08:42:03Z</time>
      </trkpt>
      <trkpt lat="44.10861" lon="6.06544">
        <ele>980.6</ele>
        <time>2021-08-24T08:42:07Z</time>
      </trkpt>
      <trkpt lat="44.10858" lon="6.06544">
        <ele>981</ele>
        <time>2021-08-24T08:42:08Z</time>
      </trkpt>
      <trkpt lat="44.10849" lon="6.06541">
        <ele>981.6</ele>
        <time>2021-08-24T08:42:12Z</time>
      </trkpt>
      <trkpt lat="44.10844" lon="6.06538">
        <ele>982</ele>
        <time>2021-08-24T08:42:14Z</time>
      </trkpt>
      <trkpt lat="44.10837" lon="6.06534">
        <ele>982.4</ele>
        <time>2021-08-24T08:42:18Z</time>
      </trkpt>
      <trkpt lat="44.10831" lon="6.06535">
        <ele>983</ele>
        <time>2021-08-24T08:42:22Z</time>
      </trkpt>
      <trkpt lat="44.1083" lon="6.06537">
        <ele>983.2</ele>
        <time>2021-08-24T08:42:23Z</time>
      </trkpt>
      <trkpt lat="44.10834" lon="6.06548">
        <ele>984</ele>
        <time>2021-08-24T08:42:29Z</time>
      </trkpt>
      <trkpt lat="44.10836" lon="6.06548">
        <ele>984</ele>
        <time>2021-08-24T08:42:30Z</time>
      </trkpt>
      <trkpt lat="44.1084" lon="6.06549">
        <ele>984.2</ele>
        <time>2021-08-24T08:42:32Z</time>
      </trkpt>
      <trkpt lat="44.10849" lon="6.06555">
        <ele>985.2</ele>
        <time>2021-08-24T08:42:38Z</time>
      </trkpt>
      <trkpt lat="44.10853" lon="6.0656">
        <ele>985.6</ele>
        <time>2021-08-24T08:42:41Z</time>
      </trkpt>
      <trkpt lat="44.10855" lon="6.06562">
        <ele>985.8</ele>
        <time>2021-08-24T08:42:42Z</time>
      </trkpt>
      <trkpt lat="44.10858" lon="6.06564">
        <ele>986.4</ele>
        <time>2021-08-24T08:42:44Z</time>
      </trkpt>
      <trkpt lat="44.10866" lon="6.0657">
        <ele>987.6</ele>
        <time>2021-08-24T08:42:49Z</time>
      </trkpt>
      <trkpt lat="44.1087" lon="6.06575">
        <ele>988.2</ele>
        <time>2021-08-24T08:42:52Z</time>
      </trkpt>
      <trkpt lat="44.10875" lon="6.06577">
        <ele>988.6</ele>
        <time>2021-08-24T08:42:55Z</time>
      </trkpt>
      <trkpt lat="44.10883" lon="6.06583">
        <ele>989.6</ele>
        <time>2021-08-24T08:43:00Z</time>
      </trkpt>
      <trkpt lat="44.10885" lon="6.06585">
        <ele>990</ele>
        <time>2021-08-24T08:43:01Z</time>
      </trkpt>
      <trkpt lat="44.10887" lon="6.06586">
        <ele>990.2</ele>
        <time>2021-08-24T08:43:02Z</time>
      </trkpt>
      <trkpt lat="44.10889" lon="6.06593">
        <ele>990.8</ele>
        <time>2021-08-24T08:43:05Z</time>
      </trkpt>
      <trkpt lat="44.1089" lon="6.06607">
        <ele>991.8</ele>
        <time>2021-08-24T08:43:11Z</time>
      </trkpt>
      <trkpt lat="44.10889" lon="6.06609">
        <ele>992</ele>
        <time>2021-08-24T08:43:12Z</time>
      </trkpt>
      <trkpt lat="44.10883" lon="6.06613">
        <ele>992.8</ele>
        <time>2021-08-24T08:43:16Z</time>
      </trkpt>
      <trkpt lat="44.10876" lon="6.06621">
        <ele>993.8</ele>
        <time>2021-08-24T08:43:22Z</time>
      </trkpt>
      <trkpt lat="44.10874" lon="6.06623">
        <ele>993.8</ele>
        <time>2021-08-24T08:43:23Z</time>
      </trkpt>
      <trkpt lat="44.10867" lon="6.06632">
        <ele>993.8</ele>
        <time>2021-08-24T08:43:29Z</time>
      </trkpt>
      <trkpt lat="44.10867" lon="6.06636">
        <ele>993.8</ele>
        <time>2021-08-24T08:43:31Z</time>
      </trkpt>
      <trkpt lat="44.10867" lon="6.06638">
        <ele>993.8</ele>
        <time>2021-08-24T08:43:32Z</time>
      </trkpt>
      <trkpt lat="44.10867" lon="6.06639">
        <ele>993.8</ele>
        <time>2021-08-24T08:43:33Z</time>
      </trkpt>
      <trkpt lat="44.10875" lon="6.0664">
        <ele>993.8</ele>
        <time>2021-08-24T08:43:39Z</time>
      </trkpt>
      <trkpt lat="44.10881" lon="6.06644">
        <ele>993.8</ele>
        <time>2021-08-24T08:43:42Z</time>
      </trkpt>
      <trkpt lat="44.10886" lon="6.0666">
        <ele>995</ele>
        <time>2021-08-24T08:43:49Z</time>
      </trkpt>
      <trkpt lat="44.10889" lon="6.06666">
        <ele>995.6</ele>
        <time>2021-08-24T08:43:52Z</time>
      </trkpt>
      <trkpt lat="44.1089" lon="6.06668">
        <ele>995.8</ele>
        <time>2021-08-24T08:43:53Z</time>
      </trkpt>
      <trkpt lat="44.10891" lon="6.06669">
        <ele>996</ele>
        <time>2021-08-24T08:43:54Z</time>
      </trkpt>
      <trkpt lat="44.10893" lon="6.0667">
        <ele>996.2</ele>
        <time>2021-08-24T08:43:55Z</time>
      </trkpt>
      <trkpt lat="44.109" lon="6.06675">
        <ele>997.4</ele>
        <time>2021-08-24T08:44:00Z</time>
      </trkpt>
      <trkpt lat="44.10904" lon="6.06676">
        <ele>997.6</ele>
        <time>2021-08-24T08:44:02Z</time>
      </trkpt>
      <trkpt lat="44.10905" lon="6.06677">
        <ele>997.8</ele>
        <time>2021-08-24T08:44:03Z</time>
      </trkpt>
      <trkpt lat="44.10907" lon="6.06678">
        <ele>998</ele>
        <time>2021-08-24T08:44:04Z</time>
      </trkpt>
      <trkpt lat="44.10908" lon="6.06679">
        <ele>998.2</ele>
        <time>2021-08-24T08:44:05Z</time>
      </trkpt>
      <trkpt lat="44.1091" lon="6.0668">
        <ele>998.4</ele>
        <time>2021-08-24T08:44:06Z</time>
      </trkpt>
      <trkpt lat="44.10912" lon="6.06681">
        <ele>998.6</ele>
        <time>2021-08-24T08:44:07Z</time>
      </trkpt>
      <trkpt lat="44.10914" lon="6.06683">
        <ele>998.8</ele>
        <time>2021-08-24T08:44:08Z</time>
      </trkpt>
      <trkpt lat="44.10916" lon="6.06683">
        <ele>999</ele>
        <time>2021-08-24T08:44:09Z</time>
      </trkpt>
      <trkpt lat="44.10921" lon="6.06686">
        <ele>999.4</ele>
        <time>2021-08-24T08:44:12Z</time>
      </trkpt>
      <trkpt lat="44.10923" lon="6.06687">
        <ele>999.6</ele>
        <time>2021-08-24T08:44:13Z</time>
      </trkpt>
      <trkpt lat="44.1093" lon="6.06691">
        <ele>1000.8</ele>
        <time>2021-08-24T08:44:18Z</time>
      </trkpt>
      <trkpt lat="44.10936" lon="6.06695">
        <ele>1001.2</ele>
        <time>2021-08-24T08:44:21Z</time>
      </trkpt>
      <trkpt lat="44.10936" lon="6.06698">
        <ele>1001.4</ele>
        <time>2021-08-24T08:44:22Z</time>
      </trkpt>
      <trkpt lat="44.10939" lon="6.06702">
        <ele>1002</ele>
        <time>2021-08-24T08:44:25Z</time>
      </trkpt>
      <trkpt lat="44.10941" lon="6.06708">
        <ele>1002.4</ele>
        <time>2021-08-24T08:44:28Z</time>
      </trkpt>
      <trkpt lat="44.10944" lon="6.06714">
        <ele>1002.8</ele>
        <time>2021-08-24T08:44:31Z</time>
      </trkpt>
      <trkpt lat="44.10945" lon="6.06716">
        <ele>1003</ele>
        <time>2021-08-24T08:44:32Z</time>
      </trkpt>
      <trkpt lat="44.10948" lon="6.06724">
        <ele>1003.8</ele>
        <time>2021-08-24T08:44:36Z</time>
      </trkpt>
      <trkpt lat="44.10949" lon="6.06733">
        <ele>1004</ele>
        <time>2021-08-24T08:44:40Z</time>
      </trkpt>
      <trkpt lat="44.1095" lon="6.06735">
        <ele>1004</ele>
        <time>2021-08-24T08:44:41Z</time>
      </trkpt>
      <trkpt lat="44.10951" lon="6.06736">
        <ele>1004.2</ele>
        <time>2021-08-24T08:44:42Z</time>
      </trkpt>
      <trkpt lat="44.10955" lon="6.06739">
        <ele>1004.6</ele>
        <time>2021-08-24T08:44:46Z</time>
      </trkpt>
      <trkpt lat="44.10958" lon="6.06738">
        <ele>1005.2</ele>
        <time>2021-08-24T08:44:48Z</time>
      </trkpt>
      <trkpt lat="44.1096" lon="6.06727">
        <ele>1005.6</ele>
        <time>2021-08-24T08:44:52Z</time>
      </trkpt>
      <trkpt lat="44.10955" lon="6.06709">
        <ele>1006</ele>
        <time>2021-08-24T08:44:58Z</time>
      </trkpt>
      <trkpt lat="44.10954" lon="6.06703">
        <ele>1006.2</ele>
        <time>2021-08-24T08:45:00Z</time>
      </trkpt>
      <trkpt lat="44.10952" lon="6.06697">
        <ele>1006.6</ele>
        <time>2021-08-24T08:45:02Z</time>
      </trkpt>
      <trkpt lat="44.10952" lon="6.06683">
        <ele>1007.2</ele>
        <time>2021-08-24T08:45:07Z</time>
      </trkpt>
      <trkpt lat="44.10953" lon="6.0668">
        <ele>1007.4</ele>
        <time>2021-08-24T08:45:08Z</time>
      </trkpt>
      <trkpt lat="44.10958" lon="6.06679">
        <ele>1008</ele>
        <time>2021-08-24T08:45:10Z</time>
      </trkpt>
      <trkpt lat="44.10962" lon="6.06681">
        <ele>1008.2</ele>
        <time>2021-08-24T08:45:12Z</time>
      </trkpt>
      <trkpt lat="44.10965" lon="6.06685">
        <ele>1008.6</ele>
        <time>2021-08-24T08:45:14Z</time>
      </trkpt>
      <trkpt lat="44.10974" lon="6.06698">
        <ele>1009.8</ele>
        <time>2021-08-24T08:45:20Z</time>
      </trkpt>
      <trkpt lat="44.10977" lon="6.06702">
        <ele>1010.4</ele>
        <time>2021-08-24T08:45:22Z</time>
      </trkpt>
      <trkpt lat="44.10979" lon="6.06706">
        <ele>1011</ele>
        <time>2021-08-24T08:45:24Z</time>
      </trkpt>
      <trkpt lat="44.10989" lon="6.06716">
        <ele>1012.2</ele>
        <time>2021-08-24T08:45:30Z</time>
      </trkpt>
      <trkpt lat="44.10993" lon="6.0672">
        <ele>1012.4</ele>
        <time>2021-08-24T08:45:32Z</time>
      </trkpt>
      <trkpt lat="44.11005" lon="6.06726">
        <ele>1013.2</ele>
        <time>2021-08-24T08:45:38Z</time>
      </trkpt>
      <trkpt lat="44.11013" lon="6.06722">
        <ele>1014.2</ele>
        <time>2021-08-24T08:45:42Z</time>
      </trkpt>
      <trkpt lat="44.11019" lon="6.06715">
        <ele>1014.4</ele>
        <time>2021-08-24T08:45:45Z</time>
      </trkpt>
      <trkpt lat="44.11031" lon="6.06699">
        <ele>1014.8</ele>
        <time>2021-08-24T08:45:52Z</time>
      </trkpt>
      <trkpt lat="44.11035" lon="6.06695">
        <ele>1015</ele>
        <time>2021-08-24T08:45:54Z</time>
      </trkpt>
      <trkpt lat="44.11054" lon="6.0669">
        <ele>1015</ele>
        <time>2021-08-24T08:46:02Z</time>
      </trkpt>
      <trkpt lat="44.11064" lon="6.0669">
        <ele>1015.4</ele>
        <time>2021-08-24T08:46:06Z</time>
      </trkpt>
      <trkpt lat="44.11073" lon="6.06696">
        <ele>1015.4</ele>
        <time>2021-08-24T08:46:10Z</time>
      </trkpt>
      <trkpt lat="44.11077" lon="6.06702">
        <ele>1015.4</ele>
        <time>2021-08-24T08:46:12Z</time>
      </trkpt>
      <trkpt lat="44.11099" lon="6.06734">
        <ele>1015.8</ele>
        <time>2021-08-24T08:46:22Z</time>
      </trkpt>
      <trkpt lat="44.11114" lon="6.06783">
        <ele>1016</ele>
        <time>2021-08-24T08:46:32Z</time>
      </trkpt>
      <trkpt lat="44.11121" lon="6.06812">
        <ele>1016.4</ele>
        <time>2021-08-24T08:46:38Z</time>
      </trkpt>
      <trkpt lat="44.11127" lon="6.06833">
        <ele>1016.6</ele>
        <time>2021-08-24T08:46:42Z</time>
      </trkpt>
      <trkpt lat="44.11152" lon="6.06883">
        <ele>1017</ele>
        <time>2021-08-24T08:46:52Z</time>
      </trkpt>
      <trkpt lat="44.11181" lon="6.06913">
        <ele>1017.2</ele>
        <time>2021-08-24T08:47:02Z</time>
      </trkpt>
      <trkpt lat="44.11186" lon="6.06918">
        <ele>1017.4</ele>
        <time>2021-08-24T08:47:04Z</time>
      </trkpt>
      <trkpt lat="44.11214" lon="6.06941">
        <ele>1017.8</ele>
        <time>2021-08-24T08:47:12Z</time>
      </trkpt>
      <trkpt lat="44.11234" lon="6.06963">
        <ele>1017.6</ele>
        <time>2021-08-24T08:47:20Z</time>
      </trkpt>
      <trkpt lat="44.11241" lon="6.06967">
        <ele>1017.8</ele>
        <time>2021-08-24T08:47:22Z</time>
      </trkpt>
      <trkpt lat="44.11269" lon="6.06994">
        <ele>1017.8</ele>
        <time>2021-08-24T08:47:30Z</time>
      </trkpt>
      <trkpt lat="44.11277" lon="6.07004">
        <ele>1017.8</ele>
        <time>2021-08-24T08:47:32Z</time>
      </trkpt>
      <trkpt lat="44.11302" lon="6.07051">
        <ele>1017.6</ele>
        <time>2021-08-24T08:47:41Z</time>
      </trkpt>
      <trkpt lat="44.11305" lon="6.07056">
        <ele>1017.6</ele>
        <time>2021-08-24T08:47:42Z</time>
      </trkpt>
      <trkpt lat="44.11335" lon="6.07084">
        <ele>1018.4</ele>
        <time>2021-08-24T08:47:50Z</time>
      </trkpt>
      <trkpt lat="44.1134" lon="6.07086">
        <ele>1018.4</ele>
        <time>2021-08-24T08:47:51Z</time>
      </trkpt>
      <trkpt lat="44.11344" lon="6.07089">
        <ele>1018.4</ele>
        <time>2021-08-24T08:47:52Z</time>
      </trkpt>
      <trkpt lat="44.11378" lon="6.07117">
        <ele>1018.6</ele>
        <time>2021-08-24T08:48:02Z</time>
      </trkpt>
      <trkpt lat="44.11383" lon="6.07124">
        <ele>1018.6</ele>
        <time>2021-08-24T08:48:05Z</time>
      </trkpt>
      <trkpt lat="44.11383" lon="6.07138">
        <ele>1018.2</ele>
        <time>2021-08-24T08:48:11Z</time>
      </trkpt>
      <trkpt lat="44.11383" lon="6.0714">
        <ele>1018</ele>
        <time>2021-08-24T08:48:12Z</time>
      </trkpt>
      <trkpt lat="44.11382" lon="6.07141">
        <ele>1018.2</ele>
        <time>2021-08-24T08:48:16Z</time>
      </trkpt>
      <trkpt lat="44.11384" lon="6.07144">
        <ele>1017.8</ele>
        <time>2021-08-24T08:51:15Z</time>
      </trkpt>
      <trkpt lat="44.11386" lon="6.07144">
        <ele>1016.8</ele>
        <time>2021-08-24T08:51:18Z</time>
      </trkpt>
      <trkpt lat="44.11389" lon="6.07142">
        <ele>1017.4</ele>
        <time>2021-08-24T08:51:20Z</time>
      </trkpt>
      <trkpt lat="44.11395" lon="6.07136">
        <ele>1016.4</ele>
        <time>2021-08-24T08:51:22Z</time>
      </trkpt>
      <trkpt lat="44.11403" lon="6.07128">
        <ele>1015.8</ele>
        <time>2021-08-24T08:51:24Z</time>
      </trkpt>
      <trkpt lat="44.11408" lon="6.07119">
        <ele>1014.4</ele>
        <time>2021-08-24T08:51:26Z</time>
      </trkpt>
      <trkpt lat="44.11408" lon="6.07114">
        <ele>1013.6</ele>
        <time>2021-08-24T08:51:27Z</time>
      </trkpt>
      <trkpt lat="44.11407" lon="6.07108">
        <ele>1013.2</ele>
        <time>2021-08-24T08:51:28Z</time>
      </trkpt>
      <trkpt lat="44.11403" lon="6.07097">
        <ele>1012.6</ele>
        <time>2021-08-24T08:51:30Z</time>
      </trkpt>
      <trkpt lat="44.11398" lon="6.07085">
        <ele>1012.2</ele>
        <time>2021-08-24T08:51:32Z</time>
      </trkpt>
      <trkpt lat="44.11396" lon="6.07078">
        <ele>1012</ele>
        <time>2021-08-24T08:51:33Z</time>
      </trkpt>
      <trkpt lat="44.11394" lon="6.07071">
        <ele>1011.6</ele>
        <time>2021-08-24T08:51:34Z</time>
      </trkpt>
      <trkpt lat="44.11388" lon="6.07055">
        <ele>1010.6</ele>
        <time>2021-08-24T08:51:36Z</time>
      </trkpt>
      <trkpt lat="44.11384" lon="6.07048">
        <ele>1009.8</ele>
        <time>2021-08-24T08:51:37Z</time>
      </trkpt>
      <trkpt lat="44.11379" lon="6.07041">
        <ele>1008.6</ele>
        <time>2021-08-24T08:51:38Z</time>
      </trkpt>
      <trkpt lat="44.11369" lon="6.07026">
        <ele>1006.6</ele>
        <time>2021-08-24T08:51:40Z</time>
      </trkpt>
      <trkpt lat="44.11363" lon="6.07019">
        <ele>1005.4</ele>
        <time>2021-08-24T08:51:41Z</time>
      </trkpt>
      <trkpt lat="44.11357" lon="6.07009">
        <ele>1004</ele>
        <time>2021-08-24T08:51:42Z</time>
      </trkpt>
      <trkpt lat="44.1135" lon="6.07">
        <ele>1002.6</ele>
        <time>2021-08-24T08:51:43Z</time>
      </trkpt>
      <trkpt lat="44.11341" lon="6.06988">
        <ele>1001</ele>
        <time>2021-08-24T08:51:44Z</time>
      </trkpt>
      <trkpt lat="44.11334" lon="6.06974">
        <ele>999.6</ele>
        <time>2021-08-24T08:51:45Z</time>
      </trkpt>
      <trkpt lat="44.11328" lon="6.06962">
        <ele>998</ele>
        <time>2021-08-24T08:51:46Z</time>
      </trkpt>
      <trkpt lat="44.11322" lon="6.06951">
        <ele>996.2</ele>
        <time>2021-08-24T08:51:47Z</time>
      </trkpt>
      <trkpt lat="44.11319" lon="6.06946">
        <ele>994.8</ele>
        <time>2021-08-24T08:51:48Z</time>
      </trkpt>
      <trkpt lat="44.11318" lon="6.06943">
        <ele>993.6</ele>
        <time>2021-08-24T08:51:49Z</time>
      </trkpt>
      <trkpt lat="44.11313" lon="6.06939">
        <ele>992.6</ele>
        <time>2021-08-24T08:51:51Z</time>
      </trkpt>
      <trkpt lat="44.1131" lon="6.06938">
        <ele>992.4</ele>
        <time>2021-08-24T08:51:52Z</time>
      </trkpt>
      <trkpt lat="44.11289" lon="6.0693">
        <ele>993</ele>
        <time>2021-08-24T08:52:01Z</time>
      </trkpt>
      <trkpt lat="44.11286" lon="6.06929">
        <ele>993.2</ele>
        <time>2021-08-24T08:52:02Z</time>
      </trkpt>
      <trkpt lat="44.11284" lon="6.06926">
        <ele>993.4</ele>
        <time>2021-08-24T08:52:03Z</time>
      </trkpt>
      <trkpt lat="44.11266" lon="6.06906">
        <ele>993.2</ele>
        <time>2021-08-24T08:52:09Z</time>
      </trkpt>
      <trkpt lat="44.11252" lon="6.06896">
        <ele>992.2</ele>
        <time>2021-08-24T08:52:12Z</time>
      </trkpt>
      <trkpt lat="44.11228" lon="6.06874">
        <ele>993.4</ele>
        <time>2021-08-24T08:52:22Z</time>
      </trkpt>
      <trkpt lat="44.11226" lon="6.06872">
        <ele>993.8</ele>
        <time>2021-08-24T08:52:23Z</time>
      </trkpt>
      <trkpt lat="44.1121" lon="6.06851">
        <ele>994</ele>
        <time>2021-08-24T08:52:29Z</time>
      </trkpt>
      <trkpt lat="44.11206" lon="6.06848">
        <ele>993.8</ele>
        <time>2021-08-24T08:52:30Z</time>
      </trkpt>
      <trkpt lat="44.11199" lon="6.06843">
        <ele>993.2</ele>
        <time>2021-08-24T08:52:32Z</time>
      </trkpt>
      <trkpt lat="44.11184" lon="6.06827">
        <ele>993.4</ele>
        <time>2021-08-24T08:52:39Z</time>
      </trkpt>
      <trkpt lat="44.11183" lon="6.06826">
        <ele>993.6</ele>
        <time>2021-08-24T08:52:42Z</time>
      </trkpt>
      <trkpt lat="44.11183" lon="6.06826">
        <ele>993.4</ele>
        <time>2021-08-24T08:52:49Z</time>
      </trkpt>
      <trkpt lat="44.11183" lon="6.06826">
        <ele>993.2</ele>
        <time>2021-08-24T08:52:52Z</time>
      </trkpt>
      <trkpt lat="44.11183" lon="6.06826">
        <ele>993</ele>
        <time>2021-08-24T08:53:02Z</time>
      </trkpt>
      <trkpt lat="44.11183" lon="6.06826">
        <ele>993.2</ele>
        <time>2021-08-24T08:53:07Z</time>
      </trkpt>
      <trkpt lat="44.11183" lon="6.06826">
        <ele>993.2</ele>
        <time>2021-08-24T08:53:08Z</time>
      </trkpt>
      <trkpt lat="44.11183" lon="6.06826">
        <ele>993.2</ele>
        <time>2021-08-24T08:53:12Z</time>
      </trkpt>
      <trkpt lat="44.11183" lon="6.06826">
        <ele>993.2</ele>
        <time>2021-08-24T08:53:14Z</time>
      </trkpt>
      <trkpt lat="44.11183" lon="6.06826">
        <ele>993.2</ele>
        <time>2021-08-24T08:53:16Z</time>
      </trkpt>
      <trkpt lat="44.11182" lon="6.06824">
        <ele>993.4</ele>
        <time>2021-08-24T08:53:19Z</time>
      </trkpt>
      <trkpt lat="44.11181" lon="6.06823">
        <ele>993.6</ele>
        <time>2021-08-24T08:53:20Z</time>
      </trkpt>
      <trkpt lat="44.11181" lon="6.06821">
        <ele>993.8</ele>
        <time>2021-08-24T08:53:21Z</time>
      </trkpt>
      <trkpt lat="44.11179" lon="6.06819">
        <ele>993.8</ele>
        <time>2021-08-24T08:53:22Z</time>
      </trkpt>
      <trkpt lat="44.11177" lon="6.0681">
        <ele>994.6</ele>
        <time>2021-08-24T08:53:28Z</time>
      </trkpt>
      <trkpt lat="44.11176" lon="6.06809">
        <ele>994.8</ele>
        <time>2021-08-24T08:53:29Z</time>
      </trkpt>
      <trkpt lat="44.11175" lon="6.06806">
        <ele>995.4</ele>
        <time>2021-08-24T08:53:31Z</time>
      </trkpt>
      <trkpt lat="44.11174" lon="6.06804">
        <ele>995.6</ele>
        <time>2021-08-24T08:53:32Z</time>
      </trkpt>
      <trkpt lat="44.11174" lon="6.06803">
        <ele>995.8</ele>
        <time>2021-08-24T08:53:33Z</time>
      </trkpt>
      <trkpt lat="44.11173" lon="6.06801">
        <ele>995.8</ele>
        <time>2021-08-24T08:53:34Z</time>
      </trkpt>
      <trkpt lat="44.11173" lon="6.068">
        <ele>996</ele>
        <time>2021-08-24T08:53:35Z</time>
      </trkpt>
      <trkpt lat="44.11171" lon="6.06796">
        <ele>996.2</ele>
        <time>2021-08-24T08:53:38Z</time>
      </trkpt>
      <trkpt lat="44.11171" lon="6.06792">
        <ele>996.4</ele>
        <time>2021-08-24T08:53:41Z</time>
      </trkpt>
      <trkpt lat="44.11171" lon="6.0679">
        <ele>996.6</ele>
        <time>2021-08-24T08:53:42Z</time>
      </trkpt>
      <trkpt lat="44.1117" lon="6.06786">
        <ele>996.6</ele>
        <time>2021-08-24T08:53:44Z</time>
      </trkpt>
      <trkpt lat="44.11166" lon="6.06775">
        <ele>996.8</ele>
        <time>2021-08-24T08:53:49Z</time>
      </trkpt>
      <trkpt lat="44.11163" lon="6.06767">
        <ele>997.4</ele>
        <time>2021-08-24T08:53:52Z</time>
      </trkpt>
      <trkpt lat="44.11162" lon="6.06762">
        <ele>997.8</ele>
        <time>2021-08-24T08:53:54Z</time>
      </trkpt>
      <trkpt lat="44.11161" lon="6.0676">
        <ele>998.2</ele>
        <time>2021-08-24T08:53:55Z</time>
      </trkpt>
      <trkpt lat="44.1116" lon="6.06758">
        <ele>998.8</ele>
        <time>2021-08-24T08:53:56Z</time>
      </trkpt>
      <trkpt lat="44.11159" lon="6.06754">
        <ele>999.6</ele>
        <time>2021-08-24T08:53:58Z</time>
      </trkpt>
      <trkpt lat="44.11156" lon="6.06744">
        <ele>1000.6</ele>
        <time>2021-08-24T08:54:02Z</time>
      </trkpt>
      <trkpt lat="44.11155" lon="6.06741">
        <ele>1001.2</ele>
        <time>2021-08-24T08:54:04Z</time>
      </trkpt>
      <trkpt lat="44.11154" lon="6.06739">
        <ele>1001.6</ele>
        <time>2021-08-24T08:54:05Z</time>
      </trkpt>
      <trkpt lat="44.11153" lon="6.06736">
        <ele>1002.2</ele>
        <time>2021-08-24T08:54:07Z</time>
      </trkpt>
      <trkpt lat="44.11152" lon="6.0673">
        <ele>1002.8</ele>
        <time>2021-08-24T08:54:10Z</time>
      </trkpt>
      <trkpt lat="44.1115" lon="6.06725">
        <ele>1002.8</ele>
        <time>2021-08-24T08:54:11Z</time>
      </trkpt>
      <trkpt lat="44.11149" lon="6.06723">
        <ele>1003</ele>
        <time>2021-08-24T08:54:12Z</time>
      </trkpt>
      <trkpt lat="44.11151" lon="6.06697">
        <ele>1003</ele>
        <time>2021-08-24T08:54:20Z</time>
      </trkpt>
      <trkpt lat="44.1116" lon="6.06685">
        <ele>1002</ele>
        <time>2021-08-24T08:54:22Z</time>
      </trkpt>
      <trkpt lat="44.11164" lon="6.06677">
        <ele>1001.4</ele>
        <time>2021-08-24T08:54:23Z</time>
      </trkpt>
      <trkpt lat="44.11171" lon="6.06661">
        <ele>1000.4</ele>
        <time>2021-08-24T08:54:25Z</time>
      </trkpt>
      <trkpt lat="44.11179" lon="6.06645">
        <ele>999.4</ele>
        <time>2021-08-24T08:54:27Z</time>
      </trkpt>
      <trkpt lat="44.11183" lon="6.06639">
        <ele>999</ele>
        <time>2021-08-24T08:54:28Z</time>
      </trkpt>
      <trkpt lat="44.11187" lon="6.06631">
        <ele>998.6</ele>
        <time>2021-08-24T08:54:29Z</time>
      </trkpt>
      <trkpt lat="44.1119" lon="6.06624">
        <ele>997.8</ele>
        <time>2021-08-24T08:54:30Z</time>
      </trkpt>
      <trkpt lat="44.11192" lon="6.06617">
        <ele>997</ele>
        <time>2021-08-24T08:54:31Z</time>
      </trkpt>
      <trkpt lat="44.11191" lon="6.06612">
        <ele>996</ele>
        <time>2021-08-24T08:54:32Z</time>
      </trkpt>
      <trkpt lat="44.11189" lon="6.06608">
        <ele>995.2</ele>
        <time>2021-08-24T08:54:33Z</time>
      </trkpt>
      <trkpt lat="44.11184" lon="6.06608">
        <ele>994.6</ele>
        <time>2021-08-24T08:54:34Z</time>
      </trkpt>
      <trkpt lat="44.11179" lon="6.06608">
        <ele>994.2</ele>
        <time>2021-08-24T08:54:36Z</time>
      </trkpt>
      <trkpt lat="44.11175" lon="6.06606">
        <ele>994.2</ele>
        <time>2021-08-24T08:54:39Z</time>
      </trkpt>
      <trkpt lat="44.11169" lon="6.06594">
        <ele>994.2</ele>
        <time>2021-08-24T08:54:42Z</time>
      </trkpt>
      <trkpt lat="44.11164" lon="6.06579">
        <ele>993.8</ele>
        <time>2021-08-24T08:54:46Z</time>
      </trkpt>
      <trkpt lat="44.1116" lon="6.06572">
        <ele>993.2</ele>
        <time>2021-08-24T08:54:48Z</time>
      </trkpt>
      <trkpt lat="44.11157" lon="6.06566">
        <ele>991.6</ele>
        <time>2021-08-24T08:54:49Z</time>
      </trkpt>
      <trkpt lat="44.11157" lon="6.0656">
        <ele>989.8</ele>
        <time>2021-08-24T08:54:50Z</time>
      </trkpt>
      <trkpt lat="44.11158" lon="6.06555">
        <ele>987.8</ele>
        <time>2021-08-24T08:54:51Z</time>
      </trkpt>
      <trkpt lat="44.11159" lon="6.06549">
        <ele>986.4</ele>
        <time>2021-08-24T08:54:52Z</time>
      </trkpt>
      <trkpt lat="44.11162" lon="6.06544">
        <ele>985</ele>
        <time>2021-08-24T08:54:53Z</time>
      </trkpt>
      <trkpt lat="44.11163" lon="6.06541">
        <ele>983.4</ele>
        <time>2021-08-24T08:54:54Z</time>
      </trkpt>
      <trkpt lat="44.11163" lon="6.06537">
        <ele>981.6</ele>
        <time>2021-08-24T08:54:55Z</time>
      </trkpt>
      <trkpt lat="44.11162" lon="6.06532">
        <ele>979.4</ele>
        <time>2021-08-24T08:54:56Z</time>
      </trkpt>
      <trkpt lat="44.1116" lon="6.06526">
        <ele>977.8</ele>
        <time>2021-08-24T08:54:57Z</time>
      </trkpt>
      <trkpt lat="44.11159" lon="6.06521">
        <ele>976.6</ele>
        <time>2021-08-24T08:54:58Z</time>
      </trkpt>
      <trkpt lat="44.11158" lon="6.06516">
        <ele>975.8</ele>
        <time>2021-08-24T08:54:59Z</time>
      </trkpt>
      <trkpt lat="44.11159" lon="6.06512">
        <ele>974.8</ele>
        <time>2021-08-24T08:55:00Z</time>
      </trkpt>
      <trkpt lat="44.1116" lon="6.06508">
        <ele>973.4</ele>
        <time>2021-08-24T08:55:01Z</time>
      </trkpt>
      <trkpt lat="44.1116" lon="6.06503">
        <ele>972</ele>
        <time>2021-08-24T08:55:02Z</time>
      </trkpt>
      <trkpt lat="44.11158" lon="6.06499">
        <ele>970.6</ele>
        <time>2021-08-24T08:55:03Z</time>
      </trkpt>
      <trkpt lat="44.11156" lon="6.06493">
        <ele>969.4</ele>
        <time>2021-08-24T08:55:04Z</time>
      </trkpt>
      <trkpt lat="44.11155" lon="6.06487">
        <ele>968.4</ele>
        <time>2021-08-24T08:55:05Z</time>
      </trkpt>
      <trkpt lat="44.11156" lon="6.06479">
        <ele>967.4</ele>
        <time>2021-08-24T08:55:06Z</time>
      </trkpt>
      <trkpt lat="44.11158" lon="6.06471">
        <ele>966.2</ele>
        <time>2021-08-24T08:55:07Z</time>
      </trkpt>
      <trkpt lat="44.1116" lon="6.06466">
        <ele>964.8</ele>
        <time>2021-08-24T08:55:08Z</time>
      </trkpt>
      <trkpt lat="44.11162" lon="6.06463">
        <ele>963.8</ele>
        <time>2021-08-24T08:55:09Z</time>
      </trkpt>
      <trkpt lat="44.1117" lon="6.06453">
        <ele>961.8</ele>
        <time>2021-08-24T08:55:11Z</time>
      </trkpt>
      <trkpt lat="44.11174" lon="6.06451">
        <ele>960.6</ele>
        <time>2021-08-24T08:55:12Z</time>
      </trkpt>
      <trkpt lat="44.11179" lon="6.06446">
        <ele>958.8</ele>
        <time>2021-08-24T08:55:14Z</time>
      </trkpt>
      <trkpt lat="44.11184" lon="6.06438">
        <ele>956.6</ele>
        <time>2021-08-24T08:55:16Z</time>
      </trkpt>
      <trkpt lat="44.11187" lon="6.06426">
        <ele>954.8</ele>
        <time>2021-08-24T08:55:18Z</time>
      </trkpt>
      <trkpt lat="44.11188" lon="6.06418">
        <ele>953</ele>
        <time>2021-08-24T08:55:20Z</time>
      </trkpt>
      <trkpt lat="44.1119" lon="6.06407">
        <ele>951.2</ele>
        <time>2021-08-24T08:55:22Z</time>
      </trkpt>
      <trkpt lat="44.11192" lon="6.06402">
        <ele>950.4</ele>
        <time>2021-08-24T08:55:23Z</time>
      </trkpt>
      <trkpt lat="44.11196" lon="6.06395">
        <ele>949.4</ele>
        <time>2021-08-24T08:55:24Z</time>
      </trkpt>
      <trkpt lat="44.112" lon="6.06388">
        <ele>948.2</ele>
        <time>2021-08-24T08:55:25Z</time>
      </trkpt>
      <trkpt lat="44.11205" lon="6.06382">
        <ele>947</ele>
        <time>2021-08-24T08:55:26Z</time>
      </trkpt>
      <trkpt lat="44.1121" lon="6.06374">
        <ele>946.2</ele>
        <time>2021-08-24T08:55:27Z</time>
      </trkpt>
      <trkpt lat="44.11215" lon="6.06365">
        <ele>945</ele>
        <time>2021-08-24T08:55:28Z</time>
      </trkpt>
      <trkpt lat="44.1122" lon="6.06357">
        <ele>943.8</ele>
        <time>2021-08-24T08:55:29Z</time>
      </trkpt>
      <trkpt lat="44.11224" lon="6.06348">
        <ele>942.4</ele>
        <time>2021-08-24T08:55:30Z</time>
      </trkpt>
      <trkpt lat="44.11228" lon="6.06339">
        <ele>941.6</ele>
        <time>2021-08-24T08:55:31Z</time>
      </trkpt>
      <trkpt lat="44.11233" lon="6.06331">
        <ele>941</ele>
        <time>2021-08-24T08:55:32Z</time>
      </trkpt>
      <trkpt lat="44.11238" lon="6.06325">
        <ele>940.6</ele>
        <time>2021-08-24T08:55:33Z</time>
      </trkpt>
      <trkpt lat="44.11246" lon="6.06319">
        <ele>939.6</ele>
        <time>2021-08-24T08:55:35Z</time>
      </trkpt>
      <trkpt lat="44.11254" lon="6.06319">
        <ele>939</ele>
        <time>2021-08-24T08:55:37Z</time>
      </trkpt>
      <trkpt lat="44.11263" lon="6.06314">
        <ele>937.8</ele>
        <time>2021-08-24T08:55:39Z</time>
      </trkpt>
      <trkpt lat="44.11271" lon="6.06305">
        <ele>935.8</ele>
        <time>2021-08-24T08:55:41Z</time>
      </trkpt>
      <trkpt lat="44.11276" lon="6.06299">
        <ele>935.2</ele>
        <time>2021-08-24T08:55:42Z</time>
      </trkpt>
      <trkpt lat="44.11282" lon="6.06289">
        <ele>934.8</ele>
        <time>2021-08-24T08:55:44Z</time>
      </trkpt>
      <trkpt lat="44.11296" lon="6.06269">
        <ele>934.4</ele>
        <time>2021-08-24T08:55:50Z</time>
      </trkpt>
      <trkpt lat="44.11303" lon="6.06266">
        <ele>934.4</ele>
        <time>2021-08-24T08:55:52Z</time>
      </trkpt>
      <trkpt lat="44.11307" lon="6.06263">
        <ele>934.2</ele>
        <time>2021-08-24T08:55:53Z</time>
      </trkpt>
      <trkpt lat="44.11319" lon="6.06246">
        <ele>934</ele>
        <time>2021-08-24T08:55:57Z</time>
      </trkpt>
      <trkpt lat="44.11324" lon="6.0622">
        <ele>934.8</ele>
        <time>2021-08-24T08:56:02Z</time>
      </trkpt>
      <trkpt lat="44.11323" lon="6.06207">
        <ele>934.2</ele>
        <time>2021-08-24T08:56:04Z</time>
      </trkpt>
      <trkpt lat="44.11321" lon="6.06202">
        <ele>933.6</ele>
        <time>2021-08-24T08:56:05Z</time>
      </trkpt>
      <trkpt lat="44.11317" lon="6.06194">
        <ele>932.4</ele>
        <time>2021-08-24T08:56:07Z</time>
      </trkpt>
      <trkpt lat="44.11315" lon="6.06185">
        <ele>931</ele>
        <time>2021-08-24T08:56:09Z</time>
      </trkpt>
      <trkpt lat="44.11315" lon="6.06177">
        <ele>929.4</ele>
        <time>2021-08-24T08:56:11Z</time>
      </trkpt>
      <trkpt lat="44.11315" lon="6.06173">
        <ele>928.8</ele>
        <time>2021-08-24T08:56:12Z</time>
      </trkpt>
      <trkpt lat="44.11315" lon="6.06169">
        <ele>928.2</ele>
        <time>2021-08-24T08:56:13Z</time>
      </trkpt>
      <trkpt lat="44.11317" lon="6.06163">
        <ele>926.4</ele>
        <time>2021-08-24T08:56:15Z</time>
      </trkpt>
      <trkpt lat="44.11319" lon="6.06159">
        <ele>924.6</ele>
        <time>2021-08-24T08:56:17Z</time>
      </trkpt>
      <trkpt lat="44.11323" lon="6.06155">
        <ele>923</ele>
        <time>2021-08-24T08:56:19Z</time>
      </trkpt>
      <trkpt lat="44.11328" lon="6.0615">
        <ele>922</ele>
        <time>2021-08-24T08:56:21Z</time>
      </trkpt>
      <trkpt lat="44.11332" lon="6.06149">
        <ele>921.4</ele>
        <time>2021-08-24T08:56:22Z</time>
      </trkpt>
      <trkpt lat="44.11336" lon="6.06146">
        <ele>921</ele>
        <time>2021-08-24T08:56:23Z</time>
      </trkpt>
      <trkpt lat="44.1134" lon="6.06143">
        <ele>920.4</ele>
        <time>2021-08-24T08:56:24Z</time>
      </trkpt>
      <trkpt lat="44.11345" lon="6.0614">
        <ele>919.8</ele>
        <time>2021-08-24T08:56:25Z</time>
      </trkpt>
      <trkpt lat="44.1135" lon="6.06138">
        <ele>919.2</ele>
        <time>2021-08-24T08:56:26Z</time>
      </trkpt>
      <trkpt lat="44.11358" lon="6.06134">
        <ele>917.6</ele>
        <time>2021-08-24T08:56:28Z</time>
      </trkpt>
      <trkpt lat="44.11365" lon="6.06131">
        <ele>915.6</ele>
        <time>2021-08-24T08:56:30Z</time>
      </trkpt>
      <trkpt lat="44.11372" lon="6.06129">
        <ele>913.4</ele>
        <time>2021-08-24T08:56:32Z</time>
      </trkpt>
      <trkpt lat="44.11377" lon="6.06126">
        <ele>912.4</ele>
        <time>2021-08-24T08:56:33Z</time>
      </trkpt>
      <trkpt lat="44.11382" lon="6.06124">
        <ele>911.4</ele>
        <time>2021-08-24T08:56:34Z</time>
      </trkpt>
      <trkpt lat="44.11388" lon="6.06122">
        <ele>910.6</ele>
        <time>2021-08-24T08:56:35Z</time>
      </trkpt>
      <trkpt lat="44.11399" lon="6.06119">
        <ele>908.8</ele>
        <time>2021-08-24T08:56:37Z</time>
      </trkpt>
      <trkpt lat="44.1141" lon="6.06116">
        <ele>906.8</ele>
        <time>2021-08-24T08:56:39Z</time>
      </trkpt>
      <trkpt lat="44.11424" lon="6.06112">
        <ele>905.4</ele>
        <time>2021-08-24T08:56:41Z</time>
      </trkpt>
      <trkpt lat="44.1143" lon="6.06107">
        <ele>904.6</ele>
        <time>2021-08-24T08:56:42Z</time>
      </trkpt>
      <trkpt lat="44.11435" lon="6.06102">
        <ele>904</ele>
        <time>2021-08-24T08:56:43Z</time>
      </trkpt>
      <trkpt lat="44.11445" lon="6.06093">
        <ele>902</ele>
        <time>2021-08-24T08:56:45Z</time>
      </trkpt>
      <trkpt lat="44.1145" lon="6.06086">
        <ele>900.8</ele>
        <time>2021-08-24T08:56:46Z</time>
      </trkpt>
      <trkpt lat="44.11455" lon="6.0608">
        <ele>899.2</ele>
        <time>2021-08-24T08:56:47Z</time>
      </trkpt>
      <trkpt lat="44.1146" lon="6.06073">
        <ele>898</ele>
        <time>2021-08-24T08:56:48Z</time>
      </trkpt>
      <trkpt lat="44.11464" lon="6.06065">
        <ele>897</ele>
        <time>2021-08-24T08:56:49Z</time>
      </trkpt>
      <trkpt lat="44.11468" lon="6.06058">
        <ele>895.8</ele>
        <time>2021-08-24T08:56:50Z</time>
      </trkpt>
      <trkpt lat="44.11473" lon="6.06046">
        <ele>894.2</ele>
        <time>2021-08-24T08:56:52Z</time>
      </trkpt>
      <trkpt lat="44.11478" lon="6.06036">
        <ele>892.6</ele>
        <time>2021-08-24T08:56:54Z</time>
      </trkpt>
      <trkpt lat="44.1148" lon="6.06031">
        <ele>891.6</ele>
        <time>2021-08-24T08:56:55Z</time>
      </trkpt>
      <trkpt lat="44.11483" lon="6.06026">
        <ele>890.4</ele>
        <time>2021-08-24T08:56:56Z</time>
      </trkpt>
      <trkpt lat="44.11488" lon="6.06016">
        <ele>889.2</ele>
        <time>2021-08-24T08:56:58Z</time>
      </trkpt>
      <trkpt lat="44.11491" lon="6.06006">
        <ele>887.8</ele>
        <time>2021-08-24T08:57:00Z</time>
      </trkpt>
      <trkpt lat="44.11493" lon="6.06001">
        <ele>886</ele>
        <time>2021-08-24T08:57:02Z</time>
      </trkpt>
      <trkpt lat="44.11497" lon="6.05994">
        <ele>884.2</ele>
        <time>2021-08-24T08:57:04Z</time>
      </trkpt>
      <trkpt lat="44.115" lon="6.0599">
        <ele>883</ele>
        <time>2021-08-24T08:57:05Z</time>
      </trkpt>
      <trkpt lat="44.11503" lon="6.05985">
        <ele>881.8</ele>
        <time>2021-08-24T08:57:06Z</time>
      </trkpt>
      <trkpt lat="44.11508" lon="6.05976">
        <ele>879.8</ele>
        <time>2021-08-24T08:57:08Z</time>
      </trkpt>
      <trkpt lat="44.11513" lon="6.05968">
        <ele>878.2</ele>
        <time>2021-08-24T08:57:10Z</time>
      </trkpt>
      <trkpt lat="44.11518" lon="6.05958">
        <ele>876.6</ele>
        <time>2021-08-24T08:57:12Z</time>
      </trkpt>
      <trkpt lat="44.11523" lon="6.05946">
        <ele>875.4</ele>
        <time>2021-08-24T08:57:14Z</time>
      </trkpt>
      <trkpt lat="44.11527" lon="6.05935">
        <ele>874.2</ele>
        <time>2021-08-24T08:57:16Z</time>
      </trkpt>
      <trkpt lat="44.11528" lon="6.05929">
        <ele>873</ele>
        <time>2021-08-24T08:57:18Z</time>
      </trkpt>
      <trkpt lat="44.11528" lon="6.05929">
        <ele>871.8</ele>
        <time>2021-08-24T08:57:20Z</time>
      </trkpt>
      <trkpt lat="44.11528" lon="6.0593">
        <ele>870.8</ele>
        <time>2021-08-24T08:57:22Z</time>
      </trkpt>
      <trkpt lat="44.11528" lon="6.0593">
        <ele>870.6</ele>
        <time>2021-08-24T08:57:24Z</time>
      </trkpt>
      <trkpt lat="44.11528" lon="6.0593">
        <ele>870.4</ele>
        <time>2021-08-24T08:57:32Z</time>
      </trkpt>
      <trkpt lat="44.11528" lon="6.05928">
        <ele>870.4</ele>
        <time>2021-08-24T08:57:40Z</time>
      </trkpt>
      <trkpt lat="44.11526" lon="6.05924">
        <ele>870.4</ele>
        <time>2021-08-24T08:57:42Z</time>
      </trkpt>
      <trkpt lat="44.11507" lon="6.05924">
        <ele>871.4</ele>
        <time>2021-08-24T08:57:52Z</time>
      </trkpt>
      <trkpt lat="44.11505" lon="6.05924">
        <ele>871.8</ele>
        <time>2021-08-24T08:57:53Z</time>
      </trkpt>
      <trkpt lat="44.11495" lon="6.05925">
        <ele>872.8</ele>
        <time>2021-08-24T08:57:57Z</time>
      </trkpt>
      <trkpt lat="44.11485" lon="6.0593">
        <ele>873.8</ele>
        <time>2021-08-24T08:58:01Z</time>
      </trkpt>
      <trkpt lat="44.11482" lon="6.05933">
        <ele>874.2</ele>
        <time>2021-08-24T08:58:02Z</time>
      </trkpt>
      <trkpt lat="44.11472" lon="6.05965">
        <ele>874.8</ele>
        <time>2021-08-24T08:58:09Z</time>
      </trkpt>
      <trkpt lat="44.11465" lon="6.05975">
        <ele>875</ele>
        <time>2021-08-24T08:58:11Z</time>
      </trkpt>
      <trkpt lat="44.11461" lon="6.05978">
        <ele>875</ele>
        <time>2021-08-24T08:58:12Z</time>
      </trkpt>
      <trkpt lat="44.11456" lon="6.05981">
        <ele>875.2</ele>
        <time>2021-08-24T08:58:13Z</time>
      </trkpt>
      <trkpt lat="44.11442" lon="6.05988">
        <ele>875.4</ele>
        <time>2021-08-24T08:58:16Z</time>
      </trkpt>
      <trkpt lat="44.11429" lon="6.05992">
        <ele>875.8</ele>
        <time>2021-08-24T08:58:19Z</time>
      </trkpt>
      <trkpt lat="44.11426" lon="6.05993">
        <ele>876.2</ele>
        <time>2021-08-24T08:58:20Z</time>
      </trkpt>
      <trkpt lat="44.1142" lon="6.05995">
        <ele>876.8</ele>
        <time>2021-08-24T08:58:22Z</time>
      </trkpt>
      <trkpt lat="44.11413" lon="6.05998">
        <ele>877.4</ele>
        <time>2021-08-24T08:58:24Z</time>
      </trkpt>
      <trkpt lat="44.11404" lon="6.06003">
        <ele>878.4</ele>
        <time>2021-08-24T08:58:27Z</time>
      </trkpt>
      <trkpt lat="44.11399" lon="6.06011">
        <ele>879.6</ele>
        <time>2021-08-24T08:58:30Z</time>
      </trkpt>
      <trkpt lat="44.11396" lon="6.06015">
        <ele>880.4</ele>
        <time>2021-08-24T08:58:32Z</time>
      </trkpt>
      <trkpt lat="44.11392" lon="6.06019">
        <ele>880.8</ele>
        <time>2021-08-24T08:58:34Z</time>
      </trkpt>
      <trkpt lat="44.11389" lon="6.06024">
        <ele>881.4</ele>
        <time>2021-08-24T08:58:36Z</time>
      </trkpt>
      <trkpt lat="44.11386" lon="6.06028">
        <ele>882</ele>
        <time>2021-08-24T08:58:38Z</time>
      </trkpt>
      <trkpt lat="44.1138" lon="6.06034">
        <ele>883.4</ele>
        <time>2021-08-24T08:58:41Z</time>
      </trkpt>
      <trkpt lat="44.11378" lon="6.06036">
        <ele>883.8</ele>
        <time>2021-08-24T08:58:42Z</time>
      </trkpt>
      <trkpt lat="44.11373" lon="6.06042">
        <ele>884.4</ele>
        <time>2021-08-24T08:58:45Z</time>
      </trkpt>
      <trkpt lat="44.11369" lon="6.06048">
        <ele>885.4</ele>
        <time>2021-08-24T08:58:48Z</time>
      </trkpt>
      <trkpt lat="44.11365" lon="6.06054">
        <ele>886</ele>
        <time>2021-08-24T08:58:51Z</time>
      </trkpt>
      <trkpt lat="44.11364" lon="6.06057">
        <ele>886.2</ele>
        <time>2021-08-24T08:58:52Z</time>
      </trkpt>
      <trkpt lat="44.11362" lon="6.06059">
        <ele>886.6</ele>
        <time>2021-08-24T08:58:53Z</time>
      </trkpt>
      <trkpt lat="44.11358" lon="6.06064">
        <ele>887.2</ele>
        <time>2021-08-24T08:58:55Z</time>
      </trkpt>
      <trkpt lat="44.11356" lon="6.06066">
        <ele>887.4</ele>
        <time>2021-08-24T08:58:56Z</time>
      </trkpt>
      <trkpt lat="44.11355" lon="6.06068">
        <ele>887.6</ele>
        <time>2021-08-24T08:58:57Z</time>
      </trkpt>
      <trkpt lat="44.11353" lon="6.06071">
        <ele>887.8</ele>
        <time>2021-08-24T08:58:58Z</time>
      </trkpt>
      <trkpt lat="44.1135" lon="6.06073">
        <ele>888.2</ele>
        <time>2021-08-24T08:58:59Z</time>
      </trkpt>
      <trkpt lat="44.11345" lon="6.06077">
        <ele>888.6</ele>
        <time>2021-08-24T08:59:01Z</time>
      </trkpt>
      <trkpt lat="44.11342" lon="6.06077">
        <ele>888.8</ele>
        <time>2021-08-24T08:59:02Z</time>
      </trkpt>
      <trkpt lat="44.11333" lon="6.06082">
        <ele>889.8</ele>
        <time>2021-08-24T08:59:06Z</time>
      </trkpt>
      <trkpt lat="44.11324" lon="6.06088">
        <ele>890.8</ele>
        <time>2021-08-24T08:59:10Z</time>
      </trkpt>
      <trkpt lat="44.1132" lon="6.0609">
        <ele>891.4</ele>
        <time>2021-08-24T08:59:12Z</time>
      </trkpt>
      <trkpt lat="44.11315" lon="6.06093">
        <ele>892</ele>
        <time>2021-08-24T08:59:14Z</time>
      </trkpt>
      <trkpt lat="44.11298" lon="6.06104">
        <ele>893.2</ele>
        <time>2021-08-24T08:59:21Z</time>
      </trkpt>
      <trkpt lat="44.11296" lon="6.06106">
        <ele>893.8</ele>
        <time>2021-08-24T08:59:22Z</time>
      </trkpt>
      <trkpt lat="44.11293" lon="6.06107">
        <ele>894.4</ele>
        <time>2021-08-24T08:59:23Z</time>
      </trkpt>
      <trkpt lat="44.11287" lon="6.06108">
        <ele>895.4</ele>
        <time>2021-08-24T08:59:26Z</time>
      </trkpt>
      <trkpt lat="44.11276" lon="6.06113">
        <ele>896.6</ele>
        <time>2021-08-24T08:59:31Z</time>
      </trkpt>
      <trkpt lat="44.11274" lon="6.06114">
        <ele>896.8</ele>
        <time>2021-08-24T08:59:32Z</time>
      </trkpt>
      <trkpt lat="44.11269" lon="6.0612">
        <ele>897.6</ele>
        <time>2021-08-24T08:59:35Z</time>
      </trkpt>
      <trkpt lat="44.11268" lon="6.06123">
        <ele>897.8</ele>
        <time>2021-08-24T08:59:36Z</time>
      </trkpt>
      <trkpt lat="44.1126" lon="6.06133">
        <ele>898.8</ele>
        <time>2021-08-24T08:59:41Z</time>
      </trkpt>
      <trkpt lat="44.11257" lon="6.06135">
        <ele>899.2</ele>
        <time>2021-08-24T08:59:42Z</time>
      </trkpt>
      <trkpt lat="44.11249" lon="6.06143">
        <ele>900</ele>
        <time>2021-08-24T08:59:46Z</time>
      </trkpt>
      <trkpt lat="44.11239" lon="6.06148">
        <ele>901</ele>
        <time>2021-08-24T08:59:50Z</time>
      </trkpt>
      <trkpt lat="44.11234" lon="6.0615">
        <ele>901.8</ele>
        <time>2021-08-24T08:59:52Z</time>
      </trkpt>
      <trkpt lat="44.11229" lon="6.06151">
        <ele>902.2</ele>
        <time>2021-08-24T08:59:54Z</time>
      </trkpt>
      <trkpt lat="44.11226" lon="6.06151">
        <ele>902.4</ele>
        <time>2021-08-24T08:59:55Z</time>
      </trkpt>
      <trkpt lat="44.11223" lon="6.0615">
        <ele>902.6</ele>
        <time>2021-08-24T08:59:56Z</time>
      </trkpt>
      <trkpt lat="44.11221" lon="6.06149">
        <ele>902.8</ele>
        <time>2021-08-24T08:59:57Z</time>
      </trkpt>
      <trkpt lat="44.11219" lon="6.06148">
        <ele>902.8</ele>
        <time>2021-08-24T08:59:58Z</time>
      </trkpt>
      <trkpt lat="44.11215" lon="6.06145">
        <ele>903.4</ele>
        <time>2021-08-24T09:00:00Z</time>
      </trkpt>
      <trkpt lat="44.11212" lon="6.06142">
        <ele>904</ele>
        <time>2021-08-24T09:00:02Z</time>
      </trkpt>
      <trkpt lat="44.1121" lon="6.0614">
        <ele>904</ele>
        <time>2021-08-24T09:00:03Z</time>
      </trkpt>
      <trkpt lat="44.112" lon="6.06134">
        <ele>904.6</ele>
        <time>2021-08-24T09:00:07Z</time>
      </trkpt>
      <trkpt lat="44.11189" lon="6.0613">
        <ele>905.8</ele>
        <time>2021-08-24T09:00:11Z</time>
      </trkpt>
      <trkpt lat="44.11187" lon="6.06129">
        <ele>905.8</ele>
        <time>2021-08-24T09:00:12Z</time>
      </trkpt>
      <trkpt lat="44.1118" lon="6.06128">
        <ele>906.4</ele>
        <time>2021-08-24T09:00:15Z</time>
      </trkpt>
      <trkpt lat="44.11174" lon="6.06126">
        <ele>907</ele>
        <time>2021-08-24T09:00:17Z</time>
      </trkpt>
      <trkpt lat="44.11166" lon="6.06122">
        <ele>908.2</ele>
        <time>2021-08-24T09:00:20Z</time>
      </trkpt>
      <trkpt lat="44.1116" lon="6.06118">
        <ele>909</ele>
        <time>2021-08-24T09:00:22Z</time>
      </trkpt>
      <trkpt lat="44.11159" lon="6.06116">
        <ele>909.2</ele>
        <time>2021-08-24T09:00:23Z</time>
      </trkpt>
      <trkpt lat="44.11147" lon="6.06108">
        <ele>910.4</ele>
        <time>2021-08-24T09:00:28Z</time>
      </trkpt>
      <trkpt lat="44.11143" lon="6.06103">
        <ele>911</ele>
        <time>2021-08-24T09:00:30Z</time>
      </trkpt>
      <trkpt lat="44.11139" lon="6.06098">
        <ele>911.4</ele>
        <time>2021-08-24T09:00:32Z</time>
      </trkpt>
      <trkpt lat="44.11137" lon="6.06095">
        <ele>911.6</ele>
        <time>2021-08-24T09:00:33Z</time>
      </trkpt>
      <trkpt lat="44.11128" lon="6.06085">
        <ele>912.6</ele>
        <time>2021-08-24T09:00:37Z</time>
      </trkpt>
      <trkpt lat="44.11125" lon="6.06082">
        <ele>912.8</ele>
        <time>2021-08-24T09:00:38Z</time>
      </trkpt>
      <trkpt lat="44.11122" lon="6.0608">
        <ele>913</ele>
        <time>2021-08-24T09:00:39Z</time>
      </trkpt>
      <trkpt lat="44.11119" lon="6.06078">
        <ele>913.2</ele>
        <time>2021-08-24T09:00:40Z</time>
      </trkpt>
      <trkpt lat="44.11117" lon="6.06072">
        <ele>913.8</ele>
        <time>2021-08-24T09:00:42Z</time>
      </trkpt>
      <trkpt lat="44.1111" lon="6.06062">
        <ele>914.8</ele>
        <time>2021-08-24T09:00:48Z</time>
      </trkpt>
      <trkpt lat="44.11101" lon="6.06061">
        <ele>916</ele>
        <time>2021-08-24T09:00:52Z</time>
      </trkpt>
      <trkpt lat="44.11098" lon="6.06061">
        <ele>916.4</ele>
        <time>2021-08-24T09:00:54Z</time>
      </trkpt>
      <trkpt lat="44.11097" lon="6.06059">
        <ele>916.6</ele>
        <time>2021-08-24T09:00:55Z</time>
      </trkpt>
      <trkpt lat="44.11095" lon="6.06058">
        <ele>917</ele>
        <time>2021-08-24T09:00:56Z</time>
      </trkpt>
      <trkpt lat="44.11089" lon="6.06048">
        <ele>918.2</ele>
        <time>2021-08-24T09:01:00Z</time>
      </trkpt>
      <trkpt lat="44.11087" lon="6.06042">
        <ele>918.6</ele>
        <time>2021-08-24T09:01:02Z</time>
      </trkpt>
      <trkpt lat="44.11084" lon="6.06032">
        <ele>919.2</ele>
        <time>2021-08-24T09:01:05Z</time>
      </trkpt>
      <trkpt lat="44.11082" lon="6.06017">
        <ele>920.2</ele>
        <time>2021-08-24T09:01:10Z</time>
      </trkpt>
      <trkpt lat="44.1108" lon="6.06013">
        <ele>921</ele>
        <time>2021-08-24T09:01:12Z</time>
      </trkpt>
      <trkpt lat="44.11078" lon="6.06011">
        <ele>921.4</ele>
        <time>2021-08-24T09:01:13Z</time>
      </trkpt>
      <trkpt lat="44.11071" lon="6.06008">
        <ele>922</ele>
        <time>2021-08-24T09:01:16Z</time>
      </trkpt>
      <trkpt lat="44.11066" lon="6.06008">
        <ele>922.4</ele>
        <time>2021-08-24T09:01:18Z</time>
      </trkpt>
      <trkpt lat="44.11058" lon="6.06011">
        <ele>923.4</ele>
        <time>2021-08-24T09:01:22Z</time>
      </trkpt>
      <trkpt lat="44.11053" lon="6.06015">
        <ele>923.8</ele>
        <time>2021-08-24T09:01:25Z</time>
      </trkpt>
      <trkpt lat="44.11048" lon="6.06021">
        <ele>924.6</ele>
        <time>2021-08-24T09:01:28Z</time>
      </trkpt>
      <trkpt lat="44.1104" lon="6.06026">
        <ele>925</ele>
        <time>2021-08-24T09:01:32Z</time>
      </trkpt>
      <trkpt lat="44.11034" lon="6.06029">
        <ele>925.8</ele>
        <time>2021-08-24T09:01:35Z</time>
      </trkpt>
      <trkpt lat="44.11025" lon="6.06035">
        <ele>926.8</ele>
        <time>2021-08-24T09:01:40Z</time>
      </trkpt>
      <trkpt lat="44.11021" lon="6.06036">
        <ele>927.2</ele>
        <time>2021-08-24T09:01:42Z</time>
      </trkpt>
      <trkpt lat="44.11013" lon="6.06039">
        <ele>928</ele>
        <time>2021-08-24T09:01:46Z</time>
      </trkpt>
      <trkpt lat="44.11006" lon="6.06044">
        <ele>929.2</ele>
        <time>2021-08-24T09:01:50Z</time>
      </trkpt>
      <trkpt lat="44.11003" lon="6.06047">
        <ele>929.4</ele>
        <time>2021-08-24T09:01:52Z</time>
      </trkpt>
      <trkpt lat="44.10999" lon="6.06058">
        <ele>930.4</ele>
        <time>2021-08-24T09:01:57Z</time>
      </trkpt>
      <trkpt lat="44.10998" lon="6.06065">
        <ele>931</ele>
        <time>2021-08-24T09:02:00Z</time>
      </trkpt>
      <trkpt lat="44.10998" lon="6.06068">
        <ele>931.2</ele>
        <time>2021-08-24T09:02:01Z</time>
      </trkpt>
      <trkpt lat="44.10998" lon="6.06071">
        <ele>931.6</ele>
        <time>2021-08-24T09:02:02Z</time>
      </trkpt>
      <trkpt lat="44.11002" lon="6.06086">
        <ele>932.6</ele>
        <time>2021-08-24T09:02:07Z</time>
      </trkpt>
      <trkpt lat="44.11008" lon="6.06096">
        <ele>933.6</ele>
        <time>2021-08-24T09:02:11Z</time>
      </trkpt>
      <trkpt lat="44.1101" lon="6.06097">
        <ele>934</ele>
        <time>2021-08-24T09:02:12Z</time>
      </trkpt>
      <trkpt lat="44.11017" lon="6.06113">
        <ele>935.2</ele>
        <time>2021-08-24T09:02:18Z</time>
      </trkpt>
      <trkpt lat="44.11021" lon="6.06124">
        <ele>935.8</ele>
        <time>2021-08-24T09:02:22Z</time>
      </trkpt>
      <trkpt lat="44.11022" lon="6.06129">
        <ele>936.2</ele>
        <time>2021-08-24T09:02:24Z</time>
      </trkpt>
      <trkpt lat="44.11026" lon="6.06147">
        <ele>937.4</ele>
        <time>2021-08-24T09:02:30Z</time>
      </trkpt>
      <trkpt lat="44.11027" lon="6.06152">
        <ele>938</ele>
        <time>2021-08-24T09:02:32Z</time>
      </trkpt>
      <trkpt lat="44.11028" lon="6.06161">
        <ele>938.6</ele>
        <time>2021-08-24T09:02:35Z</time>
      </trkpt>
      <trkpt lat="44.11031" lon="6.06178">
        <ele>939.6</ele>
        <time>2021-08-24T09:02:41Z</time>
      </trkpt>
      <trkpt lat="44.11031" lon="6.06181">
        <ele>939.8</ele>
        <time>2021-08-24T09:02:42Z</time>
      </trkpt>
      <trkpt lat="44.11033" lon="6.06194">
        <ele>940.6</ele>
        <time>2021-08-24T09:02:47Z</time>
      </trkpt>
      <trkpt lat="44.11033" lon="6.06205">
        <ele>941.8</ele>
        <time>2021-08-24T09:02:51Z</time>
      </trkpt>
      <trkpt lat="44.11033" lon="6.06209">
        <ele>942</ele>
        <time>2021-08-24T09:02:52Z</time>
      </trkpt>
      <trkpt lat="44.11033" lon="6.0622">
        <ele>943</ele>
        <time>2021-08-24T09:02:56Z</time>
      </trkpt>
      <trkpt lat="44.11034" lon="6.06229">
        <ele>944</ele>
        <time>2021-08-24T09:02:59Z</time>
      </trkpt>
      <trkpt lat="44.11033" lon="6.06238">
        <ele>944.4</ele>
        <time>2021-08-24T09:03:02Z</time>
      </trkpt>
      <trkpt lat="44.11033" lon="6.06247">
        <ele>945</ele>
        <time>2021-08-24T09:03:05Z</time>
      </trkpt>
      <trkpt lat="44.11034" lon="6.06259">
        <ele>946.2</ele>
        <time>2021-08-24T09:03:09Z</time>
      </trkpt>
      <trkpt lat="44.11035" lon="6.06267">
        <ele>946.8</ele>
        <time>2021-08-24T09:03:12Z</time>
      </trkpt>
      <trkpt lat="44.11036" lon="6.06272">
        <ele>947.4</ele>
        <time>2021-08-24T09:03:14Z</time>
      </trkpt>
      <trkpt lat="44.11041" lon="6.06289">
        <ele>948.4</ele>
        <time>2021-08-24T09:03:20Z</time>
      </trkpt>
      <trkpt lat="44.11041" lon="6.06291">
        <ele>948.6</ele>
        <time>2021-08-24T09:03:21Z</time>
      </trkpt>
      <trkpt lat="44.11042" lon="6.06294">
        <ele>948.6</ele>
        <time>2021-08-24T09:03:22Z</time>
      </trkpt>
      <trkpt lat="44.11045" lon="6.06308">
        <ele>949.6</ele>
        <time>2021-08-24T09:03:27Z</time>
      </trkpt>
      <trkpt lat="44.11045" lon="6.06322">
        <ele>950.8</ele>
        <time>2021-08-24T09:03:32Z</time>
      </trkpt>
      <trkpt lat="44.11042" lon="6.06333">
        <ele>952</ele>
        <time>2021-08-24T09:03:36Z</time>
      </trkpt>
      <trkpt lat="44.11041" lon="6.0635">
        <ele>953</ele>
        <time>2021-08-24T09:03:42Z</time>
      </trkpt>
      <trkpt lat="44.11042" lon="6.06364">
        <ele>954.2</ele>
        <time>2021-08-24T09:03:47Z</time>
      </trkpt>
      <trkpt lat="44.11042" lon="6.06379">
        <ele>955</ele>
        <time>2021-08-24T09:03:52Z</time>
      </trkpt>
      <trkpt lat="44.11042" lon="6.06382">
        <ele>955.2</ele>
        <time>2021-08-24T09:03:53Z</time>
      </trkpt>
      <trkpt lat="44.11039" lon="6.06394">
        <ele>956.2</ele>
        <time>2021-08-24T09:03:57Z</time>
      </trkpt>
      <trkpt lat="44.11035" lon="6.06404">
        <ele>957.4</ele>
        <time>2021-08-24T09:04:01Z</time>
      </trkpt>
      <trkpt lat="44.11034" lon="6.06406">
        <ele>957.6</ele>
        <time>2021-08-24T09:04:02Z</time>
      </trkpt>
      <trkpt lat="44.1103" lon="6.06412">
        <ele>958.4</ele>
        <time>2021-08-24T09:04:05Z</time>
      </trkpt>
      <trkpt lat="44.11022" lon="6.06421">
        <ele>959.4</ele>
        <time>2021-08-24T09:04:10Z</time>
      </trkpt>
      <trkpt lat="44.1102" lon="6.06422">
        <ele>959.6</ele>
        <time>2021-08-24T09:04:11Z</time>
      </trkpt>
      <trkpt lat="44.11018" lon="6.06424">
        <ele>959.8</ele>
        <time>2021-08-24T09:04:12Z</time>
      </trkpt>
      <trkpt lat="44.11008" lon="6.06434">
        <ele>960.6</ele>
        <time>2021-08-24T09:04:17Z</time>
      </trkpt>
      <trkpt lat="44.11" lon="6.06441">
        <ele>961.6</ele>
        <time>2021-08-24T09:04:21Z</time>
      </trkpt>
      <trkpt lat="44.10999" lon="6.06443">
        <ele>962</ele>
        <time>2021-08-24T09:04:22Z</time>
      </trkpt>
      <trkpt lat="44.10993" lon="6.06448">
        <ele>962.8</ele>
        <time>2021-08-24T09:04:25Z</time>
      </trkpt>
      <trkpt lat="44.1098" lon="6.06456">
        <ele>964</ele>
        <time>2021-08-24T09:04:31Z</time>
      </trkpt>
      <trkpt lat="44.10978" lon="6.06456">
        <ele>964.4</ele>
        <time>2021-08-24T09:04:32Z</time>
      </trkpt>
      <trkpt lat="44.10976" lon="6.06457">
        <ele>964.8</ele>
        <time>2021-08-24T09:04:33Z</time>
      </trkpt>
      <trkpt lat="44.10971" lon="6.06458">
        <ele>965.2</ele>
        <time>2021-08-24T09:04:35Z</time>
      </trkpt>
      <trkpt lat="44.10964" lon="6.06461">
        <ele>966.2</ele>
        <time>2021-08-24T09:04:39Z</time>
      </trkpt>
      <trkpt lat="44.1096" lon="6.06467">
        <ele>967.2</ele>
        <time>2021-08-24T09:04:42Z</time>
      </trkpt>
      <trkpt lat="44.10959" lon="6.06469">
        <ele>967.6</ele>
        <time>2021-08-24T09:04:43Z</time>
      </trkpt>
      <trkpt lat="44.10959" lon="6.0648">
        <ele>968.8</ele>
        <time>2021-08-24T09:04:47Z</time>
      </trkpt>
      <trkpt lat="44.10959" lon="6.06493">
        <ele>970</ele>
        <time>2021-08-24T09:04:52Z</time>
      </trkpt>
      <trkpt lat="44.1096" lon="6.06506">
        <ele>971.4</ele>
        <time>2021-08-24T09:04:57Z</time>
      </trkpt>
      <trkpt lat="44.10958" lon="6.06515">
        <ele>972.4</ele>
        <time>2021-08-24T09:05:00Z</time>
      </trkpt>
      <trkpt lat="44.10956" lon="6.06521">
        <ele>973</ele>
        <time>2021-08-24T09:05:02Z</time>
      </trkpt>
      <trkpt lat="44.10946" lon="6.06527">
        <ele>973.8</ele>
        <time>2021-08-24T09:05:06Z</time>
      </trkpt>
      <trkpt lat="44.10933" lon="6.06526">
        <ele>974.8</ele>
        <time>2021-08-24T09:05:12Z</time>
      </trkpt>
      <trkpt lat="44.10924" lon="6.06524">
        <ele>976</ele>
        <time>2021-08-24T09:05:16Z</time>
      </trkpt>
      <trkpt lat="44.10912" lon="6.06523">
        <ele>977.2</ele>
        <time>2021-08-24T09:05:21Z</time>
      </trkpt>
      <trkpt lat="44.1091" lon="6.06522">
        <ele>977.4</ele>
        <time>2021-08-24T09:05:22Z</time>
      </trkpt>
      <trkpt lat="44.10901" lon="6.06522">
        <ele>978.2</ele>
        <time>2021-08-24T09:05:26Z</time>
      </trkpt>
      <trkpt lat="44.10891" lon="6.06526">
        <ele>979.2</ele>
        <time>2021-08-24T09:05:31Z</time>
      </trkpt>
      <trkpt lat="44.10889" lon="6.06527">
        <ele>979.6</ele>
        <time>2021-08-24T09:05:32Z</time>
      </trkpt>
      <trkpt lat="44.10879" lon="6.0653">
        <ele>980.4</ele>
        <time>2021-08-24T09:05:37Z</time>
      </trkpt>
      <trkpt lat="44.1087" lon="6.06534">
        <ele>981.4</ele>
        <time>2021-08-24T09:05:42Z</time>
      </trkpt>
      <trkpt lat="44.10868" lon="6.06536">
        <ele>981.6</ele>
        <time>2021-08-24T09:05:43Z</time>
      </trkpt>
      <trkpt lat="44.10855" lon="6.06541">
        <ele>982.8</ele>
        <time>2021-08-24T09:05:49Z</time>
      </trkpt>
      <trkpt lat="44.10849" lon="6.06539">
        <ele>983.2</ele>
        <time>2021-08-24T09:05:52Z</time>
      </trkpt>
      <trkpt lat="44.10844" lon="6.06537">
        <ele>983.8</ele>
        <time>2021-08-24T09:05:54Z</time>
      </trkpt>
      <trkpt lat="44.10833" lon="6.06542">
        <ele>985</ele>
        <time>2021-08-24T09:06:01Z</time>
      </trkpt>
      <trkpt lat="44.10833" lon="6.06544">
        <ele>985</ele>
        <time>2021-08-24T09:06:02Z</time>
      </trkpt>
      <trkpt lat="44.10834" lon="6.06547">
        <ele>985.4</ele>
        <time>2021-08-24T09:06:05Z</time>
      </trkpt>
      <trkpt lat="44.10827" lon="6.06532">
        <ele>985.4</ele>
        <time>2021-08-24T09:06:12Z</time>
      </trkpt>
      <trkpt lat="44.10821" lon="6.06527">
        <ele>985.2</ele>
        <time>2021-08-24T09:06:15Z</time>
      </trkpt>
      <trkpt lat="44.1082" lon="6.06527">
        <ele>985.2</ele>
        <time>2021-08-24T09:06:16Z</time>
      </trkpt>
      <trkpt lat="44.10822" lon="6.06536">
        <ele>985.2</ele>
        <time>2021-08-24T09:06:22Z</time>
      </trkpt>
      <trkpt lat="44.10839" lon="6.06551">
        <ele>985.6</ele>
        <time>2021-08-24T09:06:32Z</time>
      </trkpt>
      <trkpt lat="44.1086" lon="6.06565">
        <ele>985.6</ele>
        <time>2021-08-24T09:06:42Z</time>
      </trkpt>
      <trkpt lat="44.10863" lon="6.06568">
        <ele>986</ele>
        <time>2021-08-24T09:06:44Z</time>
      </trkpt>
      <trkpt lat="44.10867" lon="6.06573">
        <ele>987</ele>
        <time>2021-08-24T09:06:47Z</time>
      </trkpt>
      <trkpt lat="44.10875" lon="6.06577">
        <ele>987.8</ele>
        <time>2021-08-24T09:06:52Z</time>
      </trkpt>
      <trkpt lat="44.1088" lon="6.06581">
        <ele>988.2</ele>
        <time>2021-08-24T09:06:55Z</time>
      </trkpt>
      <trkpt lat="44.10884" lon="6.06584">
        <ele>988.8</ele>
        <time>2021-08-24T09:06:57Z</time>
      </trkpt>
      <trkpt lat="44.10887" lon="6.06589">
        <ele>989.2</ele>
        <time>2021-08-24T09:06:59Z</time>
      </trkpt>
      <trkpt lat="44.10891" lon="6.06596">
        <ele>990.2</ele>
        <time>2021-08-24T09:07:02Z</time>
      </trkpt>
      <trkpt lat="44.10891" lon="6.06599">
        <ele>990.4</ele>
        <time>2021-08-24T09:07:03Z</time>
      </trkpt>
      <trkpt lat="44.10889" lon="6.06605">
        <ele>990.6</ele>
        <time>2021-08-24T09:07:05Z</time>
      </trkpt>
      <trkpt lat="44.10881" lon="6.06616">
        <ele>991.4</ele>
        <time>2021-08-24T09:07:10Z</time>
      </trkpt>
      <trkpt lat="44.10878" lon="6.0662">
        <ele>992</ele>
        <time>2021-08-24T09:07:12Z</time>
      </trkpt>
      <trkpt lat="44.10873" lon="6.06626">
        <ele>992.4</ele>
        <time>2021-08-24T09:07:15Z</time>
      </trkpt>
      <trkpt lat="44.10871" lon="6.06628">
        <ele>992.6</ele>
        <time>2021-08-24T09:07:16Z</time>
      </trkpt>
      <trkpt lat="44.10855" lon="6.06618">
        <ele>992.4</ele>
        <time>2021-08-24T09:07:22Z</time>
      </trkpt>
      <trkpt lat="44.10847" lon="6.0661">
        <ele>992</ele>
        <time>2021-08-24T09:07:26Z</time>
      </trkpt>
      <trkpt lat="44.10838" lon="6.06595">
        <ele>991.8</ele>
        <time>2021-08-24T09:07:32Z</time>
      </trkpt>
      <trkpt lat="44.10833" lon="6.06592">
        <ele>991.8</ele>
        <time>2021-08-24T09:07:35Z</time>
      </trkpt>
      <trkpt lat="44.1083" lon="6.06591">
        <ele>991.8</ele>
        <time>2021-08-24T09:07:37Z</time>
      </trkpt>
      <trkpt lat="44.10829" lon="6.06589">
        <ele>992</ele>
        <time>2021-08-24T09:07:38Z</time>
      </trkpt>
      <trkpt lat="44.10829" lon="6.06584">
        <ele>992.2</ele>
        <time>2021-08-24T09:07:40Z</time>
      </trkpt>
      <trkpt lat="44.10829" lon="6.06581">
        <ele>992.2</ele>
        <time>2021-08-24T09:07:41Z</time>
      </trkpt>
      <trkpt lat="44.10829" lon="6.06579">
        <ele>992.2</ele>
        <time>2021-08-24T09:07:42Z</time>
      </trkpt>
      <trkpt lat="44.10834" lon="6.06578">
        <ele>991.8</ele>
        <time>2021-08-24T09:07:46Z</time>
      </trkpt>
      <trkpt lat="44.10837" lon="6.06583">
        <ele>991.4</ele>
        <time>2021-08-24T09:07:49Z</time>
      </trkpt>
      <trkpt lat="44.10838" lon="6.06588">
        <ele>991.4</ele>
        <time>2021-08-24T09:07:52Z</time>
      </trkpt>
      <trkpt lat="44.10835" lon="6.06592">
        <ele>991.6</ele>
        <time>2021-08-24T09:07:54Z</time>
      </trkpt>
      <trkpt lat="44.10828" lon="6.06594">
        <ele>992.6</ele>
        <time>2021-08-24T09:07:59Z</time>
      </trkpt>
      <trkpt lat="44.10825" lon="6.06596">
        <ele>993.4</ele>
        <time>2021-08-24T09:08:02Z</time>
      </trkpt>
      <trkpt lat="44.10822" lon="6.06599">
        <ele>993.6</ele>
        <time>2021-08-24T09:08:04Z</time>
      </trkpt>
      <trkpt lat="44.10821" lon="6.066">
        <ele>993.8</ele>
        <time>2021-08-24T09:08:05Z</time>
      </trkpt>
      <trkpt lat="44.10817" lon="6.06604">
        <ele>995</ele>
        <time>2021-08-24T09:08:08Z</time>
      </trkpt>
      <trkpt lat="44.10812" lon="6.06607">
        <ele>996.2</ele>
        <time>2021-08-24T09:08:12Z</time>
      </trkpt>
      <trkpt lat="44.10808" lon="6.06608">
        <ele>997.2</ele>
        <time>2021-08-24T09:08:15Z</time>
      </trkpt>
      <trkpt lat="44.10805" lon="6.06608">
        <ele>998.2</ele>
        <time>2021-08-24T09:08:18Z</time>
      </trkpt>
      <trkpt lat="44.108" lon="6.06608">
        <ele>999.2</ele>
        <time>2021-08-24T09:08:21Z</time>
      </trkpt>
      <trkpt lat="44.10799" lon="6.06609">
        <ele>999.6</ele>
        <time>2021-08-24T09:08:22Z</time>
      </trkpt>
      <trkpt lat="44.10796" lon="6.06609">
        <ele>1000.2</ele>
        <time>2021-08-24T09:08:24Z</time>
      </trkpt>
      <trkpt lat="44.10791" lon="6.06609">
        <ele>1001.4</ele>
        <time>2021-08-24T09:08:29Z</time>
      </trkpt>
      <trkpt lat="44.10791" lon="6.06609">
        <ele>1002</ele>
        <time>2021-08-24T09:08:32Z</time>
      </trkpt>
      <trkpt lat="44.10791" lon="6.06609">
        <ele>1002.2</ele>
        <time>2021-08-24T09:08:42Z</time>
      </trkpt>
      <trkpt lat="44.10791" lon="6.06609">
        <ele>1001.8</ele>
        <time>2021-08-24T09:08:49Z</time>
      </trkpt>
      <trkpt lat="44.10791" lon="6.06609">
        <ele>1001.8</ele>
        <time>2021-08-24T09:08:52Z</time>
      </trkpt>
      <trkpt lat="44.10791" lon="6.06609">
        <ele>1001.6</ele>
        <time>2021-08-24T09:08:57Z</time>
      </trkpt>
      <trkpt lat="44.10791" lon="6.06609">
        <ele>1001.6</ele>
        <time>2021-08-24T09:09:02Z</time>
      </trkpt>
      <trkpt lat="44.10791" lon="6.06609">
        <ele>1001.8</ele>
        <time>2021-08-24T09:09:06Z</time>
      </trkpt>
      <trkpt lat="44.1079" lon="6.06609">
        <ele>1001.8</ele>
        <time>2021-08-24T09:09:12Z</time>
      </trkpt>
      <trkpt lat="44.1079" lon="6.06609">
        <ele>1002.2</ele>
        <time>2021-08-24T09:09:22Z</time>
      </trkpt>
      <trkpt lat="44.10785" lon="6.06607">
        <ele>1002.6</ele>
        <time>2021-08-24T09:09:29Z</time>
      </trkpt>
      <trkpt lat="44.1078" lon="6.06606">
        <ele>1003</ele>
        <time>2021-08-24T09:09:32Z</time>
      </trkpt>
      <trkpt lat="44.10779" lon="6.06606">
        <ele>1003.2</ele>
        <time>2021-08-24T09:09:34Z</time>
      </trkpt>
      <trkpt lat="44.10778" lon="6.06606">
        <ele>1003.2</ele>
        <time>2021-08-24T09:09:35Z</time>
      </trkpt>
      <trkpt lat="44.10776" lon="6.06605">
        <ele>1003.2</ele>
        <time>2021-08-24T09:09:38Z</time>
      </trkpt>
      <trkpt lat="44.10774" lon="6.06603">
        <ele>1003.2</ele>
        <time>2021-08-24T09:09:40Z</time>
      </trkpt>
      <trkpt lat="44.10772" lon="6.06602">
        <ele>1003.2</ele>
        <time>2021-08-24T09:09:41Z</time>
      </trkpt>
      <trkpt lat="44.10771" lon="6.06601">
        <ele>1003.2</ele>
        <time>2021-08-24T09:09:42Z</time>
      </trkpt>
      <trkpt lat="44.10767" lon="6.06596">
        <ele>1003</ele>
        <time>2021-08-24T09:09:47Z</time>
      </trkpt>
      <trkpt lat="44.10768" lon="6.06594">
        <ele>1003</ele>
        <time>2021-08-24T09:09:52Z</time>
      </trkpt>
      <trkpt lat="44.10767" lon="6.06594">
        <ele>1003</ele>
        <time>2021-08-24T09:09:54Z</time>
      </trkpt>
      <trkpt lat="44.10767" lon="6.06594">
        <ele>1002.8</ele>
        <time>2021-08-24T09:09:56Z</time>
      </trkpt>
      <trkpt lat="44.10767" lon="6.06595">
        <ele>1002.8</ele>
        <time>2021-08-24T09:09:58Z</time>
      </trkpt>
      <trkpt lat="44.10767" lon="6.06593">
        <ele>1003.2</ele>
        <time>2021-08-24T09:10:02Z</time>
      </trkpt>
      <trkpt lat="44.10767" lon="6.06591">
        <ele>1003.4</ele>
        <time>2021-08-24T09:10:12Z</time>
      </trkpt>
      <trkpt lat="44.10765" lon="6.06591">
        <ele>1003.4</ele>
        <time>2021-08-24T09:10:22Z</time>
      </trkpt>
      <trkpt lat="44.10764" lon="6.0659">
        <ele>1003.4</ele>
        <time>2021-08-24T09:10:27Z</time>
      </trkpt>
      <trkpt lat="44.10761" lon="6.0659">
        <ele>1003.6</ele>
        <time>2021-08-24T09:10:30Z</time>
      </trkpt>
      <trkpt lat="44.10758" lon="6.06588">
        <ele>1004</ele>
        <time>2021-08-24T09:10:32Z</time>
      </trkpt>
      <trkpt lat="44.10752" lon="6.06588">
        <ele>1004.8</ele>
        <time>2021-08-24T09:10:37Z</time>
      </trkpt>
      <trkpt lat="44.10746" lon="6.0659">
        <ele>1006</ele>
        <time>2021-08-24T09:10:41Z</time>
      </trkpt>
      <trkpt lat="44.10745" lon="6.0659">
        <ele>1006.4</ele>
        <time>2021-08-24T09:10:42Z</time>
      </trkpt>
      <trkpt lat="44.10741" lon="6.06589">
        <ele>1007.2</ele>
        <time>2021-08-24T09:10:44Z</time>
      </trkpt>
      <trkpt lat="44.10737" lon="6.06589">
        <ele>1008.2</ele>
        <time>2021-08-24T09:10:47Z</time>
      </trkpt>
      <trkpt lat="44.10728" lon="6.06582">
        <ele>1009.6</ele>
        <time>2021-08-24T09:10:52Z</time>
      </trkpt>
      <trkpt lat="44.10723" lon="6.06579">
        <ele>1011.2</ele>
        <time>2021-08-24T09:10:55Z</time>
      </trkpt>
      <trkpt lat="44.10721" lon="6.06579">
        <ele>1011.8</ele>
        <time>2021-08-24T09:10:56Z</time>
      </trkpt>
      <trkpt lat="44.10721" lon="6.06578">
        <ele>1012.4</ele>
        <time>2021-08-24T09:10:57Z</time>
      </trkpt>
      <trkpt lat="44.10718" lon="6.06577">
        <ele>1013.4</ele>
        <time>2021-08-24T09:11:00Z</time>
      </trkpt>
      <trkpt lat="44.10716" lon="6.06575">
        <ele>1013.8</ele>
        <time>2021-08-24T09:11:02Z</time>
      </trkpt>
      <trkpt lat="44.10712" lon="6.0657">
        <ele>1014.6</ele>
        <time>2021-08-24T09:11:07Z</time>
      </trkpt>
      <trkpt lat="44.1071" lon="6.06569">
        <ele>1015.6</ele>
        <time>2021-08-24T09:11:12Z</time>
      </trkpt>
      <trkpt lat="44.1071" lon="6.06568">
        <ele>1015.8</ele>
        <time>2021-08-24T09:11:13Z</time>
      </trkpt>
      <trkpt lat="44.10708" lon="6.06567">
        <ele>1017</ele>
        <time>2021-08-24T09:11:17Z</time>
      </trkpt>
      <trkpt lat="44.10705" lon="6.06565">
        <ele>1018</ele>
        <time>2021-08-24T09:11:22Z</time>
      </trkpt>
      <trkpt lat="44.10705" lon="6.06565">
        <ele>1018</ele>
        <time>2021-08-24T09:11:23Z</time>
      </trkpt>
      <trkpt lat="44.10702" lon="6.06563">
        <ele>1019.2</ele>
        <time>2021-08-24T09:11:27Z</time>
      </trkpt>
      <trkpt lat="44.10699" lon="6.06561">
        <ele>1020.2</ele>
        <time>2021-08-24T09:11:31Z</time>
      </trkpt>
      <trkpt lat="44.10699" lon="6.06561">
        <ele>1020.4</ele>
        <time>2021-08-24T09:11:32Z</time>
      </trkpt>
      <trkpt lat="44.10698" lon="6.0656">
        <ele>1020.6</ele>
        <time>2021-08-24T09:11:33Z</time>
      </trkpt>
      <trkpt lat="44.10697" lon="6.0656">
        <ele>1021.2</ele>
        <time>2021-08-24T09:11:35Z</time>
      </trkpt>
      <trkpt lat="44.10696" lon="6.06559">
        <ele>1021.4</ele>
        <time>2021-08-24T09:11:36Z</time>
      </trkpt>
      <trkpt lat="44.10693" lon="6.06557">
        <ele>1022.4</ele>
        <time>2021-08-24T09:11:40Z</time>
      </trkpt>
      <trkpt lat="44.10693" lon="6.06557">
        <ele>1022.8</ele>
        <time>2021-08-24T09:11:42Z</time>
      </trkpt>
      <trkpt lat="44.10693" lon="6.06557">
        <ele>1023.2</ele>
        <time>2021-08-24T09:11:49Z</time>
      </trkpt>
      <trkpt lat="44.10692" lon="6.06556">
        <ele>1023.4</ele>
        <time>2021-08-24T09:11:51Z</time>
      </trkpt>
      <trkpt lat="44.10691" lon="6.06555">
        <ele>1023.4</ele>
        <time>2021-08-24T09:11:52Z</time>
      </trkpt>
      <trkpt lat="44.1069" lon="6.06555">
        <ele>1023.4</ele>
        <time>2021-08-24T09:11:53Z</time>
      </trkpt>
      <trkpt lat="44.1069" lon="6.06555">
        <ele>1023.6</ele>
        <time>2021-08-24T09:11:54Z</time>
      </trkpt>
      <trkpt lat="44.10689" lon="6.06554">
        <ele>1023.6</ele>
        <time>2021-08-24T09:11:55Z</time>
      </trkpt>
      <trkpt lat="44.10688" lon="6.06553">
        <ele>1024</ele>
        <time>2021-08-24T09:11:57Z</time>
      </trkpt>
      <trkpt lat="44.10688" lon="6.06552">
        <ele>1024</ele>
        <time>2021-08-24T09:11:58Z</time>
      </trkpt>
      <trkpt lat="44.10686" lon="6.06551">
        <ele>1024.8</ele>
        <time>2021-08-24T09:12:01Z</time>
      </trkpt>
      <trkpt lat="44.10686" lon="6.06551">
        <ele>1025</ele>
        <time>2021-08-24T09:12:02Z</time>
      </trkpt>
      <trkpt lat="44.10684" lon="6.0655">
        <ele>1026</ele>
        <time>2021-08-24T09:12:05Z</time>
      </trkpt>
      <trkpt lat="44.10681" lon="6.06548">
        <ele>1027</ele>
        <time>2021-08-24T09:12:11Z</time>
      </trkpt>
      <trkpt lat="44.10681" lon="6.06548">
        <ele>1027</ele>
        <time>2021-08-24T09:12:12Z</time>
      </trkpt>
      <trkpt lat="44.1068" lon="6.06548">
        <ele>1027.2</ele>
        <time>2021-08-24T09:12:13Z</time>
      </trkpt>
      <trkpt lat="44.10678" lon="6.06547">
        <ele>1028.2</ele>
        <time>2021-08-24T09:12:17Z</time>
      </trkpt>
      <trkpt lat="44.10676" lon="6.06547">
        <ele>1029</ele>
        <time>2021-08-24T09:12:21Z</time>
      </trkpt>
      <trkpt lat="44.10675" lon="6.06547">
        <ele>1029.2</ele>
        <time>2021-08-24T09:12:22Z</time>
      </trkpt>
      <trkpt lat="44.10674" lon="6.06547">
        <ele>1029.4</ele>
        <time>2021-08-24T09:12:23Z</time>
      </trkpt>
      <trkpt lat="44.1067" lon="6.06544">
        <ele>1030.4</ele>
        <time>2021-08-24T09:12:30Z</time>
      </trkpt>
      <trkpt lat="44.10669" lon="6.06543">
        <ele>1030.8</ele>
        <time>2021-08-24T09:12:32Z</time>
      </trkpt>
      <trkpt lat="44.10667" lon="6.06542">
        <ele>1031.4</ele>
        <time>2021-08-24T09:12:35Z</time>
      </trkpt>
      <trkpt lat="44.10662" lon="6.06539">
        <ele>1032.6</ele>
        <time>2021-08-24T09:12:41Z</time>
      </trkpt>
      <trkpt lat="44.10662" lon="6.06539">
        <ele>1032.8</ele>
        <time>2021-08-24T09:12:42Z</time>
      </trkpt>
      <trkpt lat="44.10657" lon="6.06536">
        <ele>1033.8</ele>
        <time>2021-08-24T09:12:48Z</time>
      </trkpt>
      <trkpt lat="44.10655" lon="6.06534">
        <ele>1034.6</ele>
        <time>2021-08-24T09:12:52Z</time>
      </trkpt>
      <trkpt lat="44.10655" lon="6.06533">
        <ele>1034.8</ele>
        <time>2021-08-24T09:12:53Z</time>
      </trkpt>
      <trkpt lat="44.10651" lon="6.06531">
        <ele>1035.8</ele>
        <time>2021-08-24T09:12:59Z</time>
      </trkpt>
      <trkpt lat="44.10649" lon="6.06531">
        <ele>1036.2</ele>
        <time>2021-08-24T09:13:02Z</time>
      </trkpt>
      <trkpt lat="44.10647" lon="6.0653">
        <ele>1037</ele>
        <time>2021-08-24T09:13:05Z</time>
      </trkpt>
      <trkpt lat="44.10644" lon="6.06529">
        <ele>1038</ele>
        <time>2021-08-24T09:13:10Z</time>
      </trkpt>
      <trkpt lat="44.10643" lon="6.06528">
        <ele>1038.4</ele>
        <time>2021-08-24T09:13:12Z</time>
      </trkpt>
      <trkpt lat="44.10641" lon="6.06526">
        <ele>1039</ele>
        <time>2021-08-24T09:13:16Z</time>
      </trkpt>
      <trkpt lat="44.10637" lon="6.06525">
        <ele>1039.8</ele>
        <time>2021-08-24T09:13:22Z</time>
      </trkpt>
      <trkpt lat="44.10636" lon="6.06525">
        <ele>1040.2</ele>
        <time>2021-08-24T09:13:24Z</time>
      </trkpt>
      <trkpt lat="44.10633" lon="6.06523">
        <ele>1041.2</ele>
        <time>2021-08-24T09:13:29Z</time>
      </trkpt>
      <trkpt lat="44.10631" lon="6.06521">
        <ele>1041.6</ele>
        <time>2021-08-24T09:13:32Z</time>
      </trkpt>
      <trkpt lat="44.10629" lon="6.0652">
        <ele>1042.2</ele>
        <time>2021-08-24T09:13:35Z</time>
      </trkpt>
      <trkpt lat="44.10628" lon="6.0652">
        <ele>1042.2</ele>
        <time>2021-08-24T09:13:36Z</time>
      </trkpt>
      <trkpt lat="44.10624" lon="6.06518">
        <ele>1042.8</ele>
        <time>2021-08-24T09:13:42Z</time>
      </trkpt>
      <trkpt lat="44.1062" lon="6.06516">
        <ele>1043.4</ele>
        <time>2021-08-24T09:13:46Z</time>
      </trkpt>
      <trkpt lat="44.10617" lon="6.06511">
        <ele>1044.6</ele>
        <time>2021-08-24T09:13:52Z</time>
      </trkpt>
      <trkpt lat="44.10617" lon="6.06511">
        <ele>1045</ele>
        <time>2021-08-24T09:13:56Z</time>
      </trkpt>
      <trkpt lat="44.10617" lon="6.06511">
        <ele>1045</ele>
        <time>2021-08-24T09:14:02Z</time>
      </trkpt>
      <trkpt lat="44.10616" lon="6.0651">
        <ele>1045.2</ele>
        <time>2021-08-24T09:14:10Z</time>
      </trkpt>
      <trkpt lat="44.10616" lon="6.06511">
        <ele>1045.2</ele>
        <time>2021-08-24T09:14:11Z</time>
      </trkpt>
      <trkpt lat="44.10615" lon="6.06511">
        <ele>1045.2</ele>
        <time>2021-08-24T09:14:12Z</time>
      </trkpt>
      <trkpt lat="44.10616" lon="6.06511">
        <ele>1045</ele>
        <time>2021-08-24T09:14:22Z</time>
      </trkpt>
      <trkpt lat="44.10616" lon="6.06511">
        <ele>1044.8</ele>
        <time>2021-08-24T09:14:32Z</time>
      </trkpt>
      <trkpt lat="44.10616" lon="6.0651">
        <ele>1044.8</ele>
        <time>2021-08-24T09:14:42Z</time>
      </trkpt>
      <trkpt lat="44.10616" lon="6.0651">
        <ele>1045</ele>
        <time>2021-08-24T09:14:49Z</time>
      </trkpt>
      <trkpt lat="44.10616" lon="6.0651">
        <ele>1045</ele>
        <time>2021-08-24T09:14:52Z</time>
      </trkpt>
      <trkpt lat="44.10616" lon="6.0651">
        <ele>1045</ele>
        <time>2021-08-24T09:14:53Z</time>
      </trkpt>
      <trkpt lat="44.10616" lon="6.0651">
        <ele>1044.8</ele>
        <time>2021-08-24T09:14:54Z</time>
      </trkpt>
      <trkpt lat="44.10616" lon="6.0651">
        <ele>1045.4</ele>
        <time>2021-08-24T09:14:57Z</time>
      </trkpt>
      <trkpt lat="44.10616" lon="6.0651">
        <ele>1045.4</ele>
        <time>2021-08-24T09:14:59Z</time>
      </trkpt>
      <trkpt lat="44.10616" lon="6.0651">
        <ele>1045.4</ele>
        <time>2021-08-24T09:15:02Z</time>
      </trkpt>
      <trkpt lat="44.10615" lon="6.06509">
        <ele>1045.4</ele>
        <time>2021-08-24T09:15:07Z</time>
      </trkpt>
      <trkpt lat="44.10615" lon="6.06509">
        <ele>1045.4</ele>
        <time>2021-08-24T09:15:08Z</time>
      </trkpt>
      <trkpt lat="44.10615" lon="6.06508">
        <ele>1045.4</ele>
        <time>2021-08-24T09:15:12Z</time>
      </trkpt>
      <trkpt lat="44.10611" lon="6.06504">
        <ele>1044.6</ele>
        <time>2021-08-24T09:15:14Z</time>
      </trkpt>
      <trkpt lat="44.10599" lon="6.06492">
        <ele>1043.6</ele>
        <time>2021-08-24T09:15:20Z</time>
      </trkpt>
      <trkpt lat="44.10597" lon="6.06488">
        <ele>1044</ele>
        <time>2021-08-24T09:15:22Z</time>
      </trkpt>
      <trkpt lat="44.10597" lon="6.06487">
        <ele>1044.2</ele>
        <time>2021-08-24T09:15:23Z</time>
      </trkpt>
      <trkpt lat="44.10583" lon="6.06477">
        <ele>1045.2</ele>
        <time>2021-08-24T09:15:32Z</time>
      </trkpt>
      <trkpt lat="44.10576" lon="6.06468">
        <ele>1045.2</ele>
        <time>2021-08-24T09:15:37Z</time>
      </trkpt>
      <trkpt lat="44.10571" lon="6.06464">
        <ele>1045.2</ele>
        <time>2021-08-24T09:15:40Z</time>
      </trkpt>
      <trkpt lat="44.10569" lon="6.06463">
        <ele>1045</ele>
        <time>2021-08-24T09:15:41Z</time>
      </trkpt>
      <trkpt lat="44.10567" lon="6.06462">
        <ele>1045</ele>
        <time>2021-08-24T09:15:42Z</time>
      </trkpt>
      <trkpt lat="44.10547" lon="6.06447">
        <ele>1045</ele>
        <time>2021-08-24T09:15:49Z</time>
      </trkpt>
      <trkpt lat="44.1054" lon="6.06441">
        <ele>1044.6</ele>
        <time>2021-08-24T09:15:52Z</time>
      </trkpt>
      <trkpt lat="44.10532" lon="6.06434">
        <ele>1044.4</ele>
        <time>2021-08-24T09:15:55Z</time>
      </trkpt>
      <trkpt lat="44.10516" lon="6.06423">
        <ele>1043.4</ele>
        <time>2021-08-24T09:16:00Z</time>
      </trkpt>
      <trkpt lat="44.10506" lon="6.06417">
        <ele>1042.8</ele>
        <time>2021-08-24T09:16:02Z</time>
      </trkpt>
      <trkpt lat="44.10501" lon="6.06413">
        <ele>1042.2</ele>
        <time>2021-08-24T09:16:03Z</time>
      </trkpt>
      <trkpt lat="44.10496" lon="6.06409">
        <ele>1041.8</ele>
        <time>2021-08-24T09:16:04Z</time>
      </trkpt>
      <trkpt lat="44.10485" lon="6.06402">
        <ele>1041</ele>
        <time>2021-08-24T09:16:06Z</time>
      </trkpt>
      <trkpt lat="44.10473" lon="6.06395">
        <ele>1040</ele>
        <time>2021-08-24T09:16:08Z</time>
      </trkpt>
      <trkpt lat="44.10455" lon="6.06384">
        <ele>1038.6</ele>
        <time>2021-08-24T09:16:11Z</time>
      </trkpt>
      <trkpt lat="44.10449" lon="6.06381">
        <ele>1038.2</ele>
        <time>2021-08-24T09:16:12Z</time>
      </trkpt>
      <trkpt lat="44.10439" lon="6.06376">
        <ele>1037</ele>
        <time>2021-08-24T09:16:14Z</time>
      </trkpt>
      <trkpt lat="44.10427" lon="6.06369">
        <ele>1035.8</ele>
        <time>2021-08-24T09:16:17Z</time>
      </trkpt>
      <trkpt lat="44.10411" lon="6.06359">
        <ele>1035</ele>
        <time>2021-08-24T09:16:21Z</time>
      </trkpt>
      <trkpt lat="44.10407" lon="6.06356">
        <ele>1034.6</ele>
        <time>2021-08-24T09:16:22Z</time>
      </trkpt>
      <trkpt lat="44.10403" lon="6.06354">
        <ele>1034.2</ele>
        <time>2021-08-24T09:16:23Z</time>
      </trkpt>
      <trkpt lat="44.1037" lon="6.06337">
        <ele>1034.6</ele>
        <time>2021-08-24T09:16:32Z</time>
      </trkpt>
      <trkpt lat="44.10347" lon="6.06319">
        <ele>1036</ele>
        <time>2021-08-24T09:16:40Z</time>
      </trkpt>
      <trkpt lat="44.10342" lon="6.06316">
        <ele>1036.8</ele>
        <time>2021-08-24T09:16:42Z</time>
      </trkpt>
      <trkpt lat="44.10339" lon="6.06314">
        <ele>1037.2</ele>
        <time>2021-08-24T09:16:43Z</time>
      </trkpt>
      <trkpt lat="44.10323" lon="6.06302">
        <ele>1038.4</ele>
        <time>2021-08-24T09:16:51Z</time>
      </trkpt>
      <trkpt lat="44.10321" lon="6.063">
        <ele>1038.4</ele>
        <time>2021-08-24T09:16:52Z</time>
      </trkpt>
      <trkpt lat="44.1031" lon="6.06291">
        <ele>1039.4</ele>
        <time>2021-08-24T09:16:58Z</time>
      </trkpt>
      <trkpt lat="44.10304" lon="6.06285">
        <ele>1040.2</ele>
        <time>2021-08-24T09:17:02Z</time>
      </trkpt>
      <trkpt lat="44.10302" lon="6.06283">
        <ele>1040.4</ele>
        <time>2021-08-24T09:17:03Z</time>
      </trkpt>
      <trkpt lat="44.10299" lon="6.06281">
        <ele>1040.6</ele>
        <time>2021-08-24T09:17:05Z</time>
      </trkpt>
      <trkpt lat="44.10292" lon="6.06276">
        <ele>1041.6</ele>
        <time>2021-08-24T09:17:09Z</time>
      </trkpt>
      <trkpt lat="44.10286" lon="6.06271">
        <ele>1042.4</ele>
        <time>2021-08-24T09:17:12Z</time>
      </trkpt>
      <trkpt lat="44.10284" lon="6.0627">
        <ele>1042.8</ele>
        <time>2021-08-24T09:17:13Z</time>
      </trkpt>
      <trkpt lat="44.10278" lon="6.06266">
        <ele>1044</ele>
        <time>2021-08-24T09:17:17Z</time>
      </trkpt>
      <trkpt lat="44.10271" lon="6.0626">
        <ele>1044.8</ele>
        <time>2021-08-24T09:17:22Z</time>
      </trkpt>
      <trkpt lat="44.10269" lon="6.06259">
        <ele>1045</ele>
        <time>2021-08-24T09:17:23Z</time>
      </trkpt>
      <trkpt lat="44.10255" lon="6.06249">
        <ele>1045.6</ele>
        <time>2021-08-24T09:17:32Z</time>
      </trkpt>
      <trkpt lat="44.10232" lon="6.06249">
        <ele>1043.8</ele>
        <time>2021-08-24T09:17:37Z</time>
      </trkpt>
      <trkpt lat="44.10223" lon="6.0625">
        <ele>1041.8</ele>
        <time>2021-08-24T09:17:39Z</time>
      </trkpt>
      <trkpt lat="44.10216" lon="6.0625">
        <ele>1040.4</ele>
        <time>2021-08-24T09:17:41Z</time>
      </trkpt>
      <trkpt lat="44.10213" lon="6.0625">
        <ele>1039.6</ele>
        <time>2021-08-24T09:17:42Z</time>
      </trkpt>
      <trkpt lat="44.10209" lon="6.0625">
        <ele>1039</ele>
        <time>2021-08-24T09:17:43Z</time>
      </trkpt>
      <trkpt lat="44.10202" lon="6.06249">
        <ele>1037.6</ele>
        <time>2021-08-24T09:17:45Z</time>
      </trkpt>
      <trkpt lat="44.10194" lon="6.06249">
        <ele>1036.4</ele>
        <time>2021-08-24T09:17:47Z</time>
      </trkpt>
      <trkpt lat="44.10185" lon="6.06249">
        <ele>1035.4</ele>
        <time>2021-08-24T09:17:49Z</time>
      </trkpt>
      <trkpt lat="44.1018" lon="6.06248">
        <ele>1034.8</ele>
        <time>2021-08-24T09:17:50Z</time>
      </trkpt>
      <trkpt lat="44.10175" lon="6.06247">
        <ele>1034</ele>
        <time>2021-08-24T09:17:51Z</time>
      </trkpt>
      <trkpt lat="44.1017" lon="6.06246">
        <ele>1033.4</ele>
        <time>2021-08-24T09:17:52Z</time>
      </trkpt>
      <trkpt lat="44.10165" lon="6.06245">
        <ele>1032.8</ele>
        <time>2021-08-24T09:17:53Z</time>
      </trkpt>
      <trkpt lat="44.10153" lon="6.06243">
        <ele>1031.4</ele>
        <time>2021-08-24T09:17:55Z</time>
      </trkpt>
      <trkpt lat="44.10141" lon="6.06243">
        <ele>1030.4</ele>
        <time>2021-08-24T09:17:57Z</time>
      </trkpt>
      <trkpt lat="44.10136" lon="6.06242">
        <ele>1030</ele>
        <time>2021-08-24T09:17:58Z</time>
      </trkpt>
      <trkpt lat="44.10126" lon="6.0624">
        <ele>1029.4</ele>
        <time>2021-08-24T09:18:00Z</time>
      </trkpt>
      <trkpt lat="44.10122" lon="6.06238">
        <ele>1029.2</ele>
        <time>2021-08-24T09:18:01Z</time>
      </trkpt>
      <trkpt lat="44.10117" lon="6.06236">
        <ele>1028.8</ele>
        <time>2021-08-24T09:18:02Z</time>
      </trkpt>
      <trkpt lat="44.10113" lon="6.06236">
        <ele>1028.8</ele>
        <time>2021-08-24T09:18:03Z</time>
      </trkpt>
      <trkpt lat="44.10105" lon="6.06234">
        <ele>1028.4</ele>
        <time>2021-08-24T09:18:05Z</time>
      </trkpt>
      <trkpt lat="44.10099" lon="6.06231">
        <ele>1028</ele>
        <time>2021-08-24T09:18:11Z</time>
      </trkpt>
      <trkpt lat="44.10099" lon="6.06232">
        <ele>1027.6</ele>
        <time>2021-08-24T09:18:43Z</time>
      </trkpt>
      <trkpt lat="44.10095" lon="6.06229">
        <ele>1027.6</ele>
        <time>2021-08-24T09:18:47Z</time>
      </trkpt>
      <trkpt lat="44.10087" lon="6.06227">
        <ele>1027.8</ele>
        <time>2021-08-24T09:18:50Z</time>
      </trkpt>
      <trkpt lat="44.10081" lon="6.06224">
        <ele>1028</ele>
        <time>2021-08-24T09:18:52Z</time>
      </trkpt>
      <trkpt lat="44.10076" lon="6.06222">
        <ele>1028.2</ele>
        <time>2021-08-24T09:18:54Z</time>
      </trkpt>
      <trkpt lat="44.10063" lon="6.06215">
        <ele>1028.4</ele>
        <time>2021-08-24T09:18:59Z</time>
      </trkpt>
      <trkpt lat="44.10055" lon="6.0621">
        <ele>1028.6</ele>
        <time>2021-08-24T09:19:02Z</time>
      </trkpt>
      <trkpt lat="44.10053" lon="6.06209">
        <ele>1028.6</ele>
        <time>2021-08-24T09:19:03Z</time>
      </trkpt>
      <trkpt lat="44.1005" lon="6.06208">
        <ele>1028.8</ele>
        <time>2021-08-24T09:19:04Z</time>
      </trkpt>
      <trkpt lat="44.10048" lon="6.06208">
        <ele>1028.8</ele>
        <time>2021-08-24T09:19:05Z</time>
      </trkpt>
      <trkpt lat="44.10042" lon="6.06206">
        <ele>1029.4</ele>
        <time>2021-08-24T09:19:08Z</time>
      </trkpt>
      <trkpt lat="44.10033" lon="6.06202">
        <ele>1029.8</ele>
        <time>2021-08-24T09:19:12Z</time>
      </trkpt>
      <trkpt lat="44.10031" lon="6.062">
        <ele>1029.8</ele>
        <time>2021-08-24T09:19:13Z</time>
      </trkpt>
      <trkpt lat="44.1002" lon="6.06195">
        <ele>1030.2</ele>
        <time>2021-08-24T09:19:18Z</time>
      </trkpt>
      <trkpt lat="44.10015" lon="6.06194">
        <ele>1030.4</ele>
        <time>2021-08-24T09:19:20Z</time>
      </trkpt>
      <trkpt lat="44.10011" lon="6.06192">
        <ele>1030.6</ele>
        <time>2021-08-24T09:19:22Z</time>
      </trkpt>
      <trkpt lat="44.10004" lon="6.06189">
        <ele>1031</ele>
        <time>2021-08-24T09:19:25Z</time>
      </trkpt>
      <trkpt lat="44.09991" lon="6.06179">
        <ele>1031.2</ele>
        <time>2021-08-24T09:19:31Z</time>
      </trkpt>
      <trkpt lat="44.09988" lon="6.06178">
        <ele>1031.2</ele>
        <time>2021-08-24T09:19:32Z</time>
      </trkpt>
      <trkpt lat="44.09985" lon="6.06176">
        <ele>1031.2</ele>
        <time>2021-08-24T09:19:33Z</time>
      </trkpt>
      <trkpt lat="44.09983" lon="6.06175">
        <ele>1031.2</ele>
        <time>2021-08-24T09:19:34Z</time>
      </trkpt>
      <trkpt lat="44.09977" lon="6.06173">
        <ele>1031</ele>
        <time>2021-08-24T09:19:36Z</time>
      </trkpt>
      <trkpt lat="44.09965" lon="6.06167">
        <ele>1031.2</ele>
        <time>2021-08-24T09:19:40Z</time>
      </trkpt>
      <trkpt lat="44.09958" lon="6.06161">
        <ele>1031.4</ele>
        <time>2021-08-24T09:19:42Z</time>
      </trkpt>
      <trkpt lat="44.09934" lon="6.0614">
        <ele>1031.6</ele>
        <time>2021-08-24T09:19:51Z</time>
      </trkpt>
      <trkpt lat="44.09932" lon="6.0614">
        <ele>1031.8</ele>
        <time>2021-08-24T09:19:52Z</time>
      </trkpt>
      <trkpt lat="44.0992" lon="6.0614">
        <ele>1031.2</ele>
        <time>2021-08-24T09:20:00Z</time>
      </trkpt>
      <trkpt lat="44.09919" lon="6.0614">
        <ele>1031</ele>
        <time>2021-08-24T09:20:02Z</time>
      </trkpt>
      <trkpt lat="44.09919" lon="6.0614">
        <ele>1030.8</ele>
        <time>2021-08-24T09:20:06Z</time>
      </trkpt>
      <trkpt lat="44.09917" lon="6.0614">
        <ele>1030.6</ele>
        <time>2021-08-24T09:21:42Z</time>
      </trkpt>
      <trkpt lat="44.09916" lon="6.06139">
        <ele>1030.6</ele>
        <time>2021-08-24T09:21:43Z</time>
      </trkpt>
      <trkpt lat="44.09915" lon="6.06139">
        <ele>1030.6</ele>
        <time>2021-08-24T09:21:45Z</time>
      </trkpt>
      <trkpt lat="44.09913" lon="6.06139">
        <ele>1030.8</ele>
        <time>2021-08-24T09:21:46Z</time>
      </trkpt>
      <trkpt lat="44.09911" lon="6.06138">
        <ele>1030.4</ele>
        <time>2021-08-24T09:21:47Z</time>
      </trkpt>
      <trkpt lat="44.09909" lon="6.06137">
        <ele>1030</ele>
        <time>2021-08-24T09:21:48Z</time>
      </trkpt>
      <trkpt lat="44.09908" lon="6.06137">
        <ele>1030.2</ele>
        <time>2021-08-24T09:21:49Z</time>
      </trkpt>
      <trkpt lat="44.09907" lon="6.06135">
        <ele>1030.2</ele>
        <time>2021-08-24T09:21:52Z</time>
      </trkpt>
      <trkpt lat="44.09907" lon="6.06135">
        <ele>1030.2</ele>
        <time>2021-08-24T09:21:53Z</time>
      </trkpt>
      <trkpt lat="44.09906" lon="6.06134">
        <ele>1030.2</ele>
        <time>2021-08-24T09:21:55Z</time>
      </trkpt>
      <trkpt lat="44.09905" lon="6.06133">
        <ele>1030.2</ele>
        <time>2021-08-24T09:21:56Z</time>
      </trkpt>
      <trkpt lat="44.09901" lon="6.06132">
        <ele>1030</ele>
        <time>2021-08-24T09:21:58Z</time>
      </trkpt>
      <trkpt lat="44.09894" lon="6.06135">
        <ele>1029.6</ele>
        <time>2021-08-24T09:22:00Z</time>
      </trkpt>
      <trkpt lat="44.09891" lon="6.06137">
        <ele>1029.2</ele>
        <time>2021-08-24T09:22:01Z</time>
      </trkpt>
      <trkpt lat="44.09888" lon="6.06138">
        <ele>1029</ele>
        <time>2021-08-24T09:22:02Z</time>
      </trkpt>
      <trkpt lat="44.09881" lon="6.06139">
        <ele>1028</ele>
        <time>2021-08-24T09:22:04Z</time>
      </trkpt>
      <trkpt lat="44.09874" lon="6.0614">
        <ele>1027</ele>
        <time>2021-08-24T09:22:06Z</time>
      </trkpt>
      <trkpt lat="44.09865" lon="6.06141">
        <ele>1026.4</ele>
        <time>2021-08-24T09:22:08Z</time>
      </trkpt>
      <trkpt lat="44.0986" lon="6.0614">
        <ele>1026</ele>
        <time>2021-08-24T09:22:09Z</time>
      </trkpt>
      <trkpt lat="44.09855" lon="6.06139">
        <ele>1025.6</ele>
        <time>2021-08-24T09:22:10Z</time>
      </trkpt>
      <trkpt lat="44.09848" lon="6.06139">
        <ele>1025.2</ele>
        <time>2021-08-24T09:22:11Z</time>
      </trkpt>
      <trkpt lat="44.09843" lon="6.06138">
        <ele>1024.8</ele>
        <time>2021-08-24T09:22:12Z</time>
      </trkpt>
      <trkpt lat="44.09828" lon="6.06135">
        <ele>1023.6</ele>
        <time>2021-08-24T09:22:15Z</time>
      </trkpt>
      <trkpt lat="44.09823" lon="6.06134">
        <ele>1023.4</ele>
        <time>2021-08-24T09:22:16Z</time>
      </trkpt>
      <trkpt lat="44.09818" lon="6.06134">
        <ele>1023.2</ele>
        <time>2021-08-24T09:22:17Z</time>
      </trkpt>
      <trkpt lat="44.0981" lon="6.06132">
        <ele>1022.8</ele>
        <time>2021-08-24T09:22:19Z</time>
      </trkpt>
      <trkpt lat="44.09797" lon="6.0613">
        <ele>1022.6</ele>
        <time>2021-08-24T09:22:22Z</time>
      </trkpt>
      <trkpt lat="44.09793" lon="6.06129">
        <ele>1022.6</ele>
        <time>2021-08-24T09:22:23Z</time>
      </trkpt>
      <trkpt lat="44.09782" lon="6.06129">
        <ele>1022.4</ele>
        <time>2021-08-24T09:22:27Z</time>
      </trkpt>
      <trkpt lat="44.09769" lon="6.06128">
        <ele>1023</ele>
        <time>2021-08-24T09:22:32Z</time>
      </trkpt>
      <trkpt lat="44.09764" lon="6.06128">
        <ele>1023.8</ele>
        <time>2021-08-24T09:22:34Z</time>
      </trkpt>
      <trkpt lat="44.09754" lon="6.0612">
        <ele>1024.8</ele>
        <time>2021-08-24T09:22:37Z</time>
      </trkpt>
      <trkpt lat="44.09738" lon="6.06111">
        <ele>1025</ele>
        <time>2021-08-24T09:22:42Z</time>
      </trkpt>
      <trkpt lat="44.09737" lon="6.0611">
        <ele>1025</ele>
        <time>2021-08-24T09:22:43Z</time>
      </trkpt>
      <trkpt lat="44.09734" lon="6.06108">
        <ele>1025.2</ele>
        <time>2021-08-24T09:22:44Z</time>
      </trkpt>
      <trkpt lat="44.09731" lon="6.06106">
        <ele>1025.4</ele>
        <time>2021-08-24T09:22:45Z</time>
      </trkpt>
      <trkpt lat="44.09729" lon="6.06104">
        <ele>1025.8</ele>
        <time>2021-08-24T09:22:46Z</time>
      </trkpt>
      <trkpt lat="44.09727" lon="6.06102">
        <ele>1026</ele>
        <time>2021-08-24T09:22:47Z</time>
      </trkpt>
      <trkpt lat="44.09725" lon="6.06101">
        <ele>1026.2</ele>
        <time>2021-08-24T09:22:48Z</time>
      </trkpt>
      <trkpt lat="44.09724" lon="6.06098">
        <ele>1026.2</ele>
        <time>2021-08-24T09:22:49Z</time>
      </trkpt>
      <trkpt lat="44.09719" lon="6.06096">
        <ele>1026.6</ele>
        <time>2021-08-24T09:22:52Z</time>
      </trkpt>
      <trkpt lat="44.09716" lon="6.06094">
        <ele>1027</ele>
        <time>2021-08-24T09:22:54Z</time>
      </trkpt>
      <trkpt lat="44.09715" lon="6.06094">
        <ele>1027.4</ele>
        <time>2021-08-24T09:22:55Z</time>
      </trkpt>
      <trkpt lat="44.09712" lon="6.06094">
        <ele>1028</ele>
        <time>2021-08-24T09:22:57Z</time>
      </trkpt>
      <trkpt lat="44.09711" lon="6.06094">
        <ele>1028.4</ele>
        <time>2021-08-24T09:22:58Z</time>
      </trkpt>
      <trkpt lat="44.09709" lon="6.06094">
        <ele>1029</ele>
        <time>2021-08-24T09:23:00Z</time>
      </trkpt>
      <trkpt lat="44.09709" lon="6.06095">
        <ele>1029.4</ele>
        <time>2021-08-24T09:23:01Z</time>
      </trkpt>
      <trkpt lat="44.09708" lon="6.06094">
        <ele>1029.6</ele>
        <time>2021-08-24T09:23:02Z</time>
      </trkpt>
      <trkpt lat="44.09707" lon="6.06094">
        <ele>1030</ele>
        <time>2021-08-24T09:23:03Z</time>
      </trkpt>
      <trkpt lat="44.09706" lon="6.06094">
        <ele>1030.2</ele>
        <time>2021-08-24T09:23:04Z</time>
      </trkpt>
      <trkpt lat="44.09704" lon="6.06094">
        <ele>1030.6</ele>
        <time>2021-08-24T09:23:06Z</time>
      </trkpt>
      <trkpt lat="44.09703" lon="6.06093">
        <ele>1031</ele>
        <time>2021-08-24T09:23:07Z</time>
      </trkpt>
      <trkpt lat="44.097" lon="6.06093">
        <ele>1031.6</ele>
        <time>2021-08-24T09:23:10Z</time>
      </trkpt>
      <trkpt lat="44.09698" lon="6.06092">
        <ele>1031.8</ele>
        <time>2021-08-24T09:23:11Z</time>
      </trkpt>
      <trkpt lat="44.09697" lon="6.06092">
        <ele>1031.8</ele>
        <time>2021-08-24T09:23:12Z</time>
      </trkpt>
      <trkpt lat="44.09695" lon="6.0609">
        <ele>1032.4</ele>
        <time>2021-08-24T09:23:14Z</time>
      </trkpt>
      <trkpt lat="44.09693" lon="6.06089">
        <ele>1032.8</ele>
        <time>2021-08-24T09:23:16Z</time>
      </trkpt>
      <trkpt lat="44.09688" lon="6.06087">
        <ele>1034</ele>
        <time>2021-08-24T09:23:22Z</time>
      </trkpt>
      <trkpt lat="44.09684" lon="6.06087">
        <ele>1034.6</ele>
        <time>2021-08-24T09:23:27Z</time>
      </trkpt>
      <trkpt lat="44.09683" lon="6.06087">
        <ele>1035.2</ele>
        <time>2021-08-24T09:23:30Z</time>
      </trkpt>
      <trkpt lat="44.09682" lon="6.06087">
        <ele>1035.4</ele>
        <time>2021-08-24T09:23:32Z</time>
      </trkpt>
      <trkpt lat="44.09679" lon="6.06086">
        <ele>1035.6</ele>
        <time>2021-08-24T09:23:34Z</time>
      </trkpt>
      <trkpt lat="44.09677" lon="6.06085">
        <ele>1036</ele>
        <time>2021-08-24T09:23:36Z</time>
      </trkpt>
      <trkpt lat="44.09677" lon="6.06085">
        <ele>1036.2</ele>
        <time>2021-08-24T09:23:37Z</time>
      </trkpt>
      <trkpt lat="44.09673" lon="6.06085">
        <ele>1036.6</ele>
        <time>2021-08-24T09:23:40Z</time>
      </trkpt>
      <trkpt lat="44.09671" lon="6.06084">
        <ele>1036.8</ele>
        <time>2021-08-24T09:23:42Z</time>
      </trkpt>
      <trkpt lat="44.09668" lon="6.06084">
        <ele>1037</ele>
        <time>2021-08-24T09:23:45Z</time>
      </trkpt>
      <trkpt lat="44.09665" lon="6.06083">
        <ele>1037</ele>
        <time>2021-08-24T09:23:48Z</time>
      </trkpt>
      <trkpt lat="44.09663" lon="6.06083">
        <ele>1037.2</ele>
        <time>2021-08-24T09:23:50Z</time>
      </trkpt>
      <trkpt lat="44.09661" lon="6.06082">
        <ele>1037.4</ele>
        <time>2021-08-24T09:23:52Z</time>
      </trkpt>
      <trkpt lat="44.09656" lon="6.06081">
        <ele>1038</ele>
        <time>2021-08-24T09:23:56Z</time>
      </trkpt>
      <trkpt lat="44.09654" lon="6.06081">
        <ele>1038.4</ele>
        <time>2021-08-24T09:23:58Z</time>
      </trkpt>
      <trkpt lat="44.09651" lon="6.0608">
        <ele>1038.8</ele>
        <time>2021-08-24T09:24:02Z</time>
      </trkpt>
      <trkpt lat="44.09649" lon="6.06078">
        <ele>1038.8</ele>
        <time>2021-08-24T09:24:06Z</time>
      </trkpt>
      <trkpt lat="44.09646" lon="6.06077">
        <ele>1039</ele>
        <time>2021-08-24T09:24:08Z</time>
      </trkpt>
      <trkpt lat="44.09644" lon="6.06077">
        <ele>1039.6</ele>
        <time>2021-08-24T09:24:10Z</time>
      </trkpt>
      <trkpt lat="44.09642" lon="6.06077">
        <ele>1039.8</ele>
        <time>2021-08-24T09:24:12Z</time>
      </trkpt>
      <trkpt lat="44.09639" lon="6.06078">
        <ele>1040.4</ele>
        <time>2021-08-24T09:24:14Z</time>
      </trkpt>
      <trkpt lat="44.09638" lon="6.06078">
        <ele>1040.6</ele>
        <time>2021-08-24T09:24:15Z</time>
      </trkpt>
      <trkpt lat="44.09633" lon="6.06076">
        <ele>1041.2</ele>
        <time>2021-08-24T09:24:20Z</time>
      </trkpt>
      <trkpt lat="44.09631" lon="6.06076">
        <ele>1041.4</ele>
        <time>2021-08-24T09:24:22Z</time>
      </trkpt>
      <trkpt lat="44.09629" lon="6.06076">
        <ele>1041.8</ele>
        <time>2021-08-24T09:24:24Z</time>
      </trkpt>
      <trkpt lat="44.09625" lon="6.06075">
        <ele>1043</ele>
        <time>2021-08-24T09:24:29Z</time>
      </trkpt>
      <trkpt lat="44.09624" lon="6.06074">
        <ele>1043</ele>
        <time>2021-08-24T09:24:30Z</time>
      </trkpt>
      <trkpt lat="44.09622" lon="6.06073">
        <ele>1043.4</ele>
        <time>2021-08-24T09:24:32Z</time>
      </trkpt>
      <trkpt lat="44.09619" lon="6.06072">
        <ele>1044</ele>
        <time>2021-08-24T09:24:37Z</time>
      </trkpt>
      <trkpt lat="44.09617" lon="6.06072">
        <ele>1044.2</ele>
        <time>2021-08-24T09:24:41Z</time>
      </trkpt>
      <trkpt lat="44.09615" lon="6.06072">
        <ele>1044.2</ele>
        <time>2021-08-24T09:24:42Z</time>
      </trkpt>
      <trkpt lat="44.09614" lon="6.06073">
        <ele>1044.2</ele>
        <time>2021-08-24T09:24:43Z</time>
      </trkpt>
      <trkpt lat="44.09602" lon="6.0608">
        <ele>1042.8</ele>
        <time>2021-08-24T09:24:48Z</time>
      </trkpt>
      <trkpt lat="44.09597" lon="6.06083">
        <ele>1041.8</ele>
        <time>2021-08-24T09:24:50Z</time>
      </trkpt>
      <trkpt lat="44.09592" lon="6.06084">
        <ele>1040.8</ele>
        <time>2021-08-24T09:24:52Z</time>
      </trkpt>
      <trkpt lat="44.09587" lon="6.06087">
        <ele>1039.2</ele>
        <time>2021-08-24T09:24:54Z</time>
      </trkpt>
      <trkpt lat="44.09584" lon="6.06087">
        <ele>1038.2</ele>
        <time>2021-08-24T09:24:55Z</time>
      </trkpt>
      <trkpt lat="44.0958" lon="6.0609">
        <ele>1036.4</ele>
        <time>2021-08-24T09:24:57Z</time>
      </trkpt>
      <trkpt lat="44.09576" lon="6.06093">
        <ele>1035.4</ele>
        <time>2021-08-24T09:24:59Z</time>
      </trkpt>
      <trkpt lat="44.09571" lon="6.06101">
        <ele>1034.4</ele>
        <time>2021-08-24T09:25:02Z</time>
      </trkpt>
      <trkpt lat="44.09568" lon="6.06105">
        <ele>1034</ele>
        <time>2021-08-24T09:25:03Z</time>
      </trkpt>
      <trkpt lat="44.09563" lon="6.06114">
        <ele>1032.4</ele>
        <time>2021-08-24T09:25:05Z</time>
      </trkpt>
      <trkpt lat="44.0956" lon="6.06117">
        <ele>1031.2</ele>
        <time>2021-08-24T09:25:06Z</time>
      </trkpt>
      <trkpt lat="44.09556" lon="6.06121">
        <ele>1030.2</ele>
        <time>2021-08-24T09:25:07Z</time>
      </trkpt>
      <trkpt lat="44.09554" lon="6.06125">
        <ele>1029.2</ele>
        <time>2021-08-24T09:25:08Z</time>
      </trkpt>
      <trkpt lat="44.09549" lon="6.06136">
        <ele>1027.6</ele>
        <time>2021-08-24T09:25:10Z</time>
      </trkpt>
      <trkpt lat="44.09548" lon="6.06143">
        <ele>1027</ele>
        <time>2021-08-24T09:25:11Z</time>
      </trkpt>
      <trkpt lat="44.09546" lon="6.06148">
        <ele>1026.6</ele>
        <time>2021-08-24T09:25:12Z</time>
      </trkpt>
      <trkpt lat="44.0954" lon="6.06154">
        <ele>1025.2</ele>
        <time>2021-08-24T09:25:15Z</time>
      </trkpt>
      <trkpt lat="44.0954" lon="6.06154">
        <ele>1024</ele>
        <time>2021-08-24T09:25:19Z</time>
      </trkpt>
      <trkpt lat="44.09536" lon="6.06157">
        <ele>1023.8</ele>
        <time>2021-08-24T09:25:22Z</time>
      </trkpt>
      <trkpt lat="44.09531" lon="6.06163">
        <ele>1023.6</ele>
        <time>2021-08-24T09:25:24Z</time>
      </trkpt>
      <trkpt lat="44.09523" lon="6.0617">
        <ele>1022.6</ele>
        <time>2021-08-24T09:25:27Z</time>
      </trkpt>
      <trkpt lat="44.0952" lon="6.06176">
        <ele>1020.6</ele>
        <time>2021-08-24T09:25:29Z</time>
      </trkpt>
      <trkpt lat="44.09514" lon="6.06179">
        <ele>1019.2</ele>
        <time>2021-08-24T09:25:31Z</time>
      </trkpt>
      <trkpt lat="44.09511" lon="6.06181">
        <ele>1018.6</ele>
        <time>2021-08-24T09:25:32Z</time>
      </trkpt>
      <trkpt lat="44.09508" lon="6.06183">
        <ele>1018</ele>
        <time>2021-08-24T09:25:33Z</time>
      </trkpt>
      <trkpt lat="44.09502" lon="6.06189">
        <ele>1016.4</ele>
        <time>2021-08-24T09:25:35Z</time>
      </trkpt>
      <trkpt lat="44.09494" lon="6.06194">
        <ele>1014.6</ele>
        <time>2021-08-24T09:25:37Z</time>
      </trkpt>
      <trkpt lat="44.09487" lon="6.06199">
        <ele>1013.2</ele>
        <time>2021-08-24T09:25:39Z</time>
      </trkpt>
      <trkpt lat="44.09479" lon="6.06204">
        <ele>1011.6</ele>
        <time>2021-08-24T09:25:41Z</time>
      </trkpt>
      <trkpt lat="44.09476" lon="6.06207">
        <ele>1010.8</ele>
        <time>2021-08-24T09:25:42Z</time>
      </trkpt>
      <trkpt lat="44.09472" lon="6.0621">
        <ele>1010.2</ele>
        <time>2021-08-24T09:25:43Z</time>
      </trkpt>
      <trkpt lat="44.09468" lon="6.06212">
        <ele>1009.4</ele>
        <time>2021-08-24T09:25:44Z</time>
      </trkpt>
      <trkpt lat="44.09464" lon="6.06214">
        <ele>1008.4</ele>
        <time>2021-08-24T09:25:45Z</time>
      </trkpt>
      <trkpt lat="44.09459" lon="6.06216">
        <ele>1007.6</ele>
        <time>2021-08-24T09:25:46Z</time>
      </trkpt>
      <trkpt lat="44.09454" lon="6.0622">
        <ele>1007.2</ele>
        <time>2021-08-24T09:25:47Z</time>
      </trkpt>
      <trkpt lat="44.09449" lon="6.06223">
        <ele>1006.8</ele>
        <time>2021-08-24T09:25:48Z</time>
      </trkpt>
      <trkpt lat="44.09432" lon="6.06232">
        <ele>1006</ele>
        <time>2021-08-24T09:25:51Z</time>
      </trkpt>
      <trkpt lat="44.09426" lon="6.06235">
        <ele>1005.4</ele>
        <time>2021-08-24T09:25:52Z</time>
      </trkpt>
      <trkpt lat="44.0942" lon="6.06237">
        <ele>1004.6</ele>
        <time>2021-08-24T09:25:53Z</time>
      </trkpt>
      <trkpt lat="44.09409" lon="6.06242">
        <ele>1003</ele>
        <time>2021-08-24T09:25:55Z</time>
      </trkpt>
      <trkpt lat="44.09392" lon="6.06249">
        <ele>1001.2</ele>
        <time>2021-08-24T09:25:58Z</time>
      </trkpt>
      <trkpt lat="44.09388" lon="6.06253">
        <ele>1000</ele>
        <time>2021-08-24T09:25:59Z</time>
      </trkpt>
      <trkpt lat="44.09384" lon="6.06257">
        <ele>998.8</ele>
        <time>2021-08-24T09:26:00Z</time>
      </trkpt>
      <trkpt lat="44.0938" lon="6.06261">
        <ele>997.6</ele>
        <time>2021-08-24T09:26:01Z</time>
      </trkpt>
      <trkpt lat="44.09376" lon="6.06266">
        <ele>996.8</ele>
        <time>2021-08-24T09:26:02Z</time>
      </trkpt>
      <trkpt lat="44.09372" lon="6.06271">
        <ele>996.2</ele>
        <time>2021-08-24T09:26:03Z</time>
      </trkpt>
      <trkpt lat="44.09363" lon="6.0628">
        <ele>995</ele>
        <time>2021-08-24T09:26:06Z</time>
      </trkpt>
      <trkpt lat="44.09358" lon="6.06285">
        <ele>993</ele>
        <time>2021-08-24T09:26:08Z</time>
      </trkpt>
      <trkpt lat="44.09355" lon="6.06288">
        <ele>992.2</ele>
        <time>2021-08-24T09:26:09Z</time>
      </trkpt>
      <trkpt lat="44.09352" lon="6.06293">
        <ele>991.4</ele>
        <time>2021-08-24T09:26:10Z</time>
      </trkpt>
      <trkpt lat="44.09348" lon="6.06297">
        <ele>989.8</ele>
        <time>2021-08-24T09:26:11Z</time>
      </trkpt>
      <trkpt lat="44.09344" lon="6.06302">
        <ele>988.2</ele>
        <time>2021-08-24T09:26:12Z</time>
      </trkpt>
      <trkpt lat="44.09341" lon="6.06305">
        <ele>986.4</ele>
        <time>2021-08-24T09:26:13Z</time>
      </trkpt>
      <trkpt lat="44.09339" lon="6.06307">
        <ele>985.2</ele>
        <time>2021-08-24T09:26:14Z</time>
      </trkpt>
      <trkpt lat="44.09337" lon="6.06309">
        <ele>983.4</ele>
        <time>2021-08-24T09:26:16Z</time>
      </trkpt>
      <trkpt lat="44.09334" lon="6.0631">
        <ele>982.4</ele>
        <time>2021-08-24T09:26:18Z</time>
      </trkpt>
      <trkpt lat="44.09333" lon="6.06312">
        <ele>981.8</ele>
        <time>2021-08-24T09:26:22Z</time>
      </trkpt>
      <trkpt lat="44.0933" lon="6.0631">
        <ele>981.6</ele>
        <time>2021-08-24T09:26:26Z</time>
      </trkpt>
      <trkpt lat="44.09323" lon="6.06308">
        <ele>981.4</ele>
        <time>2021-08-24T09:26:28Z</time>
      </trkpt>
      <trkpt lat="44.09312" lon="6.06305">
        <ele>980.4</ele>
        <time>2021-08-24T09:26:30Z</time>
      </trkpt>
      <trkpt lat="44.09307" lon="6.06303">
        <ele>979.4</ele>
        <time>2021-08-24T09:26:31Z</time>
      </trkpt>
      <trkpt lat="44.09302" lon="6.06302">
        <ele>978.6</ele>
        <time>2021-08-24T09:26:32Z</time>
      </trkpt>
      <trkpt lat="44.09297" lon="6.063">
        <ele>977.6</ele>
        <time>2021-08-24T09:26:33Z</time>
      </trkpt>
      <trkpt lat="44.09292" lon="6.06297">
        <ele>976.8</ele>
        <time>2021-08-24T09:26:34Z</time>
      </trkpt>
      <trkpt lat="44.09284" lon="6.06292">
        <ele>975.6</ele>
        <time>2021-08-24T09:26:36Z</time>
      </trkpt>
      <trkpt lat="44.09275" lon="6.06286">
        <ele>974</ele>
        <time>2021-08-24T09:26:38Z</time>
      </trkpt>
      <trkpt lat="44.09265" lon="6.0628">
        <ele>971.6</ele>
        <time>2021-08-24T09:26:40Z</time>
      </trkpt>
      <trkpt lat="44.09261" lon="6.06278">
        <ele>970</ele>
        <time>2021-08-24T09:26:41Z</time>
      </trkpt>
      <trkpt lat="44.09257" lon="6.06276">
        <ele>968.4</ele>
        <time>2021-08-24T09:26:42Z</time>
      </trkpt>
      <trkpt lat="44.09254" lon="6.06275">
        <ele>967.2</ele>
        <time>2021-08-24T09:26:43Z</time>
      </trkpt>
      <trkpt lat="44.09246" lon="6.06274">
        <ele>965.6</ele>
        <time>2021-08-24T09:26:45Z</time>
      </trkpt>
      <trkpt lat="44.09239" lon="6.06274">
        <ele>963.8</ele>
        <time>2021-08-24T09:26:47Z</time>
      </trkpt>
      <trkpt lat="44.09236" lon="6.06274">
        <ele>963.2</ele>
        <time>2021-08-24T09:26:48Z</time>
      </trkpt>
      <trkpt lat="44.09232" lon="6.06273">
        <ele>962.4</ele>
        <time>2021-08-24T09:26:49Z</time>
      </trkpt>
      <trkpt lat="44.09225" lon="6.06273">
        <ele>960</ele>
        <time>2021-08-24T09:26:51Z</time>
      </trkpt>
      <trkpt lat="44.09222" lon="6.06272">
        <ele>958.6</ele>
        <time>2021-08-24T09:26:52Z</time>
      </trkpt>
      <trkpt lat="44.09218" lon="6.0627">
        <ele>957.2</ele>
        <time>2021-08-24T09:26:53Z</time>
      </trkpt>
      <trkpt lat="44.09214" lon="6.06268">
        <ele>955.8</ele>
        <time>2021-08-24T09:26:54Z</time>
      </trkpt>
      <trkpt lat="44.0921" lon="6.06266">
        <ele>954.6</ele>
        <time>2021-08-24T09:26:55Z</time>
      </trkpt>
      <trkpt lat="44.09206" lon="6.06264">
        <ele>953.4</ele>
        <time>2021-08-24T09:26:56Z</time>
      </trkpt>
      <trkpt lat="44.09202" lon="6.06262">
        <ele>952.4</ele>
        <time>2021-08-24T09:26:57Z</time>
      </trkpt>
      <trkpt lat="44.09196" lon="6.06256">
        <ele>950.6</ele>
        <time>2021-08-24T09:26:59Z</time>
      </trkpt>
      <trkpt lat="44.09193" lon="6.06253">
        <ele>949.6</ele>
        <time>2021-08-24T09:27:00Z</time>
      </trkpt>
      <trkpt lat="44.09184" lon="6.06249">
        <ele>947.8</ele>
        <time>2021-08-24T09:27:02Z</time>
      </trkpt>
      <trkpt lat="44.09176" lon="6.06246">
        <ele>946</ele>
        <time>2021-08-24T09:27:04Z</time>
      </trkpt>
      <trkpt lat="44.09172" lon="6.06244">
        <ele>945</ele>
        <time>2021-08-24T09:27:05Z</time>
      </trkpt>
      <trkpt lat="44.09165" lon="6.0624">
        <ele>943.4</ele>
        <time>2021-08-24T09:27:07Z</time>
      </trkpt>
      <trkpt lat="44.09162" lon="6.06238">
        <ele>942.4</ele>
        <time>2021-08-24T09:27:08Z</time>
      </trkpt>
      <trkpt lat="44.09159" lon="6.06236">
        <ele>941.2</ele>
        <time>2021-08-24T09:27:09Z</time>
      </trkpt>
      <trkpt lat="44.09155" lon="6.06235">
        <ele>940.2</ele>
        <time>2021-08-24T09:27:10Z</time>
      </trkpt>
      <trkpt lat="44.09148" lon="6.06233">
        <ele>938.6</ele>
        <time>2021-08-24T09:27:12Z</time>
      </trkpt>
      <trkpt lat="44.09148" lon="6.06227">
        <ele>937</ele>
        <time>2021-08-24T09:27:14Z</time>
      </trkpt>
      <trkpt lat="44.0915" lon="6.06225">
        <ele>936.4</ele>
        <time>2021-08-24T09:27:15Z</time>
      </trkpt>
      <trkpt lat="44.09153" lon="6.06222">
        <ele>935.8</ele>
        <time>2021-08-24T09:27:16Z</time>
      </trkpt>
      <trkpt lat="44.0916" lon="6.06218">
        <ele>934.6</ele>
        <time>2021-08-24T09:27:18Z</time>
      </trkpt>
      <trkpt lat="44.09164" lon="6.06218">
        <ele>933.6</ele>
        <time>2021-08-24T09:27:20Z</time>
      </trkpt>
      <trkpt lat="44.09164" lon="6.06216">
        <ele>932.6</ele>
        <time>2021-08-24T09:27:22Z</time>
      </trkpt>
      <trkpt lat="44.09162" lon="6.06215">
        <ele>932.2</ele>
        <time>2021-08-24T09:27:23Z</time>
      </trkpt>
      <trkpt lat="44.09152" lon="6.06211">
        <ele>930.6</ele>
        <time>2021-08-24T09:27:26Z</time>
      </trkpt>
      <trkpt lat="44.09144" lon="6.0621">
        <ele>928.6</ele>
        <time>2021-08-24T09:27:28Z</time>
      </trkpt>
      <trkpt lat="44.09138" lon="6.06209">
        <ele>926.8</ele>
        <time>2021-08-24T09:27:30Z</time>
      </trkpt>
      <trkpt lat="44.09131" lon="6.0621">
        <ele>925.4</ele>
        <time>2021-08-24T09:27:32Z</time>
      </trkpt>
      <trkpt lat="44.09124" lon="6.0621">
        <ele>923.8</ele>
        <time>2021-08-24T09:27:34Z</time>
      </trkpt>
      <trkpt lat="44.09121" lon="6.06209">
        <ele>922.6</ele>
        <time>2021-08-24T09:27:35Z</time>
      </trkpt>
      <trkpt lat="44.09114" lon="6.06207">
        <ele>920.6</ele>
        <time>2021-08-24T09:27:37Z</time>
      </trkpt>
      <trkpt lat="44.09111" lon="6.06207">
        <ele>919.6</ele>
        <time>2021-08-24T09:27:38Z</time>
      </trkpt>
      <trkpt lat="44.09109" lon="6.06206">
        <ele>918.6</ele>
        <time>2021-08-24T09:27:39Z</time>
      </trkpt>
      <trkpt lat="44.09107" lon="6.06206">
        <ele>917.4</ele>
        <time>2021-08-24T09:27:40Z</time>
      </trkpt>
      <trkpt lat="44.09104" lon="6.06204">
        <ele>915.6</ele>
        <time>2021-08-24T09:27:42Z</time>
      </trkpt>
      <trkpt lat="44.09105" lon="6.06199">
        <ele>914.4</ele>
        <time>2021-08-24T09:27:44Z</time>
      </trkpt>
      <trkpt lat="44.09108" lon="6.06193">
        <ele>913.2</ele>
        <time>2021-08-24T09:27:46Z</time>
      </trkpt>
      <trkpt lat="44.0911" lon="6.06187">
        <ele>911.6</ele>
        <time>2021-08-24T09:27:48Z</time>
      </trkpt>
      <trkpt lat="44.09116" lon="6.06179">
        <ele>910</ele>
        <time>2021-08-24T09:27:51Z</time>
      </trkpt>
      <trkpt lat="44.09117" lon="6.06177">
        <ele>909.2</ele>
        <time>2021-08-24T09:27:52Z</time>
      </trkpt>
      <trkpt lat="44.09118" lon="6.06175">
        <ele>908.4</ele>
        <time>2021-08-24T09:27:53Z</time>
      </trkpt>
      <trkpt lat="44.0912" lon="6.06174">
        <ele>907.4</ele>
        <time>2021-08-24T09:27:54Z</time>
      </trkpt>
      <trkpt lat="44.09122" lon="6.06169">
        <ele>905.8</ele>
        <time>2021-08-24T09:27:56Z</time>
      </trkpt>
      <trkpt lat="44.09126" lon="6.06164">
        <ele>904.6</ele>
        <time>2021-08-24T09:27:58Z</time>
      </trkpt>
      <trkpt lat="44.09131" lon="6.06157">
        <ele>903.2</ele>
        <time>2021-08-24T09:28:00Z</time>
      </trkpt>
      <trkpt lat="44.09135" lon="6.06152">
        <ele>902.2</ele>
        <time>2021-08-24T09:28:02Z</time>
      </trkpt>
      <trkpt lat="44.0914" lon="6.06149">
        <ele>901</ele>
        <time>2021-08-24T09:28:04Z</time>
      </trkpt>
      <trkpt lat="44.09148" lon="6.06145">
        <ele>899.8</ele>
        <time>2021-08-24T09:28:07Z</time>
      </trkpt>
      <trkpt lat="44.09155" lon="6.06139">
        <ele>898.4</ele>
        <time>2021-08-24T09:28:10Z</time>
      </trkpt>
      <trkpt lat="44.09161" lon="6.06136">
        <ele>897.4</ele>
        <time>2021-08-24T09:28:12Z</time>
      </trkpt>
      <trkpt lat="44.09174" lon="6.06132">
        <ele>896</ele>
        <time>2021-08-24T09:28:15Z</time>
      </trkpt>
      <trkpt lat="44.09175" lon="6.06131">
        <ele>895.4</ele>
        <time>2021-08-24T09:28:16Z</time>
      </trkpt>
      <trkpt lat="44.09172" lon="6.0613">
        <ele>894.6</ele>
        <time>2021-08-24T09:28:17Z</time>
      </trkpt>
      <trkpt lat="44.09169" lon="6.0613">
        <ele>893.8</ele>
        <time>2021-08-24T09:28:18Z</time>
      </trkpt>
      <trkpt lat="44.09165" lon="6.06129">
        <ele>893</ele>
        <time>2021-08-24T09:28:19Z</time>
      </trkpt>
      <trkpt lat="44.09159" lon="6.06126">
        <ele>891.6</ele>
        <time>2021-08-24T09:28:21Z</time>
      </trkpt>
      <trkpt lat="44.09154" lon="6.06126">
        <ele>890.6</ele>
        <time>2021-08-24T09:28:22Z</time>
      </trkpt>
      <trkpt lat="44.0915" lon="6.06126">
        <ele>889.8</ele>
        <time>2021-08-24T09:28:23Z</time>
      </trkpt>
      <trkpt lat="44.09145" lon="6.06126">
        <ele>888.8</ele>
        <time>2021-08-24T09:28:24Z</time>
      </trkpt>
      <trkpt lat="44.09141" lon="6.06126">
        <ele>888</ele>
        <time>2021-08-24T09:28:25Z</time>
      </trkpt>
      <trkpt lat="44.09134" lon="6.06125">
        <ele>886.2</ele>
        <time>2021-08-24T09:28:27Z</time>
      </trkpt>
      <trkpt lat="44.09131" lon="6.06123">
        <ele>885.2</ele>
        <time>2021-08-24T09:28:28Z</time>
      </trkpt>
      <trkpt lat="44.09128" lon="6.06122">
        <ele>884</ele>
        <time>2021-08-24T09:28:29Z</time>
      </trkpt>
      <trkpt lat="44.09123" lon="6.0612">
        <ele>882.4</ele>
        <time>2021-08-24T09:28:31Z</time>
      </trkpt>
      <trkpt lat="44.09121" lon="6.06119">
        <ele>881.4</ele>
        <time>2021-08-24T09:28:32Z</time>
      </trkpt>
      <trkpt lat="44.09119" lon="6.06118">
        <ele>880.4</ele>
        <time>2021-08-24T09:28:33Z</time>
      </trkpt>
      <trkpt lat="44.09119" lon="6.06112">
        <ele>879</ele>
        <time>2021-08-24T09:28:35Z</time>
      </trkpt>
      <trkpt lat="44.09121" lon="6.06107">
        <ele>878</ele>
        <time>2021-08-24T09:28:37Z</time>
      </trkpt>
      <trkpt lat="44.09125" lon="6.06102">
        <ele>876.4</ele>
        <time>2021-08-24T09:28:39Z</time>
      </trkpt>
      <trkpt lat="44.0913" lon="6.06097">
        <ele>874.4</ele>
        <time>2021-08-24T09:28:41Z</time>
      </trkpt>
      <trkpt lat="44.09132" lon="6.06094">
        <ele>873.2</ele>
        <time>2021-08-24T09:28:42Z</time>
      </trkpt>
      <trkpt lat="44.09134" lon="6.06093">
        <ele>872</ele>
        <time>2021-08-24T09:28:43Z</time>
      </trkpt>
      <trkpt lat="44.09136" lon="6.0609">
        <ele>871</ele>
        <time>2021-08-24T09:28:44Z</time>
      </trkpt>
      <trkpt lat="44.09136" lon="6.06082">
        <ele>869.2</ele>
        <time>2021-08-24T09:28:46Z</time>
      </trkpt>
      <trkpt lat="44.09137" lon="6.06072">
        <ele>867.8</ele>
        <time>2021-08-24T09:28:48Z</time>
      </trkpt>
      <trkpt lat="44.09139" lon="6.06065">
        <ele>866.8</ele>
        <time>2021-08-24T09:28:50Z</time>
      </trkpt>
      <trkpt lat="44.09142" lon="6.06058">
        <ele>865.6</ele>
        <time>2021-08-24T09:28:52Z</time>
      </trkpt>
      <trkpt lat="44.09147" lon="6.0605">
        <ele>863.6</ele>
        <time>2021-08-24T09:28:54Z</time>
      </trkpt>
      <trkpt lat="44.09149" lon="6.06047">
        <ele>862.6</ele>
        <time>2021-08-24T09:28:55Z</time>
      </trkpt>
      <trkpt lat="44.09151" lon="6.06043">
        <ele>861.2</ele>
        <time>2021-08-24T09:28:56Z</time>
      </trkpt>
      <trkpt lat="44.09153" lon="6.06038">
        <ele>860</ele>
        <time>2021-08-24T09:28:57Z</time>
      </trkpt>
      <trkpt lat="44.09155" lon="6.06035">
        <ele>859</ele>
        <time>2021-08-24T09:28:58Z</time>
      </trkpt>
      <trkpt lat="44.0916" lon="6.06029">
        <ele>857</ele>
        <time>2021-08-24T09:29:00Z</time>
      </trkpt>
      <trkpt lat="44.09163" lon="6.06026">
        <ele>856</ele>
        <time>2021-08-24T09:29:01Z</time>
      </trkpt>
      <trkpt lat="44.09166" lon="6.06025">
        <ele>855</ele>
        <time>2021-08-24T09:29:02Z</time>
      </trkpt>
      <trkpt lat="44.0917" lon="6.06024">
        <ele>853.8</ele>
        <time>2021-08-24T09:29:03Z</time>
      </trkpt>
      <trkpt lat="44.09173" lon="6.06023">
        <ele>852</ele>
        <time>2021-08-24T09:29:04Z</time>
      </trkpt>
      <trkpt lat="44.09176" lon="6.06022">
        <ele>850.4</ele>
        <time>2021-08-24T09:29:05Z</time>
      </trkpt>
      <trkpt lat="44.0918" lon="6.06021">
        <ele>848.8</ele>
        <time>2021-08-24T09:29:06Z</time>
      </trkpt>
      <trkpt lat="44.09182" lon="6.0602">
        <ele>847.6</ele>
        <time>2021-08-24T09:29:07Z</time>
      </trkpt>
      <trkpt lat="44.09184" lon="6.06019">
        <ele>846.8</ele>
        <time>2021-08-24T09:29:08Z</time>
      </trkpt>
      <trkpt lat="44.09185" lon="6.06018">
        <ele>846</ele>
        <time>2021-08-24T09:29:09Z</time>
      </trkpt>
      <trkpt lat="44.09188" lon="6.06016">
        <ele>845</ele>
        <time>2021-08-24T09:29:12Z</time>
      </trkpt>
      <trkpt lat="44.09188" lon="6.06016">
        <ele>844.6</ele>
        <time>2021-08-24T09:29:22Z</time>
      </trkpt>
      <trkpt lat="44.09189" lon="6.06014">
        <ele>844.6</ele>
        <time>2021-08-24T09:29:30Z</time>
      </trkpt>
      <trkpt lat="44.09192" lon="6.0601">
        <ele>844</ele>
        <time>2021-08-24T09:29:32Z</time>
      </trkpt>
      <trkpt lat="44.09195" lon="6.06007">
        <ele>843.6</ele>
        <time>2021-08-24T09:29:33Z</time>
      </trkpt>
      <trkpt lat="44.09202" lon="6.05999">
        <ele>842.6</ele>
        <time>2021-08-24T09:29:35Z</time>
      </trkpt>
      <trkpt lat="44.0921" lon="6.0599">
        <ele>840.8</ele>
        <time>2021-08-24T09:29:37Z</time>
      </trkpt>
      <trkpt lat="44.09216" lon="6.05978">
        <ele>839.6</ele>
        <time>2021-08-24T09:29:39Z</time>
      </trkpt>
      <trkpt lat="44.09216" lon="6.05973">
        <ele>838.6</ele>
        <time>2021-08-24T09:29:40Z</time>
      </trkpt>
      <trkpt lat="44.09216" lon="6.05969">
        <ele>837.4</ele>
        <time>2021-08-24T09:29:41Z</time>
      </trkpt>
      <trkpt lat="44.09216" lon="6.05965">
        <ele>836.2</ele>
        <time>2021-08-24T09:29:42Z</time>
      </trkpt>
      <trkpt lat="44.09215" lon="6.05961">
        <ele>835.4</ele>
        <time>2021-08-24T09:29:43Z</time>
      </trkpt>
      <trkpt lat="44.09214" lon="6.05959">
        <ele>834.4</ele>
        <time>2021-08-24T09:29:44Z</time>
      </trkpt>
      <trkpt lat="44.09212" lon="6.05956">
        <ele>833.4</ele>
        <time>2021-08-24T09:29:45Z</time>
      </trkpt>
      <trkpt lat="44.0921" lon="6.05953">
        <ele>832.4</ele>
        <time>2021-08-24T09:29:46Z</time>
      </trkpt>
      <trkpt lat="44.09207" lon="6.05945">
        <ele>830.6</ele>
        <time>2021-08-24T09:29:48Z</time>
      </trkpt>
      <trkpt lat="44.09205" lon="6.05942">
        <ele>829.6</ele>
        <time>2021-08-24T09:29:49Z</time>
      </trkpt>
      <trkpt lat="44.09203" lon="6.0594">
        <ele>828.4</ele>
        <time>2021-08-24T09:29:50Z</time>
      </trkpt>
      <trkpt lat="44.09202" lon="6.05936">
        <ele>827.2</ele>
        <time>2021-08-24T09:29:51Z</time>
      </trkpt>
      <trkpt lat="44.09202" lon="6.05932">
        <ele>826.4</ele>
        <time>2021-08-24T09:29:52Z</time>
      </trkpt>
      <trkpt lat="44.09202" lon="6.05928">
        <ele>825.4</ele>
        <time>2021-08-24T09:29:53Z</time>
      </trkpt>
      <trkpt lat="44.09202" lon="6.05925">
        <ele>824.4</ele>
        <time>2021-08-24T09:29:54Z</time>
      </trkpt>
      <trkpt lat="44.09201" lon="6.05922">
        <ele>823</ele>
        <time>2021-08-24T09:29:55Z</time>
      </trkpt>
      <trkpt lat="44.09199" lon="6.0592">
        <ele>822</ele>
        <time>2021-08-24T09:29:56Z</time>
      </trkpt>
      <trkpt lat="44.09196" lon="6.05914">
        <ele>820</ele>
        <time>2021-08-24T09:29:58Z</time>
      </trkpt>
      <trkpt lat="44.09196" lon="6.0591">
        <ele>818.8</ele>
        <time>2021-08-24T09:29:59Z</time>
      </trkpt>
      <trkpt lat="44.09196" lon="6.05906">
        <ele>817.6</ele>
        <time>2021-08-24T09:30:00Z</time>
      </trkpt>
      <trkpt lat="44.09195" lon="6.05898">
        <ele>815.8</ele>
        <time>2021-08-24T09:30:02Z</time>
      </trkpt>
      <trkpt lat="44.09195" lon="6.05893">
        <ele>814.6</ele>
        <time>2021-08-24T09:30:03Z</time>
      </trkpt>
      <trkpt lat="44.09193" lon="6.05888">
        <ele>813.4</ele>
        <time>2021-08-24T09:30:04Z</time>
      </trkpt>
      <trkpt lat="44.09192" lon="6.05884">
        <ele>812.4</ele>
        <time>2021-08-24T09:30:05Z</time>
      </trkpt>
      <trkpt lat="44.09191" lon="6.0588">
        <ele>811.4</ele>
        <time>2021-08-24T09:30:06Z</time>
      </trkpt>
      <trkpt lat="44.09191" lon="6.05877">
        <ele>810.2</ele>
        <time>2021-08-24T09:30:07Z</time>
      </trkpt>
      <trkpt lat="44.09191" lon="6.05868">
        <ele>808.2</ele>
        <time>2021-08-24T09:30:09Z</time>
      </trkpt>
      <trkpt lat="44.09188" lon="6.05861">
        <ele>806.4</ele>
        <time>2021-08-24T09:30:11Z</time>
      </trkpt>
      <trkpt lat="44.09187" lon="6.05857">
        <ele>805.6</ele>
        <time>2021-08-24T09:30:12Z</time>
      </trkpt>
      <trkpt lat="44.09187" lon="6.05852">
        <ele>804.8</ele>
        <time>2021-08-24T09:30:13Z</time>
      </trkpt>
      <trkpt lat="44.09186" lon="6.05842">
        <ele>803.6</ele>
        <time>2021-08-24T09:30:15Z</time>
      </trkpt>
      <trkpt lat="44.09185" lon="6.05837">
        <ele>803.2</ele>
        <time>2021-08-24T09:30:16Z</time>
      </trkpt>
      <trkpt lat="44.09184" lon="6.05833">
        <ele>802.2</ele>
        <time>2021-08-24T09:30:17Z</time>
      </trkpt>
      <trkpt lat="44.09182" lon="6.05828">
        <ele>801.2</ele>
        <time>2021-08-24T09:30:18Z</time>
      </trkpt>
      <trkpt lat="44.09181" lon="6.05824">
        <ele>800</ele>
        <time>2021-08-24T09:30:19Z</time>
      </trkpt>
      <trkpt lat="44.0918" lon="6.05818">
        <ele>798.8</ele>
        <time>2021-08-24T09:30:20Z</time>
      </trkpt>
      <trkpt lat="44.09181" lon="6.05809">
        <ele>797</ele>
        <time>2021-08-24T09:30:22Z</time>
      </trkpt>
      <trkpt lat="44.09183" lon="6.05799">
        <ele>795</ele>
        <time>2021-08-24T09:30:24Z</time>
      </trkpt>
      <trkpt lat="44.09184" lon="6.05787">
        <ele>793.4</ele>
        <time>2021-08-24T09:30:26Z</time>
      </trkpt>
      <trkpt lat="44.09184" lon="6.05778">
        <ele>791.6</ele>
        <time>2021-08-24T09:30:28Z</time>
      </trkpt>
      <trkpt lat="44.09186" lon="6.05773">
        <ele>790.2</ele>
        <time>2021-08-24T09:30:29Z</time>
      </trkpt>
      <trkpt lat="44.09187" lon="6.05769">
        <ele>789</ele>
        <time>2021-08-24T09:30:30Z</time>
      </trkpt>
      <trkpt lat="44.0919" lon="6.05762">
        <ele>787.6</ele>
        <time>2021-08-24T09:30:32Z</time>
      </trkpt>
      <trkpt lat="44.09191" lon="6.05758">
        <ele>786.8</ele>
        <time>2021-08-24T09:30:33Z</time>
      </trkpt>
      <trkpt lat="44.09191" lon="6.05754">
        <ele>785.8</ele>
        <time>2021-08-24T09:30:34Z</time>
      </trkpt>
      <trkpt lat="44.09193" lon="6.05749">
        <ele>784.6</ele>
        <time>2021-08-24T09:30:35Z</time>
      </trkpt>
      <trkpt lat="44.09195" lon="6.05745">
        <ele>783.4</ele>
        <time>2021-08-24T09:30:36Z</time>
      </trkpt>
      <trkpt lat="44.09196" lon="6.0574">
        <ele>782.4</ele>
        <time>2021-08-24T09:30:37Z</time>
      </trkpt>
      <trkpt lat="44.09197" lon="6.05735">
        <ele>781.2</ele>
        <time>2021-08-24T09:30:38Z</time>
      </trkpt>
      <trkpt lat="44.09199" lon="6.05726">
        <ele>779.8</ele>
        <time>2021-08-24T09:30:40Z</time>
      </trkpt>
      <trkpt lat="44.09196" lon="6.05717">
        <ele>778</ele>
        <time>2021-08-24T09:30:42Z</time>
      </trkpt>
      <trkpt lat="44.09194" lon="6.05712">
        <ele>776.8</ele>
        <time>2021-08-24T09:30:43Z</time>
      </trkpt>
      <trkpt lat="44.09193" lon="6.05707">
        <ele>775.6</ele>
        <time>2021-08-24T09:30:44Z</time>
      </trkpt>
      <trkpt lat="44.09193" lon="6.05702">
        <ele>774.4</ele>
        <time>2021-08-24T09:30:45Z</time>
      </trkpt>
      <trkpt lat="44.09192" lon="6.05697">
        <ele>772.8</ele>
        <time>2021-08-24T09:30:46Z</time>
      </trkpt>
      <trkpt lat="44.0919" lon="6.05693">
        <ele>771.6</ele>
        <time>2021-08-24T09:30:47Z</time>
      </trkpt>
      <trkpt lat="44.09187" lon="6.05689">
        <ele>770.6</ele>
        <time>2021-08-24T09:30:48Z</time>
      </trkpt>
      <trkpt lat="44.09182" lon="6.0568">
        <ele>769</ele>
        <time>2021-08-24T09:30:50Z</time>
      </trkpt>
      <trkpt lat="44.09181" lon="6.0567">
        <ele>768</ele>
        <time>2021-08-24T09:30:52Z</time>
      </trkpt>
      <trkpt lat="44.09182" lon="6.05652">
        <ele>766.6</ele>
        <time>2021-08-24T09:30:55Z</time>
      </trkpt>
      <trkpt lat="44.09183" lon="6.0564">
        <ele>765.4</ele>
        <time>2021-08-24T09:30:57Z</time>
      </trkpt>
      <trkpt lat="44.09181" lon="6.05629">
        <ele>763.6</ele>
        <time>2021-08-24T09:30:59Z</time>
      </trkpt>
      <trkpt lat="44.0918" lon="6.05623">
        <ele>763</ele>
        <time>2021-08-24T09:31:00Z</time>
      </trkpt>
      <trkpt lat="44.09179" lon="6.05617">
        <ele>762.6</ele>
        <time>2021-08-24T09:31:01Z</time>
      </trkpt>
      <trkpt lat="44.09179" lon="6.0561">
        <ele>762</ele>
        <time>2021-08-24T09:31:02Z</time>
      </trkpt>
      <trkpt lat="44.0918" lon="6.05603">
        <ele>761.4</ele>
        <time>2021-08-24T09:31:03Z</time>
      </trkpt>
      <trkpt lat="44.0918" lon="6.05588">
        <ele>759.8</ele>
        <time>2021-08-24T09:31:05Z</time>
      </trkpt>
      <trkpt lat="44.09181" lon="6.05575">
        <ele>758.2</ele>
        <time>2021-08-24T09:31:07Z</time>
      </trkpt>
      <trkpt lat="44.09184" lon="6.05563">
        <ele>756.8</ele>
        <time>2021-08-24T09:31:09Z</time>
      </trkpt>
      <trkpt lat="44.09185" lon="6.05556">
        <ele>756.2</ele>
        <time>2021-08-24T09:31:10Z</time>
      </trkpt>
      <trkpt lat="44.09185" lon="6.0555">
        <ele>755.4</ele>
        <time>2021-08-24T09:31:11Z</time>
      </trkpt>
      <trkpt lat="44.09185" lon="6.05544">
        <ele>754.4</ele>
        <time>2021-08-24T09:31:12Z</time>
      </trkpt>
      <trkpt lat="44.09185" lon="6.05536">
        <ele>753.6</ele>
        <time>2021-08-24T09:31:13Z</time>
      </trkpt>
      <trkpt lat="44.09185" lon="6.05529">
        <ele>752.8</ele>
        <time>2021-08-24T09:31:14Z</time>
      </trkpt>
      <trkpt lat="44.09186" lon="6.05522">
        <ele>752</ele>
        <time>2021-08-24T09:31:15Z</time>
      </trkpt>
      <trkpt lat="44.09189" lon="6.05506">
        <ele>750.6</ele>
        <time>2021-08-24T09:31:17Z</time>
      </trkpt>
      <trkpt lat="44.09193" lon="6.05493">
        <ele>749.2</ele>
        <time>2021-08-24T09:31:19Z</time>
      </trkpt>
      <trkpt lat="44.09195" lon="6.05481">
        <ele>747.4</ele>
        <time>2021-08-24T09:31:21Z</time>
      </trkpt>
      <trkpt lat="44.09195" lon="6.05475">
        <ele>746.6</ele>
        <time>2021-08-24T09:31:22Z</time>
      </trkpt>
      <trkpt lat="44.09194" lon="6.05469">
        <ele>746</ele>
        <time>2021-08-24T09:31:23Z</time>
      </trkpt>
      <trkpt lat="44.09195" lon="6.05461">
        <ele>744.6</ele>
        <time>2021-08-24T09:31:25Z</time>
      </trkpt>
      <trkpt lat="44.09196" lon="6.05454">
        <ele>743.6</ele>
        <time>2021-08-24T09:31:27Z</time>
      </trkpt>
      <trkpt lat="44.09195" lon="6.05442">
        <ele>742.2</ele>
        <time>2021-08-24T09:31:30Z</time>
      </trkpt>
      <trkpt lat="44.09193" lon="6.05432">
        <ele>741</ele>
        <time>2021-08-24T09:31:32Z</time>
      </trkpt>
      <trkpt lat="44.09192" lon="6.05426">
        <ele>740.4</ele>
        <time>2021-08-24T09:31:33Z</time>
      </trkpt>
      <trkpt lat="44.09192" lon="6.0542">
        <ele>739.6</ele>
        <time>2021-08-24T09:31:34Z</time>
      </trkpt>
      <trkpt lat="44.09192" lon="6.05412">
        <ele>738.2</ele>
        <time>2021-08-24T09:31:36Z</time>
      </trkpt>
      <trkpt lat="44.09191" lon="6.0541">
        <ele>737.2</ele>
        <time>2021-08-24T09:31:38Z</time>
      </trkpt>
      <trkpt lat="44.0919" lon="6.0541">
        <ele>736.6</ele>
        <time>2021-08-24T09:31:42Z</time>
      </trkpt>
      <trkpt lat="44.0919" lon="6.0541">
        <ele>736.2</ele>
        <time>2021-08-24T09:31:47Z</time>
      </trkpt>
      <trkpt lat="44.0919" lon="6.0541">
        <ele>736.2</ele>
        <time>2021-08-24T09:31:52Z</time>
      </trkpt>
      <trkpt lat="44.0919" lon="6.0541">
        <ele>736</ele>
        <time>2021-08-24T09:31:58Z</time>
      </trkpt>
      <trkpt lat="44.0919" lon="6.0541">
        <ele>736</ele>
        <time>2021-08-24T09:32:02Z</time>
      </trkpt>
      <trkpt lat="44.0919" lon="6.0541">
        <ele>735.8</ele>
        <time>2021-08-24T09:32:12Z</time>
      </trkpt>
      <trkpt lat="44.0919" lon="6.0541">
        <ele>735.8</ele>
        <time>2021-08-24T09:32:22Z</time>
      </trkpt>
      <trkpt lat="44.0919" lon="6.0541">
        <ele>735.8</ele>
        <time>2021-08-24T09:32:30Z</time>
      </trkpt>
      <trkpt lat="44.0919" lon="6.0541">
        <ele>735.8</ele>
        <time>2021-08-24T09:32:31Z</time>
      </trkpt>
      <trkpt lat="44.0919" lon="6.0541">
        <ele>735.6</ele>
        <time>2021-08-24T09:32:32Z</time>
      </trkpt>
      <trkpt lat="44.0919" lon="6.0541">
        <ele>735.6</ele>
        <time>2021-08-24T09:32:33Z</time>
      </trkpt>
      <trkpt lat="44.0919" lon="6.0541">
        <ele>735.4</ele>
        <time>2021-08-24T09:32:42Z</time>
      </trkpt>
      <trkpt lat="44.0919" lon="6.0541">
        <ele>735.4</ele>
        <time>2021-08-24T09:32:52Z</time>
      </trkpt>
      <trkpt lat="44.0919" lon="6.0541">
        <ele>735.2</ele>
        <time>2021-08-24T09:33:02Z</time>
      </trkpt>
      <trkpt lat="44.0919" lon="6.0541">
        <ele>735.4</ele>
        <time>2021-08-24T09:33:07Z</time>
      </trkpt>
      <trkpt lat="44.0919" lon="6.0541">
        <ele>735.4</ele>
        <time>2021-08-24T09:33:12Z</time>
      </trkpt>
      <trkpt lat="44.0919" lon="6.0541">
        <ele>735.4</ele>
        <time>2021-08-24T09:33:19Z</time>
      </trkpt>
      <trkpt lat="44.09189" lon="6.0541">
        <ele>735.2</ele>
        <time>2021-08-24T09:35:16Z</time>
      </trkpt>
      <trkpt lat="44.09189" lon="6.0541">
        <ele>735.2</ele>
        <time>2021-08-24T09:35:17Z</time>
      </trkpt>
      <trkpt lat="44.09191" lon="6.05408">
        <ele>734.8</ele>
        <time>2021-08-24T09:35:18Z</time>
      </trkpt>
      <trkpt lat="44.09194" lon="6.05403">
        <ele>734.2</ele>
        <time>2021-08-24T09:35:19Z</time>
      </trkpt>
      <trkpt lat="44.09196" lon="6.05398">
        <ele>732.8</ele>
        <time>2021-08-24T09:35:20Z</time>
      </trkpt>
      <trkpt lat="44.09198" lon="6.05391">
        <ele>732</ele>
        <time>2021-08-24T09:35:21Z</time>
      </trkpt>
      <trkpt lat="44.09198" lon="6.05377">
        <ele>732.8</ele>
        <time>2021-08-24T09:35:23Z</time>
      </trkpt>
      <trkpt lat="44.09198" lon="6.0537">
        <ele>732.4</ele>
        <time>2021-08-24T09:35:24Z</time>
      </trkpt>
      <trkpt lat="44.09197" lon="6.05363">
        <ele>731.6</ele>
        <time>2021-08-24T09:35:25Z</time>
      </trkpt>
      <trkpt lat="44.09194" lon="6.05348">
        <ele>730</ele>
        <time>2021-08-24T09:35:27Z</time>
      </trkpt>
      <trkpt lat="44.09192" lon="6.05342">
        <ele>729</ele>
        <time>2021-08-24T09:35:28Z</time>
      </trkpt>
      <trkpt lat="44.09189" lon="6.05328">
        <ele>726.8</ele>
        <time>2021-08-24T09:35:30Z</time>
      </trkpt>
      <trkpt lat="44.09188" lon="6.05321">
        <ele>725.6</ele>
        <time>2021-08-24T09:35:31Z</time>
      </trkpt>
      <trkpt lat="44.09189" lon="6.05315">
        <ele>724.4</ele>
        <time>2021-08-24T09:35:32Z</time>
      </trkpt>
      <trkpt lat="44.09189" lon="6.05309">
        <ele>723.6</ele>
        <time>2021-08-24T09:35:33Z</time>
      </trkpt>
      <trkpt lat="44.0919" lon="6.05302">
        <ele>722.8</ele>
        <time>2021-08-24T09:35:34Z</time>
      </trkpt>
      <trkpt lat="44.09191" lon="6.05287">
        <ele>721.8</ele>
        <time>2021-08-24T09:35:36Z</time>
      </trkpt>
      <trkpt lat="44.09191" lon="6.05279">
        <ele>721</ele>
        <time>2021-08-24T09:35:37Z</time>
      </trkpt>
      <trkpt lat="44.09192" lon="6.0527">
        <ele>720</ele>
        <time>2021-08-24T09:35:38Z</time>
      </trkpt>
      <trkpt lat="44.09192" lon="6.05262">
        <ele>718.4</ele>
        <time>2021-08-24T09:35:39Z</time>
      </trkpt>
      <trkpt lat="44.09192" lon="6.05254">
        <ele>717</ele>
        <time>2021-08-24T09:35:40Z</time>
      </trkpt>
      <trkpt lat="44.09191" lon="6.05246">
        <ele>715.6</ele>
        <time>2021-08-24T09:35:41Z</time>
      </trkpt>
      <trkpt lat="44.09189" lon="6.05232">
        <ele>713.8</ele>
        <time>2021-08-24T09:35:43Z</time>
      </trkpt>
      <trkpt lat="44.09187" lon="6.05226">
        <ele>712.8</ele>
        <time>2021-08-24T09:35:44Z</time>
      </trkpt>
      <trkpt lat="44.09184" lon="6.05221">
        <ele>711.6</ele>
        <time>2021-08-24T09:35:45Z</time>
      </trkpt>
      <trkpt lat="44.09179" lon="6.05211">
        <ele>709.8</ele>
        <time>2021-08-24T09:35:47Z</time>
      </trkpt>
      <trkpt lat="44.09178" lon="6.05206">
        <ele>708.8</ele>
        <time>2021-08-24T09:35:48Z</time>
      </trkpt>
      <trkpt lat="44.09177" lon="6.05201">
        <ele>708</ele>
        <time>2021-08-24T09:35:49Z</time>
      </trkpt>
      <trkpt lat="44.09177" lon="6.05196">
        <ele>707.2</ele>
        <time>2021-08-24T09:35:50Z</time>
      </trkpt>
      <trkpt lat="44.09177" lon="6.05189">
        <ele>706.4</ele>
        <time>2021-08-24T09:35:51Z</time>
      </trkpt>
      <trkpt lat="44.09177" lon="6.0518">
        <ele>705.8</ele>
        <time>2021-08-24T09:35:52Z</time>
      </trkpt>
      <trkpt lat="44.09175" lon="6.05171">
        <ele>704.8</ele>
        <time>2021-08-24T09:35:53Z</time>
      </trkpt>
      <trkpt lat="44.09173" lon="6.05155">
        <ele>702.8</ele>
        <time>2021-08-24T09:35:55Z</time>
      </trkpt>
      <trkpt lat="44.09171" lon="6.05147">
        <ele>701.6</ele>
        <time>2021-08-24T09:35:56Z</time>
      </trkpt>
      <trkpt lat="44.0917" lon="6.05141">
        <ele>700.4</ele>
        <time>2021-08-24T09:35:57Z</time>
      </trkpt>
      <trkpt lat="44.09169" lon="6.05134">
        <ele>699.6</ele>
        <time>2021-08-24T09:35:58Z</time>
      </trkpt>
      <trkpt lat="44.09168" lon="6.05127">
        <ele>699</ele>
        <time>2021-08-24T09:35:59Z</time>
      </trkpt>
      <trkpt lat="44.09169" lon="6.05121">
        <ele>698</ele>
        <time>2021-08-24T09:36:00Z</time>
      </trkpt>
      <trkpt lat="44.0917" lon="6.05115">
        <ele>696.8</ele>
        <time>2021-08-24T09:36:01Z</time>
      </trkpt>
      <trkpt lat="44.09172" lon="6.05108">
        <ele>695.4</ele>
        <time>2021-08-24T09:36:02Z</time>
      </trkpt>
      <trkpt lat="44.09175" lon="6.05102">
        <ele>694.4</ele>
        <time>2021-08-24T09:36:03Z</time>
      </trkpt>
      <trkpt lat="44.09177" lon="6.05095">
        <ele>693.6</ele>
        <time>2021-08-24T09:36:04Z</time>
      </trkpt>
      <trkpt lat="44.09179" lon="6.05089">
        <ele>693</ele>
        <time>2021-08-24T09:36:05Z</time>
      </trkpt>
      <trkpt lat="44.0918" lon="6.05082">
        <ele>692.4</ele>
        <time>2021-08-24T09:36:06Z</time>
      </trkpt>
      <trkpt lat="44.09186" lon="6.05056">
        <ele>691.2</ele>
        <time>2021-08-24T09:36:09Z</time>
      </trkpt>
      <trkpt lat="44.09188" lon="6.05047">
        <ele>690.6</ele>
        <time>2021-08-24T09:36:10Z</time>
      </trkpt>
      <trkpt lat="44.0919" lon="6.05036">
        <ele>690</ele>
        <time>2021-08-24T09:36:11Z</time>
      </trkpt>
      <trkpt lat="44.09195" lon="6.05014">
        <ele>688.4</ele>
        <time>2021-08-24T09:36:13Z</time>
      </trkpt>
      <trkpt lat="44.09198" lon="6.05005">
        <ele>687.6</ele>
        <time>2021-08-24T09:36:14Z</time>
      </trkpt>
      <trkpt lat="44.092" lon="6.04996">
        <ele>687.2</ele>
        <time>2021-08-24T09:36:15Z</time>
      </trkpt>
      <trkpt lat="44.092" lon="6.04987">
        <ele>687</ele>
        <time>2021-08-24T09:36:16Z</time>
      </trkpt>
      <trkpt lat="44.09196" lon="6.04969">
        <ele>687.8</ele>
        <time>2021-08-24T09:36:20Z</time>
      </trkpt>
      <trkpt lat="44.09195" lon="6.04964">
        <ele>688.2</ele>
        <time>2021-08-24T09:36:22Z</time>
      </trkpt>
      <trkpt lat="44.0919" lon="6.04948">
        <ele>689.6</ele>
        <time>2021-08-24T09:36:27Z</time>
      </trkpt>
      <trkpt lat="44.09188" lon="6.04938">
        <ele>690.4</ele>
        <time>2021-08-24T09:36:30Z</time>
      </trkpt>
      <trkpt lat="44.09187" lon="6.04927">
        <ele>690.6</ele>
        <time>2021-08-24T09:36:33Z</time>
      </trkpt>
      <trkpt lat="44.09188" lon="6.04923">
        <ele>690.6</ele>
        <time>2021-08-24T09:36:34Z</time>
      </trkpt>
      <trkpt lat="44.09188" lon="6.04919">
        <ele>690.6</ele>
        <time>2021-08-24T09:36:35Z</time>
      </trkpt>
      <trkpt lat="44.0919" lon="6.04899">
        <ele>690.8</ele>
        <time>2021-08-24T09:36:39Z</time>
      </trkpt>
      <trkpt lat="44.09191" lon="6.04892">
        <ele>690.8</ele>
        <time>2021-08-24T09:36:40Z</time>
      </trkpt>
      <trkpt lat="44.09194" lon="6.04875">
        <ele>691.2</ele>
        <time>2021-08-24T09:36:43Z</time>
      </trkpt>
      <trkpt lat="44.09197" lon="6.04864">
        <ele>691.6</ele>
        <time>2021-08-24T09:36:46Z</time>
      </trkpt>
      <trkpt lat="44.09198" lon="6.04856">
        <ele>692.2</ele>
        <time>2021-08-24T09:36:48Z</time>
      </trkpt>
      <trkpt lat="44.092" lon="6.04847">
        <ele>692.6</ele>
        <time>2021-08-24T09:36:50Z</time>
      </trkpt>
      <trkpt lat="44.092" lon="6.04842">
        <ele>692.8</ele>
        <time>2021-08-24T09:36:51Z</time>
      </trkpt>
      <trkpt lat="44.09201" lon="6.04837">
        <ele>692.8</ele>
        <time>2021-08-24T09:36:52Z</time>
      </trkpt>
      <trkpt lat="44.09202" lon="6.04826">
        <ele>693</ele>
        <time>2021-08-24T09:36:54Z</time>
      </trkpt>
      <trkpt lat="44.09205" lon="6.04808">
        <ele>693.4</ele>
        <time>2021-08-24T09:36:58Z</time>
      </trkpt>
      <trkpt lat="44.09207" lon="6.048">
        <ele>693.6</ele>
        <time>2021-08-24T09:37:00Z</time>
      </trkpt>
      <trkpt lat="44.0921" lon="6.04786">
        <ele>693.6</ele>
        <time>2021-08-24T09:37:03Z</time>
      </trkpt>
      <trkpt lat="44.09213" lon="6.04777">
        <ele>693.8</ele>
        <time>2021-08-24T09:37:05Z</time>
      </trkpt>
      <trkpt lat="44.09214" lon="6.04769">
        <ele>693.8</ele>
        <time>2021-08-24T09:37:07Z</time>
      </trkpt>
      <trkpt lat="44.09215" lon="6.04764">
        <ele>694</ele>
        <time>2021-08-24T09:37:08Z</time>
      </trkpt>
      <trkpt lat="44.09218" lon="6.04758">
        <ele>694.6</ele>
        <time>2021-08-24T09:37:10Z</time>
      </trkpt>
      <trkpt lat="44.09219" lon="6.04751">
        <ele>694.8</ele>
        <time>2021-08-24T09:37:12Z</time>
      </trkpt>
      <trkpt lat="44.09221" lon="6.04743">
        <ele>695</ele>
        <time>2021-08-24T09:37:14Z</time>
      </trkpt>
      <trkpt lat="44.09222" lon="6.04739">
        <ele>695.2</ele>
        <time>2021-08-24T09:37:15Z</time>
      </trkpt>
      <trkpt lat="44.09224" lon="6.04732">
        <ele>695.4</ele>
        <time>2021-08-24T09:37:17Z</time>
      </trkpt>
      <trkpt lat="44.09228" lon="6.04719">
        <ele>695.8</ele>
        <time>2021-08-24T09:37:20Z</time>
      </trkpt>
      <trkpt lat="44.09229" lon="6.04715">
        <ele>696</ele>
        <time>2021-08-24T09:37:21Z</time>
      </trkpt>
      <trkpt lat="44.0923" lon="6.04711">
        <ele>696</ele>
        <time>2021-08-24T09:37:22Z</time>
      </trkpt>
      <trkpt lat="44.09231" lon="6.04708">
        <ele>696.2</ele>
        <time>2021-08-24T09:37:23Z</time>
      </trkpt>
      <trkpt lat="44.09233" lon="6.04688">
        <ele>696.4</ele>
        <time>2021-08-24T09:37:28Z</time>
      </trkpt>
      <trkpt lat="44.09233" lon="6.04681">
        <ele>696.4</ele>
        <time>2021-08-24T09:37:30Z</time>
      </trkpt>
      <trkpt lat="44.09234" lon="6.04669">
        <ele>696.4</ele>
        <time>2021-08-24T09:37:33Z</time>
      </trkpt>
      <trkpt lat="44.09234" lon="6.04651">
        <ele>697</ele>
        <time>2021-08-24T09:37:36Z</time>
      </trkpt>
      <trkpt lat="44.09236" lon="6.04636">
        <ele>697.4</ele>
        <time>2021-08-24T09:37:38Z</time>
      </trkpt>
      <trkpt lat="44.09238" lon="6.04623">
        <ele>697.6</ele>
        <time>2021-08-24T09:37:40Z</time>
      </trkpt>
      <trkpt lat="44.09237" lon="6.04556">
        <ele>695.8</ele>
        <time>2021-08-24T09:37:49Z</time>
      </trkpt>
      <trkpt lat="44.09235" lon="6.04547">
        <ele>695.4</ele>
        <time>2021-08-24T09:37:50Z</time>
      </trkpt>
      <trkpt lat="44.09232" lon="6.04527">
        <ele>694.6</ele>
        <time>2021-08-24T09:37:52Z</time>
      </trkpt>
      <trkpt lat="44.09227" lon="6.04509">
        <ele>693.8</ele>
        <time>2021-08-24T09:37:54Z</time>
      </trkpt>
      <trkpt lat="44.09223" lon="6.04502">
        <ele>693.6</ele>
        <time>2021-08-24T09:37:55Z</time>
      </trkpt>
      <trkpt lat="44.09208" lon="6.04467">
        <ele>693.2</ele>
        <time>2021-08-24T09:38:00Z</time>
      </trkpt>
      <trkpt lat="44.09205" lon="6.04459">
        <ele>693</ele>
        <time>2021-08-24T09:38:01Z</time>
      </trkpt>
      <trkpt lat="44.09197" lon="6.04443">
        <ele>692</ele>
        <time>2021-08-24T09:38:03Z</time>
      </trkpt>
      <trkpt lat="44.09191" lon="6.04437">
        <ele>691.4</ele>
        <time>2021-08-24T09:38:04Z</time>
      </trkpt>
      <trkpt lat="44.09184" lon="6.04431">
        <ele>690.8</ele>
        <time>2021-08-24T09:38:05Z</time>
      </trkpt>
      <trkpt lat="44.09178" lon="6.04426">
        <ele>690.2</ele>
        <time>2021-08-24T09:38:06Z</time>
      </trkpt>
      <trkpt lat="44.09172" lon="6.04419">
        <ele>689.6</ele>
        <time>2021-08-24T09:38:07Z</time>
      </trkpt>
      <trkpt lat="44.09168" lon="6.04411">
        <ele>689.2</ele>
        <time>2021-08-24T09:38:08Z</time>
      </trkpt>
      <trkpt lat="44.09161" lon="6.04393">
        <ele>688.4</ele>
        <time>2021-08-24T09:38:10Z</time>
      </trkpt>
      <trkpt lat="44.09144" lon="6.04331">
        <ele>687.4</ele>
        <time>2021-08-24T09:38:18Z</time>
      </trkpt>
      <trkpt lat="44.09142" lon="6.04324">
        <ele>687.4</ele>
        <time>2021-08-24T09:38:19Z</time>
      </trkpt>
      <trkpt lat="44.0914" lon="6.04319">
        <ele>687.2</ele>
        <time>2021-08-24T09:38:20Z</time>
      </trkpt>
      <trkpt lat="44.0913" lon="6.04292">
        <ele>687</ele>
        <time>2021-08-24T09:38:25Z</time>
      </trkpt>
      <trkpt lat="44.09116" lon="6.04268">
        <ele>686.4</ele>
        <time>2021-08-24T09:38:30Z</time>
      </trkpt>
      <trkpt lat="44.09111" lon="6.04259">
        <ele>686.2</ele>
        <time>2021-08-24T09:38:34Z</time>
      </trkpt>
      <trkpt lat="44.0911" lon="6.04257">
        <ele>686.2</ele>
        <time>2021-08-24T09:38:35Z</time>
      </trkpt>
      <trkpt lat="44.09106" lon="6.04249">
        <ele>686</ele>
        <time>2021-08-24T09:38:37Z</time>
      </trkpt>
      <trkpt lat="44.091" lon="6.04239">
        <ele>685.8</ele>
        <time>2021-08-24T09:38:40Z</time>
      </trkpt>
      <trkpt lat="44.09099" lon="6.04234">
        <ele>685.8</ele>
        <time>2021-08-24T09:38:41Z</time>
      </trkpt>
      <trkpt lat="44.09099" lon="6.04186">
        <ele>685.8</ele>
        <time>2021-08-24T09:38:50Z</time>
      </trkpt>
      <trkpt lat="44.09092" lon="6.04159">
        <ele>685.2</ele>
        <time>2021-08-24T09:38:55Z</time>
      </trkpt>
      <trkpt lat="44.09088" lon="6.04135">
        <ele>685</ele>
        <time>2021-08-24T09:39:00Z</time>
      </trkpt>
      <trkpt lat="44.09082" lon="6.04115">
        <ele>685.2</ele>
        <time>2021-08-24T09:39:04Z</time>
      </trkpt>
      <trkpt lat="44.09069" lon="6.04085">
        <ele>684.8</ele>
        <time>2021-08-24T09:39:10Z</time>
      </trkpt>
      <trkpt lat="44.09063" lon="6.04066">
        <ele>684.8</ele>
        <time>2021-08-24T09:39:14Z</time>
      </trkpt>
      <trkpt lat="44.09054" lon="6.04031">
        <ele>685</ele>
        <time>2021-08-24T09:39:20Z</time>
      </trkpt>
      <trkpt lat="44.09044" lon="6.04004">
        <ele>685</ele>
        <time>2021-08-24T09:39:24Z</time>
      </trkpt>
      <trkpt lat="44.09036" lon="6.03994">
        <ele>684.4</ele>
        <time>2021-08-24T09:39:26Z</time>
      </trkpt>
      <trkpt lat="44.09032" lon="6.03989">
        <ele>683.8</ele>
        <time>2021-08-24T09:39:27Z</time>
      </trkpt>
      <trkpt lat="44.09026" lon="6.03983">
        <ele>682.6</ele>
        <time>2021-08-24T09:39:28Z</time>
      </trkpt>
      <trkpt lat="44.0902" lon="6.03977">
        <ele>681.2</ele>
        <time>2021-08-24T09:39:29Z</time>
      </trkpt>
      <trkpt lat="44.09015" lon="6.03971">
        <ele>680</ele>
        <time>2021-08-24T09:39:30Z</time>
      </trkpt>
      <trkpt lat="44.09005" lon="6.03962">
        <ele>678.4</ele>
        <time>2021-08-24T09:39:32Z</time>
      </trkpt>
      <trkpt lat="44.08995" lon="6.03956">
        <ele>677.2</ele>
        <time>2021-08-24T09:39:34Z</time>
      </trkpt>
      <trkpt lat="44.08984" lon="6.03955">
        <ele>675.6</ele>
        <time>2021-08-24T09:39:36Z</time>
      </trkpt>
      <trkpt lat="44.08977" lon="6.03954">
        <ele>675</ele>
        <time>2021-08-24T09:39:37Z</time>
      </trkpt>
      <trkpt lat="44.08971" lon="6.03951">
        <ele>674.4</ele>
        <time>2021-08-24T09:39:38Z</time>
      </trkpt>
      <trkpt lat="44.08964" lon="6.03948">
        <ele>674</ele>
        <time>2021-08-24T09:39:39Z</time>
      </trkpt>
      <trkpt lat="44.08958" lon="6.03944">
        <ele>673.8</ele>
        <time>2021-08-24T09:39:40Z</time>
      </trkpt>
      <trkpt lat="44.08943" lon="6.03936">
        <ele>672.8</ele>
        <time>2021-08-24T09:39:42Z</time>
      </trkpt>
      <trkpt lat="44.08929" lon="6.03931">
        <ele>671</ele>
        <time>2021-08-24T09:39:44Z</time>
      </trkpt>
      <trkpt lat="44.08917" lon="6.03929">
        <ele>669.8</ele>
        <time>2021-08-24T09:39:46Z</time>
      </trkpt>
      <trkpt lat="44.08912" lon="6.03928">
        <ele>669.2</ele>
        <time>2021-08-24T09:39:47Z</time>
      </trkpt>
      <trkpt lat="44.08906" lon="6.03926">
        <ele>668.8</ele>
        <time>2021-08-24T09:39:48Z</time>
      </trkpt>
      <trkpt lat="44.08901" lon="6.03924">
        <ele>667.8</ele>
        <time>2021-08-24T09:39:49Z</time>
      </trkpt>
      <trkpt lat="44.08897" lon="6.03919">
        <ele>667</ele>
        <time>2021-08-24T09:39:50Z</time>
      </trkpt>
      <trkpt lat="44.08891" lon="6.03915">
        <ele>666.4</ele>
        <time>2021-08-24T09:39:51Z</time>
      </trkpt>
      <trkpt lat="44.08885" lon="6.03912">
        <ele>665.6</ele>
        <time>2021-08-24T09:39:52Z</time>
      </trkpt>
      <trkpt lat="44.08869" lon="6.03905">
        <ele>663.8</ele>
        <time>2021-08-24T09:39:54Z</time>
      </trkpt>
      <trkpt lat="44.08852" lon="6.03895">
        <ele>661.8</ele>
        <time>2021-08-24T09:39:56Z</time>
      </trkpt>
      <trkpt lat="44.08836" lon="6.03883">
        <ele>660.6</ele>
        <time>2021-08-24T09:39:58Z</time>
      </trkpt>
      <trkpt lat="44.08822" lon="6.03868">
        <ele>659.2</ele>
        <time>2021-08-24T09:40:00Z</time>
      </trkpt>
      <trkpt lat="44.08816" lon="6.03863">
        <ele>658.8</ele>
        <time>2021-08-24T09:40:01Z</time>
      </trkpt>
      <trkpt lat="44.08807" lon="6.03863">
        <ele>657.8</ele>
        <time>2021-08-24T09:40:03Z</time>
      </trkpt>
      <trkpt lat="44.08783" lon="6.03868">
        <ele>657.4</ele>
        <time>2021-08-24T09:40:08Z</time>
      </trkpt>
      <trkpt lat="44.08775" lon="6.03865">
        <ele>657.4</ele>
        <time>2021-08-24T09:40:10Z</time>
      </trkpt>
      <trkpt lat="44.08768" lon="6.03855">
        <ele>657.2</ele>
        <time>2021-08-24T09:40:12Z</time>
      </trkpt>
      <trkpt lat="44.08766" lon="6.03849">
        <ele>656.8</ele>
        <time>2021-08-24T09:40:13Z</time>
      </trkpt>
      <trkpt lat="44.08756" lon="6.03832">
        <ele>655.2</ele>
        <time>2021-08-24T09:40:16Z</time>
      </trkpt>
      <trkpt lat="44.08746" lon="6.03822">
        <ele>653</ele>
        <time>2021-08-24T09:40:18Z</time>
      </trkpt>
      <trkpt lat="44.0874" lon="6.03815">
        <ele>652</ele>
        <time>2021-08-24T09:40:19Z</time>
      </trkpt>
      <trkpt lat="44.08734" lon="6.0381">
        <ele>651</ele>
        <time>2021-08-24T09:40:20Z</time>
      </trkpt>
      <trkpt lat="44.08728" lon="6.03805">
        <ele>650.2</ele>
        <time>2021-08-24T09:40:21Z</time>
      </trkpt>
      <trkpt lat="44.08715" lon="6.03797">
        <ele>648</ele>
        <time>2021-08-24T09:40:23Z</time>
      </trkpt>
      <trkpt lat="44.0871" lon="6.03795">
        <ele>646.2</ele>
        <time>2021-08-24T09:40:24Z</time>
      </trkpt>
      <trkpt lat="44.08705" lon="6.03792">
        <ele>644.4</ele>
        <time>2021-08-24T09:40:25Z</time>
      </trkpt>
      <trkpt lat="44.08701" lon="6.03789">
        <ele>642.8</ele>
        <time>2021-08-24T09:40:26Z</time>
      </trkpt>
      <trkpt lat="44.08696" lon="6.03779">
        <ele>641.2</ele>
        <time>2021-08-24T09:40:28Z</time>
      </trkpt>
      <trkpt lat="44.0869" lon="6.03773">
        <ele>639.6</ele>
        <time>2021-08-24T09:40:30Z</time>
      </trkpt>
      <trkpt lat="44.08682" lon="6.03772">
        <ele>637.8</ele>
        <time>2021-08-24T09:40:32Z</time>
      </trkpt>
      <trkpt lat="44.08679" lon="6.03772">
        <ele>636.6</ele>
        <time>2021-08-24T09:40:33Z</time>
      </trkpt>
      <trkpt lat="44.08677" lon="6.0377">
        <ele>635.4</ele>
        <time>2021-08-24T09:40:34Z</time>
      </trkpt>
      <trkpt lat="44.08676" lon="6.03764">
        <ele>634</ele>
        <time>2021-08-24T09:40:36Z</time>
      </trkpt>
      <trkpt lat="44.08674" lon="6.03753">
        <ele>633.4</ele>
        <time>2021-08-24T09:40:40Z</time>
      </trkpt>
      <trkpt lat="44.08673" lon="6.03746">
        <ele>633.8</ele>
        <time>2021-08-24T09:40:42Z</time>
      </trkpt>
      <trkpt lat="44.08675" lon="6.03727">
        <ele>633.4</ele>
        <time>2021-08-24T09:40:46Z</time>
      </trkpt>
      <trkpt lat="44.08675" lon="6.0372">
        <ele>633</ele>
        <time>2021-08-24T09:40:47Z</time>
      </trkpt>
      <trkpt lat="44.08675" lon="6.03713">
        <ele>632.2</ele>
        <time>2021-08-24T09:40:48Z</time>
      </trkpt>
      <trkpt lat="44.08674" lon="6.03705">
        <ele>631.4</ele>
        <time>2021-08-24T09:40:49Z</time>
      </trkpt>
      <trkpt lat="44.08672" lon="6.03699">
        <ele>630.6</ele>
        <time>2021-08-24T09:40:50Z</time>
      </trkpt>
      <trkpt lat="44.08669" lon="6.03693">
        <ele>630.2</ele>
        <time>2021-08-24T09:40:51Z</time>
      </trkpt>
      <trkpt lat="44.08649" lon="6.03666">
        <ele>630</ele>
        <time>2021-08-24T09:41:00Z</time>
      </trkpt>
      <trkpt lat="44.08637" lon="6.03659">
        <ele>631.2</ele>
        <time>2021-08-24T09:41:06Z</time>
      </trkpt>
      <trkpt lat="44.08629" lon="6.03657">
        <ele>632</ele>
        <time>2021-08-24T09:41:10Z</time>
      </trkpt>
      <trkpt lat="44.08628" lon="6.03657">
        <ele>632.2</ele>
        <time>2021-08-24T09:41:11Z</time>
      </trkpt>
      <trkpt lat="44.08617" lon="6.0366">
        <ele>633.2</ele>
        <time>2021-08-24T09:41:17Z</time>
      </trkpt>
      <trkpt lat="44.08612" lon="6.03661">
        <ele>634.2</ele>
        <time>2021-08-24T09:41:20Z</time>
      </trkpt>
      <trkpt lat="44.08609" lon="6.03661">
        <ele>634.4</ele>
        <time>2021-08-24T09:41:22Z</time>
      </trkpt>
      <trkpt lat="44.08605" lon="6.03653">
        <ele>634.4</ele>
        <time>2021-08-24T09:41:27Z</time>
      </trkpt>
      <trkpt lat="44.08599" lon="6.03654">
        <ele>633</ele>
        <time>2021-08-24T09:41:30Z</time>
      </trkpt>
      <trkpt lat="44.08597" lon="6.03655">
        <ele>632.4</ele>
        <time>2021-08-24T09:41:31Z</time>
      </trkpt>
      <trkpt lat="44.08594" lon="6.03654">
        <ele>631.8</ele>
        <time>2021-08-24T09:41:32Z</time>
      </trkpt>
      <trkpt lat="44.08593" lon="6.03652">
        <ele>631.2</ele>
        <time>2021-08-24T09:41:33Z</time>
      </trkpt>
      <trkpt lat="44.08591" lon="6.03648">
        <ele>630.6</ele>
        <time>2021-08-24T09:41:34Z</time>
      </trkpt>
      <trkpt lat="44.08589" lon="6.03644">
        <ele>629.8</ele>
        <time>2021-08-24T09:41:35Z</time>
      </trkpt>
      <trkpt lat="44.08588" lon="6.0364">
        <ele>628.8</ele>
        <time>2021-08-24T09:41:36Z</time>
      </trkpt>
      <trkpt lat="44.08586" lon="6.03635">
        <ele>627.2</ele>
        <time>2021-08-24T09:41:38Z</time>
      </trkpt>
      <trkpt lat="44.08584" lon="6.03627">
        <ele>625.4</ele>
        <time>2021-08-24T09:41:40Z</time>
      </trkpt>
      <trkpt lat="44.08584" lon="6.03616">
        <ele>623.8</ele>
        <time>2021-08-24T09:41:42Z</time>
      </trkpt>
      <trkpt lat="44.08583" lon="6.03605">
        <ele>621.8</ele>
        <time>2021-08-24T09:41:44Z</time>
      </trkpt>
      <trkpt lat="44.08582" lon="6.03597">
        <ele>620.4</ele>
        <time>2021-08-24T09:41:46Z</time>
      </trkpt>
      <trkpt lat="44.0858" lon="6.03583">
        <ele>619.4</ele>
        <time>2021-08-24T09:41:48Z</time>
      </trkpt>
      <trkpt lat="44.08578" lon="6.03573">
        <ele>617.6</ele>
        <time>2021-08-24T09:41:50Z</time>
      </trkpt>
      <trkpt lat="44.08575" lon="6.03569">
        <ele>616.6</ele>
        <time>2021-08-24T09:41:51Z</time>
      </trkpt>
      <trkpt lat="44.08568" lon="6.0356">
        <ele>614.8</ele>
        <time>2021-08-24T09:41:53Z</time>
      </trkpt>
      <trkpt lat="44.08563" lon="6.03551">
        <ele>613.6</ele>
        <time>2021-08-24T09:41:55Z</time>
      </trkpt>
      <trkpt lat="44.08562" lon="6.03545">
        <ele>613.2</ele>
        <time>2021-08-24T09:41:56Z</time>
      </trkpt>
      <trkpt lat="44.08559" lon="6.03534">
        <ele>612.4</ele>
        <time>2021-08-24T09:41:58Z</time>
      </trkpt>
      <trkpt lat="44.08556" lon="6.03521">
        <ele>612</ele>
        <time>2021-08-24T09:42:00Z</time>
      </trkpt>
      <trkpt lat="44.08554" lon="6.03508">
        <ele>611.4</ele>
        <time>2021-08-24T09:42:02Z</time>
      </trkpt>
      <trkpt lat="44.08556" lon="6.03497">
        <ele>610.6</ele>
        <time>2021-08-24T09:42:04Z</time>
      </trkpt>
      <trkpt lat="44.08557" lon="6.03491">
        <ele>610</ele>
        <time>2021-08-24T09:42:05Z</time>
      </trkpt>
      <trkpt lat="44.0856" lon="6.03478">
        <ele>608.6</ele>
        <time>2021-08-24T09:42:07Z</time>
      </trkpt>
      <trkpt lat="44.08562" lon="6.03466">
        <ele>607.8</ele>
        <time>2021-08-24T09:42:09Z</time>
      </trkpt>
      <trkpt lat="44.08561" lon="6.0346">
        <ele>607.2</ele>
        <time>2021-08-24T09:42:10Z</time>
      </trkpt>
      <trkpt lat="44.0856" lon="6.03446">
        <ele>606</ele>
        <time>2021-08-24T09:42:12Z</time>
      </trkpt>
      <trkpt lat="44.08563" lon="6.03423">
        <ele>605</ele>
        <time>2021-08-24T09:42:15Z</time>
      </trkpt>
      <trkpt lat="44.08563" lon="6.03415">
        <ele>604.8</ele>
        <time>2021-08-24T09:42:16Z</time>
      </trkpt>
      <trkpt lat="44.08564" lon="6.03407">
        <ele>604.4</ele>
        <time>2021-08-24T09:42:17Z</time>
      </trkpt>
      <trkpt lat="44.08565" lon="6.03398">
        <ele>604.4</ele>
        <time>2021-08-24T09:42:18Z</time>
      </trkpt>
      <trkpt lat="44.08566" lon="6.0339">
        <ele>603.8</ele>
        <time>2021-08-24T09:42:19Z</time>
      </trkpt>
      <trkpt lat="44.08567" lon="6.03382">
        <ele>603</ele>
        <time>2021-08-24T09:42:20Z</time>
      </trkpt>
      <trkpt lat="44.08568" lon="6.03372">
        <ele>601.8</ele>
        <time>2021-08-24T09:42:21Z</time>
      </trkpt>
      <trkpt lat="44.08568" lon="6.03363">
        <ele>600.8</ele>
        <time>2021-08-24T09:42:22Z</time>
      </trkpt>
      <trkpt lat="44.08568" lon="6.03349">
        <ele>599</ele>
        <time>2021-08-24T09:42:24Z</time>
      </trkpt>
      <trkpt lat="44.08565" lon="6.03338">
        <ele>597.8</ele>
        <time>2021-08-24T09:42:26Z</time>
      </trkpt>
      <trkpt lat="44.08564" lon="6.03334">
        <ele>597.6</ele>
        <time>2021-08-24T09:42:27Z</time>
      </trkpt>
      <trkpt lat="44.08565" lon="6.03329">
        <ele>596.8</ele>
        <time>2021-08-24T09:42:28Z</time>
      </trkpt>
      <trkpt lat="44.08568" lon="6.03316">
        <ele>595.4</ele>
        <time>2021-08-24T09:42:30Z</time>
      </trkpt>
      <trkpt lat="44.08571" lon="6.033">
        <ele>594.2</ele>
        <time>2021-08-24T09:42:32Z</time>
      </trkpt>
      <trkpt lat="44.08572" lon="6.03284">
        <ele>592.6</ele>
        <time>2021-08-24T09:42:34Z</time>
      </trkpt>
      <trkpt lat="44.08576" lon="6.0327">
        <ele>591</ele>
        <time>2021-08-24T09:42:36Z</time>
      </trkpt>
      <trkpt lat="44.0858" lon="6.03256">
        <ele>589.4</ele>
        <time>2021-08-24T09:42:38Z</time>
      </trkpt>
      <trkpt lat="44.08577" lon="6.03244">
        <ele>587.8</ele>
        <time>2021-08-24T09:42:40Z</time>
      </trkpt>
      <trkpt lat="44.08571" lon="6.03232">
        <ele>586</ele>
        <time>2021-08-24T09:42:42Z</time>
      </trkpt>
      <trkpt lat="44.0857" lon="6.03227">
        <ele>585</ele>
        <time>2021-08-24T09:42:43Z</time>
      </trkpt>
      <trkpt lat="44.08571" lon="6.03222">
        <ele>583.6</ele>
        <time>2021-08-24T09:42:44Z</time>
      </trkpt>
      <trkpt lat="44.08574" lon="6.03217">
        <ele>582.4</ele>
        <time>2021-08-24T09:42:45Z</time>
      </trkpt>
      <trkpt lat="44.08576" lon="6.03212">
        <ele>581.4</ele>
        <time>2021-08-24T09:42:46Z</time>
      </trkpt>
      <trkpt lat="44.08577" lon="6.03202">
        <ele>580</ele>
        <time>2021-08-24T09:42:48Z</time>
      </trkpt>
      <trkpt lat="44.08575" lon="6.03193">
        <ele>578.4</ele>
        <time>2021-08-24T09:42:50Z</time>
      </trkpt>
      <trkpt lat="44.08577" lon="6.03189">
        <ele>577</ele>
        <time>2021-08-24T09:42:52Z</time>
      </trkpt>
      <trkpt lat="44.0858" lon="6.03185">
        <ele>576.2</ele>
        <time>2021-08-24T09:42:54Z</time>
      </trkpt>
      <trkpt lat="44.08581" lon="6.03181">
        <ele>575.8</ele>
        <time>2021-08-24T09:42:55Z</time>
      </trkpt>
      <trkpt lat="44.08581" lon="6.03176">
        <ele>575.4</ele>
        <time>2021-08-24T09:42:56Z</time>
      </trkpt>
      <trkpt lat="44.08581" lon="6.03163">
        <ele>574.4</ele>
        <time>2021-08-24T09:42:58Z</time>
      </trkpt>
      <trkpt lat="44.08583" lon="6.03151">
        <ele>572.6</ele>
        <time>2021-08-24T09:43:00Z</time>
      </trkpt>
      <trkpt lat="44.08585" lon="6.03145">
        <ele>571.4</ele>
        <time>2021-08-24T09:43:01Z</time>
      </trkpt>
      <trkpt lat="44.08586" lon="6.03138">
        <ele>570.2</ele>
        <time>2021-08-24T09:43:02Z</time>
      </trkpt>
      <trkpt lat="44.08588" lon="6.03131">
        <ele>569.2</ele>
        <time>2021-08-24T09:43:03Z</time>
      </trkpt>
      <trkpt lat="44.08589" lon="6.03123">
        <ele>568</ele>
        <time>2021-08-24T09:43:04Z</time>
      </trkpt>
      <trkpt lat="44.08591" lon="6.03115">
        <ele>567</ele>
        <time>2021-08-24T09:43:05Z</time>
      </trkpt>
      <trkpt lat="44.08591" lon="6.03108">
        <ele>565.8</ele>
        <time>2021-08-24T09:43:06Z</time>
      </trkpt>
      <trkpt lat="44.08593" lon="6.03093">
        <ele>564.2</ele>
        <time>2021-08-24T09:43:08Z</time>
      </trkpt>
      <trkpt lat="44.08594" lon="6.03085">
        <ele>563.4</ele>
        <time>2021-08-24T09:43:09Z</time>
      </trkpt>
      <trkpt lat="44.08596" lon="6.03077">
        <ele>562.8</ele>
        <time>2021-08-24T09:43:10Z</time>
      </trkpt>
      <trkpt lat="44.08598" lon="6.03072">
        <ele>561.8</ele>
        <time>2021-08-24T09:43:11Z</time>
      </trkpt>
      <trkpt lat="44.08601" lon="6.03067">
        <ele>560.8</ele>
        <time>2021-08-24T09:43:12Z</time>
      </trkpt>
      <trkpt lat="44.08603" lon="6.03062">
        <ele>559.6</ele>
        <time>2021-08-24T09:43:13Z</time>
      </trkpt>
      <trkpt lat="44.08605" lon="6.03057">
        <ele>558.6</ele>
        <time>2021-08-24T09:43:14Z</time>
      </trkpt>
      <trkpt lat="44.08605" lon="6.03051">
        <ele>557.6</ele>
        <time>2021-08-24T09:43:15Z</time>
      </trkpt>
      <trkpt lat="44.08604" lon="6.03048">
        <ele>556.6</ele>
        <time>2021-08-24T09:43:16Z</time>
      </trkpt>
      <trkpt lat="44.08598" lon="6.03043">
        <ele>554.8</ele>
        <time>2021-08-24T09:43:18Z</time>
      </trkpt>
      <trkpt lat="44.08591" lon="6.03039">
        <ele>553</ele>
        <time>2021-08-24T09:43:20Z</time>
      </trkpt>
      <trkpt lat="44.08588" lon="6.03036">
        <ele>552.2</ele>
        <time>2021-08-24T09:43:21Z</time>
      </trkpt>
      <trkpt lat="44.08588" lon="6.03032">
        <ele>551.6</ele>
        <time>2021-08-24T09:43:22Z</time>
      </trkpt>
      <trkpt lat="44.0859" lon="6.03023">
        <ele>550.2</ele>
        <time>2021-08-24T09:43:24Z</time>
      </trkpt>
      <trkpt lat="44.08591" lon="6.03018">
        <ele>549.2</ele>
        <time>2021-08-24T09:43:25Z</time>
      </trkpt>
      <trkpt lat="44.08592" lon="6.03013">
        <ele>548</ele>
        <time>2021-08-24T09:43:26Z</time>
      </trkpt>
      <trkpt lat="44.08595" lon="6.03008">
        <ele>547</ele>
        <time>2021-08-24T09:43:27Z</time>
      </trkpt>
      <trkpt lat="44.08597" lon="6.03003">
        <ele>546.2</ele>
        <time>2021-08-24T09:43:28Z</time>
      </trkpt>
      <trkpt lat="44.08601" lon="6.02999">
        <ele>545.6</ele>
        <time>2021-08-24T09:43:29Z</time>
      </trkpt>
      <trkpt lat="44.08605" lon="6.02995">
        <ele>544.8</ele>
        <time>2021-08-24T09:43:30Z</time>
      </trkpt>
      <trkpt lat="44.08608" lon="6.0299">
        <ele>544</ele>
        <time>2021-08-24T09:43:31Z</time>
      </trkpt>
      <trkpt lat="44.08615" lon="6.02976">
        <ele>542.8</ele>
        <time>2021-08-24T09:43:34Z</time>
      </trkpt>
      <trkpt lat="44.08616" lon="6.02964">
        <ele>542.4</ele>
        <time>2021-08-24T09:43:36Z</time>
      </trkpt>
      <trkpt lat="44.08619" lon="6.02953">
        <ele>541.2</ele>
        <time>2021-08-24T09:43:38Z</time>
      </trkpt>
      <trkpt lat="44.0862" lon="6.02949">
        <ele>540.2</ele>
        <time>2021-08-24T09:43:39Z</time>
      </trkpt>
      <trkpt lat="44.0862" lon="6.02945">
        <ele>539.2</ele>
        <time>2021-08-24T09:43:40Z</time>
      </trkpt>
      <trkpt lat="44.08617" lon="6.02939">
        <ele>537.4</ele>
        <time>2021-08-24T09:43:42Z</time>
      </trkpt>
      <trkpt lat="44.08612" lon="6.02933">
        <ele>535.4</ele>
        <time>2021-08-24T09:43:44Z</time>
      </trkpt>
      <trkpt lat="44.08612" lon="6.02929">
        <ele>534.2</ele>
        <time>2021-08-24T09:43:45Z</time>
      </trkpt>
      <trkpt lat="44.08616" lon="6.02922">
        <ele>532.4</ele>
        <time>2021-08-24T09:43:47Z</time>
      </trkpt>
      <trkpt lat="44.0862" lon="6.02913">
        <ele>530.8</ele>
        <time>2021-08-24T09:43:49Z</time>
      </trkpt>
      <trkpt lat="44.08623" lon="6.02908">
        <ele>529.8</ele>
        <time>2021-08-24T09:43:50Z</time>
      </trkpt>
      <trkpt lat="44.08625" lon="6.02904">
        <ele>529</ele>
        <time>2021-08-24T09:43:51Z</time>
      </trkpt>
      <trkpt lat="44.08627" lon="6.02899">
        <ele>528.2</ele>
        <time>2021-08-24T09:43:52Z</time>
      </trkpt>
      <trkpt lat="44.08627" lon="6.02896">
        <ele>527.2</ele>
        <time>2021-08-24T09:43:53Z</time>
      </trkpt>
      <trkpt lat="44.08627" lon="6.02892">
        <ele>526</ele>
        <time>2021-08-24T09:43:54Z</time>
      </trkpt>
      <trkpt lat="44.08628" lon="6.02888">
        <ele>524.8</ele>
        <time>2021-08-24T09:43:55Z</time>
      </trkpt>
      <trkpt lat="44.08633" lon="6.02878">
        <ele>523.2</ele>
        <time>2021-08-24T09:43:57Z</time>
      </trkpt>
      <trkpt lat="44.08634" lon="6.02871">
        <ele>521.2</ele>
        <time>2021-08-24T09:43:59Z</time>
      </trkpt>
      <trkpt lat="44.08632" lon="6.02869">
        <ele>520.4</ele>
        <time>2021-08-24T09:44:00Z</time>
      </trkpt>
      <trkpt lat="44.08629" lon="6.02867">
        <ele>520</ele>
        <time>2021-08-24T09:44:01Z</time>
      </trkpt>
      <trkpt lat="44.08627" lon="6.02864">
        <ele>519.4</ele>
        <time>2021-08-24T09:44:02Z</time>
      </trkpt>
      <trkpt lat="44.08626" lon="6.0286">
        <ele>518.4</ele>
        <time>2021-08-24T09:44:03Z</time>
      </trkpt>
      <trkpt lat="44.08627" lon="6.02856">
        <ele>517.4</ele>
        <time>2021-08-24T09:44:04Z</time>
      </trkpt>
      <trkpt lat="44.0863" lon="6.02851">
        <ele>516.4</ele>
        <time>2021-08-24T09:44:05Z</time>
      </trkpt>
      <trkpt lat="44.08632" lon="6.02845">
        <ele>515.4</ele>
        <time>2021-08-24T09:44:06Z</time>
      </trkpt>
      <trkpt lat="44.08633" lon="6.0284">
        <ele>514.2</ele>
        <time>2021-08-24T09:44:07Z</time>
      </trkpt>
      <trkpt lat="44.08632" lon="6.02835">
        <ele>512.8</ele>
        <time>2021-08-24T09:44:08Z</time>
      </trkpt>
      <trkpt lat="44.08631" lon="6.0283">
        <ele>511.4</ele>
        <time>2021-08-24T09:44:09Z</time>
      </trkpt>
      <trkpt lat="44.0863" lon="6.02826">
        <ele>510</ele>
        <time>2021-08-24T09:44:10Z</time>
      </trkpt>
      <trkpt lat="44.08629" lon="6.02823">
        <ele>508.8</ele>
        <time>2021-08-24T09:44:11Z</time>
      </trkpt>
      <trkpt lat="44.08627" lon="6.02821">
        <ele>507.8</ele>
        <time>2021-08-24T09:44:12Z</time>
      </trkpt>
      <trkpt lat="44.08624" lon="6.0282">
        <ele>506.6</ele>
        <time>2021-08-24T09:44:13Z</time>
      </trkpt>
      <trkpt lat="44.08616" lon="6.0282">
        <ele>505</ele>
        <time>2021-08-24T09:44:15Z</time>
      </trkpt>
      <trkpt lat="44.08608" lon="6.02821">
        <ele>503.6</ele>
        <time>2021-08-24T09:44:17Z</time>
      </trkpt>
      <trkpt lat="44.08601" lon="6.02821">
        <ele>502</ele>
        <time>2021-08-24T09:44:19Z</time>
      </trkpt>
      <trkpt lat="44.08597" lon="6.02821">
        <ele>501.2</ele>
        <time>2021-08-24T09:44:20Z</time>
      </trkpt>
      <trkpt lat="44.08594" lon="6.02821">
        <ele>500.2</ele>
        <time>2021-08-24T09:44:21Z</time>
      </trkpt>
      <trkpt lat="44.08587" lon="6.0282">
        <ele>498.2</ele>
        <time>2021-08-24T09:44:23Z</time>
      </trkpt>
      <trkpt lat="44.08584" lon="6.0282">
        <ele>497.2</ele>
        <time>2021-08-24T09:44:24Z</time>
      </trkpt>
      <trkpt lat="44.08581" lon="6.0282">
        <ele>496</ele>
        <time>2021-08-24T09:44:25Z</time>
      </trkpt>
      <trkpt lat="44.08578" lon="6.0282">
        <ele>495</ele>
        <time>2021-08-24T09:44:26Z</time>
      </trkpt>
      <trkpt lat="44.08575" lon="6.02818">
        <ele>494</ele>
        <time>2021-08-24T09:44:27Z</time>
      </trkpt>
      <trkpt lat="44.08571" lon="6.02812">
        <ele>492.2</ele>
        <time>2021-08-24T09:44:29Z</time>
      </trkpt>
      <trkpt lat="44.0857" lon="6.02809">
        <ele>491.6</ele>
        <time>2021-08-24T09:44:30Z</time>
      </trkpt>
      <trkpt lat="44.08569" lon="6.02806">
        <ele>490.6</ele>
        <time>2021-08-24T09:44:31Z</time>
      </trkpt>
      <trkpt lat="44.08569" lon="6.02803">
        <ele>489.2</ele>
        <time>2021-08-24T09:44:32Z</time>
      </trkpt>
      <trkpt lat="44.08569" lon="6.02802">
        <ele>487.6</ele>
        <time>2021-08-24T09:44:33Z</time>
      </trkpt>
      <trkpt lat="44.08568" lon="6.02801">
        <ele>486.4</ele>
        <time>2021-08-24T09:44:34Z</time>
      </trkpt>
      <trkpt lat="44.08568" lon="6.02799">
        <ele>485.2</ele>
        <time>2021-08-24T09:44:36Z</time>
      </trkpt>
      <trkpt lat="44.08568" lon="6.02796">
        <ele>484.8</ele>
        <time>2021-08-24T09:44:37Z</time>
      </trkpt>
      <trkpt lat="44.08568" lon="6.0279">
        <ele>483.6</ele>
        <time>2021-08-24T09:44:39Z</time>
      </trkpt>
      <trkpt lat="44.08569" lon="6.02786">
        <ele>483.2</ele>
        <time>2021-08-24T09:44:40Z</time>
      </trkpt>
      <trkpt lat="44.0857" lon="6.0278">
        <ele>482.2</ele>
        <time>2021-08-24T09:44:42Z</time>
      </trkpt>
      <trkpt lat="44.0857" lon="6.02769">
        <ele>481.2</ele>
        <time>2021-08-24T09:44:44Z</time>
      </trkpt>
      <trkpt lat="44.08568" lon="6.02759">
        <ele>479.8</ele>
        <time>2021-08-24T09:44:47Z</time>
      </trkpt>
      <trkpt lat="44.08566" lon="6.0275">
        <ele>479.2</ele>
        <time>2021-08-24T09:44:50Z</time>
      </trkpt>
      <trkpt lat="44.08564" lon="6.0274">
        <ele>478.6</ele>
        <time>2021-08-24T09:44:52Z</time>
      </trkpt>
      <trkpt lat="44.08562" lon="6.02729">
        <ele>477.6</ele>
        <time>2021-08-24T09:44:54Z</time>
      </trkpt>
      <trkpt lat="44.08564" lon="6.02712">
        <ele>476.2</ele>
        <time>2021-08-24T09:44:56Z</time>
      </trkpt>
      <trkpt lat="44.08566" lon="6.02695">
        <ele>474.4</ele>
        <time>2021-08-24T09:44:58Z</time>
      </trkpt>
      <trkpt lat="44.08568" lon="6.02687">
        <ele>473.2</ele>
        <time>2021-08-24T09:44:59Z</time>
      </trkpt>
      <trkpt lat="44.08569" lon="6.02679">
        <ele>472.2</ele>
        <time>2021-08-24T09:45:00Z</time>
      </trkpt>
      <trkpt lat="44.08571" lon="6.02671">
        <ele>471</ele>
        <time>2021-08-24T09:45:01Z</time>
      </trkpt>
      <trkpt lat="44.08572" lon="6.02663">
        <ele>469.8</ele>
        <time>2021-08-24T09:45:02Z</time>
      </trkpt>
      <trkpt lat="44.08573" lon="6.02656">
        <ele>468.6</ele>
        <time>2021-08-24T09:45:03Z</time>
      </trkpt>
      <trkpt lat="44.08574" lon="6.02649">
        <ele>467.6</ele>
        <time>2021-08-24T09:45:04Z</time>
      </trkpt>
      <trkpt lat="44.08576" lon="6.02641">
        <ele>466.6</ele>
        <time>2021-08-24T09:45:05Z</time>
      </trkpt>
      <trkpt lat="44.08579" lon="6.02633">
        <ele>465.4</ele>
        <time>2021-08-24T09:45:06Z</time>
      </trkpt>
      <trkpt lat="44.08581" lon="6.02625">
        <ele>464.4</ele>
        <time>2021-08-24T09:45:07Z</time>
      </trkpt>
      <trkpt lat="44.08584" lon="6.02619">
        <ele>463.2</ele>
        <time>2021-08-24T09:45:08Z</time>
      </trkpt>
      <trkpt lat="44.08586" lon="6.02612">
        <ele>462</ele>
        <time>2021-08-24T09:45:09Z</time>
      </trkpt>
      <trkpt lat="44.08587" lon="6.02606">
        <ele>460.8</ele>
        <time>2021-08-24T09:45:10Z</time>
      </trkpt>
      <trkpt lat="44.08589" lon="6.026">
        <ele>460</ele>
        <time>2021-08-24T09:45:11Z</time>
      </trkpt>
      <trkpt lat="44.08592" lon="6.02595">
        <ele>459.4</ele>
        <time>2021-08-24T09:45:12Z</time>
      </trkpt>
      <trkpt lat="44.086" lon="6.02587">
        <ele>458</ele>
        <time>2021-08-24T09:45:14Z</time>
      </trkpt>
      <trkpt lat="44.08603" lon="6.02583">
        <ele>457.2</ele>
        <time>2021-08-24T09:45:15Z</time>
      </trkpt>
      <trkpt lat="44.08605" lon="6.02578">
        <ele>456.4</ele>
        <time>2021-08-24T09:45:16Z</time>
      </trkpt>
      <trkpt lat="44.08605" lon="6.02567">
        <ele>454.8</ele>
        <time>2021-08-24T09:45:18Z</time>
      </trkpt>
      <trkpt lat="44.08603" lon="6.02557">
        <ele>454</ele>
        <time>2021-08-24T09:45:20Z</time>
      </trkpt>
      <trkpt lat="44.086" lon="6.02551">
        <ele>453.6</ele>
        <time>2021-08-24T09:45:21Z</time>
      </trkpt>
      <trkpt lat="44.08593" lon="6.02536">
        <ele>452.6</ele>
        <time>2021-08-24T09:45:24Z</time>
      </trkpt>
      <trkpt lat="44.08587" lon="6.02529">
        <ele>451.8</ele>
        <time>2021-08-24T09:45:26Z</time>
      </trkpt>
      <trkpt lat="44.0858" lon="6.0252">
        <ele>451.4</ele>
        <time>2021-08-24T09:45:28Z</time>
      </trkpt>
      <trkpt lat="44.08576" lon="6.02508">
        <ele>451</ele>
        <time>2021-08-24T09:45:30Z</time>
      </trkpt>
      <trkpt lat="44.08578" lon="6.02484">
        <ele>450.4</ele>
        <time>2021-08-24T09:45:33Z</time>
      </trkpt>
      <trkpt lat="44.08583" lon="6.02456">
        <ele>449.4</ele>
        <time>2021-08-24T09:45:36Z</time>
      </trkpt>
      <trkpt lat="44.08586" lon="6.02434">
        <ele>448.6</ele>
        <time>2021-08-24T09:45:38Z</time>
      </trkpt>
      <trkpt lat="44.08586" lon="6.02423">
        <ele>448</ele>
        <time>2021-08-24T09:45:39Z</time>
      </trkpt>
      <trkpt lat="44.08586" lon="6.02413">
        <ele>447.4</ele>
        <time>2021-08-24T09:45:40Z</time>
      </trkpt>
      <trkpt lat="44.08585" lon="6.02404">
        <ele>446.8</ele>
        <time>2021-08-24T09:45:41Z</time>
      </trkpt>
      <trkpt lat="44.08585" lon="6.02396">
        <ele>446.2</ele>
        <time>2021-08-24T09:45:42Z</time>
      </trkpt>
      <trkpt lat="44.08583" lon="6.02389">
        <ele>445.6</ele>
        <time>2021-08-24T09:45:43Z</time>
      </trkpt>
      <trkpt lat="44.08579" lon="6.02383">
        <ele>445</ele>
        <time>2021-08-24T09:45:44Z</time>
      </trkpt>
      <trkpt lat="44.08575" lon="6.02377">
        <ele>444.2</ele>
        <time>2021-08-24T09:45:45Z</time>
      </trkpt>
      <trkpt lat="44.08564" lon="6.02365">
        <ele>443</ele>
        <time>2021-08-24T09:45:47Z</time>
      </trkpt>
      <trkpt lat="44.08547" lon="6.02346">
        <ele>442</ele>
        <time>2021-08-24T09:45:50Z</time>
      </trkpt>
      <trkpt lat="44.08541" lon="6.02339">
        <ele>441.6</ele>
        <time>2021-08-24T09:45:51Z</time>
      </trkpt>
      <trkpt lat="44.08534" lon="6.0233">
        <ele>440</ele>
        <time>2021-08-24T09:45:53Z</time>
      </trkpt>
      <trkpt lat="44.0853" lon="6.02317">
        <ele>439</ele>
        <time>2021-08-24T09:45:55Z</time>
      </trkpt>
      <trkpt lat="44.08528" lon="6.02287">
        <ele>437.8</ele>
        <time>2021-08-24T09:45:59Z</time>
      </trkpt>
      <trkpt lat="44.08528" lon="6.0228">
        <ele>437.4</ele>
        <time>2021-08-24T09:46:00Z</time>
      </trkpt>
      <trkpt lat="44.08527" lon="6.02266">
        <ele>436.6</ele>
        <time>2021-08-24T09:46:02Z</time>
      </trkpt>
      <trkpt lat="44.08526" lon="6.02251">
        <ele>435.6</ele>
        <time>2021-08-24T09:46:05Z</time>
      </trkpt>
      <trkpt lat="44.08527" lon="6.02242">
        <ele>434.2</ele>
        <time>2021-08-24T09:46:07Z</time>
      </trkpt>
      <trkpt lat="44.08528" lon="6.02227">
        <ele>432.8</ele>
        <time>2021-08-24T09:46:10Z</time>
      </trkpt>
      <trkpt lat="44.0853" lon="6.02208">
        <ele>431.6</ele>
        <time>2021-08-24T09:46:13Z</time>
      </trkpt>
      <trkpt lat="44.08529" lon="6.022">
        <ele>431.2</ele>
        <time>2021-08-24T09:46:14Z</time>
      </trkpt>
      <trkpt lat="44.08528" lon="6.02192">
        <ele>430.6</ele>
        <time>2021-08-24T09:46:15Z</time>
      </trkpt>
      <trkpt lat="44.08526" lon="6.0217">
        <ele>429.6</ele>
        <time>2021-08-24T09:46:18Z</time>
      </trkpt>
      <trkpt lat="44.08523" lon="6.02153">
        <ele>429</ele>
        <time>2021-08-24T09:46:20Z</time>
      </trkpt>
      <trkpt lat="44.08522" lon="6.02132">
        <ele>428.6</ele>
        <time>2021-08-24T09:46:25Z</time>
      </trkpt>
      <trkpt lat="44.08526" lon="6.02134">
        <ele>428</ele>
        <time>2021-08-24T09:46:30Z</time>
      </trkpt>
      <trkpt lat="44.08535" lon="6.02136">
        <ele>427.8</ele>
        <time>2021-08-24T09:46:34Z</time>
      </trkpt>
      <trkpt lat="44.0855" lon="6.02133">
        <ele>427.6</ele>
        <time>2021-08-24T09:46:40Z</time>
      </trkpt>
      <trkpt lat="44.08569" lon="6.02134">
        <ele>427.6</ele>
        <time>2021-08-24T09:46:48Z</time>
      </trkpt>
      <trkpt lat="44.08575" lon="6.02134">
        <ele>427.6</ele>
        <time>2021-08-24T09:46:50Z</time>
      </trkpt>
      <trkpt lat="44.0858" lon="6.02133">
        <ele>427.6</ele>
        <time>2021-08-24T09:46:52Z</time>
      </trkpt>
      <trkpt lat="44.08594" lon="6.02131">
        <ele>427.8</ele>
        <time>2021-08-24T09:46:58Z</time>
      </trkpt>
      <trkpt lat="44.086" lon="6.02132">
        <ele>428</ele>
        <time>2021-08-24T09:47:00Z</time>
      </trkpt>
      <trkpt lat="44.08628" lon="6.02129">
        <ele>428.4</ele>
        <time>2021-08-24T09:47:10Z</time>
      </trkpt>
      <trkpt lat="44.08654" lon="6.02131">
        <ele>428.6</ele>
        <time>2021-08-24T09:47:18Z</time>
      </trkpt>
      <trkpt lat="44.08656" lon="6.02131">
        <ele>428.6</ele>
        <time>2021-08-24T09:47:20Z</time>
      </trkpt>
      <trkpt lat="44.08656" lon="6.02131">
        <ele>428.2</ele>
        <time>2021-08-24T09:47:30Z</time>
      </trkpt>
      <trkpt lat="44.08666" lon="6.02127">
        <ele>428.2</ele>
        <time>2021-08-24T09:47:37Z</time>
      </trkpt>
      <trkpt lat="44.08675" lon="6.02128">
        <ele>428.4</ele>
        <time>2021-08-24T09:47:40Z</time>
      </trkpt>
      <trkpt lat="44.08714" lon="6.02126">
        <ele>427.6</ele>
        <time>2021-08-24T09:47:50Z</time>
      </trkpt>
      <trkpt lat="44.08718" lon="6.02126">
        <ele>427.6</ele>
        <time>2021-08-24T09:47:51Z</time>
      </trkpt>
      <trkpt lat="44.08753" lon="6.02124">
        <ele>427.2</ele>
        <time>2021-08-24T09:48:00Z</time>
      </trkpt>
      <trkpt lat="44.08799" lon="6.02118">
        <ele>426.2</ele>
        <time>2021-08-24T09:48:10Z</time>
      </trkpt>
      <trkpt lat="44.08823" lon="6.02112">
        <ele>425</ele>
        <time>2021-08-24T09:48:14Z</time>
      </trkpt>
      <trkpt lat="44.08835" lon="6.0211">
        <ele>423.8</ele>
        <time>2021-08-24T09:48:17Z</time>
      </trkpt>
      <trkpt lat="44.08843" lon="6.02107">
        <ele>423.6</ele>
        <time>2021-08-24T09:48:19Z</time>
      </trkpt>
      <trkpt lat="44.08847" lon="6.02107">
        <ele>423.4</ele>
        <time>2021-08-24T09:48:20Z</time>
      </trkpt>
      <trkpt lat="44.08866" lon="6.02108">
        <ele>422.8</ele>
        <time>2021-08-24T09:48:24Z</time>
      </trkpt>
      <trkpt lat="44.08894" lon="6.02118">
        <ele>421.8</ele>
        <time>2021-08-24T09:48:30Z</time>
      </trkpt>
      <trkpt lat="44.08899" lon="6.02119">
        <ele>421.6</ele>
        <time>2021-08-24T09:48:31Z</time>
      </trkpt>
      <trkpt lat="44.08927" lon="6.02122">
        <ele>421.6</ele>
        <time>2021-08-24T09:48:36Z</time>
      </trkpt>
      <trkpt lat="44.08948" lon="6.02127">
        <ele>421.4</ele>
        <time>2021-08-24T09:48:40Z</time>
      </trkpt>
      <trkpt lat="44.08968" lon="6.02138">
        <ele>421.4</ele>
        <time>2021-08-24T09:48:44Z</time>
      </trkpt>
      <trkpt lat="44.08993" lon="6.02146">
        <ele>421.4</ele>
        <time>2021-08-24T09:48:49Z</time>
      </trkpt>
      <trkpt lat="44.08998" lon="6.02147">
        <ele>421.4</ele>
        <time>2021-08-24T09:48:50Z</time>
      </trkpt>
      <trkpt lat="44.09043" lon="6.02165">
        <ele>420.8</ele>
        <time>2021-08-24T09:49:00Z</time>
      </trkpt>
      <trkpt lat="44.09087" lon="6.02178">
        <ele>420.8</ele>
        <time>2021-08-24T09:49:10Z</time>
      </trkpt>
      <trkpt lat="44.09106" lon="6.02181">
        <ele>420.6</ele>
        <time>2021-08-24T09:49:14Z</time>
      </trkpt>
      <trkpt lat="44.09131" lon="6.02182">
        <ele>420.8</ele>
        <time>2021-08-24T09:49:20Z</time>
      </trkpt>
      <trkpt lat="44.09145" lon="6.02182">
        <ele>421.8</ele>
        <time>2021-08-24T09:49:24Z</time>
      </trkpt>
      <trkpt lat="44.09163" lon="6.02186">
        <ele>422.4</ele>
        <time>2021-08-24T09:49:30Z</time>
      </trkpt>
      <trkpt lat="44.09171" lon="6.02187">
        <ele>422.8</ele>
        <time>2021-08-24T09:49:33Z</time>
      </trkpt>
      <trkpt lat="44.09191" lon="6.02182">
        <ele>423</ele>
        <time>2021-08-24T09:49:40Z</time>
      </trkpt>
      <trkpt lat="44.09198" lon="6.02181">
        <ele>422.8</ele>
        <time>2021-08-24T09:49:42Z</time>
      </trkpt>
      <trkpt lat="44.09201" lon="6.02179">
        <ele>422.8</ele>
        <time>2021-08-24T09:49:43Z</time>
      </trkpt>
      <trkpt lat="44.09205" lon="6.02178">
        <ele>422.6</ele>
        <time>2021-08-24T09:49:44Z</time>
      </trkpt>
      <trkpt lat="44.09226" lon="6.0217">
        <ele>422.4</ele>
        <time>2021-08-24T09:49:50Z</time>
      </trkpt>
      <trkpt lat="44.09262" lon="6.02169">
        <ele>422.2</ele>
        <time>2021-08-24T09:50:00Z</time>
      </trkpt>
      <trkpt lat="44.09282" lon="6.02166">
        <ele>421.6</ele>
        <time>2021-08-24T09:50:08Z</time>
      </trkpt>
      <trkpt lat="44.09284" lon="6.02166">
        <ele>421.4</ele>
        <time>2021-08-24T09:50:10Z</time>
      </trkpt>
      <trkpt lat="44.09284" lon="6.02165">
        <ele>421.2</ele>
        <time>2021-08-24T09:50:12Z</time>
      </trkpt>
    </trkseg>
  </trk>
</gpx>